<?xml version="1.0" encoding="UTF-8" standalone="no" ?>
<gpx xmlns="http://www.topografix.com/GPX/1/1" xmlns:xsi="http://www.w3.org/2001/XMLSchema-instance" xsi:schemaLocation="http://www.topografix.com/GPX/1/1 http://www.topografix.com/GPX/1/1/gpx.xsd" version="1.1" creator="VisuGPX - https://www.visugpx.com">
  <metadata>
    <name>Carnoules Gravel bike</name>
    <desc><![CDATA[Rando top.
Début un peu raide, on doit pouvoir l?éviter par Carnoules plus au sud.
Pour le reste, c?est top!]]></desc>
  </metadata>
  <trk>
    <name><![CDATA[Carnoules Gravel bike_1]]></name>
    <trkseg>
      <trkpt lat="43.31118" lon="6.18423">
        <ele>239.2</ele>
        <time>2022-05-26T07:05:59Z</time>
      </trkpt>
      <trkpt lat="43.31117" lon="6.18423">
        <ele>242.4</ele>
        <time>2022-05-26T07:06:00Z</time>
      </trkpt>
      <trkpt lat="43.31117" lon="6.18423">
        <ele>244</ele>
        <time>2022-05-26T07:06:02Z</time>
      </trkpt>
      <trkpt lat="43.31118" lon="6.18424">
        <ele>244.4</ele>
        <time>2022-05-26T07:06:08Z</time>
      </trkpt>
      <trkpt lat="43.31117" lon="6.18424">
        <ele>244.8</ele>
        <time>2022-05-26T07:06:22Z</time>
      </trkpt>
      <trkpt lat="43.31117" lon="6.18424">
        <ele>244.8</ele>
        <time>2022-05-26T07:06:25Z</time>
      </trkpt>
      <trkpt lat="43.31119" lon="6.18421">
        <ele>244.8</ele>
        <time>2022-05-26T07:06:29Z</time>
      </trkpt>
      <trkpt lat="43.3112" lon="6.18416">
        <ele>244.8</ele>
        <time>2022-05-26T07:06:31Z</time>
      </trkpt>
      <trkpt lat="43.31125" lon="6.18407">
        <ele>244.8</ele>
        <time>2022-05-26T07:06:34Z</time>
      </trkpt>
      <trkpt lat="43.3113" lon="6.18397">
        <ele>244.8</ele>
        <time>2022-05-26T07:06:37Z</time>
      </trkpt>
      <trkpt lat="43.31137" lon="6.18383">
        <ele>245</ele>
        <time>2022-05-26T07:06:41Z</time>
      </trkpt>
      <trkpt lat="43.31144" lon="6.18373">
        <ele>245.2</ele>
        <time>2022-05-26T07:06:44Z</time>
      </trkpt>
      <trkpt lat="43.3116" lon="6.18352">
        <ele>245.8</ele>
        <time>2022-05-26T07:06:51Z</time>
      </trkpt>
      <trkpt lat="43.31169" lon="6.18343">
        <ele>246</ele>
        <time>2022-05-26T07:06:54Z</time>
      </trkpt>
      <trkpt lat="43.31182" lon="6.1833">
        <ele>246.6</ele>
        <time>2022-05-26T07:06:59Z</time>
      </trkpt>
      <trkpt lat="43.31192" lon="6.18323">
        <ele>247</ele>
        <time>2022-05-26T07:07:03Z</time>
      </trkpt>
      <trkpt lat="43.31197" lon="6.1832">
        <ele>247.2</ele>
        <time>2022-05-26T07:07:05Z</time>
      </trkpt>
      <trkpt lat="43.31204" lon="6.18315">
        <ele>247.6</ele>
        <time>2022-05-26T07:07:10Z</time>
      </trkpt>
      <trkpt lat="43.31223" lon="6.18307">
        <ele>248</ele>
        <time>2022-05-26T07:07:17Z</time>
      </trkpt>
      <trkpt lat="43.31225" lon="6.18305">
        <ele>248.2</ele>
        <time>2022-05-26T07:07:18Z</time>
      </trkpt>
      <trkpt lat="43.3124" lon="6.18291">
        <ele>248.8</ele>
        <time>2022-05-26T07:07:24Z</time>
      </trkpt>
      <trkpt lat="43.3126" lon="6.18267">
        <ele>248.8</ele>
        <time>2022-05-26T07:07:32Z</time>
      </trkpt>
      <trkpt lat="43.31272" lon="6.18256">
        <ele>249</ele>
        <time>2022-05-26T07:07:37Z</time>
      </trkpt>
      <trkpt lat="43.31277" lon="6.18252">
        <ele>249.2</ele>
        <time>2022-05-26T07:07:39Z</time>
      </trkpt>
      <trkpt lat="43.31285" lon="6.18244">
        <ele>249.4</ele>
        <time>2022-05-26T07:07:42Z</time>
      </trkpt>
      <trkpt lat="43.313" lon="6.18228">
        <ele>250</ele>
        <time>2022-05-26T07:07:48Z</time>
      </trkpt>
      <trkpt lat="43.31306" lon="6.18223">
        <ele>250.2</ele>
        <time>2022-05-26T07:07:50Z</time>
      </trkpt>
      <trkpt lat="43.31313" lon="6.18215">
        <ele>250.6</ele>
        <time>2022-05-26T07:07:53Z</time>
      </trkpt>
      <trkpt lat="43.31317" lon="6.18208">
        <ele>251</ele>
        <time>2022-05-26T07:07:55Z</time>
      </trkpt>
      <trkpt lat="43.31321" lon="6.182">
        <ele>251.2</ele>
        <time>2022-05-26T07:07:57Z</time>
      </trkpt>
      <trkpt lat="43.3133" lon="6.18179">
        <ele>251.8</ele>
        <time>2022-05-26T07:08:02Z</time>
      </trkpt>
      <trkpt lat="43.31341" lon="6.18143">
        <ele>252</ele>
        <time>2022-05-26T07:08:10Z</time>
      </trkpt>
      <trkpt lat="43.31347" lon="6.18134">
        <ele>252.2</ele>
        <time>2022-05-26T07:08:13Z</time>
      </trkpt>
      <trkpt lat="43.31353" lon="6.18117">
        <ele>252.6</ele>
        <time>2022-05-26T07:08:17Z</time>
      </trkpt>
      <trkpt lat="43.31357" lon="6.18096">
        <ele>253</ele>
        <time>2022-05-26T07:08:22Z</time>
      </trkpt>
      <trkpt lat="43.31358" lon="6.18092">
        <ele>253.2</ele>
        <time>2022-05-26T07:08:23Z</time>
      </trkpt>
      <trkpt lat="43.31358" lon="6.18088">
        <ele>253.4</ele>
        <time>2022-05-26T07:08:24Z</time>
      </trkpt>
      <trkpt lat="43.31359" lon="6.1807">
        <ele>253.8</ele>
        <time>2022-05-26T07:08:28Z</time>
      </trkpt>
      <trkpt lat="43.31357" lon="6.18036">
        <ele>254.2</ele>
        <time>2022-05-26T07:08:35Z</time>
      </trkpt>
      <trkpt lat="43.31356" lon="6.18031">
        <ele>254.4</ele>
        <time>2022-05-26T07:08:36Z</time>
      </trkpt>
      <trkpt lat="43.31354" lon="6.1801">
        <ele>254.8</ele>
        <time>2022-05-26T07:08:40Z</time>
      </trkpt>
      <trkpt lat="43.31355" lon="6.18006">
        <ele>254.8</ele>
        <time>2022-05-26T07:08:41Z</time>
      </trkpt>
      <trkpt lat="43.31356" lon="6.17985">
        <ele>255.6</ele>
        <time>2022-05-26T07:08:45Z</time>
      </trkpt>
      <trkpt lat="43.31356" lon="6.17977">
        <ele>255.8</ele>
        <time>2022-05-26T07:08:47Z</time>
      </trkpt>
      <trkpt lat="43.31348" lon="6.17948">
        <ele>256.4</ele>
        <time>2022-05-26T07:08:53Z</time>
      </trkpt>
      <trkpt lat="43.31342" lon="6.17924">
        <ele>256.6</ele>
        <time>2022-05-26T07:08:58Z</time>
      </trkpt>
      <trkpt lat="43.31341" lon="6.17918">
        <ele>256.4</ele>
        <time>2022-05-26T07:08:59Z</time>
      </trkpt>
      <trkpt lat="43.31333" lon="6.17899">
        <ele>256.8</ele>
        <time>2022-05-26T07:09:04Z</time>
      </trkpt>
      <trkpt lat="43.31325" lon="6.17897">
        <ele>257</ele>
        <time>2022-05-26T07:09:08Z</time>
      </trkpt>
      <trkpt lat="43.31323" lon="6.17897">
        <ele>257</ele>
        <time>2022-05-26T07:09:12Z</time>
      </trkpt>
      <trkpt lat="43.31323" lon="6.17901">
        <ele>257</ele>
        <time>2022-05-26T07:09:15Z</time>
      </trkpt>
      <trkpt lat="43.31323" lon="6.17907">
        <ele>257</ele>
        <time>2022-05-26T07:09:18Z</time>
      </trkpt>
      <trkpt lat="43.31323" lon="6.17922">
        <ele>257.2</ele>
        <time>2022-05-26T07:09:24Z</time>
      </trkpt>
      <trkpt lat="43.31322" lon="6.17933">
        <ele>257.4</ele>
        <time>2022-05-26T07:09:28Z</time>
      </trkpt>
      <trkpt lat="43.31321" lon="6.17939">
        <ele>258.2</ele>
        <time>2022-05-26T07:09:31Z</time>
      </trkpt>
      <trkpt lat="43.3132" lon="6.1794">
        <ele>258.6</ele>
        <time>2022-05-26T07:09:32Z</time>
      </trkpt>
      <trkpt lat="43.31319" lon="6.17942">
        <ele>258.8</ele>
        <time>2022-05-26T07:09:33Z</time>
      </trkpt>
      <trkpt lat="43.31319" lon="6.17946">
        <ele>259.4</ele>
        <time>2022-05-26T07:09:36Z</time>
      </trkpt>
      <trkpt lat="43.31319" lon="6.17948">
        <ele>259.8</ele>
        <time>2022-05-26T07:09:37Z</time>
      </trkpt>
      <trkpt lat="43.31319" lon="6.1795">
        <ele>260</ele>
        <time>2022-05-26T07:09:39Z</time>
      </trkpt>
      <trkpt lat="43.31321" lon="6.17956">
        <ele>260.6</ele>
        <time>2022-05-26T07:09:42Z</time>
      </trkpt>
      <trkpt lat="43.31321" lon="6.17958">
        <ele>260.8</ele>
        <time>2022-05-26T07:09:43Z</time>
      </trkpt>
      <trkpt lat="43.31321" lon="6.17963">
        <ele>261.2</ele>
        <time>2022-05-26T07:09:45Z</time>
      </trkpt>
      <trkpt lat="43.3132" lon="6.17966">
        <ele>261.2</ele>
        <time>2022-05-26T07:09:47Z</time>
      </trkpt>
      <trkpt lat="43.31317" lon="6.17975">
        <ele>261.8</ele>
        <time>2022-05-26T07:09:51Z</time>
      </trkpt>
      <trkpt lat="43.31316" lon="6.17979">
        <ele>262</ele>
        <time>2022-05-26T07:09:53Z</time>
      </trkpt>
      <trkpt lat="43.31314" lon="6.17981">
        <ele>262.4</ele>
        <time>2022-05-26T07:09:54Z</time>
      </trkpt>
      <trkpt lat="43.31313" lon="6.17983">
        <ele>262.8</ele>
        <time>2022-05-26T07:09:55Z</time>
      </trkpt>
      <trkpt lat="43.31306" lon="6.17991">
        <ele>263.8</ele>
        <time>2022-05-26T07:10:00Z</time>
      </trkpt>
      <trkpt lat="43.31303" lon="6.17993">
        <ele>264</ele>
        <time>2022-05-26T07:10:02Z</time>
      </trkpt>
      <trkpt lat="43.31301" lon="6.17994">
        <ele>264.2</ele>
        <time>2022-05-26T07:10:03Z</time>
      </trkpt>
      <trkpt lat="43.31298" lon="6.17998">
        <ele>264.8</ele>
        <time>2022-05-26T07:10:06Z</time>
      </trkpt>
      <trkpt lat="43.31292" lon="6.18001">
        <ele>265.4</ele>
        <time>2022-05-26T07:10:10Z</time>
      </trkpt>
      <trkpt lat="43.3129" lon="6.18003">
        <ele>266.2</ele>
        <time>2022-05-26T07:10:13Z</time>
      </trkpt>
      <trkpt lat="43.31287" lon="6.18003">
        <ele>267.2</ele>
        <time>2022-05-26T07:10:17Z</time>
      </trkpt>
      <trkpt lat="43.31287" lon="6.18002">
        <ele>267.2</ele>
        <time>2022-05-26T07:10:18Z</time>
      </trkpt>
      <trkpt lat="43.31285" lon="6.18003">
        <ele>268</ele>
        <time>2022-05-26T07:10:24Z</time>
      </trkpt>
      <trkpt lat="43.31285" lon="6.18003">
        <ele>268</ele>
        <time>2022-05-26T07:10:25Z</time>
      </trkpt>
      <trkpt lat="43.31286" lon="6.18004">
        <ele>268</ele>
        <time>2022-05-26T07:10:27Z</time>
      </trkpt>
      <trkpt lat="43.31286" lon="6.18004">
        <ele>268.4</ele>
        <time>2022-05-26T07:10:32Z</time>
      </trkpt>
      <trkpt lat="43.31286" lon="6.18004">
        <ele>268.4</ele>
        <time>2022-05-26T07:10:35Z</time>
      </trkpt>
      <trkpt lat="43.31286" lon="6.18004">
        <ele>268.4</ele>
        <time>2022-05-26T07:10:37Z</time>
      </trkpt>
      <trkpt lat="43.31286" lon="6.18004">
        <ele>268.2</ele>
        <time>2022-05-26T07:10:40Z</time>
      </trkpt>
      <trkpt lat="43.31285" lon="6.18004">
        <ele>268.2</ele>
        <time>2022-05-26T07:10:44Z</time>
      </trkpt>
      <trkpt lat="43.31285" lon="6.18005">
        <ele>268.4</ele>
        <time>2022-05-26T07:10:50Z</time>
      </trkpt>
      <trkpt lat="43.31284" lon="6.18005">
        <ele>268.4</ele>
        <time>2022-05-26T07:10:51Z</time>
      </trkpt>
      <trkpt lat="43.3128" lon="6.18005">
        <ele>268.4</ele>
        <time>2022-05-26T07:10:54Z</time>
      </trkpt>
      <trkpt lat="43.31269" lon="6.18006">
        <ele>269</ele>
        <time>2022-05-26T07:11:01Z</time>
      </trkpt>
      <trkpt lat="43.31268" lon="6.18006">
        <ele>269.6</ele>
        <time>2022-05-26T07:11:02Z</time>
      </trkpt>
      <trkpt lat="43.31263" lon="6.18006">
        <ele>270.6</ele>
        <time>2022-05-26T07:11:06Z</time>
      </trkpt>
      <trkpt lat="43.31262" lon="6.18006">
        <ele>270.8</ele>
        <time>2022-05-26T07:11:07Z</time>
      </trkpt>
      <trkpt lat="43.3126" lon="6.18006">
        <ele>271.2</ele>
        <time>2022-05-26T07:11:09Z</time>
      </trkpt>
      <trkpt lat="43.31255" lon="6.18006">
        <ele>271.8</ele>
        <time>2022-05-26T07:11:13Z</time>
      </trkpt>
      <trkpt lat="43.31254" lon="6.18007">
        <ele>272</ele>
        <time>2022-05-26T07:11:14Z</time>
      </trkpt>
      <trkpt lat="43.31251" lon="6.18008">
        <ele>272.4</ele>
        <time>2022-05-26T07:11:16Z</time>
      </trkpt>
      <trkpt lat="43.31245" lon="6.18007">
        <ele>273.2</ele>
        <time>2022-05-26T07:11:20Z</time>
      </trkpt>
      <trkpt lat="43.3124" lon="6.18006">
        <ele>273.8</ele>
        <time>2022-05-26T07:11:25Z</time>
      </trkpt>
      <trkpt lat="43.31237" lon="6.18007">
        <ele>274.2</ele>
        <time>2022-05-26T07:11:27Z</time>
      </trkpt>
      <trkpt lat="43.31232" lon="6.18007">
        <ele>275.2</ele>
        <time>2022-05-26T07:11:31Z</time>
      </trkpt>
      <trkpt lat="43.31229" lon="6.18008">
        <ele>275.4</ele>
        <time>2022-05-26T07:11:33Z</time>
      </trkpt>
      <trkpt lat="43.31223" lon="6.18007">
        <ele>276.4</ele>
        <time>2022-05-26T07:11:39Z</time>
      </trkpt>
      <trkpt lat="43.31218" lon="6.18007">
        <ele>276.8</ele>
        <time>2022-05-26T07:11:43Z</time>
      </trkpt>
      <trkpt lat="43.31213" lon="6.18007">
        <ele>277.4</ele>
        <time>2022-05-26T07:11:48Z</time>
      </trkpt>
      <trkpt lat="43.31207" lon="6.18008">
        <ele>278</ele>
        <time>2022-05-26T07:11:53Z</time>
      </trkpt>
      <trkpt lat="43.31204" lon="6.18008">
        <ele>278.4</ele>
        <time>2022-05-26T07:11:56Z</time>
      </trkpt>
      <trkpt lat="43.31197" lon="6.18008">
        <ele>279.4</ele>
        <time>2022-05-26T07:12:02Z</time>
      </trkpt>
      <trkpt lat="43.31196" lon="6.18009">
        <ele>279.6</ele>
        <time>2022-05-26T07:12:03Z</time>
      </trkpt>
      <trkpt lat="43.31185" lon="6.1801">
        <ele>280.6</ele>
        <time>2022-05-26T07:12:12Z</time>
      </trkpt>
      <trkpt lat="43.31184" lon="6.1801">
        <ele>280.8</ele>
        <time>2022-05-26T07:12:13Z</time>
      </trkpt>
      <trkpt lat="43.31179" lon="6.18012">
        <ele>281.6</ele>
        <time>2022-05-26T07:12:18Z</time>
      </trkpt>
      <trkpt lat="43.31178" lon="6.18012">
        <ele>281.8</ele>
        <time>2022-05-26T07:12:19Z</time>
      </trkpt>
      <trkpt lat="43.31168" lon="6.18012">
        <ele>282.8</ele>
        <time>2022-05-26T07:12:26Z</time>
      </trkpt>
      <trkpt lat="43.31161" lon="6.18014">
        <ele>283.8</ele>
        <time>2022-05-26T07:12:33Z</time>
      </trkpt>
      <trkpt lat="43.31155" lon="6.18014">
        <ele>284.8</ele>
        <time>2022-05-26T07:12:39Z</time>
      </trkpt>
      <trkpt lat="43.31154" lon="6.18015">
        <ele>285</ele>
        <time>2022-05-26T07:12:40Z</time>
      </trkpt>
      <trkpt lat="43.31147" lon="6.18014">
        <ele>286</ele>
        <time>2022-05-26T07:12:47Z</time>
      </trkpt>
      <trkpt lat="43.31145" lon="6.18014">
        <ele>286.2</ele>
        <time>2022-05-26T07:12:49Z</time>
      </trkpt>
      <trkpt lat="43.31142" lon="6.18015">
        <ele>286.2</ele>
        <time>2022-05-26T07:12:51Z</time>
      </trkpt>
      <trkpt lat="43.31139" lon="6.18015">
        <ele>286.6</ele>
        <time>2022-05-26T07:12:54Z</time>
      </trkpt>
      <trkpt lat="43.31131" lon="6.18015">
        <ele>287.2</ele>
        <time>2022-05-26T07:13:00Z</time>
      </trkpt>
      <trkpt lat="43.31129" lon="6.18015">
        <ele>287.2</ele>
        <time>2022-05-26T07:13:01Z</time>
      </trkpt>
      <trkpt lat="43.3112" lon="6.18016">
        <ele>288.2</ele>
        <time>2022-05-26T07:13:07Z</time>
      </trkpt>
      <trkpt lat="43.31116" lon="6.18017">
        <ele>288.2</ele>
        <time>2022-05-26T07:13:09Z</time>
      </trkpt>
      <trkpt lat="43.31108" lon="6.18017">
        <ele>289.2</ele>
        <time>2022-05-26T07:13:16Z</time>
      </trkpt>
      <trkpt lat="43.31106" lon="6.18018">
        <ele>289.2</ele>
        <time>2022-05-26T07:13:17Z</time>
      </trkpt>
      <trkpt lat="43.31099" lon="6.18018">
        <ele>289.8</ele>
        <time>2022-05-26T07:13:22Z</time>
      </trkpt>
      <trkpt lat="43.31098" lon="6.18019">
        <ele>289.8</ele>
        <time>2022-05-26T07:13:23Z</time>
      </trkpt>
      <trkpt lat="43.31095" lon="6.18019">
        <ele>290</ele>
        <time>2022-05-26T07:13:25Z</time>
      </trkpt>
      <trkpt lat="43.3109" lon="6.1802">
        <ele>290.4</ele>
        <time>2022-05-26T07:13:28Z</time>
      </trkpt>
      <trkpt lat="43.31084" lon="6.18021">
        <ele>291</ele>
        <time>2022-05-26T07:13:33Z</time>
      </trkpt>
      <trkpt lat="43.3108" lon="6.18023">
        <ele>291</ele>
        <time>2022-05-26T07:13:36Z</time>
      </trkpt>
      <trkpt lat="43.31074" lon="6.18023">
        <ele>291.2</ele>
        <time>2022-05-26T07:13:40Z</time>
      </trkpt>
      <trkpt lat="43.31072" lon="6.18023">
        <ele>291.4</ele>
        <time>2022-05-26T07:13:41Z</time>
      </trkpt>
      <trkpt lat="43.31063" lon="6.18025">
        <ele>292.6</ele>
        <time>2022-05-26T07:13:48Z</time>
      </trkpt>
      <trkpt lat="43.31062" lon="6.18025">
        <ele>292.6</ele>
        <time>2022-05-26T07:13:49Z</time>
      </trkpt>
      <trkpt lat="43.31061" lon="6.18025">
        <ele>293</ele>
        <time>2022-05-26T07:13:50Z</time>
      </trkpt>
      <trkpt lat="43.31052" lon="6.18026">
        <ele>293.6</ele>
        <time>2022-05-26T07:13:56Z</time>
      </trkpt>
      <trkpt lat="43.31051" lon="6.18026">
        <ele>293.8</ele>
        <time>2022-05-26T07:13:57Z</time>
      </trkpt>
      <trkpt lat="43.31048" lon="6.18027">
        <ele>294</ele>
        <time>2022-05-26T07:14:00Z</time>
      </trkpt>
      <trkpt lat="43.31045" lon="6.18028">
        <ele>294.4</ele>
        <time>2022-05-26T07:14:03Z</time>
      </trkpt>
      <trkpt lat="43.31043" lon="6.18029">
        <ele>294.6</ele>
        <time>2022-05-26T07:14:05Z</time>
      </trkpt>
      <trkpt lat="43.31041" lon="6.18029">
        <ele>294.8</ele>
        <time>2022-05-26T07:14:06Z</time>
      </trkpt>
      <trkpt lat="43.31038" lon="6.1803">
        <ele>295.2</ele>
        <time>2022-05-26T07:14:09Z</time>
      </trkpt>
      <trkpt lat="43.31035" lon="6.18032">
        <ele>295.6</ele>
        <time>2022-05-26T07:14:13Z</time>
      </trkpt>
      <trkpt lat="43.31035" lon="6.18032">
        <ele>295.8</ele>
        <time>2022-05-26T07:14:15Z</time>
      </trkpt>
      <trkpt lat="43.31035" lon="6.18032">
        <ele>296.4</ele>
        <time>2022-05-26T07:14:17Z</time>
      </trkpt>
      <trkpt lat="43.31034" lon="6.18033">
        <ele>296.6</ele>
        <time>2022-05-26T07:14:18Z</time>
      </trkpt>
      <trkpt lat="43.31034" lon="6.18033">
        <ele>296.6</ele>
        <time>2022-05-26T07:14:19Z</time>
      </trkpt>
      <trkpt lat="43.31034" lon="6.18033">
        <ele>296.8</ele>
        <time>2022-05-26T07:14:20Z</time>
      </trkpt>
      <trkpt lat="43.31035" lon="6.18033">
        <ele>296.8</ele>
        <time>2022-05-26T07:14:21Z</time>
      </trkpt>
      <trkpt lat="43.31035" lon="6.18033">
        <ele>296.8</ele>
        <time>2022-05-26T07:14:26Z</time>
      </trkpt>
      <trkpt lat="43.3103" lon="6.18035">
        <ele>296.6</ele>
        <time>2022-05-26T07:14:35Z</time>
      </trkpt>
      <trkpt lat="43.31024" lon="6.18037">
        <ele>297</ele>
        <time>2022-05-26T07:14:39Z</time>
      </trkpt>
      <trkpt lat="43.31018" lon="6.18039">
        <ele>297.8</ele>
        <time>2022-05-26T07:14:43Z</time>
      </trkpt>
      <trkpt lat="43.31016" lon="6.1804">
        <ele>298</ele>
        <time>2022-05-26T07:14:44Z</time>
      </trkpt>
      <trkpt lat="43.31014" lon="6.1804">
        <ele>298</ele>
        <time>2022-05-26T07:14:45Z</time>
      </trkpt>
      <trkpt lat="43.31009" lon="6.18041">
        <ele>299.4</ele>
        <time>2022-05-26T07:14:48Z</time>
      </trkpt>
      <trkpt lat="43.31" lon="6.18043">
        <ele>300.4</ele>
        <time>2022-05-26T07:14:54Z</time>
      </trkpt>
      <trkpt lat="43.30995" lon="6.18045">
        <ele>300.8</ele>
        <time>2022-05-26T07:14:57Z</time>
      </trkpt>
      <trkpt lat="43.3099" lon="6.18047">
        <ele>301.6</ele>
        <time>2022-05-26T07:15:01Z</time>
      </trkpt>
      <trkpt lat="43.30986" lon="6.18049">
        <ele>302.6</ele>
        <time>2022-05-26T07:15:04Z</time>
      </trkpt>
      <trkpt lat="43.30983" lon="6.18051">
        <ele>302.6</ele>
        <time>2022-05-26T07:15:06Z</time>
      </trkpt>
      <trkpt lat="43.3098" lon="6.18056">
        <ele>303</ele>
        <time>2022-05-26T07:15:10Z</time>
      </trkpt>
      <trkpt lat="43.30979" lon="6.18058">
        <ele>303</ele>
        <time>2022-05-26T07:15:11Z</time>
      </trkpt>
      <trkpt lat="43.30979" lon="6.18059">
        <ele>303.4</ele>
        <time>2022-05-26T07:15:12Z</time>
      </trkpt>
      <trkpt lat="43.30977" lon="6.18064">
        <ele>304</ele>
        <time>2022-05-26T07:15:15Z</time>
      </trkpt>
      <trkpt lat="43.30977" lon="6.18066">
        <ele>304</ele>
        <time>2022-05-26T07:15:16Z</time>
      </trkpt>
      <trkpt lat="43.30977" lon="6.18068">
        <ele>304.2</ele>
        <time>2022-05-26T07:15:17Z</time>
      </trkpt>
      <trkpt lat="43.30977" lon="6.1807">
        <ele>304.2</ele>
        <time>2022-05-26T07:15:18Z</time>
      </trkpt>
      <trkpt lat="43.30978" lon="6.18084">
        <ele>305.4</ele>
        <time>2022-05-26T07:15:24Z</time>
      </trkpt>
      <trkpt lat="43.30979" lon="6.18091">
        <ele>305.8</ele>
        <time>2022-05-26T07:15:27Z</time>
      </trkpt>
      <trkpt lat="43.30978" lon="6.18096">
        <ele>305.8</ele>
        <time>2022-05-26T07:15:29Z</time>
      </trkpt>
      <trkpt lat="43.30978" lon="6.18102">
        <ele>305.8</ele>
        <time>2022-05-26T07:15:31Z</time>
      </trkpt>
      <trkpt lat="43.30978" lon="6.18111">
        <ele>305.8</ele>
        <time>2022-05-26T07:15:34Z</time>
      </trkpt>
      <trkpt lat="43.30974" lon="6.18128">
        <ele>306</ele>
        <time>2022-05-26T07:15:41Z</time>
      </trkpt>
      <trkpt lat="43.3097" lon="6.18134">
        <ele>306.2</ele>
        <time>2022-05-26T07:15:45Z</time>
      </trkpt>
      <trkpt lat="43.30968" lon="6.18139">
        <ele>306.4</ele>
        <time>2022-05-26T07:15:47Z</time>
      </trkpt>
      <trkpt lat="43.30966" lon="6.18141">
        <ele>306.4</ele>
        <time>2022-05-26T07:15:48Z</time>
      </trkpt>
      <trkpt lat="43.3096" lon="6.18155">
        <ele>307.2</ele>
        <time>2022-05-26T07:15:55Z</time>
      </trkpt>
      <trkpt lat="43.30957" lon="6.18161">
        <ele>307.6</ele>
        <time>2022-05-26T07:15:58Z</time>
      </trkpt>
      <trkpt lat="43.30953" lon="6.18163">
        <ele>308.2</ele>
        <time>2022-05-26T07:16:02Z</time>
      </trkpt>
      <trkpt lat="43.30951" lon="6.18165">
        <ele>308.6</ele>
        <time>2022-05-26T07:16:05Z</time>
      </trkpt>
      <trkpt lat="43.3095" lon="6.18165">
        <ele>309.2</ele>
        <time>2022-05-26T07:16:07Z</time>
      </trkpt>
      <trkpt lat="43.3095" lon="6.18166">
        <ele>309.8</ele>
        <time>2022-05-26T07:16:09Z</time>
      </trkpt>
      <trkpt lat="43.30949" lon="6.18166">
        <ele>310.2</ele>
        <time>2022-05-26T07:16:13Z</time>
      </trkpt>
      <trkpt lat="43.30945" lon="6.18164">
        <ele>310.8</ele>
        <time>2022-05-26T07:16:21Z</time>
      </trkpt>
      <trkpt lat="43.3094" lon="6.1816">
        <ele>311.8</ele>
        <time>2022-05-26T07:16:29Z</time>
      </trkpt>
      <trkpt lat="43.30939" lon="6.18159">
        <ele>312</ele>
        <time>2022-05-26T07:16:30Z</time>
      </trkpt>
      <trkpt lat="43.30937" lon="6.18156">
        <ele>312.8</ele>
        <time>2022-05-26T07:16:37Z</time>
      </trkpt>
      <trkpt lat="43.30936" lon="6.18154">
        <ele>313</ele>
        <time>2022-05-26T07:16:39Z</time>
      </trkpt>
      <trkpt lat="43.30934" lon="6.1815">
        <ele>314</ele>
        <time>2022-05-26T07:16:44Z</time>
      </trkpt>
      <trkpt lat="43.30933" lon="6.1815">
        <ele>314</ele>
        <time>2022-05-26T07:16:45Z</time>
      </trkpt>
      <trkpt lat="43.30931" lon="6.18146">
        <ele>314.8</ele>
        <time>2022-05-26T07:16:50Z</time>
      </trkpt>
      <trkpt lat="43.30931" lon="6.18145">
        <ele>315</ele>
        <time>2022-05-26T07:16:52Z</time>
      </trkpt>
      <trkpt lat="43.30929" lon="6.18139">
        <ele>315.8</ele>
        <time>2022-05-26T07:16:57Z</time>
      </trkpt>
      <trkpt lat="43.30928" lon="6.18137">
        <ele>315.8</ele>
        <time>2022-05-26T07:17:01Z</time>
      </trkpt>
      <trkpt lat="43.30928" lon="6.18137">
        <ele>316.4</ele>
        <time>2022-05-26T07:17:05Z</time>
      </trkpt>
      <trkpt lat="43.30929" lon="6.18136">
        <ele>316.8</ele>
        <time>2022-05-26T07:17:12Z</time>
      </trkpt>
      <trkpt lat="43.30929" lon="6.18136">
        <ele>316.8</ele>
        <time>2022-05-26T07:17:16Z</time>
      </trkpt>
      <trkpt lat="43.30929" lon="6.18136">
        <ele>316.8</ele>
        <time>2022-05-26T07:17:22Z</time>
      </trkpt>
      <trkpt lat="43.30923" lon="6.18129">
        <ele>317.6</ele>
        <time>2022-05-26T07:17:30Z</time>
      </trkpt>
      <trkpt lat="43.30921" lon="6.18126">
        <ele>318</ele>
        <time>2022-05-26T07:17:32Z</time>
      </trkpt>
      <trkpt lat="43.30917" lon="6.18121">
        <ele>318.2</ele>
        <time>2022-05-26T07:17:36Z</time>
      </trkpt>
      <trkpt lat="43.30914" lon="6.18118">
        <ele>318.6</ele>
        <time>2022-05-26T07:17:40Z</time>
      </trkpt>
      <trkpt lat="43.30913" lon="6.18117">
        <ele>319</ele>
        <time>2022-05-26T07:17:41Z</time>
      </trkpt>
      <trkpt lat="43.3091" lon="6.18117">
        <ele>319.4</ele>
        <time>2022-05-26T07:17:44Z</time>
      </trkpt>
      <trkpt lat="43.30909" lon="6.18119">
        <ele>320</ele>
        <time>2022-05-26T07:17:47Z</time>
      </trkpt>
      <trkpt lat="43.30906" lon="6.1812">
        <ele>320.6</ele>
        <time>2022-05-26T07:17:51Z</time>
      </trkpt>
      <trkpt lat="43.30904" lon="6.18121">
        <ele>321.2</ele>
        <time>2022-05-26T07:17:54Z</time>
      </trkpt>
      <trkpt lat="43.30903" lon="6.18124">
        <ele>322</ele>
        <time>2022-05-26T07:18:00Z</time>
      </trkpt>
      <trkpt lat="43.30902" lon="6.18126">
        <ele>322.4</ele>
        <time>2022-05-26T07:18:03Z</time>
      </trkpt>
      <trkpt lat="43.30901" lon="6.18127">
        <ele>323.2</ele>
        <time>2022-05-26T07:18:07Z</time>
      </trkpt>
      <trkpt lat="43.30901" lon="6.18127">
        <ele>323.4</ele>
        <time>2022-05-26T07:18:09Z</time>
      </trkpt>
      <trkpt lat="43.309" lon="6.18128">
        <ele>324.2</ele>
        <time>2022-05-26T07:18:15Z</time>
      </trkpt>
      <trkpt lat="43.309" lon="6.18128">
        <ele>324.6</ele>
        <time>2022-05-26T07:18:17Z</time>
      </trkpt>
      <trkpt lat="43.309" lon="6.18128">
        <ele>324.6</ele>
        <time>2022-05-26T07:18:18Z</time>
      </trkpt>
      <trkpt lat="43.30897" lon="6.18131">
        <ele>325</ele>
        <time>2022-05-26T07:18:23Z</time>
      </trkpt>
      <trkpt lat="43.30896" lon="6.18133">
        <ele>325</ele>
        <time>2022-05-26T07:18:25Z</time>
      </trkpt>
      <trkpt lat="43.30893" lon="6.18136">
        <ele>325.6</ele>
        <time>2022-05-26T07:18:29Z</time>
      </trkpt>
      <trkpt lat="43.30892" lon="6.18138">
        <ele>326</ele>
        <time>2022-05-26T07:18:31Z</time>
      </trkpt>
      <trkpt lat="43.30891" lon="6.18139">
        <ele>326.2</ele>
        <time>2022-05-26T07:18:32Z</time>
      </trkpt>
      <trkpt lat="43.30889" lon="6.18142">
        <ele>326.8</ele>
        <time>2022-05-26T07:18:36Z</time>
      </trkpt>
      <trkpt lat="43.30885" lon="6.18147">
        <ele>327.8</ele>
        <time>2022-05-26T07:18:43Z</time>
      </trkpt>
      <trkpt lat="43.30885" lon="6.18148">
        <ele>328</ele>
        <time>2022-05-26T07:18:44Z</time>
      </trkpt>
      <trkpt lat="43.30882" lon="6.1815">
        <ele>329</ele>
        <time>2022-05-26T07:18:50Z</time>
      </trkpt>
      <trkpt lat="43.3088" lon="6.18151">
        <ele>329.2</ele>
        <time>2022-05-26T07:18:52Z</time>
      </trkpt>
      <trkpt lat="43.30876" lon="6.18154">
        <ele>330</ele>
        <time>2022-05-26T07:18:57Z</time>
      </trkpt>
      <trkpt lat="43.30874" lon="6.18156">
        <ele>330.4</ele>
        <time>2022-05-26T07:18:59Z</time>
      </trkpt>
      <trkpt lat="43.3087" lon="6.18161">
        <ele>331</ele>
        <time>2022-05-26T07:19:06Z</time>
      </trkpt>
      <trkpt lat="43.30871" lon="6.18163">
        <ele>331.2</ele>
        <time>2022-05-26T07:19:07Z</time>
      </trkpt>
      <trkpt lat="43.30867" lon="6.1817">
        <ele>331.6</ele>
        <time>2022-05-26T07:19:16Z</time>
      </trkpt>
      <trkpt lat="43.30864" lon="6.18174">
        <ele>332</ele>
        <time>2022-05-26T07:19:20Z</time>
      </trkpt>
      <trkpt lat="43.30863" lon="6.18177">
        <ele>332.2</ele>
        <time>2022-05-26T07:19:21Z</time>
      </trkpt>
      <trkpt lat="43.30861" lon="6.1818">
        <ele>332.8</ele>
        <time>2022-05-26T07:19:24Z</time>
      </trkpt>
      <trkpt lat="43.30861" lon="6.18181">
        <ele>332.8</ele>
        <time>2022-05-26T07:19:25Z</time>
      </trkpt>
      <trkpt lat="43.30857" lon="6.18186">
        <ele>333.2</ele>
        <time>2022-05-26T07:19:28Z</time>
      </trkpt>
      <trkpt lat="43.30856" lon="6.18188">
        <ele>333.2</ele>
        <time>2022-05-26T07:19:29Z</time>
      </trkpt>
      <trkpt lat="43.30855" lon="6.18191">
        <ele>333.2</ele>
        <time>2022-05-26T07:19:31Z</time>
      </trkpt>
      <trkpt lat="43.30852" lon="6.18201">
        <ele>333.4</ele>
        <time>2022-05-26T07:19:35Z</time>
      </trkpt>
      <trkpt lat="43.30843" lon="6.18218">
        <ele>333.4</ele>
        <time>2022-05-26T07:19:41Z</time>
      </trkpt>
      <trkpt lat="43.30828" lon="6.18242">
        <ele>333</ele>
        <time>2022-05-26T07:19:49Z</time>
      </trkpt>
      <trkpt lat="43.30817" lon="6.18263">
        <ele>332.4</ele>
        <time>2022-05-26T07:19:55Z</time>
      </trkpt>
      <trkpt lat="43.30812" lon="6.18269">
        <ele>332.2</ele>
        <time>2022-05-26T07:19:57Z</time>
      </trkpt>
      <trkpt lat="43.3081" lon="6.18271">
        <ele>332</ele>
        <time>2022-05-26T07:19:58Z</time>
      </trkpt>
      <trkpt lat="43.30805" lon="6.18278">
        <ele>330.8</ele>
        <time>2022-05-26T07:20:01Z</time>
      </trkpt>
      <trkpt lat="43.30803" lon="6.18281">
        <ele>330.6</ele>
        <time>2022-05-26T07:20:02Z</time>
      </trkpt>
      <trkpt lat="43.30791" lon="6.18293">
        <ele>329.6</ele>
        <time>2022-05-26T07:20:05Z</time>
      </trkpt>
      <trkpt lat="43.30776" lon="6.18304">
        <ele>329</ele>
        <time>2022-05-26T07:20:09Z</time>
      </trkpt>
      <trkpt lat="43.30765" lon="6.18314">
        <ele>328.6</ele>
        <time>2022-05-26T07:20:12Z</time>
      </trkpt>
      <trkpt lat="43.30754" lon="6.18319">
        <ele>326.6</ele>
        <time>2022-05-26T07:20:15Z</time>
      </trkpt>
      <trkpt lat="43.30746" lon="6.18322">
        <ele>325.6</ele>
        <time>2022-05-26T07:20:17Z</time>
      </trkpt>
      <trkpt lat="43.30733" lon="6.18327">
        <ele>324.4</ele>
        <time>2022-05-26T07:20:21Z</time>
      </trkpt>
      <trkpt lat="43.30715" lon="6.18337">
        <ele>323.4</ele>
        <time>2022-05-26T07:20:27Z</time>
      </trkpt>
      <trkpt lat="43.30712" lon="6.18338">
        <ele>323</ele>
        <time>2022-05-26T07:20:28Z</time>
      </trkpt>
      <trkpt lat="43.30699" lon="6.18347">
        <ele>322</ele>
        <time>2022-05-26T07:20:33Z</time>
      </trkpt>
      <trkpt lat="43.30696" lon="6.18349">
        <ele>321.8</ele>
        <time>2022-05-26T07:20:34Z</time>
      </trkpt>
      <trkpt lat="43.30688" lon="6.18355">
        <ele>320.8</ele>
        <time>2022-05-26T07:20:37Z</time>
      </trkpt>
      <trkpt lat="43.30679" lon="6.18363">
        <ele>319</ele>
        <time>2022-05-26T07:20:40Z</time>
      </trkpt>
      <trkpt lat="43.30674" lon="6.18369">
        <ele>318</ele>
        <time>2022-05-26T07:20:42Z</time>
      </trkpt>
      <trkpt lat="43.30665" lon="6.18376">
        <ele>316.6</ele>
        <time>2022-05-26T07:20:45Z</time>
      </trkpt>
      <trkpt lat="43.30661" lon="6.18378">
        <ele>316.2</ele>
        <time>2022-05-26T07:20:46Z</time>
      </trkpt>
      <trkpt lat="43.30656" lon="6.1838">
        <ele>315.2</ele>
        <time>2022-05-26T07:20:47Z</time>
      </trkpt>
      <trkpt lat="43.30651" lon="6.18382">
        <ele>314.8</ele>
        <time>2022-05-26T07:20:48Z</time>
      </trkpt>
      <trkpt lat="43.30645" lon="6.18383">
        <ele>314</ele>
        <time>2022-05-26T07:20:49Z</time>
      </trkpt>
      <trkpt lat="43.30631" lon="6.18388">
        <ele>312.6</ele>
        <time>2022-05-26T07:20:52Z</time>
      </trkpt>
      <trkpt lat="43.30629" lon="6.18389">
        <ele>312.2</ele>
        <time>2022-05-26T07:20:53Z</time>
      </trkpt>
      <trkpt lat="43.30623" lon="6.18392">
        <ele>312</ele>
        <time>2022-05-26T07:20:57Z</time>
      </trkpt>
      <trkpt lat="43.30618" lon="6.18395">
        <ele>312</ele>
        <time>2022-05-26T07:21:01Z</time>
      </trkpt>
      <trkpt lat="43.30615" lon="6.18398">
        <ele>312.4</ele>
        <time>2022-05-26T07:21:04Z</time>
      </trkpt>
      <trkpt lat="43.30613" lon="6.184">
        <ele>313</ele>
        <time>2022-05-26T07:21:06Z</time>
      </trkpt>
      <trkpt lat="43.30612" lon="6.18401">
        <ele>313.2</ele>
        <time>2022-05-26T07:21:07Z</time>
      </trkpt>
      <trkpt lat="43.30611" lon="6.18402">
        <ele>313</ele>
        <time>2022-05-26T07:21:09Z</time>
      </trkpt>
      <trkpt lat="43.30603" lon="6.1836">
        <ele>317.2</ele>
        <time>2022-05-26T07:22:13Z</time>
      </trkpt>
      <trkpt lat="43.30603" lon="6.18359">
        <ele>317.4</ele>
        <time>2022-05-26T07:22:14Z</time>
      </trkpt>
      <trkpt lat="43.30601" lon="6.18356">
        <ele>317.6</ele>
        <time>2022-05-26T07:22:16Z</time>
      </trkpt>
      <trkpt lat="43.30599" lon="6.18351">
        <ele>318.4</ele>
        <time>2022-05-26T07:22:19Z</time>
      </trkpt>
      <trkpt lat="43.30598" lon="6.18349">
        <ele>319</ele>
        <time>2022-05-26T07:22:20Z</time>
      </trkpt>
      <trkpt lat="43.30597" lon="6.18344">
        <ele>319.6</ele>
        <time>2022-05-26T07:22:23Z</time>
      </trkpt>
      <trkpt lat="43.30594" lon="6.18333">
        <ele>320</ele>
        <time>2022-05-26T07:22:28Z</time>
      </trkpt>
      <trkpt lat="43.30591" lon="6.18319">
        <ele>320.2</ele>
        <time>2022-05-26T07:22:35Z</time>
      </trkpt>
      <trkpt lat="43.30589" lon="6.18312">
        <ele>320.6</ele>
        <time>2022-05-26T07:22:38Z</time>
      </trkpt>
      <trkpt lat="43.30588" lon="6.18306">
        <ele>320.8</ele>
        <time>2022-05-26T07:22:41Z</time>
      </trkpt>
      <trkpt lat="43.30583" lon="6.18289">
        <ele>321.2</ele>
        <time>2022-05-26T07:22:48Z</time>
      </trkpt>
      <trkpt lat="43.30576" lon="6.18274">
        <ele>321.4</ele>
        <time>2022-05-26T07:22:55Z</time>
      </trkpt>
      <trkpt lat="43.30579" lon="6.18271">
        <ele>321.2</ele>
        <time>2022-05-26T07:22:59Z</time>
      </trkpt>
      <trkpt lat="43.30576" lon="6.18261">
        <ele>320.8</ele>
        <time>2022-05-26T07:23:12Z</time>
      </trkpt>
      <trkpt lat="43.30572" lon="6.18256">
        <ele>320.8</ele>
        <time>2022-05-26T07:23:14Z</time>
      </trkpt>
      <trkpt lat="43.30566" lon="6.18252">
        <ele>320.8</ele>
        <time>2022-05-26T07:23:16Z</time>
      </trkpt>
      <trkpt lat="43.30555" lon="6.18251">
        <ele>320.4</ele>
        <time>2022-05-26T07:23:20Z</time>
      </trkpt>
      <trkpt lat="43.30553" lon="6.18251">
        <ele>320.2</ele>
        <time>2022-05-26T07:23:21Z</time>
      </trkpt>
      <trkpt lat="43.30551" lon="6.1825">
        <ele>320.2</ele>
        <time>2022-05-26T07:23:22Z</time>
      </trkpt>
      <trkpt lat="43.30546" lon="6.1825">
        <ele>320</ele>
        <time>2022-05-26T07:23:25Z</time>
      </trkpt>
      <trkpt lat="43.30526" lon="6.18252">
        <ele>320.4</ele>
        <time>2022-05-26T07:23:33Z</time>
      </trkpt>
      <trkpt lat="43.30519" lon="6.18252">
        <ele>320.4</ele>
        <time>2022-05-26T07:23:36Z</time>
      </trkpt>
      <trkpt lat="43.30518" lon="6.18249">
        <ele>320.4</ele>
        <time>2022-05-26T07:23:38Z</time>
      </trkpt>
      <trkpt lat="43.30517" lon="6.18248">
        <ele>320.4</ele>
        <time>2022-05-26T07:23:39Z</time>
      </trkpt>
      <trkpt lat="43.30521" lon="6.18247">
        <ele>320.2</ele>
        <time>2022-05-26T07:23:42Z</time>
      </trkpt>
      <trkpt lat="43.30534" lon="6.18246">
        <ele>320</ele>
        <time>2022-05-26T07:23:47Z</time>
      </trkpt>
      <trkpt lat="43.30549" lon="6.18242">
        <ele>319.2</ele>
        <time>2022-05-26T07:23:51Z</time>
      </trkpt>
      <trkpt lat="43.30556" lon="6.1824">
        <ele>318</ele>
        <time>2022-05-26T07:23:54Z</time>
      </trkpt>
      <trkpt lat="43.3057" lon="6.18227">
        <ele>316.8</ele>
        <time>2022-05-26T07:23:59Z</time>
      </trkpt>
      <trkpt lat="43.30575" lon="6.18222">
        <ele>316.4</ele>
        <time>2022-05-26T07:24:01Z</time>
      </trkpt>
      <trkpt lat="43.30578" lon="6.18215">
        <ele>316.2</ele>
        <time>2022-05-26T07:24:03Z</time>
      </trkpt>
      <trkpt lat="43.3058" lon="6.1821">
        <ele>316</ele>
        <time>2022-05-26T07:24:04Z</time>
      </trkpt>
      <trkpt lat="43.30582" lon="6.18205">
        <ele>315.8</ele>
        <time>2022-05-26T07:24:05Z</time>
      </trkpt>
      <trkpt lat="43.30584" lon="6.18199">
        <ele>315.8</ele>
        <time>2022-05-26T07:24:06Z</time>
      </trkpt>
      <trkpt lat="43.30588" lon="6.18188">
        <ele>315.4</ele>
        <time>2022-05-26T07:24:08Z</time>
      </trkpt>
      <trkpt lat="43.30592" lon="6.18173">
        <ele>314.6</ele>
        <time>2022-05-26T07:24:11Z</time>
      </trkpt>
      <trkpt lat="43.30594" lon="6.18162">
        <ele>313.8</ele>
        <time>2022-05-26T07:24:13Z</time>
      </trkpt>
      <trkpt lat="43.30598" lon="6.18152">
        <ele>313.2</ele>
        <time>2022-05-26T07:24:15Z</time>
      </trkpt>
      <trkpt lat="43.30603" lon="6.18144">
        <ele>312.6</ele>
        <time>2022-05-26T07:24:17Z</time>
      </trkpt>
      <trkpt lat="43.30605" lon="6.18141">
        <ele>311.8</ele>
        <time>2022-05-26T07:24:18Z</time>
      </trkpt>
      <trkpt lat="43.30616" lon="6.18125">
        <ele>310.6</ele>
        <time>2022-05-26T07:24:22Z</time>
      </trkpt>
      <trkpt lat="43.30629" lon="6.18107">
        <ele>309.4</ele>
        <time>2022-05-26T07:24:26Z</time>
      </trkpt>
      <trkpt lat="43.30632" lon="6.18104">
        <ele>309</ele>
        <time>2022-05-26T07:24:27Z</time>
      </trkpt>
      <trkpt lat="43.30637" lon="6.18096">
        <ele>308.2</ele>
        <time>2022-05-26T07:24:29Z</time>
      </trkpt>
      <trkpt lat="43.3064" lon="6.18093">
        <ele>308.2</ele>
        <time>2022-05-26T07:24:30Z</time>
      </trkpt>
      <trkpt lat="43.30644" lon="6.18087">
        <ele>307.2</ele>
        <time>2022-05-26T07:24:32Z</time>
      </trkpt>
      <trkpt lat="43.30651" lon="6.18078">
        <ele>305.8</ele>
        <time>2022-05-26T07:24:36Z</time>
      </trkpt>
      <trkpt lat="43.30654" lon="6.18072">
        <ele>305</ele>
        <time>2022-05-26T07:24:38Z</time>
      </trkpt>
      <trkpt lat="43.30656" lon="6.1807">
        <ele>304.6</ele>
        <time>2022-05-26T07:24:39Z</time>
      </trkpt>
      <trkpt lat="43.3066" lon="6.18064">
        <ele>303.8</ele>
        <time>2022-05-26T07:24:42Z</time>
      </trkpt>
      <trkpt lat="43.30662" lon="6.18062">
        <ele>303.6</ele>
        <time>2022-05-26T07:24:43Z</time>
      </trkpt>
      <trkpt lat="43.30663" lon="6.18058">
        <ele>303.2</ele>
        <time>2022-05-26T07:24:45Z</time>
      </trkpt>
      <trkpt lat="43.3066" lon="6.18052">
        <ele>302.6</ele>
        <time>2022-05-26T07:24:47Z</time>
      </trkpt>
      <trkpt lat="43.30654" lon="6.18048">
        <ele>302.2</ele>
        <time>2022-05-26T07:24:49Z</time>
      </trkpt>
      <trkpt lat="43.30646" lon="6.18042">
        <ele>301.8</ele>
        <time>2022-05-26T07:24:51Z</time>
      </trkpt>
      <trkpt lat="43.3064" lon="6.1803">
        <ele>301.2</ele>
        <time>2022-05-26T07:24:53Z</time>
      </trkpt>
      <trkpt lat="43.30639" lon="6.18019">
        <ele>300.6</ele>
        <time>2022-05-26T07:24:55Z</time>
      </trkpt>
      <trkpt lat="43.30638" lon="6.18012">
        <ele>300.2</ele>
        <time>2022-05-26T07:24:56Z</time>
      </trkpt>
      <trkpt lat="43.30633" lon="6.17979">
        <ele>299.2</ele>
        <time>2022-05-26T07:25:02Z</time>
      </trkpt>
      <trkpt lat="43.30632" lon="6.17964">
        <ele>299</ele>
        <time>2022-05-26T07:25:05Z</time>
      </trkpt>
      <trkpt lat="43.30631" lon="6.17956">
        <ele>298.8</ele>
        <time>2022-05-26T07:25:07Z</time>
      </trkpt>
      <trkpt lat="43.30639" lon="6.17929">
        <ele>298.2</ele>
        <time>2022-05-26T07:25:13Z</time>
      </trkpt>
      <trkpt lat="43.30637" lon="6.17914">
        <ele>298.2</ele>
        <time>2022-05-26T07:25:17Z</time>
      </trkpt>
      <trkpt lat="43.30629" lon="6.17896">
        <ele>298</ele>
        <time>2022-05-26T07:25:23Z</time>
      </trkpt>
      <trkpt lat="43.30623" lon="6.17886">
        <ele>298.6</ele>
        <time>2022-05-26T07:25:28Z</time>
      </trkpt>
      <trkpt lat="43.30621" lon="6.17881">
        <ele>299</ele>
        <time>2022-05-26T07:25:30Z</time>
      </trkpt>
      <trkpt lat="43.30616" lon="6.17875">
        <ele>299.6</ele>
        <time>2022-05-26T07:25:33Z</time>
      </trkpt>
      <trkpt lat="43.30613" lon="6.17871">
        <ele>300</ele>
        <time>2022-05-26T07:25:35Z</time>
      </trkpt>
      <trkpt lat="43.30612" lon="6.17869">
        <ele>300.2</ele>
        <time>2022-05-26T07:25:36Z</time>
      </trkpt>
      <trkpt lat="43.30614" lon="6.17863">
        <ele>301.2</ele>
        <time>2022-05-26T07:25:40Z</time>
      </trkpt>
      <trkpt lat="43.30622" lon="6.17856">
        <ele>302.2</ele>
        <time>2022-05-26T07:25:45Z</time>
      </trkpt>
      <trkpt lat="43.30626" lon="6.17852">
        <ele>302.6</ele>
        <time>2022-05-26T07:25:47Z</time>
      </trkpt>
      <trkpt lat="43.30639" lon="6.17838">
        <ele>303.4</ele>
        <time>2022-05-26T07:25:54Z</time>
      </trkpt>
      <trkpt lat="43.30641" lon="6.17835">
        <ele>303.4</ele>
        <time>2022-05-26T07:25:55Z</time>
      </trkpt>
      <trkpt lat="43.30653" lon="6.17825">
        <ele>303.4</ele>
        <time>2022-05-26T07:26:00Z</time>
      </trkpt>
      <trkpt lat="43.3066" lon="6.17816">
        <ele>303.6</ele>
        <time>2022-05-26T07:26:04Z</time>
      </trkpt>
      <trkpt lat="43.30663" lon="6.1781">
        <ele>303.8</ele>
        <time>2022-05-26T07:26:07Z</time>
      </trkpt>
      <trkpt lat="43.30663" lon="6.17809">
        <ele>303.8</ele>
        <time>2022-05-26T07:26:08Z</time>
      </trkpt>
      <trkpt lat="43.30663" lon="6.17808">
        <ele>304.4</ele>
        <time>2022-05-26T07:26:14Z</time>
      </trkpt>
      <trkpt lat="43.30663" lon="6.17808">
        <ele>304.4</ele>
        <time>2022-05-26T07:26:15Z</time>
      </trkpt>
      <trkpt lat="43.30663" lon="6.17808">
        <ele>304.4</ele>
        <time>2022-05-26T07:26:16Z</time>
      </trkpt>
      <trkpt lat="43.30664" lon="6.17807">
        <ele>304.4</ele>
        <time>2022-05-26T07:26:17Z</time>
      </trkpt>
      <trkpt lat="43.30664" lon="6.17807">
        <ele>304.2</ele>
        <time>2022-05-26T07:26:19Z</time>
      </trkpt>
      <trkpt lat="43.30664" lon="6.17807">
        <ele>304.2</ele>
        <time>2022-05-26T07:26:29Z</time>
      </trkpt>
      <trkpt lat="43.30664" lon="6.17805">
        <ele>304.4</ele>
        <time>2022-05-26T07:26:37Z</time>
      </trkpt>
      <trkpt lat="43.30663" lon="6.17802">
        <ele>304.4</ele>
        <time>2022-05-26T07:26:39Z</time>
      </trkpt>
      <trkpt lat="43.30663" lon="6.17797">
        <ele>304.6</ele>
        <time>2022-05-26T07:26:42Z</time>
      </trkpt>
      <trkpt lat="43.30661" lon="6.17793">
        <ele>305</ele>
        <time>2022-05-26T07:26:46Z</time>
      </trkpt>
      <trkpt lat="43.30661" lon="6.17791">
        <ele>305.4</ele>
        <time>2022-05-26T07:26:48Z</time>
      </trkpt>
      <trkpt lat="43.30661" lon="6.17787">
        <ele>306</ele>
        <time>2022-05-26T07:26:52Z</time>
      </trkpt>
      <trkpt lat="43.30662" lon="6.17781">
        <ele>306.4</ele>
        <time>2022-05-26T07:26:56Z</time>
      </trkpt>
      <trkpt lat="43.30662" lon="6.17777">
        <ele>307.6</ele>
        <time>2022-05-26T07:27:00Z</time>
      </trkpt>
      <trkpt lat="43.30663" lon="6.17774">
        <ele>308</ele>
        <time>2022-05-26T07:27:03Z</time>
      </trkpt>
      <trkpt lat="43.30663" lon="6.17765">
        <ele>308.8</ele>
        <time>2022-05-26T07:27:11Z</time>
      </trkpt>
      <trkpt lat="43.30662" lon="6.17761">
        <ele>309.6</ele>
        <time>2022-05-26T07:27:16Z</time>
      </trkpt>
      <trkpt lat="43.30662" lon="6.1776">
        <ele>309.8</ele>
        <time>2022-05-26T07:27:17Z</time>
      </trkpt>
      <trkpt lat="43.30663" lon="6.17757">
        <ele>310</ele>
        <time>2022-05-26T07:27:20Z</time>
      </trkpt>
      <trkpt lat="43.30662" lon="6.17753">
        <ele>310.8</ele>
        <time>2022-05-26T07:27:25Z</time>
      </trkpt>
      <trkpt lat="43.30662" lon="6.17749">
        <ele>311.4</ele>
        <time>2022-05-26T07:27:31Z</time>
      </trkpt>
      <trkpt lat="43.30663" lon="6.17747">
        <ele>311.8</ele>
        <time>2022-05-26T07:27:34Z</time>
      </trkpt>
      <trkpt lat="43.30661" lon="6.1774">
        <ele>312.6</ele>
        <time>2022-05-26T07:27:40Z</time>
      </trkpt>
      <trkpt lat="43.30661" lon="6.17739">
        <ele>312.8</ele>
        <time>2022-05-26T07:27:41Z</time>
      </trkpt>
      <trkpt lat="43.30666" lon="6.17737">
        <ele>313.4</ele>
        <time>2022-05-26T07:27:52Z</time>
      </trkpt>
      <trkpt lat="43.30668" lon="6.17731">
        <ele>313.4</ele>
        <time>2022-05-26T07:28:06Z</time>
      </trkpt>
      <trkpt lat="43.30667" lon="6.17723">
        <ele>314</ele>
        <time>2022-05-26T07:28:11Z</time>
      </trkpt>
      <trkpt lat="43.30666" lon="6.17722">
        <ele>314.4</ele>
        <time>2022-05-26T07:28:13Z</time>
      </trkpt>
      <trkpt lat="43.30666" lon="6.1772">
        <ele>315</ele>
        <time>2022-05-26T07:28:15Z</time>
      </trkpt>
      <trkpt lat="43.30666" lon="6.17719">
        <ele>315.2</ele>
        <time>2022-05-26T07:28:16Z</time>
      </trkpt>
      <trkpt lat="43.30666" lon="6.17712">
        <ele>315.8</ele>
        <time>2022-05-26T07:28:21Z</time>
      </trkpt>
      <trkpt lat="43.30666" lon="6.17707">
        <ele>316.4</ele>
        <time>2022-05-26T07:28:25Z</time>
      </trkpt>
      <trkpt lat="43.30664" lon="6.17704">
        <ele>316.6</ele>
        <time>2022-05-26T07:28:27Z</time>
      </trkpt>
      <trkpt lat="43.30664" lon="6.17699">
        <ele>317.4</ele>
        <time>2022-05-26T07:28:31Z</time>
      </trkpt>
      <trkpt lat="43.30665" lon="6.17698">
        <ele>317.6</ele>
        <time>2022-05-26T07:28:32Z</time>
      </trkpt>
      <trkpt lat="43.30664" lon="6.17693">
        <ele>318.4</ele>
        <time>2022-05-26T07:28:36Z</time>
      </trkpt>
      <trkpt lat="43.30664" lon="6.17689">
        <ele>319.4</ele>
        <time>2022-05-26T07:28:40Z</time>
      </trkpt>
      <trkpt lat="43.30664" lon="6.17688">
        <ele>319.6</ele>
        <time>2022-05-26T07:28:41Z</time>
      </trkpt>
      <trkpt lat="43.30665" lon="6.17683">
        <ele>320.2</ele>
        <time>2022-05-26T07:28:46Z</time>
      </trkpt>
      <trkpt lat="43.30665" lon="6.17681">
        <ele>320.2</ele>
        <time>2022-05-26T07:28:47Z</time>
      </trkpt>
      <trkpt lat="43.30665" lon="6.17679">
        <ele>320.6</ele>
        <time>2022-05-26T07:28:50Z</time>
      </trkpt>
      <trkpt lat="43.30666" lon="6.17676">
        <ele>321</ele>
        <time>2022-05-26T07:28:53Z</time>
      </trkpt>
      <trkpt lat="43.30666" lon="6.17674">
        <ele>321.6</ele>
        <time>2022-05-26T07:28:56Z</time>
      </trkpt>
      <trkpt lat="43.30666" lon="6.1767">
        <ele>322.2</ele>
        <time>2022-05-26T07:29:00Z</time>
      </trkpt>
      <trkpt lat="43.30666" lon="6.17667">
        <ele>322.8</ele>
        <time>2022-05-26T07:29:03Z</time>
      </trkpt>
      <trkpt lat="43.30666" lon="6.17664">
        <ele>323.2</ele>
        <time>2022-05-26T07:29:06Z</time>
      </trkpt>
      <trkpt lat="43.30664" lon="6.1766">
        <ele>324</ele>
        <time>2022-05-26T07:29:11Z</time>
      </trkpt>
      <trkpt lat="43.30664" lon="6.17658">
        <ele>324.2</ele>
        <time>2022-05-26T07:29:13Z</time>
      </trkpt>
      <trkpt lat="43.30663" lon="6.1765">
        <ele>325.2</ele>
        <time>2022-05-26T07:29:21Z</time>
      </trkpt>
      <trkpt lat="43.30661" lon="6.17645">
        <ele>326.4</ele>
        <time>2022-05-26T07:29:27Z</time>
      </trkpt>
      <trkpt lat="43.30659" lon="6.17638">
        <ele>327.2</ele>
        <time>2022-05-26T07:29:34Z</time>
      </trkpt>
      <trkpt lat="43.30659" lon="6.17635">
        <ele>327.6</ele>
        <time>2022-05-26T07:29:36Z</time>
      </trkpt>
      <trkpt lat="43.30658" lon="6.17629">
        <ele>328.2</ele>
        <time>2022-05-26T07:29:42Z</time>
      </trkpt>
      <trkpt lat="43.30658" lon="6.17622">
        <ele>328.6</ele>
        <time>2022-05-26T07:29:48Z</time>
      </trkpt>
      <trkpt lat="43.30657" lon="6.1762">
        <ele>328.8</ele>
        <time>2022-05-26T07:29:49Z</time>
      </trkpt>
      <trkpt lat="43.30658" lon="6.17616">
        <ele>329</ele>
        <time>2022-05-26T07:29:52Z</time>
      </trkpt>
      <trkpt lat="43.30658" lon="6.17611">
        <ele>329.4</ele>
        <time>2022-05-26T07:29:56Z</time>
      </trkpt>
      <trkpt lat="43.30657" lon="6.1761">
        <ele>329.6</ele>
        <time>2022-05-26T07:29:57Z</time>
      </trkpt>
      <trkpt lat="43.30657" lon="6.17608">
        <ele>329.8</ele>
        <time>2022-05-26T07:29:59Z</time>
      </trkpt>
      <trkpt lat="43.30657" lon="6.17606">
        <ele>330.2</ele>
        <time>2022-05-26T07:30:01Z</time>
      </trkpt>
      <trkpt lat="43.30657" lon="6.17603">
        <ele>330.6</ele>
        <time>2022-05-26T07:30:07Z</time>
      </trkpt>
      <trkpt lat="43.30657" lon="6.17602">
        <ele>330.6</ele>
        <time>2022-05-26T07:30:08Z</time>
      </trkpt>
      <trkpt lat="43.30657" lon="6.17598">
        <ele>330.8</ele>
        <time>2022-05-26T07:30:10Z</time>
      </trkpt>
      <trkpt lat="43.30656" lon="6.17595">
        <ele>330.8</ele>
        <time>2022-05-26T07:30:12Z</time>
      </trkpt>
      <trkpt lat="43.30652" lon="6.17575">
        <ele>331.6</ele>
        <time>2022-05-26T07:30:21Z</time>
      </trkpt>
      <trkpt lat="43.30653" lon="6.17564">
        <ele>331.6</ele>
        <time>2022-05-26T07:30:25Z</time>
      </trkpt>
      <trkpt lat="43.30653" lon="6.17556">
        <ele>331.6</ele>
        <time>2022-05-26T07:30:28Z</time>
      </trkpt>
      <trkpt lat="43.30654" lon="6.17532">
        <ele>331.8</ele>
        <time>2022-05-26T07:30:36Z</time>
      </trkpt>
      <trkpt lat="43.30654" lon="6.1753">
        <ele>331.8</ele>
        <time>2022-05-26T07:30:37Z</time>
      </trkpt>
      <trkpt lat="43.30652" lon="6.1751">
        <ele>331.6</ele>
        <time>2022-05-26T07:30:42Z</time>
      </trkpt>
      <trkpt lat="43.3065" lon="6.17486">
        <ele>331.4</ele>
        <time>2022-05-26T07:30:48Z</time>
      </trkpt>
      <trkpt lat="43.30648" lon="6.17462">
        <ele>331</ele>
        <time>2022-05-26T07:30:53Z</time>
      </trkpt>
      <trkpt lat="43.30647" lon="6.17457">
        <ele>330.8</ele>
        <time>2022-05-26T07:30:54Z</time>
      </trkpt>
      <trkpt lat="43.30646" lon="6.17431">
        <ele>330.2</ele>
        <time>2022-05-26T07:30:58Z</time>
      </trkpt>
      <trkpt lat="43.30646" lon="6.17418">
        <ele>329.6</ele>
        <time>2022-05-26T07:31:00Z</time>
      </trkpt>
      <trkpt lat="43.30646" lon="6.17387">
        <ele>328.8</ele>
        <time>2022-05-26T07:31:06Z</time>
      </trkpt>
      <trkpt lat="43.30645" lon="6.17383">
        <ele>328.8</ele>
        <time>2022-05-26T07:31:07Z</time>
      </trkpt>
      <trkpt lat="43.30643" lon="6.17365">
        <ele>328.8</ele>
        <time>2022-05-26T07:31:13Z</time>
      </trkpt>
      <trkpt lat="43.30641" lon="6.17351">
        <ele>329.6</ele>
        <time>2022-05-26T07:31:18Z</time>
      </trkpt>
      <trkpt lat="43.30641" lon="6.17348">
        <ele>329.8</ele>
        <time>2022-05-26T07:31:19Z</time>
      </trkpt>
      <trkpt lat="43.30641" lon="6.17335">
        <ele>330.4</ele>
        <time>2022-05-26T07:31:25Z</time>
      </trkpt>
      <trkpt lat="43.30641" lon="6.17334">
        <ele>331</ele>
        <time>2022-05-26T07:31:26Z</time>
      </trkpt>
      <trkpt lat="43.3064" lon="6.17331">
        <ele>331.4</ele>
        <time>2022-05-26T07:31:28Z</time>
      </trkpt>
      <trkpt lat="43.3064" lon="6.17327">
        <ele>332</ele>
        <time>2022-05-26T07:31:30Z</time>
      </trkpt>
      <trkpt lat="43.30638" lon="6.17319">
        <ele>333.4</ele>
        <time>2022-05-26T07:31:35Z</time>
      </trkpt>
      <trkpt lat="43.3064" lon="6.17309">
        <ele>334.4</ele>
        <time>2022-05-26T07:31:41Z</time>
      </trkpt>
      <trkpt lat="43.3064" lon="6.17305">
        <ele>334.8</ele>
        <time>2022-05-26T07:31:43Z</time>
      </trkpt>
      <trkpt lat="43.30642" lon="6.17294">
        <ele>335.2</ele>
        <time>2022-05-26T07:31:48Z</time>
      </trkpt>
      <trkpt lat="43.30642" lon="6.17292">
        <ele>335.4</ele>
        <time>2022-05-26T07:31:49Z</time>
      </trkpt>
      <trkpt lat="43.30643" lon="6.17285">
        <ele>336</ele>
        <time>2022-05-26T07:31:52Z</time>
      </trkpt>
      <trkpt lat="43.30642" lon="6.17278">
        <ele>336.6</ele>
        <time>2022-05-26T07:31:55Z</time>
      </trkpt>
      <trkpt lat="43.30642" lon="6.17271">
        <ele>337.2</ele>
        <time>2022-05-26T07:31:58Z</time>
      </trkpt>
      <trkpt lat="43.30642" lon="6.17267">
        <ele>337.4</ele>
        <time>2022-05-26T07:31:59Z</time>
      </trkpt>
      <trkpt lat="43.30641" lon="6.17264">
        <ele>337.4</ele>
        <time>2022-05-26T07:32:00Z</time>
      </trkpt>
      <trkpt lat="43.30641" lon="6.17261">
        <ele>337.6</ele>
        <time>2022-05-26T07:32:01Z</time>
      </trkpt>
      <trkpt lat="43.3064" lon="6.17258">
        <ele>337.8</ele>
        <time>2022-05-26T07:32:02Z</time>
      </trkpt>
      <trkpt lat="43.30635" lon="6.17248">
        <ele>338</ele>
        <time>2022-05-26T07:32:06Z</time>
      </trkpt>
      <trkpt lat="43.30629" lon="6.17231">
        <ele>338.4</ele>
        <time>2022-05-26T07:32:12Z</time>
      </trkpt>
      <trkpt lat="43.30625" lon="6.17218">
        <ele>338.6</ele>
        <time>2022-05-26T07:32:16Z</time>
      </trkpt>
      <trkpt lat="43.30618" lon="6.17206">
        <ele>339</ele>
        <time>2022-05-26T07:32:20Z</time>
      </trkpt>
      <trkpt lat="43.30609" lon="6.17183">
        <ele>338.8</ele>
        <time>2022-05-26T07:32:27Z</time>
      </trkpt>
      <trkpt lat="43.3061" lon="6.1716">
        <ele>338.4</ele>
        <time>2022-05-26T07:32:33Z</time>
      </trkpt>
      <trkpt lat="43.30611" lon="6.1715">
        <ele>338.4</ele>
        <time>2022-05-26T07:32:36Z</time>
      </trkpt>
      <trkpt lat="43.30612" lon="6.17144">
        <ele>338.6</ele>
        <time>2022-05-26T07:32:38Z</time>
      </trkpt>
      <trkpt lat="43.30615" lon="6.17138">
        <ele>338.6</ele>
        <time>2022-05-26T07:32:40Z</time>
      </trkpt>
      <trkpt lat="43.30625" lon="6.17127">
        <ele>339</ele>
        <time>2022-05-26T07:32:44Z</time>
      </trkpt>
      <trkpt lat="43.30636" lon="6.17115">
        <ele>339.6</ele>
        <time>2022-05-26T07:32:49Z</time>
      </trkpt>
      <trkpt lat="43.30639" lon="6.17111">
        <ele>339.6</ele>
        <time>2022-05-26T07:32:51Z</time>
      </trkpt>
      <trkpt lat="43.30653" lon="6.17098">
        <ele>339.6</ele>
        <time>2022-05-26T07:32:57Z</time>
      </trkpt>
      <trkpt lat="43.30676" lon="6.17075">
        <ele>339.2</ele>
        <time>2022-05-26T07:33:05Z</time>
      </trkpt>
      <trkpt lat="43.30696" lon="6.17055">
        <ele>339</ele>
        <time>2022-05-26T07:33:11Z</time>
      </trkpt>
      <trkpt lat="43.30703" lon="6.17046">
        <ele>338.8</ele>
        <time>2022-05-26T07:33:13Z</time>
      </trkpt>
      <trkpt lat="43.30707" lon="6.17035">
        <ele>338.4</ele>
        <time>2022-05-26T07:33:15Z</time>
      </trkpt>
      <trkpt lat="43.3071" lon="6.17025">
        <ele>337.6</ele>
        <time>2022-05-26T07:33:17Z</time>
      </trkpt>
      <trkpt lat="43.30711" lon="6.1702">
        <ele>337.2</ele>
        <time>2022-05-26T07:33:18Z</time>
      </trkpt>
      <trkpt lat="43.30716" lon="6.17003">
        <ele>337</ele>
        <time>2022-05-26T07:33:22Z</time>
      </trkpt>
      <trkpt lat="43.30717" lon="6.16983">
        <ele>336.6</ele>
        <time>2022-05-26T07:33:28Z</time>
      </trkpt>
      <trkpt lat="43.30718" lon="6.16982">
        <ele>336.2</ele>
        <time>2022-05-26T07:33:31Z</time>
      </trkpt>
      <trkpt lat="43.30718" lon="6.16982">
        <ele>336.2</ele>
        <time>2022-05-26T07:33:32Z</time>
      </trkpt>
      <trkpt lat="43.30719" lon="6.16972">
        <ele>335.8</ele>
        <time>2022-05-26T07:33:41Z</time>
      </trkpt>
      <trkpt lat="43.3072" lon="6.16948">
        <ele>335.8</ele>
        <time>2022-05-26T07:33:46Z</time>
      </trkpt>
      <trkpt lat="43.3072" lon="6.16938">
        <ele>335.2</ele>
        <time>2022-05-26T07:33:48Z</time>
      </trkpt>
      <trkpt lat="43.30718" lon="6.16925">
        <ele>334.6</ele>
        <time>2022-05-26T07:33:50Z</time>
      </trkpt>
      <trkpt lat="43.30717" lon="6.16919">
        <ele>334.4</ele>
        <time>2022-05-26T07:33:51Z</time>
      </trkpt>
      <trkpt lat="43.30715" lon="6.16912">
        <ele>334.4</ele>
        <time>2022-05-26T07:33:52Z</time>
      </trkpt>
      <trkpt lat="43.30712" lon="6.16906">
        <ele>334.2</ele>
        <time>2022-05-26T07:33:53Z</time>
      </trkpt>
      <trkpt lat="43.30705" lon="6.16894">
        <ele>333</ele>
        <time>2022-05-26T07:33:55Z</time>
      </trkpt>
      <trkpt lat="43.30702" lon="6.16889">
        <ele>332.8</ele>
        <time>2022-05-26T07:33:56Z</time>
      </trkpt>
      <trkpt lat="43.30698" lon="6.16884">
        <ele>332</ele>
        <time>2022-05-26T07:33:57Z</time>
      </trkpt>
      <trkpt lat="43.30689" lon="6.16873">
        <ele>331.4</ele>
        <time>2022-05-26T07:34:00Z</time>
      </trkpt>
      <trkpt lat="43.30685" lon="6.16865">
        <ele>331</ele>
        <time>2022-05-26T07:34:02Z</time>
      </trkpt>
      <trkpt lat="43.30679" lon="6.16853">
        <ele>331</ele>
        <time>2022-05-26T07:34:05Z</time>
      </trkpt>
      <trkpt lat="43.30674" lon="6.16836">
        <ele>331</ele>
        <time>2022-05-26T07:34:09Z</time>
      </trkpt>
      <trkpt lat="43.30668" lon="6.16802">
        <ele>329.8</ele>
        <time>2022-05-26T07:34:16Z</time>
      </trkpt>
      <trkpt lat="43.30667" lon="6.16797">
        <ele>329.6</ele>
        <time>2022-05-26T07:34:17Z</time>
      </trkpt>
      <trkpt lat="43.30659" lon="6.1677">
        <ele>328.6</ele>
        <time>2022-05-26T07:34:21Z</time>
      </trkpt>
      <trkpt lat="43.30658" lon="6.16764">
        <ele>328</ele>
        <time>2022-05-26T07:34:22Z</time>
      </trkpt>
      <trkpt lat="43.30656" lon="6.16756">
        <ele>326.8</ele>
        <time>2022-05-26T07:34:23Z</time>
      </trkpt>
      <trkpt lat="43.30653" lon="6.16743">
        <ele>325.6</ele>
        <time>2022-05-26T07:34:25Z</time>
      </trkpt>
      <trkpt lat="43.30649" lon="6.16729">
        <ele>324.4</ele>
        <time>2022-05-26T07:34:27Z</time>
      </trkpt>
      <trkpt lat="43.30648" lon="6.16723">
        <ele>323.6</ele>
        <time>2022-05-26T07:34:28Z</time>
      </trkpt>
      <trkpt lat="43.30644" lon="6.1671">
        <ele>322.8</ele>
        <time>2022-05-26T07:34:30Z</time>
      </trkpt>
      <trkpt lat="43.3064" lon="6.16691">
        <ele>321.4</ele>
        <time>2022-05-26T07:34:33Z</time>
      </trkpt>
      <trkpt lat="43.30639" lon="6.16679">
        <ele>320.6</ele>
        <time>2022-05-26T07:34:35Z</time>
      </trkpt>
      <trkpt lat="43.30638" lon="6.16673">
        <ele>320.4</ele>
        <time>2022-05-26T07:34:36Z</time>
      </trkpt>
      <trkpt lat="43.30638" lon="6.16667">
        <ele>319.8</ele>
        <time>2022-05-26T07:34:37Z</time>
      </trkpt>
      <trkpt lat="43.30637" lon="6.16653">
        <ele>319.4</ele>
        <time>2022-05-26T07:34:39Z</time>
      </trkpt>
      <trkpt lat="43.30636" lon="6.16629">
        <ele>318</ele>
        <time>2022-05-26T07:34:43Z</time>
      </trkpt>
      <trkpt lat="43.30637" lon="6.16625">
        <ele>317.6</ele>
        <time>2022-05-26T07:34:44Z</time>
      </trkpt>
      <trkpt lat="43.30641" lon="6.16618">
        <ele>317.2</ele>
        <time>2022-05-26T07:34:46Z</time>
      </trkpt>
      <trkpt lat="43.30644" lon="6.16616">
        <ele>317</ele>
        <time>2022-05-26T07:34:47Z</time>
      </trkpt>
      <trkpt lat="43.30647" lon="6.16616">
        <ele>316.6</ele>
        <time>2022-05-26T07:34:48Z</time>
      </trkpt>
      <trkpt lat="43.30665" lon="6.16617">
        <ele>316</ele>
        <time>2022-05-26T07:34:53Z</time>
      </trkpt>
      <trkpt lat="43.30677" lon="6.16619">
        <ele>315.4</ele>
        <time>2022-05-26T07:34:57Z</time>
      </trkpt>
      <trkpt lat="43.30689" lon="6.16618">
        <ele>315.4</ele>
        <time>2022-05-26T07:35:01Z</time>
      </trkpt>
      <trkpt lat="43.30708" lon="6.16621">
        <ele>315.4</ele>
        <time>2022-05-26T07:35:07Z</time>
      </trkpt>
      <trkpt lat="43.30713" lon="6.16639">
        <ele>315.4</ele>
        <time>2022-05-26T07:35:11Z</time>
      </trkpt>
      <trkpt lat="43.30713" lon="6.16653">
        <ele>315.4</ele>
        <time>2022-05-26T07:35:14Z</time>
      </trkpt>
      <trkpt lat="43.30714" lon="6.16666">
        <ele>315.2</ele>
        <time>2022-05-26T07:35:16Z</time>
      </trkpt>
      <trkpt lat="43.30716" lon="6.16673">
        <ele>315</ele>
        <time>2022-05-26T07:35:17Z</time>
      </trkpt>
      <trkpt lat="43.30725" lon="6.167">
        <ele>314.2</ele>
        <time>2022-05-26T07:35:21Z</time>
      </trkpt>
      <trkpt lat="43.30727" lon="6.16706">
        <ele>313.8</ele>
        <time>2022-05-26T07:35:22Z</time>
      </trkpt>
      <trkpt lat="43.30734" lon="6.16716">
        <ele>313.4</ele>
        <time>2022-05-26T07:35:24Z</time>
      </trkpt>
      <trkpt lat="43.30738" lon="6.16722">
        <ele>312.8</ele>
        <time>2022-05-26T07:35:25Z</time>
      </trkpt>
      <trkpt lat="43.3075" lon="6.16735">
        <ele>312.2</ele>
        <time>2022-05-26T07:35:28Z</time>
      </trkpt>
      <trkpt lat="43.30755" lon="6.16739">
        <ele>311.6</ele>
        <time>2022-05-26T07:35:29Z</time>
      </trkpt>
      <trkpt lat="43.30769" lon="6.16755">
        <ele>310.6</ele>
        <time>2022-05-26T07:35:32Z</time>
      </trkpt>
      <trkpt lat="43.30777" lon="6.16763">
        <ele>309.4</ele>
        <time>2022-05-26T07:35:34Z</time>
      </trkpt>
      <trkpt lat="43.30798" lon="6.16782">
        <ele>308.8</ele>
        <time>2022-05-26T07:35:38Z</time>
      </trkpt>
      <trkpt lat="43.30803" lon="6.16785">
        <ele>308.4</ele>
        <time>2022-05-26T07:35:39Z</time>
      </trkpt>
      <trkpt lat="43.30826" lon="6.16794">
        <ele>308</ele>
        <time>2022-05-26T07:35:43Z</time>
      </trkpt>
      <trkpt lat="43.30832" lon="6.16798">
        <ele>308</ele>
        <time>2022-05-26T07:35:44Z</time>
      </trkpt>
      <trkpt lat="43.30836" lon="6.16804">
        <ele>307.8</ele>
        <time>2022-05-26T07:35:45Z</time>
      </trkpt>
      <trkpt lat="43.30843" lon="6.16815">
        <ele>307.4</ele>
        <time>2022-05-26T07:35:47Z</time>
      </trkpt>
      <trkpt lat="43.30861" lon="6.16837">
        <ele>307.2</ele>
        <time>2022-05-26T07:35:51Z</time>
      </trkpt>
      <trkpt lat="43.30871" lon="6.16848">
        <ele>306.8</ele>
        <time>2022-05-26T07:35:53Z</time>
      </trkpt>
      <trkpt lat="43.30876" lon="6.16854">
        <ele>306.8</ele>
        <time>2022-05-26T07:35:54Z</time>
      </trkpt>
      <trkpt lat="43.30894" lon="6.16874">
        <ele>306.2</ele>
        <time>2022-05-26T07:35:58Z</time>
      </trkpt>
      <trkpt lat="43.30904" lon="6.16882">
        <ele>306.6</ele>
        <time>2022-05-26T07:36:00Z</time>
      </trkpt>
      <trkpt lat="43.30925" lon="6.16904">
        <ele>304.8</ele>
        <time>2022-05-26T07:36:05Z</time>
      </trkpt>
      <trkpt lat="43.3093" lon="6.16907">
        <ele>304.6</ele>
        <time>2022-05-26T07:36:06Z</time>
      </trkpt>
      <trkpt lat="43.30938" lon="6.16914">
        <ele>304.6</ele>
        <time>2022-05-26T07:36:08Z</time>
      </trkpt>
      <trkpt lat="43.30951" lon="6.16922">
        <ele>304.2</ele>
        <time>2022-05-26T07:36:11Z</time>
      </trkpt>
      <trkpt lat="43.30955" lon="6.16926">
        <ele>304.2</ele>
        <time>2022-05-26T07:36:12Z</time>
      </trkpt>
      <trkpt lat="43.30966" lon="6.1694">
        <ele>303.6</ele>
        <time>2022-05-26T07:36:15Z</time>
      </trkpt>
      <trkpt lat="43.3097" lon="6.16944">
        <ele>303.6</ele>
        <time>2022-05-26T07:36:16Z</time>
      </trkpt>
      <trkpt lat="43.3098" lon="6.1695">
        <ele>303.2</ele>
        <time>2022-05-26T07:36:18Z</time>
      </trkpt>
      <trkpt lat="43.30984" lon="6.16952">
        <ele>303.2</ele>
        <time>2022-05-26T07:36:19Z</time>
      </trkpt>
      <trkpt lat="43.31007" lon="6.16964">
        <ele>302.8</ele>
        <time>2022-05-26T07:36:24Z</time>
      </trkpt>
      <trkpt lat="43.31013" lon="6.16968">
        <ele>302.8</ele>
        <time>2022-05-26T07:36:25Z</time>
      </trkpt>
      <trkpt lat="43.31023" lon="6.16973">
        <ele>302.4</ele>
        <time>2022-05-26T07:36:27Z</time>
      </trkpt>
      <trkpt lat="43.31027" lon="6.16976">
        <ele>302.4</ele>
        <time>2022-05-26T07:36:28Z</time>
      </trkpt>
      <trkpt lat="43.31039" lon="6.16983">
        <ele>301.6</ele>
        <time>2022-05-26T07:36:30Z</time>
      </trkpt>
      <trkpt lat="43.31044" lon="6.16987">
        <ele>301.2</ele>
        <time>2022-05-26T07:36:31Z</time>
      </trkpt>
      <trkpt lat="43.31061" lon="6.17002">
        <ele>300.8</ele>
        <time>2022-05-26T07:36:35Z</time>
      </trkpt>
      <trkpt lat="43.31082" lon="6.17018">
        <ele>300.2</ele>
        <time>2022-05-26T07:36:41Z</time>
      </trkpt>
      <trkpt lat="43.31099" lon="6.17028">
        <ele>300.2</ele>
        <time>2022-05-26T07:36:46Z</time>
      </trkpt>
      <trkpt lat="43.31106" lon="6.17033">
        <ele>300.4</ele>
        <time>2022-05-26T07:36:48Z</time>
      </trkpt>
      <trkpt lat="43.3111" lon="6.17035">
        <ele>300.4</ele>
        <time>2022-05-26T07:36:49Z</time>
      </trkpt>
      <trkpt lat="43.31123" lon="6.17042">
        <ele>300.2</ele>
        <time>2022-05-26T07:36:52Z</time>
      </trkpt>
      <trkpt lat="43.31127" lon="6.17043">
        <ele>300.2</ele>
        <time>2022-05-26T07:36:53Z</time>
      </trkpt>
      <trkpt lat="43.3113" lon="6.17044">
        <ele>300.2</ele>
        <time>2022-05-26T07:36:54Z</time>
      </trkpt>
      <trkpt lat="43.31149" lon="6.1705">
        <ele>299.4</ele>
        <time>2022-05-26T07:36:58Z</time>
      </trkpt>
      <trkpt lat="43.31154" lon="6.17051">
        <ele>299.2</ele>
        <time>2022-05-26T07:36:59Z</time>
      </trkpt>
      <trkpt lat="43.31161" lon="6.17054">
        <ele>298.8</ele>
        <time>2022-05-26T07:37:00Z</time>
      </trkpt>
      <trkpt lat="43.31182" lon="6.1706">
        <ele>298</ele>
        <time>2022-05-26T07:37:04Z</time>
      </trkpt>
      <trkpt lat="43.31187" lon="6.17061">
        <ele>297.8</ele>
        <time>2022-05-26T07:37:05Z</time>
      </trkpt>
      <trkpt lat="43.3119" lon="6.17061">
        <ele>297.6</ele>
        <time>2022-05-26T07:37:06Z</time>
      </trkpt>
      <trkpt lat="43.31201" lon="6.17057">
        <ele>296.8</ele>
        <time>2022-05-26T07:37:08Z</time>
      </trkpt>
      <trkpt lat="43.31208" lon="6.17053">
        <ele>296.6</ele>
        <time>2022-05-26T07:37:09Z</time>
      </trkpt>
      <trkpt lat="43.31221" lon="6.17045">
        <ele>296</ele>
        <time>2022-05-26T07:37:11Z</time>
      </trkpt>
      <trkpt lat="43.31227" lon="6.17044">
        <ele>295.8</ele>
        <time>2022-05-26T07:37:12Z</time>
      </trkpt>
      <trkpt lat="43.31233" lon="6.17045">
        <ele>295.6</ele>
        <time>2022-05-26T07:37:13Z</time>
      </trkpt>
      <trkpt lat="43.31246" lon="6.17045">
        <ele>295.2</ele>
        <time>2022-05-26T07:37:15Z</time>
      </trkpt>
      <trkpt lat="43.31261" lon="6.17048">
        <ele>294.6</ele>
        <time>2022-05-26T07:37:17Z</time>
      </trkpt>
      <trkpt lat="43.31284" lon="6.17052">
        <ele>293.4</ele>
        <time>2022-05-26T07:37:20Z</time>
      </trkpt>
      <trkpt lat="43.31308" lon="6.17057">
        <ele>292</ele>
        <time>2022-05-26T07:37:23Z</time>
      </trkpt>
      <trkpt lat="43.31316" lon="6.17058">
        <ele>291.6</ele>
        <time>2022-05-26T07:37:24Z</time>
      </trkpt>
      <trkpt lat="43.31334" lon="6.17058">
        <ele>291</ele>
        <time>2022-05-26T07:37:26Z</time>
      </trkpt>
      <trkpt lat="43.31342" lon="6.17059">
        <ele>290.6</ele>
        <time>2022-05-26T07:37:27Z</time>
      </trkpt>
      <trkpt lat="43.31362" lon="6.17061">
        <ele>289.8</ele>
        <time>2022-05-26T07:37:30Z</time>
      </trkpt>
      <trkpt lat="43.31368" lon="6.1706">
        <ele>289.2</ele>
        <time>2022-05-26T07:37:31Z</time>
      </trkpt>
      <trkpt lat="43.3138" lon="6.17056">
        <ele>288.6</ele>
        <time>2022-05-26T07:37:33Z</time>
      </trkpt>
      <trkpt lat="43.31384" lon="6.17053">
        <ele>288.4</ele>
        <time>2022-05-26T07:37:34Z</time>
      </trkpt>
      <trkpt lat="43.31398" lon="6.17041">
        <ele>288</ele>
        <time>2022-05-26T07:37:37Z</time>
      </trkpt>
      <trkpt lat="43.31407" lon="6.17038">
        <ele>287.6</ele>
        <time>2022-05-26T07:37:39Z</time>
      </trkpt>
      <trkpt lat="43.31411" lon="6.1704">
        <ele>287</ele>
        <time>2022-05-26T07:37:40Z</time>
      </trkpt>
      <trkpt lat="43.31416" lon="6.17042">
        <ele>286.6</ele>
        <time>2022-05-26T07:37:41Z</time>
      </trkpt>
      <trkpt lat="43.31421" lon="6.17042">
        <ele>286.6</ele>
        <time>2022-05-26T07:37:42Z</time>
      </trkpt>
      <trkpt lat="43.31434" lon="6.17036">
        <ele>286</ele>
        <time>2022-05-26T07:37:46Z</time>
      </trkpt>
      <trkpt lat="43.31444" lon="6.17036">
        <ele>286.4</ele>
        <time>2022-05-26T07:37:51Z</time>
      </trkpt>
      <trkpt lat="43.31455" lon="6.1704">
        <ele>287</ele>
        <time>2022-05-26T07:37:57Z</time>
      </trkpt>
      <trkpt lat="43.3146" lon="6.17043">
        <ele>287.2</ele>
        <time>2022-05-26T07:38:00Z</time>
      </trkpt>
      <trkpt lat="43.31467" lon="6.17047">
        <ele>288</ele>
        <time>2022-05-26T07:38:04Z</time>
      </trkpt>
      <trkpt lat="43.31473" lon="6.17049">
        <ele>288.4</ele>
        <time>2022-05-26T07:38:08Z</time>
      </trkpt>
      <trkpt lat="43.31481" lon="6.17052">
        <ele>288.6</ele>
        <time>2022-05-26T07:38:12Z</time>
      </trkpt>
      <trkpt lat="43.31495" lon="6.17054">
        <ele>289.4</ele>
        <time>2022-05-26T07:38:19Z</time>
      </trkpt>
      <trkpt lat="43.31503" lon="6.17055">
        <ele>289.8</ele>
        <time>2022-05-26T07:38:23Z</time>
      </trkpt>
      <trkpt lat="43.31511" lon="6.17058">
        <ele>290.4</ele>
        <time>2022-05-26T07:38:28Z</time>
      </trkpt>
      <trkpt lat="43.31515" lon="6.17059">
        <ele>291</ele>
        <time>2022-05-26T07:38:31Z</time>
      </trkpt>
      <trkpt lat="43.31519" lon="6.1706">
        <ele>291.6</ele>
        <time>2022-05-26T07:38:33Z</time>
      </trkpt>
      <trkpt lat="43.31524" lon="6.17061">
        <ele>292.2</ele>
        <time>2022-05-26T07:38:37Z</time>
      </trkpt>
      <trkpt lat="43.31525" lon="6.17061">
        <ele>292</ele>
        <time>2022-05-26T07:38:38Z</time>
      </trkpt>
      <trkpt lat="43.31532" lon="6.17058">
        <ele>292.4</ele>
        <time>2022-05-26T07:38:42Z</time>
      </trkpt>
      <trkpt lat="43.31533" lon="6.17058">
        <ele>292.6</ele>
        <time>2022-05-26T07:38:43Z</time>
      </trkpt>
      <trkpt lat="43.31537" lon="6.17059">
        <ele>293.2</ele>
        <time>2022-05-26T07:38:46Z</time>
      </trkpt>
      <trkpt lat="43.31542" lon="6.1706">
        <ele>293.4</ele>
        <time>2022-05-26T07:38:49Z</time>
      </trkpt>
      <trkpt lat="43.31543" lon="6.1706">
        <ele>293.6</ele>
        <time>2022-05-26T07:38:50Z</time>
      </trkpt>
      <trkpt lat="43.31547" lon="6.17062">
        <ele>294.2</ele>
        <time>2022-05-26T07:38:53Z</time>
      </trkpt>
      <trkpt lat="43.31549" lon="6.17063">
        <ele>294.4</ele>
        <time>2022-05-26T07:38:55Z</time>
      </trkpt>
      <trkpt lat="43.31557" lon="6.17067">
        <ele>295</ele>
        <time>2022-05-26T07:39:00Z</time>
      </trkpt>
      <trkpt lat="43.31564" lon="6.17071">
        <ele>295.4</ele>
        <time>2022-05-26T07:39:06Z</time>
      </trkpt>
      <trkpt lat="43.31566" lon="6.17072">
        <ele>295.6</ele>
        <time>2022-05-26T07:39:07Z</time>
      </trkpt>
      <trkpt lat="43.31575" lon="6.17077">
        <ele>296.6</ele>
        <time>2022-05-26T07:39:14Z</time>
      </trkpt>
      <trkpt lat="43.31577" lon="6.17078">
        <ele>296.8</ele>
        <time>2022-05-26T07:39:15Z</time>
      </trkpt>
      <trkpt lat="43.31587" lon="6.17081">
        <ele>297.8</ele>
        <time>2022-05-26T07:39:22Z</time>
      </trkpt>
      <trkpt lat="43.316" lon="6.17087">
        <ele>299</ele>
        <time>2022-05-26T07:39:31Z</time>
      </trkpt>
      <trkpt lat="43.31607" lon="6.17088">
        <ele>300.2</ele>
        <time>2022-05-26T07:39:36Z</time>
      </trkpt>
      <trkpt lat="43.31609" lon="6.17088">
        <ele>300.8</ele>
        <time>2022-05-26T07:39:38Z</time>
      </trkpt>
      <trkpt lat="43.31617" lon="6.17088">
        <ele>301.4</ele>
        <time>2022-05-26T07:39:44Z</time>
      </trkpt>
      <trkpt lat="43.3162" lon="6.17088">
        <ele>301.6</ele>
        <time>2022-05-26T07:39:46Z</time>
      </trkpt>
      <trkpt lat="43.31623" lon="6.17091">
        <ele>302.2</ele>
        <time>2022-05-26T07:39:50Z</time>
      </trkpt>
      <trkpt lat="43.31624" lon="6.17092">
        <ele>302.6</ele>
        <time>2022-05-26T07:39:51Z</time>
      </trkpt>
      <trkpt lat="43.31628" lon="6.17093">
        <ele>303.4</ele>
        <time>2022-05-26T07:39:54Z</time>
      </trkpt>
      <trkpt lat="43.3163" lon="6.17095">
        <ele>303.6</ele>
        <time>2022-05-26T07:39:57Z</time>
      </trkpt>
      <trkpt lat="43.31632" lon="6.17097">
        <ele>303.8</ele>
        <time>2022-05-26T07:39:59Z</time>
      </trkpt>
      <trkpt lat="43.31637" lon="6.171">
        <ele>304.2</ele>
        <time>2022-05-26T07:40:03Z</time>
      </trkpt>
      <trkpt lat="43.31642" lon="6.17102">
        <ele>304.8</ele>
        <time>2022-05-26T07:40:07Z</time>
      </trkpt>
      <trkpt lat="43.31648" lon="6.17103">
        <ele>305.8</ele>
        <time>2022-05-26T07:40:12Z</time>
      </trkpt>
      <trkpt lat="43.3165" lon="6.17104">
        <ele>306</ele>
        <time>2022-05-26T07:40:13Z</time>
      </trkpt>
      <trkpt lat="43.31651" lon="6.17104">
        <ele>306.2</ele>
        <time>2022-05-26T07:40:15Z</time>
      </trkpt>
      <trkpt lat="43.31653" lon="6.17104">
        <ele>306.4</ele>
        <time>2022-05-26T07:40:16Z</time>
      </trkpt>
      <trkpt lat="43.31657" lon="6.17107">
        <ele>307</ele>
        <time>2022-05-26T07:40:19Z</time>
      </trkpt>
      <trkpt lat="43.31658" lon="6.17108">
        <ele>307.2</ele>
        <time>2022-05-26T07:40:20Z</time>
      </trkpt>
      <trkpt lat="43.31659" lon="6.17109">
        <ele>307.4</ele>
        <time>2022-05-26T07:40:21Z</time>
      </trkpt>
      <trkpt lat="43.31662" lon="6.17109">
        <ele>307.6</ele>
        <time>2022-05-26T07:40:23Z</time>
      </trkpt>
      <trkpt lat="43.3167" lon="6.17111">
        <ele>307.8</ele>
        <time>2022-05-26T07:40:27Z</time>
      </trkpt>
      <trkpt lat="43.31673" lon="6.17112">
        <ele>308.2</ele>
        <time>2022-05-26T07:40:28Z</time>
      </trkpt>
      <trkpt lat="43.31676" lon="6.17112">
        <ele>308.6</ele>
        <time>2022-05-26T07:40:31Z</time>
      </trkpt>
      <trkpt lat="43.31683" lon="6.17111">
        <ele>309</ele>
        <time>2022-05-26T07:40:35Z</time>
      </trkpt>
      <trkpt lat="43.31687" lon="6.17111">
        <ele>309.2</ele>
        <time>2022-05-26T07:40:37Z</time>
      </trkpt>
      <trkpt lat="43.31698" lon="6.1711">
        <ele>309.6</ele>
        <time>2022-05-26T07:40:43Z</time>
      </trkpt>
      <trkpt lat="43.317" lon="6.17109">
        <ele>309.8</ele>
        <time>2022-05-26T07:40:44Z</time>
      </trkpt>
      <trkpt lat="43.31709" lon="6.1711">
        <ele>310.2</ele>
        <time>2022-05-26T07:40:48Z</time>
      </trkpt>
      <trkpt lat="43.31719" lon="6.1711">
        <ele>310.6</ele>
        <time>2022-05-26T07:40:53Z</time>
      </trkpt>
      <trkpt lat="43.31728" lon="6.1711">
        <ele>311.2</ele>
        <time>2022-05-26T07:40:59Z</time>
      </trkpt>
      <trkpt lat="43.31734" lon="6.17108">
        <ele>312</ele>
        <time>2022-05-26T07:41:03Z</time>
      </trkpt>
      <trkpt lat="43.3174" lon="6.17109">
        <ele>312.2</ele>
        <time>2022-05-26T07:41:07Z</time>
      </trkpt>
      <trkpt lat="43.31752" lon="6.17108">
        <ele>312.8</ele>
        <time>2022-05-26T07:41:14Z</time>
      </trkpt>
      <trkpt lat="43.3176" lon="6.17105">
        <ele>313.2</ele>
        <time>2022-05-26T07:41:18Z</time>
      </trkpt>
      <trkpt lat="43.31767" lon="6.17102">
        <ele>313.6</ele>
        <time>2022-05-26T07:41:22Z</time>
      </trkpt>
      <trkpt lat="43.31787" lon="6.17099">
        <ele>313.8</ele>
        <time>2022-05-26T07:41:31Z</time>
      </trkpt>
      <trkpt lat="43.31807" lon="6.17095">
        <ele>313.4</ele>
        <time>2022-05-26T07:41:38Z</time>
      </trkpt>
      <trkpt lat="43.31827" lon="6.17091">
        <ele>313.6</ele>
        <time>2022-05-26T07:41:45Z</time>
      </trkpt>
      <trkpt lat="43.3183" lon="6.17091">
        <ele>313.4</ele>
        <time>2022-05-26T07:41:46Z</time>
      </trkpt>
      <trkpt lat="43.31851" lon="6.1709">
        <ele>313.4</ele>
        <time>2022-05-26T07:41:51Z</time>
      </trkpt>
      <trkpt lat="43.31855" lon="6.17089">
        <ele>313.4</ele>
        <time>2022-05-26T07:41:52Z</time>
      </trkpt>
      <trkpt lat="43.31869" lon="6.17094">
        <ele>313.4</ele>
        <time>2022-05-26T07:41:58Z</time>
      </trkpt>
      <trkpt lat="43.31879" lon="6.17098">
        <ele>314.2</ele>
        <time>2022-05-26T07:42:03Z</time>
      </trkpt>
      <trkpt lat="43.31886" lon="6.17099">
        <ele>314.4</ele>
        <time>2022-05-26T07:42:06Z</time>
      </trkpt>
      <trkpt lat="43.31899" lon="6.17099">
        <ele>315</ele>
        <time>2022-05-26T07:42:12Z</time>
      </trkpt>
      <trkpt lat="43.31908" lon="6.17098">
        <ele>315.2</ele>
        <time>2022-05-26T07:42:16Z</time>
      </trkpt>
      <trkpt lat="43.31916" lon="6.17098">
        <ele>315.8</ele>
        <time>2022-05-26T07:42:20Z</time>
      </trkpt>
      <trkpt lat="43.31924" lon="6.17097">
        <ele>316.4</ele>
        <time>2022-05-26T07:42:25Z</time>
      </trkpt>
      <trkpt lat="43.31926" lon="6.17097">
        <ele>316.6</ele>
        <time>2022-05-26T07:42:26Z</time>
      </trkpt>
      <trkpt lat="43.31938" lon="6.17097">
        <ele>317.4</ele>
        <time>2022-05-26T07:42:32Z</time>
      </trkpt>
      <trkpt lat="43.31939" lon="6.17097">
        <ele>317.6</ele>
        <time>2022-05-26T07:42:33Z</time>
      </trkpt>
      <trkpt lat="43.31954" lon="6.17095">
        <ele>318.6</ele>
        <time>2022-05-26T07:42:40Z</time>
      </trkpt>
      <trkpt lat="43.31971" lon="6.17089">
        <ele>319.4</ele>
        <time>2022-05-26T07:42:48Z</time>
      </trkpt>
      <trkpt lat="43.31979" lon="6.17086">
        <ele>319.6</ele>
        <time>2022-05-26T07:42:52Z</time>
      </trkpt>
      <trkpt lat="43.31981" lon="6.17085">
        <ele>319.6</ele>
        <time>2022-05-26T07:42:53Z</time>
      </trkpt>
      <trkpt lat="43.31984" lon="6.17086">
        <ele>319.8</ele>
        <time>2022-05-26T07:42:55Z</time>
      </trkpt>
      <trkpt lat="43.31988" lon="6.17085">
        <ele>320</ele>
        <time>2022-05-26T07:42:57Z</time>
      </trkpt>
      <trkpt lat="43.32005" lon="6.17077">
        <ele>320</ele>
        <time>2022-05-26T07:43:05Z</time>
      </trkpt>
      <trkpt lat="43.32022" lon="6.17068">
        <ele>320</ele>
        <time>2022-05-26T07:43:12Z</time>
      </trkpt>
      <trkpt lat="43.32028" lon="6.17062">
        <ele>320</ele>
        <time>2022-05-26T07:43:15Z</time>
      </trkpt>
      <trkpt lat="43.32043" lon="6.17053">
        <ele>319.8</ele>
        <time>2022-05-26T07:43:20Z</time>
      </trkpt>
      <trkpt lat="43.32065" lon="6.17039">
        <ele>319.8</ele>
        <time>2022-05-26T07:43:26Z</time>
      </trkpt>
      <trkpt lat="43.32069" lon="6.17037">
        <ele>319.8</ele>
        <time>2022-05-26T07:43:27Z</time>
      </trkpt>
      <trkpt lat="43.32076" lon="6.17033">
        <ele>319.6</ele>
        <time>2022-05-26T07:43:29Z</time>
      </trkpt>
      <trkpt lat="43.3208" lon="6.17031">
        <ele>319.6</ele>
        <time>2022-05-26T07:43:30Z</time>
      </trkpt>
      <trkpt lat="43.32088" lon="6.17026">
        <ele>319.6</ele>
        <time>2022-05-26T07:43:32Z</time>
      </trkpt>
      <trkpt lat="43.32114" lon="6.17014">
        <ele>319.4</ele>
        <time>2022-05-26T07:43:39Z</time>
      </trkpt>
      <trkpt lat="43.32117" lon="6.17012">
        <ele>319.6</ele>
        <time>2022-05-26T07:43:40Z</time>
      </trkpt>
      <trkpt lat="43.32137" lon="6.17004">
        <ele>319.8</ele>
        <time>2022-05-26T07:43:46Z</time>
      </trkpt>
      <trkpt lat="43.32159" lon="6.16996">
        <ele>319.8</ele>
        <time>2022-05-26T07:43:53Z</time>
      </trkpt>
      <trkpt lat="43.32179" lon="6.16986">
        <ele>319.8</ele>
        <time>2022-05-26T07:44:00Z</time>
      </trkpt>
      <trkpt lat="43.32196" lon="6.16978">
        <ele>320.2</ele>
        <time>2022-05-26T07:44:07Z</time>
      </trkpt>
      <trkpt lat="43.322" lon="6.16977">
        <ele>320.6</ele>
        <time>2022-05-26T07:44:09Z</time>
      </trkpt>
      <trkpt lat="43.32206" lon="6.16975">
        <ele>321</ele>
        <time>2022-05-26T07:44:12Z</time>
      </trkpt>
      <trkpt lat="43.32217" lon="6.16971">
        <ele>321.4</ele>
        <time>2022-05-26T07:44:17Z</time>
      </trkpt>
      <trkpt lat="43.32228" lon="6.16969">
        <ele>321.6</ele>
        <time>2022-05-26T07:44:21Z</time>
      </trkpt>
      <trkpt lat="43.32239" lon="6.16966">
        <ele>322</ele>
        <time>2022-05-26T07:44:25Z</time>
      </trkpt>
      <trkpt lat="43.32248" lon="6.16963">
        <ele>322.2</ele>
        <time>2022-05-26T07:44:28Z</time>
      </trkpt>
      <trkpt lat="43.32271" lon="6.1696">
        <ele>322.6</ele>
        <time>2022-05-26T07:44:35Z</time>
      </trkpt>
      <trkpt lat="43.32294" lon="6.16957">
        <ele>322.8</ele>
        <time>2022-05-26T07:44:42Z</time>
      </trkpt>
      <trkpt lat="43.32322" lon="6.16946">
        <ele>322.4</ele>
        <time>2022-05-26T07:44:48Z</time>
      </trkpt>
      <trkpt lat="43.32325" lon="6.16947">
        <ele>322.2</ele>
        <time>2022-05-26T07:44:49Z</time>
      </trkpt>
      <trkpt lat="43.32341" lon="6.16944">
        <ele>322</ele>
        <time>2022-05-26T07:44:54Z</time>
      </trkpt>
      <trkpt lat="43.32345" lon="6.16944">
        <ele>322</ele>
        <time>2022-05-26T07:44:55Z</time>
      </trkpt>
      <trkpt lat="43.32362" lon="6.1694">
        <ele>321.6</ele>
        <time>2022-05-26T07:45:00Z</time>
      </trkpt>
      <trkpt lat="43.32388" lon="6.16924">
        <ele>321</ele>
        <time>2022-05-26T07:45:07Z</time>
      </trkpt>
      <trkpt lat="43.32404" lon="6.16914">
        <ele>320.8</ele>
        <time>2022-05-26T07:45:11Z</time>
      </trkpt>
      <trkpt lat="43.32409" lon="6.16911">
        <ele>320.6</ele>
        <time>2022-05-26T07:45:12Z</time>
      </trkpt>
      <trkpt lat="43.32423" lon="6.169">
        <ele>320.2</ele>
        <time>2022-05-26T07:45:15Z</time>
      </trkpt>
      <trkpt lat="43.32444" lon="6.16886">
        <ele>319.4</ele>
        <time>2022-05-26T07:45:19Z</time>
      </trkpt>
      <trkpt lat="43.3245" lon="6.16883">
        <ele>319.2</ele>
        <time>2022-05-26T07:45:20Z</time>
      </trkpt>
      <trkpt lat="43.32457" lon="6.16879">
        <ele>318.8</ele>
        <time>2022-05-26T07:45:22Z</time>
      </trkpt>
      <trkpt lat="43.32472" lon="6.16873">
        <ele>318.4</ele>
        <time>2022-05-26T07:45:25Z</time>
      </trkpt>
      <trkpt lat="43.32479" lon="6.16871">
        <ele>318</ele>
        <time>2022-05-26T07:45:26Z</time>
      </trkpt>
      <trkpt lat="43.32496" lon="6.16866">
        <ele>317.2</ele>
        <time>2022-05-26T07:45:29Z</time>
      </trkpt>
      <trkpt lat="43.32515" lon="6.1686">
        <ele>316.4</ele>
        <time>2022-05-26T07:45:32Z</time>
      </trkpt>
      <trkpt lat="43.32523" lon="6.16857">
        <ele>316</ele>
        <time>2022-05-26T07:45:33Z</time>
      </trkpt>
      <trkpt lat="43.32551" lon="6.16848">
        <ele>315</ele>
        <time>2022-05-26T07:45:37Z</time>
      </trkpt>
      <trkpt lat="43.32571" lon="6.16845">
        <ele>314</ele>
        <time>2022-05-26T07:45:40Z</time>
      </trkpt>
      <trkpt lat="43.32594" lon="6.16841">
        <ele>312.8</ele>
        <time>2022-05-26T07:45:44Z</time>
      </trkpt>
      <trkpt lat="43.32608" lon="6.16835">
        <ele>311.4</ele>
        <time>2022-05-26T07:45:47Z</time>
      </trkpt>
      <trkpt lat="43.3261" lon="6.16831">
        <ele>311.2</ele>
        <time>2022-05-26T07:45:48Z</time>
      </trkpt>
      <trkpt lat="43.3261" lon="6.16822">
        <ele>310.8</ele>
        <time>2022-05-26T07:45:50Z</time>
      </trkpt>
      <trkpt lat="43.32607" lon="6.16812">
        <ele>310.4</ele>
        <time>2022-05-26T07:45:52Z</time>
      </trkpt>
      <trkpt lat="43.326" lon="6.16789">
        <ele>310.2</ele>
        <time>2022-05-26T07:45:58Z</time>
      </trkpt>
      <trkpt lat="43.32597" lon="6.16779">
        <ele>310.4</ele>
        <time>2022-05-26T07:46:01Z</time>
      </trkpt>
      <trkpt lat="43.32594" lon="6.16773">
        <ele>310.4</ele>
        <time>2022-05-26T07:46:03Z</time>
      </trkpt>
      <trkpt lat="43.32591" lon="6.16769">
        <ele>310.8</ele>
        <time>2022-05-26T07:46:08Z</time>
      </trkpt>
      <trkpt lat="43.3259" lon="6.16768">
        <ele>311.2</ele>
        <time>2022-05-26T07:46:22Z</time>
      </trkpt>
      <trkpt lat="43.3259" lon="6.16767">
        <ele>311.2</ele>
        <time>2022-05-26T07:46:52Z</time>
      </trkpt>
      <trkpt lat="43.3259" lon="6.16767">
        <ele>311.2</ele>
        <time>2022-05-26T07:47:23Z</time>
      </trkpt>
      <trkpt lat="43.3259" lon="6.16767">
        <ele>311.2</ele>
        <time>2022-05-26T07:47:33Z</time>
      </trkpt>
      <trkpt lat="43.3259" lon="6.16767">
        <ele>311.2</ele>
        <time>2022-05-26T07:47:41Z</time>
      </trkpt>
      <trkpt lat="43.3259" lon="6.16765">
        <ele>311.2</ele>
        <time>2022-05-26T07:47:49Z</time>
      </trkpt>
      <trkpt lat="43.3259" lon="6.16763">
        <ele>311.2</ele>
        <time>2022-05-26T07:47:51Z</time>
      </trkpt>
      <trkpt lat="43.32589" lon="6.16756">
        <ele>311.4</ele>
        <time>2022-05-26T07:47:53Z</time>
      </trkpt>
      <trkpt lat="43.32589" lon="6.16751">
        <ele>311.4</ele>
        <time>2022-05-26T07:47:55Z</time>
      </trkpt>
      <trkpt lat="43.32588" lon="6.16742">
        <ele>311.8</ele>
        <time>2022-05-26T07:47:59Z</time>
      </trkpt>
      <trkpt lat="43.32591" lon="6.16737">
        <ele>312</ele>
        <time>2022-05-26T07:48:01Z</time>
      </trkpt>
      <trkpt lat="43.32599" lon="6.16724">
        <ele>312.2</ele>
        <time>2022-05-26T07:48:05Z</time>
      </trkpt>
      <trkpt lat="43.32605" lon="6.16713">
        <ele>312.2</ele>
        <time>2022-05-26T07:48:08Z</time>
      </trkpt>
      <trkpt lat="43.32624" lon="6.16678">
        <ele>312.2</ele>
        <time>2022-05-26T07:48:17Z</time>
      </trkpt>
      <trkpt lat="43.32639" lon="6.1665">
        <ele>312.2</ele>
        <time>2022-05-26T07:48:24Z</time>
      </trkpt>
      <trkpt lat="43.32647" lon="6.1663">
        <ele>312</ele>
        <time>2022-05-26T07:48:29Z</time>
      </trkpt>
      <trkpt lat="43.32645" lon="6.16626">
        <ele>312</ele>
        <time>2022-05-26T07:48:31Z</time>
      </trkpt>
      <trkpt lat="43.32643" lon="6.16623">
        <ele>312</ele>
        <time>2022-05-26T07:48:33Z</time>
      </trkpt>
      <trkpt lat="43.32641" lon="6.16622">
        <ele>312</ele>
        <time>2022-05-26T07:48:34Z</time>
      </trkpt>
      <trkpt lat="43.32634" lon="6.16619">
        <ele>312.2</ele>
        <time>2022-05-26T07:48:38Z</time>
      </trkpt>
      <trkpt lat="43.32629" lon="6.16616">
        <ele>312.8</ele>
        <time>2022-05-26T07:48:41Z</time>
      </trkpt>
      <trkpt lat="43.32618" lon="6.16611">
        <ele>313.4</ele>
        <time>2022-05-26T07:48:47Z</time>
      </trkpt>
      <trkpt lat="43.32614" lon="6.16608">
        <ele>313.8</ele>
        <time>2022-05-26T07:48:50Z</time>
      </trkpt>
      <trkpt lat="43.32607" lon="6.16605">
        <ele>314.4</ele>
        <time>2022-05-26T07:48:54Z</time>
      </trkpt>
      <trkpt lat="43.32604" lon="6.16604">
        <ele>315</ele>
        <time>2022-05-26T07:48:56Z</time>
      </trkpt>
      <trkpt lat="43.32596" lon="6.16598">
        <ele>315.2</ele>
        <time>2022-05-26T07:49:01Z</time>
      </trkpt>
      <trkpt lat="43.32587" lon="6.16593">
        <ele>316</ele>
        <time>2022-05-26T07:49:07Z</time>
      </trkpt>
      <trkpt lat="43.32581" lon="6.16589">
        <ele>316.4</ele>
        <time>2022-05-26T07:49:11Z</time>
      </trkpt>
      <trkpt lat="43.32573" lon="6.16585">
        <ele>317.2</ele>
        <time>2022-05-26T07:49:17Z</time>
      </trkpt>
      <trkpt lat="43.32572" lon="6.16584">
        <ele>317.2</ele>
        <time>2022-05-26T07:49:18Z</time>
      </trkpt>
      <trkpt lat="43.32562" lon="6.16581">
        <ele>317.8</ele>
        <time>2022-05-26T07:49:24Z</time>
      </trkpt>
      <trkpt lat="43.32555" lon="6.16576">
        <ele>318.2</ele>
        <time>2022-05-26T07:49:28Z</time>
      </trkpt>
      <trkpt lat="43.32549" lon="6.16572">
        <ele>318.6</ele>
        <time>2022-05-26T07:49:32Z</time>
      </trkpt>
      <trkpt lat="43.32543" lon="6.16569">
        <ele>319</ele>
        <time>2022-05-26T07:49:35Z</time>
      </trkpt>
      <trkpt lat="43.32538" lon="6.16566">
        <ele>319.2</ele>
        <time>2022-05-26T07:49:38Z</time>
      </trkpt>
      <trkpt lat="43.32536" lon="6.16565">
        <ele>319.2</ele>
        <time>2022-05-26T07:49:39Z</time>
      </trkpt>
      <trkpt lat="43.32528" lon="6.16559">
        <ele>320.4</ele>
        <time>2022-05-26T07:49:45Z</time>
      </trkpt>
      <trkpt lat="43.32524" lon="6.16556">
        <ele>320.8</ele>
        <time>2022-05-26T07:49:48Z</time>
      </trkpt>
      <trkpt lat="43.32517" lon="6.16552">
        <ele>321.4</ele>
        <time>2022-05-26T07:49:52Z</time>
      </trkpt>
      <trkpt lat="43.32512" lon="6.1655">
        <ele>321.8</ele>
        <time>2022-05-26T07:49:55Z</time>
      </trkpt>
      <trkpt lat="43.32501" lon="6.16548">
        <ele>322.4</ele>
        <time>2022-05-26T07:50:01Z</time>
      </trkpt>
      <trkpt lat="43.32493" lon="6.16546">
        <ele>323</ele>
        <time>2022-05-26T07:50:05Z</time>
      </trkpt>
      <trkpt lat="43.32483" lon="6.16544">
        <ele>323.6</ele>
        <time>2022-05-26T07:50:10Z</time>
      </trkpt>
      <trkpt lat="43.32478" lon="6.16541">
        <ele>323.6</ele>
        <time>2022-05-26T07:50:13Z</time>
      </trkpt>
      <trkpt lat="43.32474" lon="6.16539">
        <ele>323.8</ele>
        <time>2022-05-26T07:50:15Z</time>
      </trkpt>
      <trkpt lat="43.32469" lon="6.16536">
        <ele>324.2</ele>
        <time>2022-05-26T07:50:18Z</time>
      </trkpt>
      <trkpt lat="43.32466" lon="6.16534">
        <ele>324.6</ele>
        <time>2022-05-26T07:50:20Z</time>
      </trkpt>
      <trkpt lat="43.32464" lon="6.16533">
        <ele>324.6</ele>
        <time>2022-05-26T07:50:21Z</time>
      </trkpt>
      <trkpt lat="43.3246" lon="6.16528">
        <ele>325</ele>
        <time>2022-05-26T07:50:24Z</time>
      </trkpt>
      <trkpt lat="43.32454" lon="6.1652">
        <ele>325.8</ele>
        <time>2022-05-26T07:50:29Z</time>
      </trkpt>
      <trkpt lat="43.32449" lon="6.16513">
        <ele>326.4</ele>
        <time>2022-05-26T07:50:34Z</time>
      </trkpt>
      <trkpt lat="43.32448" lon="6.16511">
        <ele>326.4</ele>
        <time>2022-05-26T07:50:35Z</time>
      </trkpt>
      <trkpt lat="43.32445" lon="6.16508">
        <ele>326.8</ele>
        <time>2022-05-26T07:50:38Z</time>
      </trkpt>
      <trkpt lat="43.32444" lon="6.16506">
        <ele>326.8</ele>
        <time>2022-05-26T07:50:39Z</time>
      </trkpt>
      <trkpt lat="43.32435" lon="6.16498">
        <ele>327.6</ele>
        <time>2022-05-26T07:50:46Z</time>
      </trkpt>
      <trkpt lat="43.32434" lon="6.16497">
        <ele>327.8</ele>
        <time>2022-05-26T07:50:47Z</time>
      </trkpt>
      <trkpt lat="43.3243" lon="6.16492">
        <ele>328.4</ele>
        <time>2022-05-26T07:50:51Z</time>
      </trkpt>
      <trkpt lat="43.32427" lon="6.16488">
        <ele>328.8</ele>
        <time>2022-05-26T07:50:54Z</time>
      </trkpt>
      <trkpt lat="43.32422" lon="6.16479">
        <ele>329.4</ele>
        <time>2022-05-26T07:50:59Z</time>
      </trkpt>
      <trkpt lat="43.32421" lon="6.16476">
        <ele>329.6</ele>
        <time>2022-05-26T07:51:01Z</time>
      </trkpt>
      <trkpt lat="43.3242" lon="6.16473">
        <ele>330</ele>
        <time>2022-05-26T07:51:03Z</time>
      </trkpt>
      <trkpt lat="43.32419" lon="6.1647">
        <ele>330</ele>
        <time>2022-05-26T07:51:04Z</time>
      </trkpt>
      <trkpt lat="43.32414" lon="6.1646">
        <ele>330.4</ele>
        <time>2022-05-26T07:51:10Z</time>
      </trkpt>
      <trkpt lat="43.32413" lon="6.16459">
        <ele>330.6</ele>
        <time>2022-05-26T07:51:11Z</time>
      </trkpt>
      <trkpt lat="43.32409" lon="6.16457">
        <ele>330.8</ele>
        <time>2022-05-26T07:51:14Z</time>
      </trkpt>
      <trkpt lat="43.32403" lon="6.16455">
        <ele>331.6</ele>
        <time>2022-05-26T07:51:18Z</time>
      </trkpt>
      <trkpt lat="43.32398" lon="6.16453">
        <ele>332</ele>
        <time>2022-05-26T07:51:22Z</time>
      </trkpt>
      <trkpt lat="43.32393" lon="6.16451">
        <ele>332.2</ele>
        <time>2022-05-26T07:51:26Z</time>
      </trkpt>
      <trkpt lat="43.32389" lon="6.1645">
        <ele>332.8</ele>
        <time>2022-05-26T07:51:29Z</time>
      </trkpt>
      <trkpt lat="43.32387" lon="6.1645">
        <ele>333</ele>
        <time>2022-05-26T07:51:31Z</time>
      </trkpt>
      <trkpt lat="43.32385" lon="6.16449">
        <ele>333.2</ele>
        <time>2022-05-26T07:51:32Z</time>
      </trkpt>
      <trkpt lat="43.32384" lon="6.16449">
        <ele>333.4</ele>
        <time>2022-05-26T07:51:33Z</time>
      </trkpt>
      <trkpt lat="43.32378" lon="6.16446">
        <ele>334.2</ele>
        <time>2022-05-26T07:51:38Z</time>
      </trkpt>
      <trkpt lat="43.32367" lon="6.16445">
        <ele>335.4</ele>
        <time>2022-05-26T07:51:46Z</time>
      </trkpt>
      <trkpt lat="43.32365" lon="6.16445">
        <ele>335.6</ele>
        <time>2022-05-26T07:51:47Z</time>
      </trkpt>
      <trkpt lat="43.32356" lon="6.16446">
        <ele>336</ele>
        <time>2022-05-26T07:51:53Z</time>
      </trkpt>
      <trkpt lat="43.3235" lon="6.16444">
        <ele>336.4</ele>
        <time>2022-05-26T07:51:57Z</time>
      </trkpt>
      <trkpt lat="43.32345" lon="6.16442">
        <ele>337</ele>
        <time>2022-05-26T07:52:01Z</time>
      </trkpt>
      <trkpt lat="43.32342" lon="6.1644">
        <ele>337.4</ele>
        <time>2022-05-26T07:52:04Z</time>
      </trkpt>
      <trkpt lat="43.32336" lon="6.16436">
        <ele>338.6</ele>
        <time>2022-05-26T07:52:09Z</time>
      </trkpt>
      <trkpt lat="43.32335" lon="6.16436">
        <ele>338.6</ele>
        <time>2022-05-26T07:52:10Z</time>
      </trkpt>
      <trkpt lat="43.32328" lon="6.16431">
        <ele>339.6</ele>
        <time>2022-05-26T07:52:16Z</time>
      </trkpt>
      <trkpt lat="43.32327" lon="6.1643">
        <ele>339.6</ele>
        <time>2022-05-26T07:52:17Z</time>
      </trkpt>
      <trkpt lat="43.32325" lon="6.16428">
        <ele>339.8</ele>
        <time>2022-05-26T07:52:19Z</time>
      </trkpt>
      <trkpt lat="43.32323" lon="6.16427">
        <ele>340.2</ele>
        <time>2022-05-26T07:52:21Z</time>
      </trkpt>
      <trkpt lat="43.3232" lon="6.16427">
        <ele>340.6</ele>
        <time>2022-05-26T07:52:23Z</time>
      </trkpt>
      <trkpt lat="43.32317" lon="6.16426">
        <ele>340.8</ele>
        <time>2022-05-26T07:52:25Z</time>
      </trkpt>
      <trkpt lat="43.3231" lon="6.16428">
        <ele>341.2</ele>
        <time>2022-05-26T07:52:30Z</time>
      </trkpt>
      <trkpt lat="43.32307" lon="6.16429">
        <ele>341.8</ele>
        <time>2022-05-26T07:52:33Z</time>
      </trkpt>
      <trkpt lat="43.32301" lon="6.1643">
        <ele>342.4</ele>
        <time>2022-05-26T07:52:37Z</time>
      </trkpt>
      <trkpt lat="43.32297" lon="6.16433">
        <ele>342.8</ele>
        <time>2022-05-26T07:52:40Z</time>
      </trkpt>
      <trkpt lat="43.32295" lon="6.16434">
        <ele>343</ele>
        <time>2022-05-26T07:52:42Z</time>
      </trkpt>
      <trkpt lat="43.32294" lon="6.16435">
        <ele>343</ele>
        <time>2022-05-26T07:52:43Z</time>
      </trkpt>
      <trkpt lat="43.32282" lon="6.16436">
        <ele>343.6</ele>
        <time>2022-05-26T07:52:51Z</time>
      </trkpt>
      <trkpt lat="43.32276" lon="6.16436">
        <ele>344.2</ele>
        <time>2022-05-26T07:52:55Z</time>
      </trkpt>
      <trkpt lat="43.32269" lon="6.16433">
        <ele>344.6</ele>
        <time>2022-05-26T07:53:00Z</time>
      </trkpt>
      <trkpt lat="43.32268" lon="6.16432">
        <ele>344.8</ele>
        <time>2022-05-26T07:53:01Z</time>
      </trkpt>
      <trkpt lat="43.32267" lon="6.16431">
        <ele>345</ele>
        <time>2022-05-26T07:53:02Z</time>
      </trkpt>
      <trkpt lat="43.32266" lon="6.16421">
        <ele>345.8</ele>
        <time>2022-05-26T07:53:08Z</time>
      </trkpt>
      <trkpt lat="43.32267" lon="6.16419">
        <ele>345.8</ele>
        <time>2022-05-26T07:53:09Z</time>
      </trkpt>
      <trkpt lat="43.32269" lon="6.16416">
        <ele>346</ele>
        <time>2022-05-26T07:53:11Z</time>
      </trkpt>
      <trkpt lat="43.32272" lon="6.16412">
        <ele>346.2</ele>
        <time>2022-05-26T07:53:14Z</time>
      </trkpt>
      <trkpt lat="43.32281" lon="6.16409">
        <ele>346.6</ele>
        <time>2022-05-26T07:53:20Z</time>
      </trkpt>
      <trkpt lat="43.32282" lon="6.16408">
        <ele>346.8</ele>
        <time>2022-05-26T07:53:21Z</time>
      </trkpt>
      <trkpt lat="43.32291" lon="6.164">
        <ele>347.6</ele>
        <time>2022-05-26T07:53:29Z</time>
      </trkpt>
      <trkpt lat="43.32292" lon="6.16397">
        <ele>347.8</ele>
        <time>2022-05-26T07:53:31Z</time>
      </trkpt>
      <trkpt lat="43.32295" lon="6.16393">
        <ele>348.6</ele>
        <time>2022-05-26T07:53:35Z</time>
      </trkpt>
      <trkpt lat="43.32297" lon="6.16391">
        <ele>348.8</ele>
        <time>2022-05-26T07:53:37Z</time>
      </trkpt>
      <trkpt lat="43.323" lon="6.16389">
        <ele>349.2</ele>
        <time>2022-05-26T07:53:39Z</time>
      </trkpt>
      <trkpt lat="43.32301" lon="6.16385">
        <ele>349.6</ele>
        <time>2022-05-26T07:53:42Z</time>
      </trkpt>
      <trkpt lat="43.32302" lon="6.16383">
        <ele>349.8</ele>
        <time>2022-05-26T07:53:43Z</time>
      </trkpt>
      <trkpt lat="43.32304" lon="6.16374">
        <ele>350.6</ele>
        <time>2022-05-26T07:53:49Z</time>
      </trkpt>
      <trkpt lat="43.32305" lon="6.1637">
        <ele>350.8</ele>
        <time>2022-05-26T07:53:51Z</time>
      </trkpt>
      <trkpt lat="43.32304" lon="6.16367">
        <ele>351</ele>
        <time>2022-05-26T07:53:53Z</time>
      </trkpt>
      <trkpt lat="43.32303" lon="6.16363">
        <ele>351</ele>
        <time>2022-05-26T07:53:55Z</time>
      </trkpt>
      <trkpt lat="43.32304" lon="6.16362">
        <ele>351.2</ele>
        <time>2022-05-26T07:53:56Z</time>
      </trkpt>
      <trkpt lat="43.32304" lon="6.1636">
        <ele>351.4</ele>
        <time>2022-05-26T07:53:57Z</time>
      </trkpt>
      <trkpt lat="43.32307" lon="6.16353">
        <ele>351.6</ele>
        <time>2022-05-26T07:54:01Z</time>
      </trkpt>
      <trkpt lat="43.3231" lon="6.16348">
        <ele>352</ele>
        <time>2022-05-26T07:54:04Z</time>
      </trkpt>
      <trkpt lat="43.32311" lon="6.16347">
        <ele>352</ele>
        <time>2022-05-26T07:54:05Z</time>
      </trkpt>
      <trkpt lat="43.32314" lon="6.16346">
        <ele>352</ele>
        <time>2022-05-26T07:54:07Z</time>
      </trkpt>
      <trkpt lat="43.32317" lon="6.16346">
        <ele>352.2</ele>
        <time>2022-05-26T07:54:09Z</time>
      </trkpt>
      <trkpt lat="43.32322" lon="6.16343">
        <ele>352.8</ele>
        <time>2022-05-26T07:54:14Z</time>
      </trkpt>
      <trkpt lat="43.32323" lon="6.16343">
        <ele>353.2</ele>
        <time>2022-05-26T07:54:15Z</time>
      </trkpt>
      <trkpt lat="43.32326" lon="6.16343">
        <ele>353.4</ele>
        <time>2022-05-26T07:54:17Z</time>
      </trkpt>
      <trkpt lat="43.32329" lon="6.16341">
        <ele>354</ele>
        <time>2022-05-26T07:54:20Z</time>
      </trkpt>
      <trkpt lat="43.32332" lon="6.16341">
        <ele>354.2</ele>
        <time>2022-05-26T07:54:22Z</time>
      </trkpt>
      <trkpt lat="43.32336" lon="6.16339">
        <ele>354.4</ele>
        <time>2022-05-26T07:54:25Z</time>
      </trkpt>
      <trkpt lat="43.32339" lon="6.16337">
        <ele>354.8</ele>
        <time>2022-05-26T07:54:28Z</time>
      </trkpt>
      <trkpt lat="43.3234" lon="6.16336">
        <ele>354.8</ele>
        <time>2022-05-26T07:54:29Z</time>
      </trkpt>
      <trkpt lat="43.32342" lon="6.16331">
        <ele>355.2</ele>
        <time>2022-05-26T07:54:32Z</time>
      </trkpt>
      <trkpt lat="43.32345" lon="6.16327">
        <ele>355.6</ele>
        <time>2022-05-26T07:54:35Z</time>
      </trkpt>
      <trkpt lat="43.32348" lon="6.16321">
        <ele>356.4</ele>
        <time>2022-05-26T07:54:39Z</time>
      </trkpt>
      <trkpt lat="43.32349" lon="6.16314">
        <ele>356.6</ele>
        <time>2022-05-26T07:54:43Z</time>
      </trkpt>
      <trkpt lat="43.3235" lon="6.16308">
        <ele>357.2</ele>
        <time>2022-05-26T07:54:47Z</time>
      </trkpt>
      <trkpt lat="43.32349" lon="6.16307">
        <ele>357.4</ele>
        <time>2022-05-26T07:54:48Z</time>
      </trkpt>
      <trkpt lat="43.32349" lon="6.16305">
        <ele>357.4</ele>
        <time>2022-05-26T07:54:49Z</time>
      </trkpt>
      <trkpt lat="43.32349" lon="6.16299">
        <ele>358</ele>
        <time>2022-05-26T07:54:53Z</time>
      </trkpt>
      <trkpt lat="43.3235" lon="6.16297">
        <ele>358.2</ele>
        <time>2022-05-26T07:54:54Z</time>
      </trkpt>
      <trkpt lat="43.3235" lon="6.16295">
        <ele>358.4</ele>
        <time>2022-05-26T07:54:55Z</time>
      </trkpt>
      <trkpt lat="43.3235" lon="6.16293">
        <ele>358.8</ele>
        <time>2022-05-26T07:54:56Z</time>
      </trkpt>
      <trkpt lat="43.3235" lon="6.16289">
        <ele>359</ele>
        <time>2022-05-26T07:54:58Z</time>
      </trkpt>
      <trkpt lat="43.32349" lon="6.16286">
        <ele>359.2</ele>
        <time>2022-05-26T07:55:00Z</time>
      </trkpt>
      <trkpt lat="43.32349" lon="6.16278">
        <ele>359.6</ele>
        <time>2022-05-26T07:55:04Z</time>
      </trkpt>
      <trkpt lat="43.32348" lon="6.16271">
        <ele>360.4</ele>
        <time>2022-05-26T07:55:08Z</time>
      </trkpt>
      <trkpt lat="43.32347" lon="6.16267">
        <ele>360.8</ele>
        <time>2022-05-26T07:55:10Z</time>
      </trkpt>
      <trkpt lat="43.32347" lon="6.1626">
        <ele>361.2</ele>
        <time>2022-05-26T07:55:14Z</time>
      </trkpt>
      <trkpt lat="43.32347" lon="6.1625">
        <ele>361.8</ele>
        <time>2022-05-26T07:55:19Z</time>
      </trkpt>
      <trkpt lat="43.32347" lon="6.16248">
        <ele>361.8</ele>
        <time>2022-05-26T07:55:20Z</time>
      </trkpt>
      <trkpt lat="43.32348" lon="6.16246">
        <ele>362</ele>
        <time>2022-05-26T07:55:21Z</time>
      </trkpt>
      <trkpt lat="43.3235" lon="6.16235">
        <ele>362.6</ele>
        <time>2022-05-26T07:55:27Z</time>
      </trkpt>
      <trkpt lat="43.3235" lon="6.16234">
        <ele>362.8</ele>
        <time>2022-05-26T07:55:28Z</time>
      </trkpt>
      <trkpt lat="43.32352" lon="6.1623">
        <ele>363.2</ele>
        <time>2022-05-26T07:55:31Z</time>
      </trkpt>
      <trkpt lat="43.32354" lon="6.16226">
        <ele>363.8</ele>
        <time>2022-05-26T07:55:34Z</time>
      </trkpt>
      <trkpt lat="43.32355" lon="6.16225">
        <ele>364</ele>
        <time>2022-05-26T07:55:35Z</time>
      </trkpt>
      <trkpt lat="43.32356" lon="6.16223">
        <ele>364.2</ele>
        <time>2022-05-26T07:55:37Z</time>
      </trkpt>
      <trkpt lat="43.3236" lon="6.16217">
        <ele>364.6</ele>
        <time>2022-05-26T07:55:41Z</time>
      </trkpt>
      <trkpt lat="43.32361" lon="6.16214">
        <ele>364.8</ele>
        <time>2022-05-26T07:55:43Z</time>
      </trkpt>
      <trkpt lat="43.32361" lon="6.1621">
        <ele>365</ele>
        <time>2022-05-26T07:55:45Z</time>
      </trkpt>
      <trkpt lat="43.32362" lon="6.16209">
        <ele>365.2</ele>
        <time>2022-05-26T07:55:46Z</time>
      </trkpt>
      <trkpt lat="43.32362" lon="6.16203">
        <ele>365.8</ele>
        <time>2022-05-26T07:55:49Z</time>
      </trkpt>
      <trkpt lat="43.32363" lon="6.16197">
        <ele>366</ele>
        <time>2022-05-26T07:55:52Z</time>
      </trkpt>
      <trkpt lat="43.32368" lon="6.16182">
        <ele>367.2</ele>
        <time>2022-05-26T07:56:01Z</time>
      </trkpt>
      <trkpt lat="43.32369" lon="6.1618">
        <ele>367.4</ele>
        <time>2022-05-26T07:56:02Z</time>
      </trkpt>
      <trkpt lat="43.32374" lon="6.16169">
        <ele>368</ele>
        <time>2022-05-26T07:56:09Z</time>
      </trkpt>
      <trkpt lat="43.32375" lon="6.16165">
        <ele>368.4</ele>
        <time>2022-05-26T07:56:11Z</time>
      </trkpt>
      <trkpt lat="43.32378" lon="6.16158">
        <ele>369</ele>
        <time>2022-05-26T07:56:16Z</time>
      </trkpt>
      <trkpt lat="43.32381" lon="6.16153">
        <ele>369.4</ele>
        <time>2022-05-26T07:56:19Z</time>
      </trkpt>
      <trkpt lat="43.32382" lon="6.1615">
        <ele>369.8</ele>
        <time>2022-05-26T07:56:21Z</time>
      </trkpt>
      <trkpt lat="43.32384" lon="6.16147">
        <ele>369.8</ele>
        <time>2022-05-26T07:56:23Z</time>
      </trkpt>
      <trkpt lat="43.32387" lon="6.16141">
        <ele>370.6</ele>
        <time>2022-05-26T07:56:27Z</time>
      </trkpt>
      <trkpt lat="43.32388" lon="6.16137">
        <ele>370.8</ele>
        <time>2022-05-26T07:56:30Z</time>
      </trkpt>
      <trkpt lat="43.32393" lon="6.16125">
        <ele>371.4</ele>
        <time>2022-05-26T07:56:37Z</time>
      </trkpt>
      <trkpt lat="43.32394" lon="6.16124">
        <ele>371.6</ele>
        <time>2022-05-26T07:56:38Z</time>
      </trkpt>
      <trkpt lat="43.32398" lon="6.16119">
        <ele>371.8</ele>
        <time>2022-05-26T07:56:42Z</time>
      </trkpt>
      <trkpt lat="43.32399" lon="6.16116">
        <ele>372</ele>
        <time>2022-05-26T07:56:44Z</time>
      </trkpt>
      <trkpt lat="43.32404" lon="6.16107">
        <ele>372.6</ele>
        <time>2022-05-26T07:56:50Z</time>
      </trkpt>
      <trkpt lat="43.32411" lon="6.16097">
        <ele>373.4</ele>
        <time>2022-05-26T07:56:57Z</time>
      </trkpt>
      <trkpt lat="43.32413" lon="6.16095">
        <ele>373.6</ele>
        <time>2022-05-26T07:56:59Z</time>
      </trkpt>
      <trkpt lat="43.32416" lon="6.16089">
        <ele>374.4</ele>
        <time>2022-05-26T07:57:03Z</time>
      </trkpt>
      <trkpt lat="43.32417" lon="6.16088">
        <ele>374.6</ele>
        <time>2022-05-26T07:57:04Z</time>
      </trkpt>
      <trkpt lat="43.32417" lon="6.16088">
        <ele>375.2</ele>
        <time>2022-05-26T07:58:04Z</time>
      </trkpt>
      <trkpt lat="43.32417" lon="6.16088">
        <ele>375.4</ele>
        <time>2022-05-26T07:58:07Z</time>
      </trkpt>
      <trkpt lat="43.32421" lon="6.16084">
        <ele>375.4</ele>
        <time>2022-05-26T07:58:11Z</time>
      </trkpt>
      <trkpt lat="43.32425" lon="6.16069">
        <ele>376</ele>
        <time>2022-05-26T07:58:18Z</time>
      </trkpt>
      <trkpt lat="43.32425" lon="6.16067">
        <ele>376.2</ele>
        <time>2022-05-26T07:58:19Z</time>
      </trkpt>
      <trkpt lat="43.32425" lon="6.16065">
        <ele>376.4</ele>
        <time>2022-05-26T07:58:20Z</time>
      </trkpt>
      <trkpt lat="43.32425" lon="6.16062">
        <ele>376.4</ele>
        <time>2022-05-26T07:58:22Z</time>
      </trkpt>
      <trkpt lat="43.32425" lon="6.16055">
        <ele>377</ele>
        <time>2022-05-26T07:58:25Z</time>
      </trkpt>
      <trkpt lat="43.32425" lon="6.16052">
        <ele>377</ele>
        <time>2022-05-26T07:58:26Z</time>
      </trkpt>
      <trkpt lat="43.32425" lon="6.16048">
        <ele>377.2</ele>
        <time>2022-05-26T07:58:28Z</time>
      </trkpt>
      <trkpt lat="43.32423" lon="6.16037">
        <ele>377.4</ele>
        <time>2022-05-26T07:58:33Z</time>
      </trkpt>
      <trkpt lat="43.32422" lon="6.16036">
        <ele>377.4</ele>
        <time>2022-05-26T07:58:34Z</time>
      </trkpt>
      <trkpt lat="43.3242" lon="6.16025">
        <ele>378.2</ele>
        <time>2022-05-26T07:58:40Z</time>
      </trkpt>
      <trkpt lat="43.32418" lon="6.16017">
        <ele>378.6</ele>
        <time>2022-05-26T07:58:45Z</time>
      </trkpt>
      <trkpt lat="43.32417" lon="6.16015">
        <ele>378.8</ele>
        <time>2022-05-26T07:58:47Z</time>
      </trkpt>
      <trkpt lat="43.32417" lon="6.16015">
        <ele>379.2</ele>
        <time>2022-05-26T07:58:49Z</time>
      </trkpt>
      <trkpt lat="43.32417" lon="6.16015">
        <ele>379.4</ele>
        <time>2022-05-26T07:58:52Z</time>
      </trkpt>
      <trkpt lat="43.32417" lon="6.16015">
        <ele>379.4</ele>
        <time>2022-05-26T07:58:54Z</time>
      </trkpt>
      <trkpt lat="43.32416" lon="6.16023">
        <ele>379.2</ele>
        <time>2022-05-26T07:59:29Z</time>
      </trkpt>
      <trkpt lat="43.32416" lon="6.16023">
        <ele>379.2</ele>
        <time>2022-05-26T07:59:30Z</time>
      </trkpt>
      <trkpt lat="43.32416" lon="6.16025">
        <ele>379.2</ele>
        <time>2022-05-26T07:59:31Z</time>
      </trkpt>
      <trkpt lat="43.32423" lon="6.1604">
        <ele>375</ele>
        <time>2022-05-26T08:17:51Z</time>
      </trkpt>
      <trkpt lat="43.32418" lon="6.16043">
        <ele>374.6</ele>
        <time>2022-05-26T08:17:52Z</time>
      </trkpt>
      <trkpt lat="43.32418" lon="6.16046">
        <ele>374.4</ele>
        <time>2022-05-26T08:17:54Z</time>
      </trkpt>
      <trkpt lat="43.32413" lon="6.16053">
        <ele>374.6</ele>
        <time>2022-05-26T08:17:56Z</time>
      </trkpt>
      <trkpt lat="43.32414" lon="6.16054">
        <ele>374.8</ele>
        <time>2022-05-26T08:17:58Z</time>
      </trkpt>
      <trkpt lat="43.32413" lon="6.16054">
        <ele>375.2</ele>
        <time>2022-05-26T08:17:59Z</time>
      </trkpt>
      <trkpt lat="43.32417" lon="6.16058">
        <ele>375.4</ele>
        <time>2022-05-26T08:18:02Z</time>
      </trkpt>
      <trkpt lat="43.32423" lon="6.16059">
        <ele>375.2</ele>
        <time>2022-05-26T08:18:06Z</time>
      </trkpt>
      <trkpt lat="43.32425" lon="6.16057">
        <ele>375.4</ele>
        <time>2022-05-26T08:18:15Z</time>
      </trkpt>
      <trkpt lat="43.32421" lon="6.16053">
        <ele>375.2</ele>
        <time>2022-05-26T08:18:20Z</time>
      </trkpt>
      <trkpt lat="43.3242" lon="6.16043">
        <ele>375.2</ele>
        <time>2022-05-26T08:18:25Z</time>
      </trkpt>
      <trkpt lat="43.3242" lon="6.1604">
        <ele>375.4</ele>
        <time>2022-05-26T08:18:27Z</time>
      </trkpt>
      <trkpt lat="43.32421" lon="6.16036">
        <ele>375.6</ele>
        <time>2022-05-26T08:18:29Z</time>
      </trkpt>
      <trkpt lat="43.3242" lon="6.16035">
        <ele>375.8</ele>
        <time>2022-05-26T08:18:30Z</time>
      </trkpt>
      <trkpt lat="43.32418" lon="6.16025">
        <ele>376.6</ele>
        <time>2022-05-26T08:18:34Z</time>
      </trkpt>
      <trkpt lat="43.32417" lon="6.1602">
        <ele>376.8</ele>
        <time>2022-05-26T08:18:36Z</time>
      </trkpt>
      <trkpt lat="43.32415" lon="6.16013">
        <ele>377.4</ele>
        <time>2022-05-26T08:18:39Z</time>
      </trkpt>
      <trkpt lat="43.32413" lon="6.16008">
        <ele>377.6</ele>
        <time>2022-05-26T08:18:41Z</time>
      </trkpt>
      <trkpt lat="43.32408" lon="6.15994">
        <ele>378</ele>
        <time>2022-05-26T08:18:47Z</time>
      </trkpt>
      <trkpt lat="43.32406" lon="6.15987">
        <ele>378.6</ele>
        <time>2022-05-26T08:18:50Z</time>
      </trkpt>
      <trkpt lat="43.32406" lon="6.15985">
        <ele>378.6</ele>
        <time>2022-05-26T08:18:51Z</time>
      </trkpt>
      <trkpt lat="43.32405" lon="6.15982">
        <ele>378.8</ele>
        <time>2022-05-26T08:18:52Z</time>
      </trkpt>
      <trkpt lat="43.32404" lon="6.15979">
        <ele>379</ele>
        <time>2022-05-26T08:18:53Z</time>
      </trkpt>
      <trkpt lat="43.32403" lon="6.15976">
        <ele>379.2</ele>
        <time>2022-05-26T08:18:54Z</time>
      </trkpt>
      <trkpt lat="43.32402" lon="6.15971">
        <ele>379.4</ele>
        <time>2022-05-26T08:18:56Z</time>
      </trkpt>
      <trkpt lat="43.32402" lon="6.15965">
        <ele>380</ele>
        <time>2022-05-26T08:18:58Z</time>
      </trkpt>
      <trkpt lat="43.32401" lon="6.15962">
        <ele>380</ele>
        <time>2022-05-26T08:18:59Z</time>
      </trkpt>
      <trkpt lat="43.32401" lon="6.15959">
        <ele>380.2</ele>
        <time>2022-05-26T08:19:00Z</time>
      </trkpt>
      <trkpt lat="43.324" lon="6.15951">
        <ele>380.4</ele>
        <time>2022-05-26T08:19:03Z</time>
      </trkpt>
      <trkpt lat="43.32398" lon="6.15941">
        <ele>380.8</ele>
        <time>2022-05-26T08:19:07Z</time>
      </trkpt>
      <trkpt lat="43.32399" lon="6.15935">
        <ele>381</ele>
        <time>2022-05-26T08:19:09Z</time>
      </trkpt>
      <trkpt lat="43.32399" lon="6.15932">
        <ele>381.2</ele>
        <time>2022-05-26T08:19:11Z</time>
      </trkpt>
      <trkpt lat="43.32397" lon="6.15925">
        <ele>381.6</ele>
        <time>2022-05-26T08:19:14Z</time>
      </trkpt>
      <trkpt lat="43.32395" lon="6.15915">
        <ele>382</ele>
        <time>2022-05-26T08:19:19Z</time>
      </trkpt>
      <trkpt lat="43.32395" lon="6.15911">
        <ele>382.2</ele>
        <time>2022-05-26T08:19:21Z</time>
      </trkpt>
      <trkpt lat="43.32393" lon="6.15897">
        <ele>382.8</ele>
        <time>2022-05-26T08:19:27Z</time>
      </trkpt>
      <trkpt lat="43.32392" lon="6.15891">
        <ele>383.2</ele>
        <time>2022-05-26T08:19:30Z</time>
      </trkpt>
      <trkpt lat="43.32391" lon="6.15886">
        <ele>383.6</ele>
        <time>2022-05-26T08:19:33Z</time>
      </trkpt>
      <trkpt lat="43.3239" lon="6.15878">
        <ele>384</ele>
        <time>2022-05-26T08:19:37Z</time>
      </trkpt>
      <trkpt lat="43.32389" lon="6.15874">
        <ele>384.2</ele>
        <time>2022-05-26T08:19:39Z</time>
      </trkpt>
      <trkpt lat="43.32389" lon="6.15872">
        <ele>384.4</ele>
        <time>2022-05-26T08:19:40Z</time>
      </trkpt>
      <trkpt lat="43.32388" lon="6.15866">
        <ele>384.6</ele>
        <time>2022-05-26T08:19:43Z</time>
      </trkpt>
      <trkpt lat="43.32388" lon="6.15862">
        <ele>385.2</ele>
        <time>2022-05-26T08:19:45Z</time>
      </trkpt>
      <trkpt lat="43.32387" lon="6.1586">
        <ele>385.4</ele>
        <time>2022-05-26T08:19:46Z</time>
      </trkpt>
      <trkpt lat="43.32387" lon="6.15858">
        <ele>385.6</ele>
        <time>2022-05-26T08:19:47Z</time>
      </trkpt>
      <trkpt lat="43.32386" lon="6.15856">
        <ele>385.8</ele>
        <time>2022-05-26T08:19:48Z</time>
      </trkpt>
      <trkpt lat="43.32386" lon="6.15854">
        <ele>386</ele>
        <time>2022-05-26T08:19:49Z</time>
      </trkpt>
      <trkpt lat="43.32385" lon="6.15842">
        <ele>386.6</ele>
        <time>2022-05-26T08:19:54Z</time>
      </trkpt>
      <trkpt lat="43.32384" lon="6.15838">
        <ele>386.8</ele>
        <time>2022-05-26T08:19:56Z</time>
      </trkpt>
      <trkpt lat="43.32384" lon="6.15825">
        <ele>387.4</ele>
        <time>2022-05-26T08:20:01Z</time>
      </trkpt>
      <trkpt lat="43.32383" lon="6.15822">
        <ele>387.6</ele>
        <time>2022-05-26T08:20:02Z</time>
      </trkpt>
      <trkpt lat="43.32383" lon="6.1582">
        <ele>387.8</ele>
        <time>2022-05-26T08:20:03Z</time>
      </trkpt>
      <trkpt lat="43.32383" lon="6.15819">
        <ele>388</ele>
        <time>2022-05-26T08:20:04Z</time>
      </trkpt>
      <trkpt lat="43.32382" lon="6.15816">
        <ele>388</ele>
        <time>2022-05-26T08:20:05Z</time>
      </trkpt>
      <trkpt lat="43.32381" lon="6.15811">
        <ele>388.8</ele>
        <time>2022-05-26T08:20:08Z</time>
      </trkpt>
      <trkpt lat="43.32381" lon="6.15809">
        <ele>388.8</ele>
        <time>2022-05-26T08:20:09Z</time>
      </trkpt>
      <trkpt lat="43.32381" lon="6.15797">
        <ele>389.8</ele>
        <time>2022-05-26T08:20:15Z</time>
      </trkpt>
      <trkpt lat="43.32381" lon="6.15794">
        <ele>390</ele>
        <time>2022-05-26T08:20:16Z</time>
      </trkpt>
      <trkpt lat="43.32382" lon="6.15788">
        <ele>390.4</ele>
        <time>2022-05-26T08:20:19Z</time>
      </trkpt>
      <trkpt lat="43.32382" lon="6.15784">
        <ele>390.6</ele>
        <time>2022-05-26T08:20:21Z</time>
      </trkpt>
      <trkpt lat="43.32382" lon="6.15782">
        <ele>390.8</ele>
        <time>2022-05-26T08:20:22Z</time>
      </trkpt>
      <trkpt lat="43.32382" lon="6.1578">
        <ele>390.8</ele>
        <time>2022-05-26T08:20:23Z</time>
      </trkpt>
      <trkpt lat="43.32382" lon="6.15778">
        <ele>391</ele>
        <time>2022-05-26T08:20:24Z</time>
      </trkpt>
      <trkpt lat="43.32382" lon="6.15776">
        <ele>391.2</ele>
        <time>2022-05-26T08:20:25Z</time>
      </trkpt>
      <trkpt lat="43.32381" lon="6.15771">
        <ele>391.4</ele>
        <time>2022-05-26T08:20:27Z</time>
      </trkpt>
      <trkpt lat="43.32381" lon="6.15767">
        <ele>391.8</ele>
        <time>2022-05-26T08:20:29Z</time>
      </trkpt>
      <trkpt lat="43.32382" lon="6.15765">
        <ele>391.8</ele>
        <time>2022-05-26T08:20:30Z</time>
      </trkpt>
      <trkpt lat="43.32381" lon="6.15761">
        <ele>392</ele>
        <time>2022-05-26T08:20:32Z</time>
      </trkpt>
      <trkpt lat="43.3238" lon="6.15759">
        <ele>392.2</ele>
        <time>2022-05-26T08:20:33Z</time>
      </trkpt>
      <trkpt lat="43.32379" lon="6.15757">
        <ele>392.2</ele>
        <time>2022-05-26T08:20:34Z</time>
      </trkpt>
      <trkpt lat="43.32378" lon="6.15756">
        <ele>392.2</ele>
        <time>2022-05-26T08:20:35Z</time>
      </trkpt>
      <trkpt lat="43.32376" lon="6.15755">
        <ele>392.6</ele>
        <time>2022-05-26T08:20:36Z</time>
      </trkpt>
      <trkpt lat="43.32375" lon="6.15756">
        <ele>392.6</ele>
        <time>2022-05-26T08:20:37Z</time>
      </trkpt>
      <trkpt lat="43.32374" lon="6.15756">
        <ele>392.8</ele>
        <time>2022-05-26T08:20:38Z</time>
      </trkpt>
      <trkpt lat="43.32372" lon="6.1576">
        <ele>392.8</ele>
        <time>2022-05-26T08:20:40Z</time>
      </trkpt>
      <trkpt lat="43.3237" lon="6.15764">
        <ele>393</ele>
        <time>2022-05-26T08:20:42Z</time>
      </trkpt>
      <trkpt lat="43.3237" lon="6.15768">
        <ele>393</ele>
        <time>2022-05-26T08:20:44Z</time>
      </trkpt>
      <trkpt lat="43.3237" lon="6.1577">
        <ele>393.2</ele>
        <time>2022-05-26T08:20:45Z</time>
      </trkpt>
      <trkpt lat="43.32371" lon="6.15774">
        <ele>393.4</ele>
        <time>2022-05-26T08:20:47Z</time>
      </trkpt>
      <trkpt lat="43.32369" lon="6.15784">
        <ele>394.6</ele>
        <time>2022-05-26T08:20:53Z</time>
      </trkpt>
      <trkpt lat="43.32368" lon="6.15789">
        <ele>395.2</ele>
        <time>2022-05-26T08:20:56Z</time>
      </trkpt>
      <trkpt lat="43.32366" lon="6.15797">
        <ele>395.8</ele>
        <time>2022-05-26T08:21:00Z</time>
      </trkpt>
      <trkpt lat="43.32364" lon="6.15803">
        <ele>396</ele>
        <time>2022-05-26T08:21:04Z</time>
      </trkpt>
      <trkpt lat="43.32362" lon="6.1581">
        <ele>396.8</ele>
        <time>2022-05-26T08:21:07Z</time>
      </trkpt>
      <trkpt lat="43.32362" lon="6.15812">
        <ele>396.8</ele>
        <time>2022-05-26T08:21:08Z</time>
      </trkpt>
      <trkpt lat="43.32361" lon="6.15817">
        <ele>397.2</ele>
        <time>2022-05-26T08:21:10Z</time>
      </trkpt>
      <trkpt lat="43.3236" lon="6.15823">
        <ele>397.8</ele>
        <time>2022-05-26T08:21:13Z</time>
      </trkpt>
      <trkpt lat="43.32359" lon="6.15824">
        <ele>398</ele>
        <time>2022-05-26T08:21:14Z</time>
      </trkpt>
      <trkpt lat="43.32359" lon="6.15828">
        <ele>398.4</ele>
        <time>2022-05-26T08:21:16Z</time>
      </trkpt>
      <trkpt lat="43.32358" lon="6.15831">
        <ele>398.6</ele>
        <time>2022-05-26T08:21:18Z</time>
      </trkpt>
      <trkpt lat="43.32356" lon="6.15835">
        <ele>398.8</ele>
        <time>2022-05-26T08:21:21Z</time>
      </trkpt>
      <trkpt lat="43.32355" lon="6.15837">
        <ele>399</ele>
        <time>2022-05-26T08:21:22Z</time>
      </trkpt>
      <trkpt lat="43.32355" lon="6.15839">
        <ele>399.2</ele>
        <time>2022-05-26T08:21:23Z</time>
      </trkpt>
      <trkpt lat="43.32352" lon="6.1585">
        <ele>400.4</ele>
        <time>2022-05-26T08:21:29Z</time>
      </trkpt>
      <trkpt lat="43.32351" lon="6.15855">
        <ele>400.6</ele>
        <time>2022-05-26T08:21:32Z</time>
      </trkpt>
      <trkpt lat="43.3235" lon="6.1586">
        <ele>401.4</ele>
        <time>2022-05-26T08:21:35Z</time>
      </trkpt>
      <trkpt lat="43.32348" lon="6.15867">
        <ele>402</ele>
        <time>2022-05-26T08:21:39Z</time>
      </trkpt>
      <trkpt lat="43.32347" lon="6.15874">
        <ele>402.4</ele>
        <time>2022-05-26T08:21:42Z</time>
      </trkpt>
      <trkpt lat="43.32347" lon="6.15882">
        <ele>403.2</ele>
        <time>2022-05-26T08:21:46Z</time>
      </trkpt>
      <trkpt lat="43.32346" lon="6.15886">
        <ele>403.2</ele>
        <time>2022-05-26T08:21:48Z</time>
      </trkpt>
      <trkpt lat="43.32345" lon="6.1589">
        <ele>403.6</ele>
        <time>2022-05-26T08:21:50Z</time>
      </trkpt>
      <trkpt lat="43.32345" lon="6.15893">
        <ele>403.8</ele>
        <time>2022-05-26T08:21:52Z</time>
      </trkpt>
      <trkpt lat="43.32348" lon="6.15894">
        <ele>404.2</ele>
        <time>2022-05-26T08:22:00Z</time>
      </trkpt>
      <trkpt lat="43.32346" lon="6.15899">
        <ele>404.2</ele>
        <time>2022-05-26T08:22:05Z</time>
      </trkpt>
      <trkpt lat="43.32344" lon="6.15903">
        <ele>404.4</ele>
        <time>2022-05-26T08:22:07Z</time>
      </trkpt>
      <trkpt lat="43.32343" lon="6.15906">
        <ele>404.6</ele>
        <time>2022-05-26T08:22:09Z</time>
      </trkpt>
      <trkpt lat="43.3234" lon="6.15914">
        <ele>405</ele>
        <time>2022-05-26T08:22:13Z</time>
      </trkpt>
      <trkpt lat="43.32338" lon="6.15923">
        <ele>405.6</ele>
        <time>2022-05-26T08:22:17Z</time>
      </trkpt>
      <trkpt lat="43.32333" lon="6.15935">
        <ele>406.2</ele>
        <time>2022-05-26T08:22:22Z</time>
      </trkpt>
      <trkpt lat="43.3233" lon="6.15943">
        <ele>406.6</ele>
        <time>2022-05-26T08:22:26Z</time>
      </trkpt>
      <trkpt lat="43.32328" lon="6.15948">
        <ele>407.2</ele>
        <time>2022-05-26T08:22:28Z</time>
      </trkpt>
      <trkpt lat="43.32327" lon="6.15954">
        <ele>407.6</ele>
        <time>2022-05-26T08:22:31Z</time>
      </trkpt>
      <trkpt lat="43.32324" lon="6.15961">
        <ele>408.6</ele>
        <time>2022-05-26T08:22:35Z</time>
      </trkpt>
      <trkpt lat="43.32321" lon="6.15965">
        <ele>408.8</ele>
        <time>2022-05-26T08:22:37Z</time>
      </trkpt>
      <trkpt lat="43.32317" lon="6.15973">
        <ele>409.4</ele>
        <time>2022-05-26T08:22:41Z</time>
      </trkpt>
      <trkpt lat="43.32315" lon="6.15977">
        <ele>410</ele>
        <time>2022-05-26T08:22:43Z</time>
      </trkpt>
      <trkpt lat="43.32315" lon="6.15979">
        <ele>410</ele>
        <time>2022-05-26T08:22:44Z</time>
      </trkpt>
      <trkpt lat="43.32315" lon="6.15982">
        <ele>410.4</ele>
        <time>2022-05-26T08:22:46Z</time>
      </trkpt>
      <trkpt lat="43.32313" lon="6.15988">
        <ele>411.2</ele>
        <time>2022-05-26T08:22:50Z</time>
      </trkpt>
      <trkpt lat="43.32311" lon="6.15992">
        <ele>411.4</ele>
        <time>2022-05-26T08:22:52Z</time>
      </trkpt>
      <trkpt lat="43.32307" lon="6.15996">
        <ele>411.8</ele>
        <time>2022-05-26T08:22:55Z</time>
      </trkpt>
      <trkpt lat="43.32301" lon="6.16004">
        <ele>412.2</ele>
        <time>2022-05-26T08:22:59Z</time>
      </trkpt>
      <trkpt lat="43.32294" lon="6.16013">
        <ele>413</ele>
        <time>2022-05-26T08:23:04Z</time>
      </trkpt>
      <trkpt lat="43.3229" lon="6.16017">
        <ele>413</ele>
        <time>2022-05-26T08:23:06Z</time>
      </trkpt>
      <trkpt lat="43.32289" lon="6.1602">
        <ele>413.4</ele>
        <time>2022-05-26T08:23:07Z</time>
      </trkpt>
      <trkpt lat="43.32289" lon="6.16026">
        <ele>414</ele>
        <time>2022-05-26T08:23:10Z</time>
      </trkpt>
      <trkpt lat="43.32288" lon="6.16029">
        <ele>414.2</ele>
        <time>2022-05-26T08:23:11Z</time>
      </trkpt>
      <trkpt lat="43.32285" lon="6.16032">
        <ele>414.4</ele>
        <time>2022-05-26T08:23:13Z</time>
      </trkpt>
      <trkpt lat="43.32278" lon="6.16039">
        <ele>415.2</ele>
        <time>2022-05-26T08:23:19Z</time>
      </trkpt>
      <trkpt lat="43.32276" lon="6.1604">
        <ele>415.6</ele>
        <time>2022-05-26T08:23:20Z</time>
      </trkpt>
      <trkpt lat="43.32267" lon="6.16048">
        <ele>416.4</ele>
        <time>2022-05-26T08:23:26Z</time>
      </trkpt>
      <trkpt lat="43.32266" lon="6.1605">
        <ele>416.6</ele>
        <time>2022-05-26T08:23:27Z</time>
      </trkpt>
      <trkpt lat="43.3226" lon="6.16058">
        <ele>417</ele>
        <time>2022-05-26T08:23:33Z</time>
      </trkpt>
      <trkpt lat="43.32258" lon="6.16061">
        <ele>417.4</ele>
        <time>2022-05-26T08:23:35Z</time>
      </trkpt>
      <trkpt lat="43.32255" lon="6.16066">
        <ele>417.8</ele>
        <time>2022-05-26T08:23:37Z</time>
      </trkpt>
      <trkpt lat="43.32255" lon="6.16067">
        <ele>417.8</ele>
        <time>2022-05-26T08:23:38Z</time>
      </trkpt>
      <trkpt lat="43.32244" lon="6.16076">
        <ele>418.8</ele>
        <time>2022-05-26T08:23:45Z</time>
      </trkpt>
      <trkpt lat="43.32238" lon="6.16082">
        <ele>419.8</ele>
        <time>2022-05-26T08:23:51Z</time>
      </trkpt>
      <trkpt lat="43.32236" lon="6.16084">
        <ele>419.8</ele>
        <time>2022-05-26T08:23:52Z</time>
      </trkpt>
      <trkpt lat="43.32224" lon="6.16096">
        <ele>420.8</ele>
        <time>2022-05-26T08:24:00Z</time>
      </trkpt>
      <trkpt lat="43.3221" lon="6.16106">
        <ele>421.8</ele>
        <time>2022-05-26T08:24:08Z</time>
      </trkpt>
      <trkpt lat="43.32208" lon="6.16108">
        <ele>421.8</ele>
        <time>2022-05-26T08:24:09Z</time>
      </trkpt>
      <trkpt lat="43.32199" lon="6.16116">
        <ele>423</ele>
        <time>2022-05-26T08:24:15Z</time>
      </trkpt>
      <trkpt lat="43.32198" lon="6.16118">
        <ele>423</ele>
        <time>2022-05-26T08:24:16Z</time>
      </trkpt>
      <trkpt lat="43.32191" lon="6.16124">
        <ele>424</ele>
        <time>2022-05-26T08:24:22Z</time>
      </trkpt>
      <trkpt lat="43.3218" lon="6.16134">
        <ele>425.2</ele>
        <time>2022-05-26T08:24:31Z</time>
      </trkpt>
      <trkpt lat="43.3217" lon="6.16143">
        <ele>426.2</ele>
        <time>2022-05-26T08:24:38Z</time>
      </trkpt>
      <trkpt lat="43.32168" lon="6.16144">
        <ele>426.2</ele>
        <time>2022-05-26T08:24:39Z</time>
      </trkpt>
      <trkpt lat="43.32157" lon="6.16154">
        <ele>427.2</ele>
        <time>2022-05-26T08:24:45Z</time>
      </trkpt>
      <trkpt lat="43.32156" lon="6.16155">
        <ele>427.4</ele>
        <time>2022-05-26T08:24:46Z</time>
      </trkpt>
      <trkpt lat="43.32144" lon="6.16167">
        <ele>428.2</ele>
        <time>2022-05-26T08:24:54Z</time>
      </trkpt>
      <trkpt lat="43.32143" lon="6.16168">
        <ele>428.4</ele>
        <time>2022-05-26T08:24:55Z</time>
      </trkpt>
      <trkpt lat="43.32132" lon="6.16178">
        <ele>429.2</ele>
        <time>2022-05-26T08:25:02Z</time>
      </trkpt>
      <trkpt lat="43.3213" lon="6.1618">
        <ele>429.4</ele>
        <time>2022-05-26T08:25:03Z</time>
      </trkpt>
      <trkpt lat="43.32129" lon="6.16181">
        <ele>429.6</ele>
        <time>2022-05-26T08:25:04Z</time>
      </trkpt>
      <trkpt lat="43.32123" lon="6.16184">
        <ele>430</ele>
        <time>2022-05-26T08:25:07Z</time>
      </trkpt>
      <trkpt lat="43.32122" lon="6.16186">
        <ele>430</ele>
        <time>2022-05-26T08:25:08Z</time>
      </trkpt>
      <trkpt lat="43.32117" lon="6.16192">
        <ele>430.4</ele>
        <time>2022-05-26T08:25:12Z</time>
      </trkpt>
      <trkpt lat="43.32114" lon="6.16195">
        <ele>430.6</ele>
        <time>2022-05-26T08:25:14Z</time>
      </trkpt>
      <trkpt lat="43.32105" lon="6.16203">
        <ele>431.4</ele>
        <time>2022-05-26T08:25:20Z</time>
      </trkpt>
      <trkpt lat="43.32102" lon="6.16206">
        <ele>431.8</ele>
        <time>2022-05-26T08:25:22Z</time>
      </trkpt>
      <trkpt lat="43.32092" lon="6.16212">
        <ele>432.8</ele>
        <time>2022-05-26T08:25:28Z</time>
      </trkpt>
      <trkpt lat="43.32089" lon="6.16214">
        <ele>433</ele>
        <time>2022-05-26T08:25:30Z</time>
      </trkpt>
      <trkpt lat="43.32084" lon="6.16214">
        <ele>433.8</ele>
        <time>2022-05-26T08:25:34Z</time>
      </trkpt>
      <trkpt lat="43.32079" lon="6.16212">
        <ele>434.6</ele>
        <time>2022-05-26T08:25:37Z</time>
      </trkpt>
      <trkpt lat="43.32076" lon="6.16211">
        <ele>435</ele>
        <time>2022-05-26T08:25:39Z</time>
      </trkpt>
      <trkpt lat="43.3207" lon="6.16205">
        <ele>436.2</ele>
        <time>2022-05-26T08:25:44Z</time>
      </trkpt>
      <trkpt lat="43.32069" lon="6.16203">
        <ele>436.4</ele>
        <time>2022-05-26T08:25:45Z</time>
      </trkpt>
      <trkpt lat="43.32063" lon="6.16192">
        <ele>437.4</ele>
        <time>2022-05-26T08:25:51Z</time>
      </trkpt>
      <trkpt lat="43.32061" lon="6.16188">
        <ele>437.4</ele>
        <time>2022-05-26T08:25:53Z</time>
      </trkpt>
      <trkpt lat="43.32055" lon="6.16176">
        <ele>438.4</ele>
        <time>2022-05-26T08:26:00Z</time>
      </trkpt>
      <trkpt lat="43.32055" lon="6.16174">
        <ele>438.4</ele>
        <time>2022-05-26T08:26:01Z</time>
      </trkpt>
      <trkpt lat="43.3205" lon="6.16159">
        <ele>439.4</ele>
        <time>2022-05-26T08:26:08Z</time>
      </trkpt>
      <trkpt lat="43.3205" lon="6.16157">
        <ele>439.4</ele>
        <time>2022-05-26T08:26:09Z</time>
      </trkpt>
      <trkpt lat="43.32049" lon="6.16144">
        <ele>440.6</ele>
        <time>2022-05-26T08:26:15Z</time>
      </trkpt>
      <trkpt lat="43.32049" lon="6.16143">
        <ele>440.8</ele>
        <time>2022-05-26T08:26:16Z</time>
      </trkpt>
      <trkpt lat="43.32045" lon="6.16134">
        <ele>441.6</ele>
        <time>2022-05-26T08:26:20Z</time>
      </trkpt>
      <trkpt lat="43.32043" lon="6.16128">
        <ele>442.4</ele>
        <time>2022-05-26T08:26:24Z</time>
      </trkpt>
      <trkpt lat="43.32041" lon="6.16123">
        <ele>442.8</ele>
        <time>2022-05-26T08:26:27Z</time>
      </trkpt>
      <trkpt lat="43.32041" lon="6.16121">
        <ele>443</ele>
        <time>2022-05-26T08:26:28Z</time>
      </trkpt>
      <trkpt lat="43.32035" lon="6.16108">
        <ele>443.6</ele>
        <time>2022-05-26T08:26:35Z</time>
      </trkpt>
      <trkpt lat="43.32032" lon="6.16102">
        <ele>443.8</ele>
        <time>2022-05-26T08:26:38Z</time>
      </trkpt>
      <trkpt lat="43.32028" lon="6.16094">
        <ele>444.4</ele>
        <time>2022-05-26T08:26:42Z</time>
      </trkpt>
      <trkpt lat="43.32022" lon="6.16085">
        <ele>445.2</ele>
        <time>2022-05-26T08:26:47Z</time>
      </trkpt>
      <trkpt lat="43.32018" lon="6.16077">
        <ele>446</ele>
        <time>2022-05-26T08:26:51Z</time>
      </trkpt>
      <trkpt lat="43.32014" lon="6.16072">
        <ele>446.2</ele>
        <time>2022-05-26T08:26:53Z</time>
      </trkpt>
      <trkpt lat="43.3201" lon="6.16065">
        <ele>447</ele>
        <time>2022-05-26T08:26:57Z</time>
      </trkpt>
      <trkpt lat="43.32009" lon="6.16064">
        <ele>447.2</ele>
        <time>2022-05-26T08:26:59Z</time>
      </trkpt>
      <trkpt lat="43.32" lon="6.16051">
        <ele>448.2</ele>
        <time>2022-05-26T08:27:07Z</time>
      </trkpt>
      <trkpt lat="43.31998" lon="6.16048">
        <ele>448.6</ele>
        <time>2022-05-26T08:27:09Z</time>
      </trkpt>
      <trkpt lat="43.31992" lon="6.1604">
        <ele>449</ele>
        <time>2022-05-26T08:27:13Z</time>
      </trkpt>
      <trkpt lat="43.31984" lon="6.16024">
        <ele>449.8</ele>
        <time>2022-05-26T08:27:21Z</time>
      </trkpt>
      <trkpt lat="43.31975" lon="6.16008">
        <ele>450.8</ele>
        <time>2022-05-26T08:27:29Z</time>
      </trkpt>
      <trkpt lat="43.3197" lon="6.16">
        <ele>451.4</ele>
        <time>2022-05-26T08:27:33Z</time>
      </trkpt>
      <trkpt lat="43.31961" lon="6.15986">
        <ele>451.8</ele>
        <time>2022-05-26T08:27:40Z</time>
      </trkpt>
      <trkpt lat="43.31961" lon="6.15986">
        <ele>451.8</ele>
        <time>2022-05-26T08:27:41Z</time>
      </trkpt>
      <trkpt lat="43.31954" lon="6.15977">
        <ele>452.4</ele>
        <time>2022-05-26T08:27:45Z</time>
      </trkpt>
      <trkpt lat="43.31952" lon="6.15972">
        <ele>452.8</ele>
        <time>2022-05-26T08:27:47Z</time>
      </trkpt>
      <trkpt lat="43.3195" lon="6.15971">
        <ele>453</ele>
        <time>2022-05-26T08:27:48Z</time>
      </trkpt>
      <trkpt lat="43.31939" lon="6.15955">
        <ele>453.8</ele>
        <time>2022-05-26T08:27:56Z</time>
      </trkpt>
      <trkpt lat="43.31939" lon="6.15955">
        <ele>454</ele>
        <time>2022-05-26T08:27:57Z</time>
      </trkpt>
      <trkpt lat="43.31926" lon="6.15939">
        <ele>454.8</ele>
        <time>2022-05-26T08:28:05Z</time>
      </trkpt>
      <trkpt lat="43.31918" lon="6.15932">
        <ele>455</ele>
        <time>2022-05-26T08:28:09Z</time>
      </trkpt>
      <trkpt lat="43.31909" lon="6.15924">
        <ele>455.4</ele>
        <time>2022-05-26T08:28:13Z</time>
      </trkpt>
      <trkpt lat="43.319" lon="6.15916">
        <ele>455.4</ele>
        <time>2022-05-26T08:28:17Z</time>
      </trkpt>
      <trkpt lat="43.31898" lon="6.15913">
        <ele>455.6</ele>
        <time>2022-05-26T08:28:18Z</time>
      </trkpt>
      <trkpt lat="43.31887" lon="6.15901">
        <ele>455.8</ele>
        <time>2022-05-26T08:28:23Z</time>
      </trkpt>
      <trkpt lat="43.31875" lon="6.15893">
        <ele>456</ele>
        <time>2022-05-26T08:28:27Z</time>
      </trkpt>
      <trkpt lat="43.31856" lon="6.15877">
        <ele>456.4</ele>
        <time>2022-05-26T08:28:34Z</time>
      </trkpt>
      <trkpt lat="43.31843" lon="6.15854">
        <ele>457</ele>
        <time>2022-05-26T08:28:40Z</time>
      </trkpt>
      <trkpt lat="43.31841" lon="6.15851">
        <ele>457.2</ele>
        <time>2022-05-26T08:28:42Z</time>
      </trkpt>
      <trkpt lat="43.31825" lon="6.15827">
        <ele>457.6</ele>
        <time>2022-05-26T08:28:49Z</time>
      </trkpt>
      <trkpt lat="43.31814" lon="6.158">
        <ele>458</ele>
        <time>2022-05-26T08:28:55Z</time>
      </trkpt>
      <trkpt lat="43.3181" lon="6.15787">
        <ele>458.2</ele>
        <time>2022-05-26T08:28:58Z</time>
      </trkpt>
      <trkpt lat="43.31804" lon="6.15767">
        <ele>458.8</ele>
        <time>2022-05-26T08:29:03Z</time>
      </trkpt>
      <trkpt lat="43.31798" lon="6.15745">
        <ele>459.4</ele>
        <time>2022-05-26T08:29:09Z</time>
      </trkpt>
      <trkpt lat="43.31796" lon="6.15732">
        <ele>459.6</ele>
        <time>2022-05-26T08:29:11Z</time>
      </trkpt>
      <trkpt lat="43.31795" lon="6.15711">
        <ele>460.4</ele>
        <time>2022-05-26T08:29:17Z</time>
      </trkpt>
      <trkpt lat="43.31797" lon="6.15692">
        <ele>461.2</ele>
        <time>2022-05-26T08:29:21Z</time>
      </trkpt>
      <trkpt lat="43.31798" lon="6.15689">
        <ele>461.4</ele>
        <time>2022-05-26T08:29:23Z</time>
      </trkpt>
      <trkpt lat="43.31803" lon="6.15654">
        <ele>462.4</ele>
        <time>2022-05-26T08:29:31Z</time>
      </trkpt>
      <trkpt lat="43.31805" lon="6.15646">
        <ele>462.4</ele>
        <time>2022-05-26T08:29:32Z</time>
      </trkpt>
      <trkpt lat="43.31807" lon="6.15638">
        <ele>462.8</ele>
        <time>2022-05-26T08:29:34Z</time>
      </trkpt>
      <trkpt lat="43.31807" lon="6.15633">
        <ele>463</ele>
        <time>2022-05-26T08:29:35Z</time>
      </trkpt>
      <trkpt lat="43.31806" lon="6.15625">
        <ele>463.6</ele>
        <time>2022-05-26T08:29:37Z</time>
      </trkpt>
      <trkpt lat="43.31803" lon="6.15606">
        <ele>464</ele>
        <time>2022-05-26T08:29:41Z</time>
      </trkpt>
      <trkpt lat="43.318" lon="6.15587">
        <ele>464.6</ele>
        <time>2022-05-26T08:29:45Z</time>
      </trkpt>
      <trkpt lat="43.31799" lon="6.15578">
        <ele>464.8</ele>
        <time>2022-05-26T08:29:48Z</time>
      </trkpt>
      <trkpt lat="43.31796" lon="6.15555">
        <ele>465.2</ele>
        <time>2022-05-26T08:29:52Z</time>
      </trkpt>
      <trkpt lat="43.31796" lon="6.15555">
        <ele>465.2</ele>
        <time>2022-05-26T08:29:53Z</time>
      </trkpt>
      <trkpt lat="43.31792" lon="6.15532">
        <ele>465.4</ele>
        <time>2022-05-26T08:29:58Z</time>
      </trkpt>
      <trkpt lat="43.31788" lon="6.15514">
        <ele>465.4</ele>
        <time>2022-05-26T08:30:01Z</time>
      </trkpt>
      <trkpt lat="43.31785" lon="6.15503">
        <ele>465.6</ele>
        <time>2022-05-26T08:30:03Z</time>
      </trkpt>
      <trkpt lat="43.31782" lon="6.15486">
        <ele>465.8</ele>
        <time>2022-05-26T08:30:06Z</time>
      </trkpt>
      <trkpt lat="43.31771" lon="6.1544">
        <ele>466</ele>
        <time>2022-05-26T08:30:15Z</time>
      </trkpt>
      <trkpt lat="43.31763" lon="6.15401">
        <ele>466.6</ele>
        <time>2022-05-26T08:30:23Z</time>
      </trkpt>
      <trkpt lat="43.31762" lon="6.15397">
        <ele>466.6</ele>
        <time>2022-05-26T08:30:24Z</time>
      </trkpt>
      <trkpt lat="43.31755" lon="6.15368">
        <ele>467.6</ele>
        <time>2022-05-26T08:30:31Z</time>
      </trkpt>
      <trkpt lat="43.31754" lon="6.15364">
        <ele>467.6</ele>
        <time>2022-05-26T08:30:32Z</time>
      </trkpt>
      <trkpt lat="43.31747" lon="6.15332">
        <ele>468.6</ele>
        <time>2022-05-26T08:30:39Z</time>
      </trkpt>
      <trkpt lat="43.31744" lon="6.15324">
        <ele>468.8</ele>
        <time>2022-05-26T08:30:41Z</time>
      </trkpt>
      <trkpt lat="43.31741" lon="6.15311">
        <ele>469.4</ele>
        <time>2022-05-26T08:30:45Z</time>
      </trkpt>
      <trkpt lat="43.31741" lon="6.1531">
        <ele>469.6</ele>
        <time>2022-05-26T08:30:48Z</time>
      </trkpt>
      <trkpt lat="43.31741" lon="6.1531">
        <ele>469.6</ele>
        <time>2022-05-26T08:30:55Z</time>
      </trkpt>
      <trkpt lat="43.31742" lon="6.15309">
        <ele>469.6</ele>
        <time>2022-05-26T08:31:12Z</time>
      </trkpt>
      <trkpt lat="43.31743" lon="6.15309">
        <ele>469.6</ele>
        <time>2022-05-26T08:31:17Z</time>
      </trkpt>
      <trkpt lat="43.31743" lon="6.15309">
        <ele>469.6</ele>
        <time>2022-05-26T08:31:22Z</time>
      </trkpt>
      <trkpt lat="43.31743" lon="6.15309">
        <ele>469.6</ele>
        <time>2022-05-26T08:31:25Z</time>
      </trkpt>
      <trkpt lat="43.31743" lon="6.15309">
        <ele>469.6</ele>
        <time>2022-05-26T08:31:27Z</time>
      </trkpt>
      <trkpt lat="43.31743" lon="6.15309">
        <ele>469.6</ele>
        <time>2022-05-26T08:31:29Z</time>
      </trkpt>
      <trkpt lat="43.31743" lon="6.15309">
        <ele>469.6</ele>
        <time>2022-05-26T08:31:37Z</time>
      </trkpt>
      <trkpt lat="43.31743" lon="6.15309">
        <ele>469.4</ele>
        <time>2022-05-26T08:31:41Z</time>
      </trkpt>
      <trkpt lat="43.31743" lon="6.15311">
        <ele>469.6</ele>
        <time>2022-05-26T08:32:05Z</time>
      </trkpt>
      <trkpt lat="43.31739" lon="6.15305">
        <ele>469.4</ele>
        <time>2022-05-26T08:32:28Z</time>
      </trkpt>
      <trkpt lat="43.31736" lon="6.15295">
        <ele>469.6</ele>
        <time>2022-05-26T08:32:35Z</time>
      </trkpt>
      <trkpt lat="43.31737" lon="6.15295">
        <ele>469.8</ele>
        <time>2022-05-26T08:32:41Z</time>
      </trkpt>
      <trkpt lat="43.31737" lon="6.15294">
        <ele>469.8</ele>
        <time>2022-05-26T08:32:48Z</time>
      </trkpt>
      <trkpt lat="43.31737" lon="6.15294">
        <ele>469.8</ele>
        <time>2022-05-26T08:32:58Z</time>
      </trkpt>
      <trkpt lat="43.31737" lon="6.15294">
        <ele>469.8</ele>
        <time>2022-05-26T08:33:04Z</time>
      </trkpt>
      <trkpt lat="43.31737" lon="6.15294">
        <ele>470</ele>
        <time>2022-05-26T08:33:19Z</time>
      </trkpt>
      <trkpt lat="43.31737" lon="6.15294">
        <ele>470</ele>
        <time>2022-05-26T08:33:22Z</time>
      </trkpt>
      <trkpt lat="43.31737" lon="6.15294">
        <ele>470.2</ele>
        <time>2022-05-26T08:33:32Z</time>
      </trkpt>
      <trkpt lat="43.31737" lon="6.15293">
        <ele>470.2</ele>
        <time>2022-05-26T08:33:42Z</time>
      </trkpt>
      <trkpt lat="43.31737" lon="6.15293">
        <ele>470.2</ele>
        <time>2022-05-26T08:33:44Z</time>
      </trkpt>
      <trkpt lat="43.31793" lon="6.15083">
        <ele>461.4</ele>
        <time>2022-05-26T09:16:27Z</time>
      </trkpt>
      <trkpt lat="43.31793" lon="6.15079">
        <ele>461.4</ele>
        <time>2022-05-26T09:16:28Z</time>
      </trkpt>
      <trkpt lat="43.31792" lon="6.15076">
        <ele>461.4</ele>
        <time>2022-05-26T09:16:29Z</time>
      </trkpt>
      <trkpt lat="43.31789" lon="6.15047">
        <ele>462</ele>
        <time>2022-05-26T09:16:36Z</time>
      </trkpt>
      <trkpt lat="43.31779" lon="6.15022">
        <ele>462</ele>
        <time>2022-05-26T09:16:43Z</time>
      </trkpt>
      <trkpt lat="43.31771" lon="6.14994">
        <ele>462</ele>
        <time>2022-05-26T09:16:50Z</time>
      </trkpt>
      <trkpt lat="43.31765" lon="6.14963">
        <ele>462.2</ele>
        <time>2022-05-26T09:16:58Z</time>
      </trkpt>
      <trkpt lat="43.31759" lon="6.14938">
        <ele>462.6</ele>
        <time>2022-05-26T09:17:04Z</time>
      </trkpt>
      <trkpt lat="43.31758" lon="6.14934">
        <ele>462.6</ele>
        <time>2022-05-26T09:17:05Z</time>
      </trkpt>
      <trkpt lat="43.31756" lon="6.14927">
        <ele>462.8</ele>
        <time>2022-05-26T09:17:07Z</time>
      </trkpt>
      <trkpt lat="43.31753" lon="6.14908">
        <ele>463.4</ele>
        <time>2022-05-26T09:17:12Z</time>
      </trkpt>
      <trkpt lat="43.31752" lon="6.14903">
        <ele>463.6</ele>
        <time>2022-05-26T09:17:13Z</time>
      </trkpt>
      <trkpt lat="43.31752" lon="6.14897">
        <ele>463.8</ele>
        <time>2022-05-26T09:17:15Z</time>
      </trkpt>
      <trkpt lat="43.31752" lon="6.14868">
        <ele>464</ele>
        <time>2022-05-26T09:17:22Z</time>
      </trkpt>
      <trkpt lat="43.31753" lon="6.14843">
        <ele>464.6</ele>
        <time>2022-05-26T09:17:28Z</time>
      </trkpt>
      <trkpt lat="43.31752" lon="6.1484">
        <ele>464.8</ele>
        <time>2022-05-26T09:17:29Z</time>
      </trkpt>
      <trkpt lat="43.3175" lon="6.14815">
        <ele>465.2</ele>
        <time>2022-05-26T09:17:35Z</time>
      </trkpt>
      <trkpt lat="43.31741" lon="6.14793">
        <ele>465.6</ele>
        <time>2022-05-26T09:17:41Z</time>
      </trkpt>
      <trkpt lat="43.31732" lon="6.14781">
        <ele>465.8</ele>
        <time>2022-05-26T09:17:45Z</time>
      </trkpt>
      <trkpt lat="43.31728" lon="6.14776">
        <ele>466.2</ele>
        <time>2022-05-26T09:17:47Z</time>
      </trkpt>
      <trkpt lat="43.31714" lon="6.14757">
        <ele>466.6</ele>
        <time>2022-05-26T09:17:53Z</time>
      </trkpt>
      <trkpt lat="43.31713" lon="6.14754">
        <ele>466.8</ele>
        <time>2022-05-26T09:17:54Z</time>
      </trkpt>
      <trkpt lat="43.31711" lon="6.14749">
        <ele>466.8</ele>
        <time>2022-05-26T09:17:55Z</time>
      </trkpt>
      <trkpt lat="43.31708" lon="6.14726">
        <ele>467.2</ele>
        <time>2022-05-26T09:18:01Z</time>
      </trkpt>
      <trkpt lat="43.31705" lon="6.14705">
        <ele>467.8</ele>
        <time>2022-05-26T09:18:06Z</time>
      </trkpt>
      <trkpt lat="43.31704" lon="6.14701">
        <ele>467.8</ele>
        <time>2022-05-26T09:18:07Z</time>
      </trkpt>
      <trkpt lat="43.31702" lon="6.14685">
        <ele>468.2</ele>
        <time>2022-05-26T09:18:11Z</time>
      </trkpt>
      <trkpt lat="43.31696" lon="6.14663">
        <ele>469</ele>
        <time>2022-05-26T09:18:18Z</time>
      </trkpt>
      <trkpt lat="43.31694" lon="6.14656">
        <ele>469.2</ele>
        <time>2022-05-26T09:18:20Z</time>
      </trkpt>
      <trkpt lat="43.31685" lon="6.14632">
        <ele>469.8</ele>
        <time>2022-05-26T09:18:28Z</time>
      </trkpt>
      <trkpt lat="43.31682" lon="6.14623">
        <ele>470.2</ele>
        <time>2022-05-26T09:18:31Z</time>
      </trkpt>
      <trkpt lat="43.31676" lon="6.14608">
        <ele>470.6</ele>
        <time>2022-05-26T09:18:36Z</time>
      </trkpt>
      <trkpt lat="43.31671" lon="6.14594">
        <ele>471.2</ele>
        <time>2022-05-26T09:18:41Z</time>
      </trkpt>
      <trkpt lat="43.3167" lon="6.14592">
        <ele>471.4</ele>
        <time>2022-05-26T09:18:42Z</time>
      </trkpt>
      <trkpt lat="43.3166" lon="6.14573">
        <ele>472.2</ele>
        <time>2022-05-26T09:18:49Z</time>
      </trkpt>
      <trkpt lat="43.31658" lon="6.14572">
        <ele>472.4</ele>
        <time>2022-05-26T09:18:50Z</time>
      </trkpt>
      <trkpt lat="43.31647" lon="6.14566">
        <ele>472.6</ele>
        <time>2022-05-26T09:18:55Z</time>
      </trkpt>
      <trkpt lat="43.31645" lon="6.14565">
        <ele>472.8</ele>
        <time>2022-05-26T09:18:56Z</time>
      </trkpt>
      <trkpt lat="43.3163" lon="6.14565">
        <ele>473</ele>
        <time>2022-05-26T09:19:02Z</time>
      </trkpt>
      <trkpt lat="43.31615" lon="6.14569">
        <ele>473.4</ele>
        <time>2022-05-26T09:19:08Z</time>
      </trkpt>
      <trkpt lat="43.31608" lon="6.1457">
        <ele>473.6</ele>
        <time>2022-05-26T09:19:11Z</time>
      </trkpt>
      <trkpt lat="43.31585" lon="6.14569">
        <ele>474</ele>
        <time>2022-05-26T09:19:20Z</time>
      </trkpt>
      <trkpt lat="43.31567" lon="6.14556">
        <ele>474</ele>
        <time>2022-05-26T09:19:28Z</time>
      </trkpt>
      <trkpt lat="43.31559" lon="6.14545">
        <ele>474.4</ele>
        <time>2022-05-26T09:19:32Z</time>
      </trkpt>
      <trkpt lat="43.31554" lon="6.14536">
        <ele>474.6</ele>
        <time>2022-05-26T09:19:35Z</time>
      </trkpt>
      <trkpt lat="43.31545" lon="6.14514">
        <ele>475.4</ele>
        <time>2022-05-26T09:19:42Z</time>
      </trkpt>
      <trkpt lat="43.31543" lon="6.14506">
        <ele>475.4</ele>
        <time>2022-05-26T09:19:44Z</time>
      </trkpt>
      <trkpt lat="43.31536" lon="6.14475">
        <ele>476</ele>
        <time>2022-05-26T09:19:52Z</time>
      </trkpt>
      <trkpt lat="43.31533" lon="6.14452">
        <ele>476.4</ele>
        <time>2022-05-26T09:19:58Z</time>
      </trkpt>
      <trkpt lat="43.31534" lon="6.14446">
        <ele>476.4</ele>
        <time>2022-05-26T09:20:00Z</time>
      </trkpt>
      <trkpt lat="43.31531" lon="6.14422">
        <ele>477.2</ele>
        <time>2022-05-26T09:20:07Z</time>
      </trkpt>
      <trkpt lat="43.31531" lon="6.14415">
        <ele>477.4</ele>
        <time>2022-05-26T09:20:09Z</time>
      </trkpt>
      <trkpt lat="43.31528" lon="6.14395">
        <ele>478.4</ele>
        <time>2022-05-26T09:20:15Z</time>
      </trkpt>
      <trkpt lat="43.31527" lon="6.14391">
        <ele>478.6</ele>
        <time>2022-05-26T09:20:16Z</time>
      </trkpt>
      <trkpt lat="43.31519" lon="6.14368">
        <ele>479.2</ele>
        <time>2022-05-26T09:20:23Z</time>
      </trkpt>
      <trkpt lat="43.31505" lon="6.1434">
        <ele>479.8</ele>
        <time>2022-05-26T09:20:31Z</time>
      </trkpt>
      <trkpt lat="43.31503" lon="6.14337">
        <ele>480</ele>
        <time>2022-05-26T09:20:32Z</time>
      </trkpt>
      <trkpt lat="43.31501" lon="6.14333">
        <ele>480</ele>
        <time>2022-05-26T09:20:33Z</time>
      </trkpt>
      <trkpt lat="43.31487" lon="6.14313">
        <ele>480.4</ele>
        <time>2022-05-26T09:20:40Z</time>
      </trkpt>
      <trkpt lat="43.31471" lon="6.14294">
        <ele>480.6</ele>
        <time>2022-05-26T09:20:47Z</time>
      </trkpt>
      <trkpt lat="43.31454" lon="6.14277">
        <ele>480.8</ele>
        <time>2022-05-26T09:20:54Z</time>
      </trkpt>
      <trkpt lat="43.31447" lon="6.1427">
        <ele>480.8</ele>
        <time>2022-05-26T09:20:57Z</time>
      </trkpt>
      <trkpt lat="43.31432" lon="6.14255">
        <ele>481.2</ele>
        <time>2022-05-26T09:21:03Z</time>
      </trkpt>
      <trkpt lat="43.31426" lon="6.14247">
        <ele>481.2</ele>
        <time>2022-05-26T09:21:06Z</time>
      </trkpt>
      <trkpt lat="43.31407" lon="6.14225">
        <ele>481.8</ele>
        <time>2022-05-26T09:21:15Z</time>
      </trkpt>
      <trkpt lat="43.31404" lon="6.14221">
        <ele>482</ele>
        <time>2022-05-26T09:21:17Z</time>
      </trkpt>
      <trkpt lat="43.31393" lon="6.14209">
        <ele>482.4</ele>
        <time>2022-05-26T09:21:22Z</time>
      </trkpt>
      <trkpt lat="43.31383" lon="6.14191">
        <ele>483</ele>
        <time>2022-05-26T09:21:28Z</time>
      </trkpt>
      <trkpt lat="43.31381" lon="6.14188">
        <ele>483</ele>
        <time>2022-05-26T09:21:29Z</time>
      </trkpt>
      <trkpt lat="43.31368" lon="6.14165">
        <ele>484</ele>
        <time>2022-05-26T09:21:37Z</time>
      </trkpt>
      <trkpt lat="43.31365" lon="6.1416">
        <ele>484</ele>
        <time>2022-05-26T09:21:39Z</time>
      </trkpt>
      <trkpt lat="43.31352" lon="6.14134">
        <ele>484.6</ele>
        <time>2022-05-26T09:21:47Z</time>
      </trkpt>
      <trkpt lat="43.31343" lon="6.14113">
        <ele>485.2</ele>
        <time>2022-05-26T09:21:54Z</time>
      </trkpt>
      <trkpt lat="43.3134" lon="6.14106">
        <ele>485.4</ele>
        <time>2022-05-26T09:21:56Z</time>
      </trkpt>
      <trkpt lat="43.31329" lon="6.14084">
        <ele>486.2</ele>
        <time>2022-05-26T09:22:03Z</time>
      </trkpt>
      <trkpt lat="43.31324" lon="6.14072">
        <ele>486.2</ele>
        <time>2022-05-26T09:22:06Z</time>
      </trkpt>
      <trkpt lat="43.31308" lon="6.14042">
        <ele>487.4</ele>
        <time>2022-05-26T09:22:15Z</time>
      </trkpt>
      <trkpt lat="43.31296" lon="6.14009">
        <ele>488.2</ele>
        <time>2022-05-26T09:22:24Z</time>
      </trkpt>
      <trkpt lat="43.31293" lon="6.14001">
        <ele>488.4</ele>
        <time>2022-05-26T09:22:26Z</time>
      </trkpt>
      <trkpt lat="43.31291" lon="6.13988">
        <ele>488.6</ele>
        <time>2022-05-26T09:22:29Z</time>
      </trkpt>
      <trkpt lat="43.3129" lon="6.13969">
        <ele>489</ele>
        <time>2022-05-26T09:22:34Z</time>
      </trkpt>
      <trkpt lat="43.31287" lon="6.13949">
        <ele>489.6</ele>
        <time>2022-05-26T09:22:39Z</time>
      </trkpt>
      <trkpt lat="43.31285" lon="6.13937">
        <ele>489.8</ele>
        <time>2022-05-26T09:22:42Z</time>
      </trkpt>
      <trkpt lat="43.31278" lon="6.1391">
        <ele>490.6</ele>
        <time>2022-05-26T09:22:49Z</time>
      </trkpt>
      <trkpt lat="43.31276" lon="6.13906">
        <ele>490.6</ele>
        <time>2022-05-26T09:22:50Z</time>
      </trkpt>
      <trkpt lat="43.31264" lon="6.13875">
        <ele>491</ele>
        <time>2022-05-26T09:22:58Z</time>
      </trkpt>
      <trkpt lat="43.3126" lon="6.1386">
        <ele>491.4</ele>
        <time>2022-05-26T09:23:02Z</time>
      </trkpt>
      <trkpt lat="43.31258" lon="6.1385">
        <ele>491.6</ele>
        <time>2022-05-26T09:23:05Z</time>
      </trkpt>
      <trkpt lat="43.31258" lon="6.13846">
        <ele>491.8</ele>
        <time>2022-05-26T09:23:06Z</time>
      </trkpt>
      <trkpt lat="43.31258" lon="6.13838">
        <ele>492.2</ele>
        <time>2022-05-26T09:23:09Z</time>
      </trkpt>
      <trkpt lat="43.31256" lon="6.13825">
        <ele>492.6</ele>
        <time>2022-05-26T09:23:13Z</time>
      </trkpt>
      <trkpt lat="43.31256" lon="6.13819">
        <ele>492.6</ele>
        <time>2022-05-26T09:23:15Z</time>
      </trkpt>
      <trkpt lat="43.31255" lon="6.13794">
        <ele>493.4</ele>
        <time>2022-05-26T09:23:22Z</time>
      </trkpt>
      <trkpt lat="43.31255" lon="6.13789">
        <ele>493.6</ele>
        <time>2022-05-26T09:23:24Z</time>
      </trkpt>
      <trkpt lat="43.31255" lon="6.13785">
        <ele>493.8</ele>
        <time>2022-05-26T09:23:25Z</time>
      </trkpt>
      <trkpt lat="43.31256" lon="6.13775">
        <ele>494.4</ele>
        <time>2022-05-26T09:23:28Z</time>
      </trkpt>
      <trkpt lat="43.3126" lon="6.13765">
        <ele>494.6</ele>
        <time>2022-05-26T09:23:31Z</time>
      </trkpt>
      <trkpt lat="43.31261" lon="6.13756">
        <ele>494.6</ele>
        <time>2022-05-26T09:23:34Z</time>
      </trkpt>
      <trkpt lat="43.31262" lon="6.13753">
        <ele>494.6</ele>
        <time>2022-05-26T09:23:35Z</time>
      </trkpt>
      <trkpt lat="43.31272" lon="6.1373">
        <ele>495.4</ele>
        <time>2022-05-26T09:23:43Z</time>
      </trkpt>
      <trkpt lat="43.31283" lon="6.13716">
        <ele>495.4</ele>
        <time>2022-05-26T09:23:50Z</time>
      </trkpt>
      <trkpt lat="43.31295" lon="6.13702">
        <ele>495.6</ele>
        <time>2022-05-26T09:23:57Z</time>
      </trkpt>
      <trkpt lat="43.31299" lon="6.13698">
        <ele>495.6</ele>
        <time>2022-05-26T09:23:59Z</time>
      </trkpt>
      <trkpt lat="43.31316" lon="6.13682">
        <ele>496.6</ele>
        <time>2022-05-26T09:24:08Z</time>
      </trkpt>
      <trkpt lat="43.31331" lon="6.1367">
        <ele>497.6</ele>
        <time>2022-05-26T09:24:15Z</time>
      </trkpt>
      <trkpt lat="43.31336" lon="6.13667">
        <ele>498</ele>
        <time>2022-05-26T09:24:17Z</time>
      </trkpt>
      <trkpt lat="43.31352" lon="6.13654">
        <ele>498.8</ele>
        <time>2022-05-26T09:24:24Z</time>
      </trkpt>
      <trkpt lat="43.31373" lon="6.13641">
        <ele>499.6</ele>
        <time>2022-05-26T09:24:33Z</time>
      </trkpt>
      <trkpt lat="43.31381" lon="6.13635">
        <ele>500</ele>
        <time>2022-05-26T09:24:37Z</time>
      </trkpt>
      <trkpt lat="43.31393" lon="6.13628">
        <ele>500.4</ele>
        <time>2022-05-26T09:24:42Z</time>
      </trkpt>
      <trkpt lat="43.314" lon="6.13624">
        <ele>501</ele>
        <time>2022-05-26T09:24:45Z</time>
      </trkpt>
      <trkpt lat="43.31414" lon="6.13616">
        <ele>501.4</ele>
        <time>2022-05-26T09:24:51Z</time>
      </trkpt>
      <trkpt lat="43.31421" lon="6.13612">
        <ele>501.4</ele>
        <time>2022-05-26T09:24:54Z</time>
      </trkpt>
      <trkpt lat="43.31434" lon="6.13605">
        <ele>501.8</ele>
        <time>2022-05-26T09:25:00Z</time>
      </trkpt>
      <trkpt lat="43.3145" lon="6.13598">
        <ele>502.6</ele>
        <time>2022-05-26T09:25:06Z</time>
      </trkpt>
      <trkpt lat="43.31455" lon="6.13596">
        <ele>503</ele>
        <time>2022-05-26T09:25:08Z</time>
      </trkpt>
      <trkpt lat="43.3147" lon="6.13588">
        <ele>503.4</ele>
        <time>2022-05-26T09:25:14Z</time>
      </trkpt>
      <trkpt lat="43.31492" lon="6.13576">
        <ele>504</ele>
        <time>2022-05-26T09:25:22Z</time>
      </trkpt>
      <trkpt lat="43.31494" lon="6.13574">
        <ele>504</ele>
        <time>2022-05-26T09:25:23Z</time>
      </trkpt>
      <trkpt lat="43.31513" lon="6.1356">
        <ele>505</ele>
        <time>2022-05-26T09:25:31Z</time>
      </trkpt>
      <trkpt lat="43.31517" lon="6.13556">
        <ele>505.4</ele>
        <time>2022-05-26T09:25:33Z</time>
      </trkpt>
      <trkpt lat="43.31527" lon="6.13548">
        <ele>506.2</ele>
        <time>2022-05-26T09:25:37Z</time>
      </trkpt>
      <trkpt lat="43.31541" lon="6.13534">
        <ele>506.8</ele>
        <time>2022-05-26T09:25:43Z</time>
      </trkpt>
      <trkpt lat="43.31548" lon="6.13525">
        <ele>507.4</ele>
        <time>2022-05-26T09:25:46Z</time>
      </trkpt>
      <trkpt lat="43.31556" lon="6.13514">
        <ele>508.2</ele>
        <time>2022-05-26T09:25:50Z</time>
      </trkpt>
      <trkpt lat="43.31559" lon="6.13509">
        <ele>508.4</ele>
        <time>2022-05-26T09:25:52Z</time>
      </trkpt>
      <trkpt lat="43.31573" lon="6.13486">
        <ele>509</ele>
        <time>2022-05-26T09:25:59Z</time>
      </trkpt>
      <trkpt lat="43.31582" lon="6.13468">
        <ele>509.4</ele>
        <time>2022-05-26T09:26:04Z</time>
      </trkpt>
      <trkpt lat="43.31587" lon="6.13459">
        <ele>509.6</ele>
        <time>2022-05-26T09:26:07Z</time>
      </trkpt>
      <trkpt lat="43.316" lon="6.13441">
        <ele>510.4</ele>
        <time>2022-05-26T09:26:13Z</time>
      </trkpt>
      <trkpt lat="43.31602" lon="6.13438">
        <ele>510.6</ele>
        <time>2022-05-26T09:26:14Z</time>
      </trkpt>
      <trkpt lat="43.31616" lon="6.13418">
        <ele>511.4</ele>
        <time>2022-05-26T09:26:21Z</time>
      </trkpt>
      <trkpt lat="43.31617" lon="6.13398">
        <ele>511.6</ele>
        <time>2022-05-26T09:26:26Z</time>
      </trkpt>
      <trkpt lat="43.3161" lon="6.13386">
        <ele>511.6</ele>
        <time>2022-05-26T09:26:30Z</time>
      </trkpt>
      <trkpt lat="43.31604" lon="6.13379">
        <ele>511.6</ele>
        <time>2022-05-26T09:26:33Z</time>
      </trkpt>
      <trkpt lat="43.31592" lon="6.13369">
        <ele>512</ele>
        <time>2022-05-26T09:26:39Z</time>
      </trkpt>
      <trkpt lat="43.31577" lon="6.13363">
        <ele>512.6</ele>
        <time>2022-05-26T09:26:45Z</time>
      </trkpt>
      <trkpt lat="43.31554" lon="6.13345">
        <ele>513.6</ele>
        <time>2022-05-26T09:26:54Z</time>
      </trkpt>
      <trkpt lat="43.3155" lon="6.1334">
        <ele>513.8</ele>
        <time>2022-05-26T09:26:56Z</time>
      </trkpt>
      <trkpt lat="43.3154" lon="6.13325">
        <ele>514.2</ele>
        <time>2022-05-26T09:27:01Z</time>
      </trkpt>
      <trkpt lat="43.31526" lon="6.133">
        <ele>514.6</ele>
        <time>2022-05-26T09:27:09Z</time>
      </trkpt>
      <trkpt lat="43.31524" lon="6.13296">
        <ele>514.6</ele>
        <time>2022-05-26T09:27:10Z</time>
      </trkpt>
      <trkpt lat="43.31512" lon="6.13271">
        <ele>515</ele>
        <time>2022-05-26T09:27:17Z</time>
      </trkpt>
      <trkpt lat="43.31511" lon="6.13268">
        <ele>515.2</ele>
        <time>2022-05-26T09:27:18Z</time>
      </trkpt>
      <trkpt lat="43.31503" lon="6.13247">
        <ele>515.6</ele>
        <time>2022-05-26T09:27:24Z</time>
      </trkpt>
      <trkpt lat="43.315" lon="6.1324">
        <ele>515.8</ele>
        <time>2022-05-26T09:27:26Z</time>
      </trkpt>
      <trkpt lat="43.31485" lon="6.13209">
        <ele>516.2</ele>
        <time>2022-05-26T09:27:34Z</time>
      </trkpt>
      <trkpt lat="43.31479" lon="6.13181">
        <ele>516.6</ele>
        <time>2022-05-26T09:27:41Z</time>
      </trkpt>
      <trkpt lat="43.31479" lon="6.13177">
        <ele>516.6</ele>
        <time>2022-05-26T09:27:42Z</time>
      </trkpt>
      <trkpt lat="43.31478" lon="6.13156">
        <ele>517.4</ele>
        <time>2022-05-26T09:27:48Z</time>
      </trkpt>
      <trkpt lat="43.31479" lon="6.13146">
        <ele>517.6</ele>
        <time>2022-05-26T09:27:51Z</time>
      </trkpt>
      <trkpt lat="43.31483" lon="6.13124">
        <ele>518.4</ele>
        <time>2022-05-26T09:27:57Z</time>
      </trkpt>
      <trkpt lat="43.31488" lon="6.13107">
        <ele>518.8</ele>
        <time>2022-05-26T09:28:02Z</time>
      </trkpt>
      <trkpt lat="43.3149" lon="6.13101">
        <ele>518.8</ele>
        <time>2022-05-26T09:28:04Z</time>
      </trkpt>
      <trkpt lat="43.31494" lon="6.13084">
        <ele>519.2</ele>
        <time>2022-05-26T09:28:09Z</time>
      </trkpt>
      <trkpt lat="43.31504" lon="6.13061">
        <ele>519.6</ele>
        <time>2022-05-26T09:28:16Z</time>
      </trkpt>
      <trkpt lat="43.31515" lon="6.13042">
        <ele>519.8</ele>
        <time>2022-05-26T09:28:23Z</time>
      </trkpt>
      <trkpt lat="43.31528" lon="6.13021">
        <ele>521</ele>
        <time>2022-05-26T09:28:30Z</time>
      </trkpt>
      <trkpt lat="43.31536" lon="6.12997">
        <ele>521.4</ele>
        <time>2022-05-26T09:28:37Z</time>
      </trkpt>
      <trkpt lat="43.31539" lon="6.12971">
        <ele>522</ele>
        <time>2022-05-26T09:28:43Z</time>
      </trkpt>
      <trkpt lat="43.31539" lon="6.12963">
        <ele>522.2</ele>
        <time>2022-05-26T09:28:45Z</time>
      </trkpt>
      <trkpt lat="43.31536" lon="6.12936">
        <ele>522.6</ele>
        <time>2022-05-26T09:28:52Z</time>
      </trkpt>
      <trkpt lat="43.31533" lon="6.12914">
        <ele>523</ele>
        <time>2022-05-26T09:28:57Z</time>
      </trkpt>
      <trkpt lat="43.31533" lon="6.12907">
        <ele>523.2</ele>
        <time>2022-05-26T09:28:59Z</time>
      </trkpt>
      <trkpt lat="43.3153" lon="6.12894">
        <ele>524</ele>
        <time>2022-05-26T09:29:02Z</time>
      </trkpt>
      <trkpt lat="43.31529" lon="6.1289">
        <ele>524.2</ele>
        <time>2022-05-26T09:29:03Z</time>
      </trkpt>
      <trkpt lat="43.31524" lon="6.12863">
        <ele>525</ele>
        <time>2022-05-26T09:29:10Z</time>
      </trkpt>
      <trkpt lat="43.31523" lon="6.12851">
        <ele>525</ele>
        <time>2022-05-26T09:29:13Z</time>
      </trkpt>
      <trkpt lat="43.3152" lon="6.12821">
        <ele>526</ele>
        <time>2022-05-26T09:29:20Z</time>
      </trkpt>
      <trkpt lat="43.31519" lon="6.12816">
        <ele>526.2</ele>
        <time>2022-05-26T09:29:21Z</time>
      </trkpt>
      <trkpt lat="43.31513" lon="6.12782">
        <ele>526.4</ele>
        <time>2022-05-26T09:29:29Z</time>
      </trkpt>
      <trkpt lat="43.31506" lon="6.12761">
        <ele>526.6</ele>
        <time>2022-05-26T09:29:34Z</time>
      </trkpt>
      <trkpt lat="43.31501" lon="6.12727">
        <ele>527</ele>
        <time>2022-05-26T09:29:42Z</time>
      </trkpt>
      <trkpt lat="43.315" lon="6.12716">
        <ele>527.2</ele>
        <time>2022-05-26T09:29:46Z</time>
      </trkpt>
      <trkpt lat="43.31502" lon="6.12696">
        <ele>528</ele>
        <time>2022-05-26T09:29:53Z</time>
      </trkpt>
      <trkpt lat="43.31503" lon="6.12673">
        <ele>529</ele>
        <time>2022-05-26T09:30:00Z</time>
      </trkpt>
      <trkpt lat="43.31505" lon="6.12645">
        <ele>529.6</ele>
        <time>2022-05-26T09:30:08Z</time>
      </trkpt>
      <trkpt lat="43.31509" lon="6.1262">
        <ele>530.2</ele>
        <time>2022-05-26T09:30:15Z</time>
      </trkpt>
      <trkpt lat="43.31513" lon="6.12602">
        <ele>531.4</ele>
        <time>2022-05-26T09:30:21Z</time>
      </trkpt>
      <trkpt lat="43.31515" lon="6.12596">
        <ele>531.6</ele>
        <time>2022-05-26T09:30:23Z</time>
      </trkpt>
      <trkpt lat="43.31526" lon="6.12565">
        <ele>532.2</ele>
        <time>2022-05-26T09:30:33Z</time>
      </trkpt>
      <trkpt lat="43.3153" lon="6.12555">
        <ele>532.4</ele>
        <time>2022-05-26T09:30:36Z</time>
      </trkpt>
      <trkpt lat="43.31537" lon="6.12535">
        <ele>532.8</ele>
        <time>2022-05-26T09:30:42Z</time>
      </trkpt>
      <trkpt lat="43.31542" lon="6.12523">
        <ele>533.4</ele>
        <time>2022-05-26T09:30:46Z</time>
      </trkpt>
      <trkpt lat="43.31548" lon="6.12511">
        <ele>533.8</ele>
        <time>2022-05-26T09:30:50Z</time>
      </trkpt>
      <trkpt lat="43.31559" lon="6.12489">
        <ele>534.4</ele>
        <time>2022-05-26T09:30:57Z</time>
      </trkpt>
      <trkpt lat="43.3156" lon="6.12486">
        <ele>534.4</ele>
        <time>2022-05-26T09:30:58Z</time>
      </trkpt>
      <trkpt lat="43.31562" lon="6.12483">
        <ele>534.6</ele>
        <time>2022-05-26T09:30:59Z</time>
      </trkpt>
      <trkpt lat="43.31574" lon="6.12456">
        <ele>535.4</ele>
        <time>2022-05-26T09:31:07Z</time>
      </trkpt>
      <trkpt lat="43.31584" lon="6.12431">
        <ele>536.6</ele>
        <time>2022-05-26T09:31:14Z</time>
      </trkpt>
      <trkpt lat="43.31585" lon="6.12427">
        <ele>536.6</ele>
        <time>2022-05-26T09:31:15Z</time>
      </trkpt>
      <trkpt lat="43.3159" lon="6.12402">
        <ele>537.2</ele>
        <time>2022-05-26T09:31:21Z</time>
      </trkpt>
      <trkpt lat="43.31588" lon="6.12388">
        <ele>537.6</ele>
        <time>2022-05-26T09:31:24Z</time>
      </trkpt>
      <trkpt lat="43.31584" lon="6.12379">
        <ele>537.6</ele>
        <time>2022-05-26T09:31:26Z</time>
      </trkpt>
      <trkpt lat="43.31576" lon="6.12361">
        <ele>537.6</ele>
        <time>2022-05-26T09:31:30Z</time>
      </trkpt>
      <trkpt lat="43.31569" lon="6.12347">
        <ele>537.4</ele>
        <time>2022-05-26T09:31:33Z</time>
      </trkpt>
      <trkpt lat="43.31556" lon="6.12314">
        <ele>537.4</ele>
        <time>2022-05-26T09:31:40Z</time>
      </trkpt>
      <trkpt lat="43.31545" lon="6.12288">
        <ele>537.2</ele>
        <time>2022-05-26T09:31:46Z</time>
      </trkpt>
      <trkpt lat="43.31536" lon="6.12261">
        <ele>537.2</ele>
        <time>2022-05-26T09:31:52Z</time>
      </trkpt>
      <trkpt lat="43.31533" lon="6.12228">
        <ele>537.2</ele>
        <time>2022-05-26T09:31:58Z</time>
      </trkpt>
      <trkpt lat="43.31533" lon="6.12216">
        <ele>536.8</ele>
        <time>2022-05-26T09:32:00Z</time>
      </trkpt>
      <trkpt lat="43.31533" lon="6.12198">
        <ele>536.8</ele>
        <time>2022-05-26T09:32:03Z</time>
      </trkpt>
      <trkpt lat="43.31537" lon="6.12166">
        <ele>536.4</ele>
        <time>2022-05-26T09:32:08Z</time>
      </trkpt>
      <trkpt lat="43.31545" lon="6.12129">
        <ele>536.6</ele>
        <time>2022-05-26T09:32:14Z</time>
      </trkpt>
      <trkpt lat="43.3155" lon="6.12113">
        <ele>536.4</ele>
        <time>2022-05-26T09:32:17Z</time>
      </trkpt>
      <trkpt lat="43.31555" lon="6.1209">
        <ele>536</ele>
        <time>2022-05-26T09:32:21Z</time>
      </trkpt>
      <trkpt lat="43.31556" lon="6.12084">
        <ele>536</ele>
        <time>2022-05-26T09:32:22Z</time>
      </trkpt>
      <trkpt lat="43.31557" lon="6.12071">
        <ele>535.8</ele>
        <time>2022-05-26T09:32:24Z</time>
      </trkpt>
      <trkpt lat="43.31558" lon="6.12065">
        <ele>535.8</ele>
        <time>2022-05-26T09:32:25Z</time>
      </trkpt>
      <trkpt lat="43.3156" lon="6.12047">
        <ele>535.8</ele>
        <time>2022-05-26T09:32:28Z</time>
      </trkpt>
      <trkpt lat="43.31563" lon="6.12034">
        <ele>535.8</ele>
        <time>2022-05-26T09:32:30Z</time>
      </trkpt>
      <trkpt lat="43.31563" lon="6.12021">
        <ele>535.8</ele>
        <time>2022-05-26T09:32:32Z</time>
      </trkpt>
      <trkpt lat="43.31563" lon="6.12014">
        <ele>535.8</ele>
        <time>2022-05-26T09:32:33Z</time>
      </trkpt>
      <trkpt lat="43.31565" lon="6.11995">
        <ele>535.4</ele>
        <time>2022-05-26T09:32:36Z</time>
      </trkpt>
      <trkpt lat="43.31566" lon="6.11989">
        <ele>535.4</ele>
        <time>2022-05-26T09:32:37Z</time>
      </trkpt>
      <trkpt lat="43.31567" lon="6.11938">
        <ele>534.6</ele>
        <time>2022-05-26T09:32:45Z</time>
      </trkpt>
      <trkpt lat="43.31569" lon="6.11924">
        <ele>534.6</ele>
        <time>2022-05-26T09:32:47Z</time>
      </trkpt>
      <trkpt lat="43.31571" lon="6.1191">
        <ele>534.2</ele>
        <time>2022-05-26T09:32:49Z</time>
      </trkpt>
      <trkpt lat="43.3158" lon="6.11862">
        <ele>533.6</ele>
        <time>2022-05-26T09:32:57Z</time>
      </trkpt>
      <trkpt lat="43.31583" lon="6.11846">
        <ele>533.6</ele>
        <time>2022-05-26T09:33:00Z</time>
      </trkpt>
      <trkpt lat="43.31588" lon="6.11829">
        <ele>533.6</ele>
        <time>2022-05-26T09:33:03Z</time>
      </trkpt>
      <trkpt lat="43.31596" lon="6.11805">
        <ele>533.4</ele>
        <time>2022-05-26T09:33:07Z</time>
      </trkpt>
      <trkpt lat="43.316" lon="6.11792">
        <ele>533.2</ele>
        <time>2022-05-26T09:33:09Z</time>
      </trkpt>
      <trkpt lat="43.31601" lon="6.11785">
        <ele>533.2</ele>
        <time>2022-05-26T09:33:10Z</time>
      </trkpt>
      <trkpt lat="43.31607" lon="6.11735">
        <ele>532.8</ele>
        <time>2022-05-26T09:33:17Z</time>
      </trkpt>
      <trkpt lat="43.31604" lon="6.1169">
        <ele>532.4</ele>
        <time>2022-05-26T09:33:23Z</time>
      </trkpt>
      <trkpt lat="43.31604" lon="6.11646">
        <ele>532.2</ele>
        <time>2022-05-26T09:33:29Z</time>
      </trkpt>
      <trkpt lat="43.31604" lon="6.11641">
        <ele>532</ele>
        <time>2022-05-26T09:33:30Z</time>
      </trkpt>
      <trkpt lat="43.31604" lon="6.11631">
        <ele>531.8</ele>
        <time>2022-05-26T09:33:32Z</time>
      </trkpt>
      <trkpt lat="43.31605" lon="6.11622">
        <ele>531.4</ele>
        <time>2022-05-26T09:33:34Z</time>
      </trkpt>
      <trkpt lat="43.31607" lon="6.11607">
        <ele>530.8</ele>
        <time>2022-05-26T09:33:37Z</time>
      </trkpt>
      <trkpt lat="43.31608" lon="6.11591">
        <ele>530.2</ele>
        <time>2022-05-26T09:33:40Z</time>
      </trkpt>
      <trkpt lat="43.31608" lon="6.11579">
        <ele>529.8</ele>
        <time>2022-05-26T09:33:42Z</time>
      </trkpt>
      <trkpt lat="43.31609" lon="6.11572">
        <ele>529.4</ele>
        <time>2022-05-26T09:33:43Z</time>
      </trkpt>
      <trkpt lat="43.31609" lon="6.11558">
        <ele>529</ele>
        <time>2022-05-26T09:33:45Z</time>
      </trkpt>
      <trkpt lat="43.3161" lon="6.11551">
        <ele>528.6</ele>
        <time>2022-05-26T09:33:46Z</time>
      </trkpt>
      <trkpt lat="43.3161" lon="6.11527">
        <ele>527.8</ele>
        <time>2022-05-26T09:33:50Z</time>
      </trkpt>
      <trkpt lat="43.3161" lon="6.1151">
        <ele>527.2</ele>
        <time>2022-05-26T09:33:53Z</time>
      </trkpt>
      <trkpt lat="43.3161" lon="6.11499">
        <ele>527</ele>
        <time>2022-05-26T09:33:55Z</time>
      </trkpt>
      <trkpt lat="43.31608" lon="6.11474">
        <ele>526.6</ele>
        <time>2022-05-26T09:33:59Z</time>
      </trkpt>
      <trkpt lat="43.31607" lon="6.11462">
        <ele>526.4</ele>
        <time>2022-05-26T09:34:01Z</time>
      </trkpt>
      <trkpt lat="43.31607" lon="6.11449">
        <ele>526</ele>
        <time>2022-05-26T09:34:03Z</time>
      </trkpt>
      <trkpt lat="43.31609" lon="6.11437">
        <ele>525.4</ele>
        <time>2022-05-26T09:34:05Z</time>
      </trkpt>
      <trkpt lat="43.31611" lon="6.11431">
        <ele>524.6</ele>
        <time>2022-05-26T09:34:06Z</time>
      </trkpt>
      <trkpt lat="43.31613" lon="6.11426">
        <ele>524.4</ele>
        <time>2022-05-26T09:34:07Z</time>
      </trkpt>
      <trkpt lat="43.31615" lon="6.11421">
        <ele>524</ele>
        <time>2022-05-26T09:34:08Z</time>
      </trkpt>
      <trkpt lat="43.31627" lon="6.11401">
        <ele>523.2</ele>
        <time>2022-05-26T09:34:12Z</time>
      </trkpt>
      <trkpt lat="43.31631" lon="6.11391">
        <ele>522.2</ele>
        <time>2022-05-26T09:34:14Z</time>
      </trkpt>
      <trkpt lat="43.31633" lon="6.11386">
        <ele>522</ele>
        <time>2022-05-26T09:34:15Z</time>
      </trkpt>
      <trkpt lat="43.31636" lon="6.11374">
        <ele>521.8</ele>
        <time>2022-05-26T09:34:17Z</time>
      </trkpt>
      <trkpt lat="43.31639" lon="6.11355">
        <ele>520.6</ele>
        <time>2022-05-26T09:34:20Z</time>
      </trkpt>
      <trkpt lat="43.31644" lon="6.11344">
        <ele>520</ele>
        <time>2022-05-26T09:34:22Z</time>
      </trkpt>
      <trkpt lat="43.31647" lon="6.1134">
        <ele>519.6</ele>
        <time>2022-05-26T09:34:23Z</time>
      </trkpt>
      <trkpt lat="43.31654" lon="6.1133">
        <ele>519.4</ele>
        <time>2022-05-26T09:34:25Z</time>
      </trkpt>
      <trkpt lat="43.31661" lon="6.11323">
        <ele>518.6</ele>
        <time>2022-05-26T09:34:27Z</time>
      </trkpt>
      <trkpt lat="43.31665" lon="6.1132">
        <ele>517.6</ele>
        <time>2022-05-26T09:34:28Z</time>
      </trkpt>
      <trkpt lat="43.31668" lon="6.11317">
        <ele>517.2</ele>
        <time>2022-05-26T09:34:29Z</time>
      </trkpt>
      <trkpt lat="43.31672" lon="6.11314">
        <ele>516.6</ele>
        <time>2022-05-26T09:34:30Z</time>
      </trkpt>
      <trkpt lat="43.31681" lon="6.11309">
        <ele>515.8</ele>
        <time>2022-05-26T09:34:32Z</time>
      </trkpt>
      <trkpt lat="43.31686" lon="6.11307">
        <ele>515.4</ele>
        <time>2022-05-26T09:34:33Z</time>
      </trkpt>
      <trkpt lat="43.31702" lon="6.11303">
        <ele>514.8</ele>
        <time>2022-05-26T09:34:36Z</time>
      </trkpt>
      <trkpt lat="43.31714" lon="6.11303">
        <ele>514.2</ele>
        <time>2022-05-26T09:34:39Z</time>
      </trkpt>
      <trkpt lat="43.31722" lon="6.11304">
        <ele>513.4</ele>
        <time>2022-05-26T09:34:41Z</time>
      </trkpt>
      <trkpt lat="43.31726" lon="6.11306">
        <ele>512.8</ele>
        <time>2022-05-26T09:34:42Z</time>
      </trkpt>
      <trkpt lat="43.3173" lon="6.11307">
        <ele>512.4</ele>
        <time>2022-05-26T09:34:43Z</time>
      </trkpt>
      <trkpt lat="43.3174" lon="6.11313">
        <ele>511.2</ele>
        <time>2022-05-26T09:34:46Z</time>
      </trkpt>
      <trkpt lat="43.31746" lon="6.11318">
        <ele>510.4</ele>
        <time>2022-05-26T09:34:48Z</time>
      </trkpt>
      <trkpt lat="43.3175" lon="6.1132">
        <ele>510.2</ele>
        <time>2022-05-26T09:34:49Z</time>
      </trkpt>
      <trkpt lat="43.31761" lon="6.11324">
        <ele>509.6</ele>
        <time>2022-05-26T09:34:52Z</time>
      </trkpt>
      <trkpt lat="43.31766" lon="6.11324">
        <ele>509.4</ele>
        <time>2022-05-26T09:34:53Z</time>
      </trkpt>
      <trkpt lat="43.3177" lon="6.11322">
        <ele>509.2</ele>
        <time>2022-05-26T09:34:54Z</time>
      </trkpt>
      <trkpt lat="43.31774" lon="6.1132">
        <ele>508.8</ele>
        <time>2022-05-26T09:34:55Z</time>
      </trkpt>
      <trkpt lat="43.31783" lon="6.11314">
        <ele>508</ele>
        <time>2022-05-26T09:34:57Z</time>
      </trkpt>
      <trkpt lat="43.31787" lon="6.1131">
        <ele>507.8</ele>
        <time>2022-05-26T09:34:58Z</time>
      </trkpt>
      <trkpt lat="43.31798" lon="6.11298">
        <ele>506.8</ele>
        <time>2022-05-26T09:35:01Z</time>
      </trkpt>
      <trkpt lat="43.31801" lon="6.11294">
        <ele>506.4</ele>
        <time>2022-05-26T09:35:02Z</time>
      </trkpt>
      <trkpt lat="43.31807" lon="6.11283">
        <ele>505.8</ele>
        <time>2022-05-26T09:35:04Z</time>
      </trkpt>
      <trkpt lat="43.31812" lon="6.11271">
        <ele>505.4</ele>
        <time>2022-05-26T09:35:06Z</time>
      </trkpt>
      <trkpt lat="43.31814" lon="6.11265">
        <ele>505</ele>
        <time>2022-05-26T09:35:07Z</time>
      </trkpt>
      <trkpt lat="43.31817" lon="6.11252">
        <ele>504.2</ele>
        <time>2022-05-26T09:35:09Z</time>
      </trkpt>
      <trkpt lat="43.31822" lon="6.1124">
        <ele>503.4</ele>
        <time>2022-05-26T09:35:11Z</time>
      </trkpt>
      <trkpt lat="43.31825" lon="6.11235">
        <ele>503.2</ele>
        <time>2022-05-26T09:35:12Z</time>
      </trkpt>
      <trkpt lat="43.3183" lon="6.11232">
        <ele>502.6</ele>
        <time>2022-05-26T09:35:13Z</time>
      </trkpt>
      <trkpt lat="43.31839" lon="6.11226">
        <ele>501.6</ele>
        <time>2022-05-26T09:35:15Z</time>
      </trkpt>
      <trkpt lat="43.31844" lon="6.11222">
        <ele>501</ele>
        <time>2022-05-26T09:35:16Z</time>
      </trkpt>
      <trkpt lat="43.31854" lon="6.11213">
        <ele>500.4</ele>
        <time>2022-05-26T09:35:18Z</time>
      </trkpt>
      <trkpt lat="43.31873" lon="6.11198">
        <ele>499</ele>
        <time>2022-05-26T09:35:22Z</time>
      </trkpt>
      <trkpt lat="43.31877" lon="6.11194">
        <ele>498.4</ele>
        <time>2022-05-26T09:35:23Z</time>
      </trkpt>
      <trkpt lat="43.31881" lon="6.1119">
        <ele>498.2</ele>
        <time>2022-05-26T09:35:24Z</time>
      </trkpt>
      <trkpt lat="43.31886" lon="6.11187">
        <ele>497.8</ele>
        <time>2022-05-26T09:35:25Z</time>
      </trkpt>
      <trkpt lat="43.31894" lon="6.1118">
        <ele>497.6</ele>
        <time>2022-05-26T09:35:27Z</time>
      </trkpt>
      <trkpt lat="43.31902" lon="6.11171">
        <ele>496.8</ele>
        <time>2022-05-26T09:35:29Z</time>
      </trkpt>
      <trkpt lat="43.31907" lon="6.11162">
        <ele>495.8</ele>
        <time>2022-05-26T09:35:31Z</time>
      </trkpt>
      <trkpt lat="43.31908" lon="6.11158">
        <ele>495.6</ele>
        <time>2022-05-26T09:35:32Z</time>
      </trkpt>
      <trkpt lat="43.31912" lon="6.1115">
        <ele>495</ele>
        <time>2022-05-26T09:35:34Z</time>
      </trkpt>
      <trkpt lat="43.31917" lon="6.11142">
        <ele>494.4</ele>
        <time>2022-05-26T09:35:36Z</time>
      </trkpt>
      <trkpt lat="43.31924" lon="6.11131">
        <ele>493.4</ele>
        <time>2022-05-26T09:35:39Z</time>
      </trkpt>
      <trkpt lat="43.31927" lon="6.11126">
        <ele>493</ele>
        <time>2022-05-26T09:35:40Z</time>
      </trkpt>
      <trkpt lat="43.31936" lon="6.1111">
        <ele>492.2</ele>
        <time>2022-05-26T09:35:43Z</time>
      </trkpt>
      <trkpt lat="43.3194" lon="6.111">
        <ele>491.6</ele>
        <time>2022-05-26T09:35:45Z</time>
      </trkpt>
      <trkpt lat="43.31941" lon="6.11094">
        <ele>491</ele>
        <time>2022-05-26T09:35:46Z</time>
      </trkpt>
      <trkpt lat="43.31943" lon="6.1108">
        <ele>490.4</ele>
        <time>2022-05-26T09:35:48Z</time>
      </trkpt>
      <trkpt lat="43.31943" lon="6.11073">
        <ele>489.8</ele>
        <time>2022-05-26T09:35:49Z</time>
      </trkpt>
      <trkpt lat="43.31943" lon="6.11064">
        <ele>489.6</ele>
        <time>2022-05-26T09:35:50Z</time>
      </trkpt>
      <trkpt lat="43.31948" lon="6.11042">
        <ele>489</ele>
        <time>2022-05-26T09:35:53Z</time>
      </trkpt>
      <trkpt lat="43.31949" lon="6.11035">
        <ele>488.6</ele>
        <time>2022-05-26T09:35:54Z</time>
      </trkpt>
      <trkpt lat="43.31952" lon="6.11022">
        <ele>488</ele>
        <time>2022-05-26T09:35:56Z</time>
      </trkpt>
      <trkpt lat="43.31953" lon="6.1101">
        <ele>487.4</ele>
        <time>2022-05-26T09:35:58Z</time>
      </trkpt>
      <trkpt lat="43.31953" lon="6.11003">
        <ele>487.2</ele>
        <time>2022-05-26T09:35:59Z</time>
      </trkpt>
      <trkpt lat="43.31952" lon="6.10989">
        <ele>486.4</ele>
        <time>2022-05-26T09:36:01Z</time>
      </trkpt>
      <trkpt lat="43.31951" lon="6.10982">
        <ele>486</ele>
        <time>2022-05-26T09:36:02Z</time>
      </trkpt>
      <trkpt lat="43.31947" lon="6.10966">
        <ele>485.4</ele>
        <time>2022-05-26T09:36:04Z</time>
      </trkpt>
      <trkpt lat="43.31944" lon="6.10957">
        <ele>485</ele>
        <time>2022-05-26T09:36:05Z</time>
      </trkpt>
      <trkpt lat="43.31938" lon="6.10935">
        <ele>483.8</ele>
        <time>2022-05-26T09:36:08Z</time>
      </trkpt>
      <trkpt lat="43.31934" lon="6.10913">
        <ele>482.6</ele>
        <time>2022-05-26T09:36:11Z</time>
      </trkpt>
      <trkpt lat="43.31932" lon="6.10898">
        <ele>481.2</ele>
        <time>2022-05-26T09:36:13Z</time>
      </trkpt>
      <trkpt lat="43.31931" lon="6.10891">
        <ele>480.8</ele>
        <time>2022-05-26T09:36:14Z</time>
      </trkpt>
      <trkpt lat="43.31931" lon="6.10884">
        <ele>480.4</ele>
        <time>2022-05-26T09:36:15Z</time>
      </trkpt>
      <trkpt lat="43.31931" lon="6.10878">
        <ele>480.2</ele>
        <time>2022-05-26T09:36:16Z</time>
      </trkpt>
      <trkpt lat="43.31931" lon="6.10871">
        <ele>479.8</ele>
        <time>2022-05-26T09:36:17Z</time>
      </trkpt>
      <trkpt lat="43.31931" lon="6.10865">
        <ele>479.4</ele>
        <time>2022-05-26T09:36:18Z</time>
      </trkpt>
      <trkpt lat="43.31932" lon="6.10859">
        <ele>478.8</ele>
        <time>2022-05-26T09:36:19Z</time>
      </trkpt>
      <trkpt lat="43.31935" lon="6.10845">
        <ele>478.2</ele>
        <time>2022-05-26T09:36:21Z</time>
      </trkpt>
      <trkpt lat="43.3194" lon="6.10832">
        <ele>477.6</ele>
        <time>2022-05-26T09:36:23Z</time>
      </trkpt>
      <trkpt lat="43.3195" lon="6.10816">
        <ele>476.2</ele>
        <time>2022-05-26T09:36:26Z</time>
      </trkpt>
      <trkpt lat="43.31957" lon="6.10808">
        <ele>475.8</ele>
        <time>2022-05-26T09:36:28Z</time>
      </trkpt>
      <trkpt lat="43.31961" lon="6.10802">
        <ele>475.6</ele>
        <time>2022-05-26T09:36:29Z</time>
      </trkpt>
      <trkpt lat="43.31968" lon="6.10793">
        <ele>474.6</ele>
        <time>2022-05-26T09:36:31Z</time>
      </trkpt>
      <trkpt lat="43.31974" lon="6.10783">
        <ele>474</ele>
        <time>2022-05-26T09:36:33Z</time>
      </trkpt>
      <trkpt lat="43.31977" lon="6.10776">
        <ele>473.8</ele>
        <time>2022-05-26T09:36:34Z</time>
      </trkpt>
      <trkpt lat="43.3198" lon="6.10768">
        <ele>473.6</ele>
        <time>2022-05-26T09:36:35Z</time>
      </trkpt>
      <trkpt lat="43.31981" lon="6.10763">
        <ele>473.4</ele>
        <time>2022-05-26T09:36:36Z</time>
      </trkpt>
      <trkpt lat="43.31985" lon="6.10752">
        <ele>472.6</ele>
        <time>2022-05-26T09:36:38Z</time>
      </trkpt>
      <trkpt lat="43.31986" lon="6.10747">
        <ele>472</ele>
        <time>2022-05-26T09:36:39Z</time>
      </trkpt>
      <trkpt lat="43.31989" lon="6.10735">
        <ele>471</ele>
        <time>2022-05-26T09:36:42Z</time>
      </trkpt>
      <trkpt lat="43.3199" lon="6.10731">
        <ele>470.6</ele>
        <time>2022-05-26T09:36:43Z</time>
      </trkpt>
      <trkpt lat="43.31996" lon="6.10704">
        <ele>469.8</ele>
        <time>2022-05-26T09:36:50Z</time>
      </trkpt>
      <trkpt lat="43.31996" lon="6.10701">
        <ele>469.8</ele>
        <time>2022-05-26T09:36:51Z</time>
      </trkpt>
      <trkpt lat="43.32004" lon="6.10675">
        <ele>468.8</ele>
        <time>2022-05-26T09:36:56Z</time>
      </trkpt>
      <trkpt lat="43.32006" lon="6.10669">
        <ele>468.6</ele>
        <time>2022-05-26T09:36:57Z</time>
      </trkpt>
      <trkpt lat="43.3201" lon="6.10652">
        <ele>467.2</ele>
        <time>2022-05-26T09:37:00Z</time>
      </trkpt>
      <trkpt lat="43.32012" lon="6.1064">
        <ele>466.6</ele>
        <time>2022-05-26T09:37:02Z</time>
      </trkpt>
      <trkpt lat="43.32013" lon="6.10634">
        <ele>466.6</ele>
        <time>2022-05-26T09:37:03Z</time>
      </trkpt>
      <trkpt lat="43.32014" lon="6.10628">
        <ele>466.4</ele>
        <time>2022-05-26T09:37:04Z</time>
      </trkpt>
      <trkpt lat="43.32014" lon="6.10622">
        <ele>466.2</ele>
        <time>2022-05-26T09:37:05Z</time>
      </trkpt>
      <trkpt lat="43.32016" lon="6.10599">
        <ele>465.2</ele>
        <time>2022-05-26T09:37:09Z</time>
      </trkpt>
      <trkpt lat="43.32017" lon="6.10587">
        <ele>465</ele>
        <time>2022-05-26T09:37:11Z</time>
      </trkpt>
      <trkpt lat="43.3202" lon="6.10564">
        <ele>464</ele>
        <time>2022-05-26T09:37:15Z</time>
      </trkpt>
      <trkpt lat="43.32021" lon="6.10559">
        <ele>463.4</ele>
        <time>2022-05-26T09:37:16Z</time>
      </trkpt>
      <trkpt lat="43.32021" lon="6.10554">
        <ele>463</ele>
        <time>2022-05-26T09:37:17Z</time>
      </trkpt>
      <trkpt lat="43.32022" lon="6.10549">
        <ele>462.6</ele>
        <time>2022-05-26T09:37:18Z</time>
      </trkpt>
      <trkpt lat="43.32023" lon="6.10534">
        <ele>461.4</ele>
        <time>2022-05-26T09:37:21Z</time>
      </trkpt>
      <trkpt lat="43.32025" lon="6.10528">
        <ele>461.2</ele>
        <time>2022-05-26T09:37:22Z</time>
      </trkpt>
      <trkpt lat="43.32026" lon="6.10522">
        <ele>460.8</ele>
        <time>2022-05-26T09:37:23Z</time>
      </trkpt>
      <trkpt lat="43.32029" lon="6.10513">
        <ele>460.2</ele>
        <time>2022-05-26T09:37:25Z</time>
      </trkpt>
      <trkpt lat="43.3203" lon="6.10508">
        <ele>460</ele>
        <time>2022-05-26T09:37:26Z</time>
      </trkpt>
      <trkpt lat="43.32032" lon="6.10497">
        <ele>459</ele>
        <time>2022-05-26T09:37:28Z</time>
      </trkpt>
      <trkpt lat="43.32038" lon="6.10472">
        <ele>457.8</ele>
        <time>2022-05-26T09:37:32Z</time>
      </trkpt>
      <trkpt lat="43.32041" lon="6.10461">
        <ele>456.8</ele>
        <time>2022-05-26T09:37:34Z</time>
      </trkpt>
      <trkpt lat="43.32043" lon="6.10454">
        <ele>456.2</ele>
        <time>2022-05-26T09:37:35Z</time>
      </trkpt>
      <trkpt lat="43.32047" lon="6.10433">
        <ele>454.6</ele>
        <time>2022-05-26T09:37:38Z</time>
      </trkpt>
      <trkpt lat="43.32051" lon="6.10413">
        <ele>453.4</ele>
        <time>2022-05-26T09:37:41Z</time>
      </trkpt>
      <trkpt lat="43.32054" lon="6.10401">
        <ele>452.4</ele>
        <time>2022-05-26T09:37:43Z</time>
      </trkpt>
      <trkpt lat="43.32059" lon="6.10375">
        <ele>451.2</ele>
        <time>2022-05-26T09:37:47Z</time>
      </trkpt>
      <trkpt lat="43.32062" lon="6.10364">
        <ele>450</ele>
        <time>2022-05-26T09:37:49Z</time>
      </trkpt>
      <trkpt lat="43.32066" lon="6.1035">
        <ele>449.2</ele>
        <time>2022-05-26T09:37:51Z</time>
      </trkpt>
      <trkpt lat="43.32067" lon="6.10344">
        <ele>448.8</ele>
        <time>2022-05-26T09:37:52Z</time>
      </trkpt>
      <trkpt lat="43.3207" lon="6.10331">
        <ele>448.2</ele>
        <time>2022-05-26T09:37:54Z</time>
      </trkpt>
      <trkpt lat="43.32074" lon="6.10316">
        <ele>447.4</ele>
        <time>2022-05-26T09:37:56Z</time>
      </trkpt>
      <trkpt lat="43.32078" lon="6.10298">
        <ele>445.8</ele>
        <time>2022-05-26T09:37:59Z</time>
      </trkpt>
      <trkpt lat="43.32079" lon="6.10292">
        <ele>445.4</ele>
        <time>2022-05-26T09:38:00Z</time>
      </trkpt>
      <trkpt lat="43.32081" lon="6.10285">
        <ele>444.6</ele>
        <time>2022-05-26T09:38:01Z</time>
      </trkpt>
      <trkpt lat="43.32084" lon="6.10273">
        <ele>443.6</ele>
        <time>2022-05-26T09:38:03Z</time>
      </trkpt>
      <trkpt lat="43.32086" lon="6.10267">
        <ele>443</ele>
        <time>2022-05-26T09:38:04Z</time>
      </trkpt>
      <trkpt lat="43.32093" lon="6.1025">
        <ele>442.2</ele>
        <time>2022-05-26T09:38:07Z</time>
      </trkpt>
      <trkpt lat="43.32096" lon="6.10246">
        <ele>441.6</ele>
        <time>2022-05-26T09:38:08Z</time>
      </trkpt>
      <trkpt lat="43.32103" lon="6.10227">
        <ele>440</ele>
        <time>2022-05-26T09:38:11Z</time>
      </trkpt>
      <trkpt lat="43.32106" lon="6.10214">
        <ele>438.8</ele>
        <time>2022-05-26T09:38:13Z</time>
      </trkpt>
      <trkpt lat="43.32107" lon="6.10209">
        <ele>438.4</ele>
        <time>2022-05-26T09:38:14Z</time>
      </trkpt>
      <trkpt lat="43.3211" lon="6.10196">
        <ele>437.6</ele>
        <time>2022-05-26T09:38:16Z</time>
      </trkpt>
      <trkpt lat="43.32113" lon="6.10185">
        <ele>436.2</ele>
        <time>2022-05-26T09:38:18Z</time>
      </trkpt>
      <trkpt lat="43.32114" lon="6.10179">
        <ele>435.8</ele>
        <time>2022-05-26T09:38:19Z</time>
      </trkpt>
      <trkpt lat="43.32117" lon="6.10173">
        <ele>435</ele>
        <time>2022-05-26T09:38:20Z</time>
      </trkpt>
      <trkpt lat="43.3212" lon="6.10169">
        <ele>434.8</ele>
        <time>2022-05-26T09:38:21Z</time>
      </trkpt>
      <trkpt lat="43.32127" lon="6.10161">
        <ele>433.6</ele>
        <time>2022-05-26T09:38:23Z</time>
      </trkpt>
      <trkpt lat="43.32133" lon="6.10155">
        <ele>433</ele>
        <time>2022-05-26T09:38:25Z</time>
      </trkpt>
      <trkpt lat="43.32139" lon="6.10148">
        <ele>432</ele>
        <time>2022-05-26T09:38:27Z</time>
      </trkpt>
      <trkpt lat="43.32142" lon="6.1014">
        <ele>431.2</ele>
        <time>2022-05-26T09:38:29Z</time>
      </trkpt>
      <trkpt lat="43.32142" lon="6.10136">
        <ele>430.8</ele>
        <time>2022-05-26T09:38:30Z</time>
      </trkpt>
      <trkpt lat="43.32138" lon="6.10124">
        <ele>430</ele>
        <time>2022-05-26T09:38:33Z</time>
      </trkpt>
      <trkpt lat="43.32135" lon="6.1012">
        <ele>429.8</ele>
        <time>2022-05-26T09:38:34Z</time>
      </trkpt>
      <trkpt lat="43.32129" lon="6.10114">
        <ele>429.6</ele>
        <time>2022-05-26T09:38:36Z</time>
      </trkpt>
      <trkpt lat="43.32122" lon="6.10108">
        <ele>428.8</ele>
        <time>2022-05-26T09:38:38Z</time>
      </trkpt>
      <trkpt lat="43.32119" lon="6.10105">
        <ele>428.4</ele>
        <time>2022-05-26T09:38:39Z</time>
      </trkpt>
      <trkpt lat="43.32115" lon="6.10103">
        <ele>428</ele>
        <time>2022-05-26T09:38:40Z</time>
      </trkpt>
      <trkpt lat="43.32107" lon="6.10099">
        <ele>427.2</ele>
        <time>2022-05-26T09:38:42Z</time>
      </trkpt>
      <trkpt lat="43.32103" lon="6.10097">
        <ele>426.8</ele>
        <time>2022-05-26T09:38:43Z</time>
      </trkpt>
      <trkpt lat="43.32099" lon="6.10095">
        <ele>426</ele>
        <time>2022-05-26T09:38:44Z</time>
      </trkpt>
      <trkpt lat="43.3208" lon="6.10091">
        <ele>424.6</ele>
        <time>2022-05-26T09:38:48Z</time>
      </trkpt>
      <trkpt lat="43.3207" lon="6.10088">
        <ele>423.8</ele>
        <time>2022-05-26T09:38:50Z</time>
      </trkpt>
      <trkpt lat="43.32066" lon="6.10086">
        <ele>423.4</ele>
        <time>2022-05-26T09:38:51Z</time>
      </trkpt>
      <trkpt lat="43.32062" lon="6.10084">
        <ele>423.2</ele>
        <time>2022-05-26T09:38:52Z</time>
      </trkpt>
      <trkpt lat="43.32048" lon="6.10075">
        <ele>422</ele>
        <time>2022-05-26T09:38:55Z</time>
      </trkpt>
      <trkpt lat="43.32044" lon="6.10072">
        <ele>421.6</ele>
        <time>2022-05-26T09:38:56Z</time>
      </trkpt>
      <trkpt lat="43.32037" lon="6.10066">
        <ele>420.8</ele>
        <time>2022-05-26T09:38:58Z</time>
      </trkpt>
      <trkpt lat="43.32034" lon="6.10062">
        <ele>420.2</ele>
        <time>2022-05-26T09:39:00Z</time>
      </trkpt>
      <trkpt lat="43.32032" lon="6.10056">
        <ele>419.4</ele>
        <time>2022-05-26T09:39:02Z</time>
      </trkpt>
      <trkpt lat="43.3203" lon="6.10053">
        <ele>418.8</ele>
        <time>2022-05-26T09:39:05Z</time>
      </trkpt>
      <trkpt lat="43.32029" lon="6.10052">
        <ele>418.6</ele>
        <time>2022-05-26T09:39:06Z</time>
      </trkpt>
      <trkpt lat="43.32028" lon="6.1005">
        <ele>418.2</ele>
        <time>2022-05-26T09:39:07Z</time>
      </trkpt>
      <trkpt lat="43.32023" lon="6.10043">
        <ele>417.6</ele>
        <time>2022-05-26T09:39:10Z</time>
      </trkpt>
      <trkpt lat="43.32018" lon="6.10035">
        <ele>417.4</ele>
        <time>2022-05-26T09:39:12Z</time>
      </trkpt>
      <trkpt lat="43.32013" lon="6.10025">
        <ele>417.2</ele>
        <time>2022-05-26T09:39:14Z</time>
      </trkpt>
      <trkpt lat="43.32004" lon="6.10002">
        <ele>416</ele>
        <time>2022-05-26T09:39:18Z</time>
      </trkpt>
      <trkpt lat="43.32" lon="6.09992">
        <ele>415.6</ele>
        <time>2022-05-26T09:39:20Z</time>
      </trkpt>
      <trkpt lat="43.31994" lon="6.09974">
        <ele>414.8</ele>
        <time>2022-05-26T09:39:23Z</time>
      </trkpt>
      <trkpt lat="43.3199" lon="6.09962">
        <ele>414.4</ele>
        <time>2022-05-26T09:39:25Z</time>
      </trkpt>
      <trkpt lat="43.31988" lon="6.09956">
        <ele>413.6</ele>
        <time>2022-05-26T09:39:26Z</time>
      </trkpt>
      <trkpt lat="43.31986" lon="6.0995">
        <ele>413.4</ele>
        <time>2022-05-26T09:39:27Z</time>
      </trkpt>
      <trkpt lat="43.31982" lon="6.09937">
        <ele>412.6</ele>
        <time>2022-05-26T09:39:29Z</time>
      </trkpt>
      <trkpt lat="43.31975" lon="6.09915">
        <ele>411.4</ele>
        <time>2022-05-26T09:39:32Z</time>
      </trkpt>
      <trkpt lat="43.31971" lon="6.099">
        <ele>410.4</ele>
        <time>2022-05-26T09:39:34Z</time>
      </trkpt>
      <trkpt lat="43.3197" lon="6.09892">
        <ele>409.8</ele>
        <time>2022-05-26T09:39:35Z</time>
      </trkpt>
      <trkpt lat="43.31968" lon="6.09876">
        <ele>409.2</ele>
        <time>2022-05-26T09:39:37Z</time>
      </trkpt>
      <trkpt lat="43.31966" lon="6.0986">
        <ele>408.2</ele>
        <time>2022-05-26T09:39:39Z</time>
      </trkpt>
      <trkpt lat="43.31964" lon="6.09851">
        <ele>407.6</ele>
        <time>2022-05-26T09:39:40Z</time>
      </trkpt>
      <trkpt lat="43.31964" lon="6.09839">
        <ele>406.2</ele>
        <time>2022-05-26T09:39:42Z</time>
      </trkpt>
      <trkpt lat="43.31964" lon="6.09833">
        <ele>406</ele>
        <time>2022-05-26T09:39:43Z</time>
      </trkpt>
      <trkpt lat="43.31961" lon="6.09805">
        <ele>405.2</ele>
        <time>2022-05-26T09:39:47Z</time>
      </trkpt>
      <trkpt lat="43.31961" lon="6.09791">
        <ele>403.6</ele>
        <time>2022-05-26T09:39:49Z</time>
      </trkpt>
      <trkpt lat="43.3196" lon="6.09783">
        <ele>402.8</ele>
        <time>2022-05-26T09:39:50Z</time>
      </trkpt>
      <trkpt lat="43.31961" lon="6.09776">
        <ele>402.4</ele>
        <time>2022-05-26T09:39:51Z</time>
      </trkpt>
      <trkpt lat="43.3196" lon="6.09749">
        <ele>401.4</ele>
        <time>2022-05-26T09:39:55Z</time>
      </trkpt>
      <trkpt lat="43.31961" lon="6.09729">
        <ele>400.2</ele>
        <time>2022-05-26T09:39:58Z</time>
      </trkpt>
      <trkpt lat="43.31961" lon="6.09722">
        <ele>399.8</ele>
        <time>2022-05-26T09:39:59Z</time>
      </trkpt>
      <trkpt lat="43.31962" lon="6.09704">
        <ele>398.6</ele>
        <time>2022-05-26T09:40:01Z</time>
      </trkpt>
      <trkpt lat="43.31963" lon="6.09683">
        <ele>397</ele>
        <time>2022-05-26T09:40:04Z</time>
      </trkpt>
      <trkpt lat="43.31964" lon="6.09671">
        <ele>396</ele>
        <time>2022-05-26T09:40:06Z</time>
      </trkpt>
      <trkpt lat="43.31964" lon="6.09666">
        <ele>395.8</ele>
        <time>2022-05-26T09:40:07Z</time>
      </trkpt>
      <trkpt lat="43.31966" lon="6.09656">
        <ele>394.6</ele>
        <time>2022-05-26T09:40:10Z</time>
      </trkpt>
      <trkpt lat="43.3197" lon="6.09649">
        <ele>393.2</ele>
        <time>2022-05-26T09:40:13Z</time>
      </trkpt>
      <trkpt lat="43.31973" lon="6.09644">
        <ele>392.6</ele>
        <time>2022-05-26T09:40:15Z</time>
      </trkpt>
      <trkpt lat="43.31979" lon="6.09637">
        <ele>392.2</ele>
        <time>2022-05-26T09:40:18Z</time>
      </trkpt>
      <trkpt lat="43.31985" lon="6.09633">
        <ele>392</ele>
        <time>2022-05-26T09:40:20Z</time>
      </trkpt>
      <trkpt lat="43.31995" lon="6.09628">
        <ele>391.2</ele>
        <time>2022-05-26T09:40:24Z</time>
      </trkpt>
      <trkpt lat="43.31998" lon="6.09626">
        <ele>390.8</ele>
        <time>2022-05-26T09:40:25Z</time>
      </trkpt>
      <trkpt lat="43.32018" lon="6.09619">
        <ele>390.2</ele>
        <time>2022-05-26T09:40:30Z</time>
      </trkpt>
      <trkpt lat="43.32022" lon="6.09618">
        <ele>390.2</ele>
        <time>2022-05-26T09:40:31Z</time>
      </trkpt>
      <trkpt lat="43.32038" lon="6.09613">
        <ele>389</ele>
        <time>2022-05-26T09:40:35Z</time>
      </trkpt>
      <trkpt lat="43.32054" lon="6.09609">
        <ele>387.6</ele>
        <time>2022-05-26T09:40:38Z</time>
      </trkpt>
      <trkpt lat="43.32059" lon="6.09608">
        <ele>386.8</ele>
        <time>2022-05-26T09:40:39Z</time>
      </trkpt>
      <trkpt lat="43.32069" lon="6.09605">
        <ele>386</ele>
        <time>2022-05-26T09:40:41Z</time>
      </trkpt>
      <trkpt lat="43.32085" lon="6.09604">
        <ele>384.6</ele>
        <time>2022-05-26T09:40:44Z</time>
      </trkpt>
      <trkpt lat="43.32092" lon="6.09604">
        <ele>383.8</ele>
        <time>2022-05-26T09:40:46Z</time>
      </trkpt>
      <trkpt lat="43.32097" lon="6.09603">
        <ele>383.6</ele>
        <time>2022-05-26T09:40:47Z</time>
      </trkpt>
      <trkpt lat="43.32111" lon="6.09602">
        <ele>382.4</ele>
        <time>2022-05-26T09:40:50Z</time>
      </trkpt>
      <trkpt lat="43.32127" lon="6.09601">
        <ele>381.4</ele>
        <time>2022-05-26T09:40:53Z</time>
      </trkpt>
      <trkpt lat="43.32132" lon="6.096">
        <ele>381.2</ele>
        <time>2022-05-26T09:40:54Z</time>
      </trkpt>
      <trkpt lat="43.32149" lon="6.09599">
        <ele>380</ele>
        <time>2022-05-26T09:40:57Z</time>
      </trkpt>
      <trkpt lat="43.32163" lon="6.09598">
        <ele>378.4</ele>
        <time>2022-05-26T09:41:00Z</time>
      </trkpt>
      <trkpt lat="43.32168" lon="6.09599">
        <ele>377.8</ele>
        <time>2022-05-26T09:41:01Z</time>
      </trkpt>
      <trkpt lat="43.32173" lon="6.096">
        <ele>377</ele>
        <time>2022-05-26T09:41:02Z</time>
      </trkpt>
      <trkpt lat="43.32185" lon="6.09605">
        <ele>376.2</ele>
        <time>2022-05-26T09:41:05Z</time>
      </trkpt>
      <trkpt lat="43.32198" lon="6.09611">
        <ele>376</ele>
        <time>2022-05-26T09:41:08Z</time>
      </trkpt>
      <trkpt lat="43.32201" lon="6.09611">
        <ele>375.4</ele>
        <time>2022-05-26T09:41:09Z</time>
      </trkpt>
      <trkpt lat="43.32206" lon="6.09609">
        <ele>375.2</ele>
        <time>2022-05-26T09:41:10Z</time>
      </trkpt>
      <trkpt lat="43.32209" lon="6.09607">
        <ele>374.4</ele>
        <time>2022-05-26T09:41:11Z</time>
      </trkpt>
      <trkpt lat="43.32218" lon="6.09599">
        <ele>373.4</ele>
        <time>2022-05-26T09:41:13Z</time>
      </trkpt>
      <trkpt lat="43.32223" lon="6.09591">
        <ele>372.4</ele>
        <time>2022-05-26T09:41:15Z</time>
      </trkpt>
      <trkpt lat="43.32225" lon="6.09586">
        <ele>371.8</ele>
        <time>2022-05-26T09:41:16Z</time>
      </trkpt>
      <trkpt lat="43.32228" lon="6.0958">
        <ele>371.6</ele>
        <time>2022-05-26T09:41:17Z</time>
      </trkpt>
      <trkpt lat="43.32231" lon="6.09568">
        <ele>370.6</ele>
        <time>2022-05-26T09:41:19Z</time>
      </trkpt>
      <trkpt lat="43.32232" lon="6.09563">
        <ele>370.2</ele>
        <time>2022-05-26T09:41:20Z</time>
      </trkpt>
      <trkpt lat="43.32232" lon="6.09545">
        <ele>369</ele>
        <time>2022-05-26T09:41:23Z</time>
      </trkpt>
      <trkpt lat="43.32232" lon="6.09534">
        <ele>367.8</ele>
        <time>2022-05-26T09:41:25Z</time>
      </trkpt>
      <trkpt lat="43.3223" lon="6.09515">
        <ele>366.6</ele>
        <time>2022-05-26T09:41:28Z</time>
      </trkpt>
      <trkpt lat="43.32231" lon="6.09499">
        <ele>365.6</ele>
        <time>2022-05-26T09:41:31Z</time>
      </trkpt>
      <trkpt lat="43.32232" lon="6.09494">
        <ele>365</ele>
        <time>2022-05-26T09:41:32Z</time>
      </trkpt>
      <trkpt lat="43.32237" lon="6.09487">
        <ele>364.4</ele>
        <time>2022-05-26T09:41:34Z</time>
      </trkpt>
      <trkpt lat="43.32241" lon="6.09484">
        <ele>363.8</ele>
        <time>2022-05-26T09:41:35Z</time>
      </trkpt>
      <trkpt lat="43.32256" lon="6.09473">
        <ele>363.2</ele>
        <time>2022-05-26T09:41:39Z</time>
      </trkpt>
      <trkpt lat="43.3226" lon="6.09471">
        <ele>362.6</ele>
        <time>2022-05-26T09:41:40Z</time>
      </trkpt>
      <trkpt lat="43.32272" lon="6.09459">
        <ele>361.6</ele>
        <time>2022-05-26T09:41:44Z</time>
      </trkpt>
      <trkpt lat="43.32274" lon="6.09456">
        <ele>361</ele>
        <time>2022-05-26T09:41:45Z</time>
      </trkpt>
      <trkpt lat="43.32276" lon="6.09449">
        <ele>360.4</ele>
        <time>2022-05-26T09:41:47Z</time>
      </trkpt>
      <trkpt lat="43.32277" lon="6.09441">
        <ele>359.4</ele>
        <time>2022-05-26T09:41:50Z</time>
      </trkpt>
      <trkpt lat="43.32277" lon="6.09439">
        <ele>359</ele>
        <time>2022-05-26T09:41:51Z</time>
      </trkpt>
      <trkpt lat="43.32283" lon="6.09432">
        <ele>357.8</ele>
        <time>2022-05-26T09:41:54Z</time>
      </trkpt>
      <trkpt lat="43.32285" lon="6.09429">
        <ele>357.6</ele>
        <time>2022-05-26T09:41:55Z</time>
      </trkpt>
      <trkpt lat="43.32292" lon="6.09407">
        <ele>357.2</ele>
        <time>2022-05-26T09:41:59Z</time>
      </trkpt>
      <trkpt lat="43.32293" lon="6.09398">
        <ele>356.6</ele>
        <time>2022-05-26T09:42:01Z</time>
      </trkpt>
      <trkpt lat="43.32291" lon="6.0939">
        <ele>355.8</ele>
        <time>2022-05-26T09:42:03Z</time>
      </trkpt>
      <trkpt lat="43.32288" lon="6.09388">
        <ele>355.6</ele>
        <time>2022-05-26T09:42:04Z</time>
      </trkpt>
      <trkpt lat="43.32283" lon="6.09387">
        <ele>355</ele>
        <time>2022-05-26T09:42:06Z</time>
      </trkpt>
      <trkpt lat="43.32279" lon="6.09388">
        <ele>354.6</ele>
        <time>2022-05-26T09:42:08Z</time>
      </trkpt>
      <trkpt lat="43.32272" lon="6.0939">
        <ele>353.4</ele>
        <time>2022-05-26T09:42:11Z</time>
      </trkpt>
      <trkpt lat="43.32267" lon="6.09389">
        <ele>352.4</ele>
        <time>2022-05-26T09:42:13Z</time>
      </trkpt>
      <trkpt lat="43.32265" lon="6.09387">
        <ele>352.2</ele>
        <time>2022-05-26T09:42:14Z</time>
      </trkpt>
      <trkpt lat="43.32264" lon="6.09384">
        <ele>351.8</ele>
        <time>2022-05-26T09:42:15Z</time>
      </trkpt>
      <trkpt lat="43.32264" lon="6.09377">
        <ele>351.4</ele>
        <time>2022-05-26T09:42:17Z</time>
      </trkpt>
      <trkpt lat="43.32269" lon="6.09365">
        <ele>351</ele>
        <time>2022-05-26T09:42:20Z</time>
      </trkpt>
      <trkpt lat="43.32274" lon="6.09356">
        <ele>350.6</ele>
        <time>2022-05-26T09:42:22Z</time>
      </trkpt>
      <trkpt lat="43.32287" lon="6.09324">
        <ele>350.2</ele>
        <time>2022-05-26T09:42:28Z</time>
      </trkpt>
      <trkpt lat="43.32292" lon="6.09311">
        <ele>350</ele>
        <time>2022-05-26T09:42:30Z</time>
      </trkpt>
      <trkpt lat="43.32302" lon="6.09284">
        <ele>349</ele>
        <time>2022-05-26T09:42:34Z</time>
      </trkpt>
      <trkpt lat="43.32305" lon="6.09277">
        <ele>348.8</ele>
        <time>2022-05-26T09:42:35Z</time>
      </trkpt>
      <trkpt lat="43.32322" lon="6.09235">
        <ele>347.8</ele>
        <time>2022-05-26T09:42:41Z</time>
      </trkpt>
      <trkpt lat="43.32327" lon="6.09219">
        <ele>347.6</ele>
        <time>2022-05-26T09:42:43Z</time>
      </trkpt>
      <trkpt lat="43.32332" lon="6.09207">
        <ele>347.2</ele>
        <time>2022-05-26T09:42:45Z</time>
      </trkpt>
      <trkpt lat="43.32337" lon="6.09182">
        <ele>346.8</ele>
        <time>2022-05-26T09:42:48Z</time>
      </trkpt>
      <trkpt lat="43.32337" lon="6.09174">
        <ele>346.8</ele>
        <time>2022-05-26T09:42:49Z</time>
      </trkpt>
      <trkpt lat="43.3234" lon="6.09123">
        <ele>345.6</ele>
        <time>2022-05-26T09:42:55Z</time>
      </trkpt>
      <trkpt lat="43.32339" lon="6.09068">
        <ele>344.6</ele>
        <time>2022-05-26T09:43:01Z</time>
      </trkpt>
      <trkpt lat="43.3234" lon="6.09037">
        <ele>344</ele>
        <time>2022-05-26T09:43:04Z</time>
      </trkpt>
      <trkpt lat="43.32339" lon="6.09019">
        <ele>343.8</ele>
        <time>2022-05-26T09:43:06Z</time>
      </trkpt>
      <trkpt lat="43.32339" lon="6.08997">
        <ele>343.6</ele>
        <time>2022-05-26T09:43:08Z</time>
      </trkpt>
      <trkpt lat="43.32338" lon="6.08969">
        <ele>343</ele>
        <time>2022-05-26T09:43:11Z</time>
      </trkpt>
      <trkpt lat="43.32336" lon="6.08919">
        <ele>342.4</ele>
        <time>2022-05-26T09:43:16Z</time>
      </trkpt>
      <trkpt lat="43.32334" lon="6.08888">
        <ele>342</ele>
        <time>2022-05-26T09:43:19Z</time>
      </trkpt>
      <trkpt lat="43.32332" lon="6.08859">
        <ele>341.4</ele>
        <time>2022-05-26T09:43:22Z</time>
      </trkpt>
      <trkpt lat="43.32327" lon="6.08804">
        <ele>340.2</ele>
        <time>2022-05-26T09:43:28Z</time>
      </trkpt>
      <trkpt lat="43.32327" lon="6.08795">
        <ele>340</ele>
        <time>2022-05-26T09:43:29Z</time>
      </trkpt>
      <trkpt lat="43.32327" lon="6.08787">
        <ele>339.8</ele>
        <time>2022-05-26T09:43:30Z</time>
      </trkpt>
      <trkpt lat="43.32325" lon="6.08749">
        <ele>339.2</ele>
        <time>2022-05-26T09:43:34Z</time>
      </trkpt>
      <trkpt lat="43.32323" lon="6.08726">
        <ele>338.8</ele>
        <time>2022-05-26T09:43:37Z</time>
      </trkpt>
      <trkpt lat="43.32321" lon="6.08698">
        <ele>338.2</ele>
        <time>2022-05-26T09:43:40Z</time>
      </trkpt>
      <trkpt lat="43.32319" lon="6.08667">
        <ele>337.4</ele>
        <time>2022-05-26T09:43:43Z</time>
      </trkpt>
      <trkpt lat="43.32318" lon="6.08649">
        <ele>337.2</ele>
        <time>2022-05-26T09:43:45Z</time>
      </trkpt>
      <trkpt lat="43.32321" lon="6.08587">
        <ele>336.2</ele>
        <time>2022-05-26T09:43:51Z</time>
      </trkpt>
      <trkpt lat="43.32331" lon="6.08523">
        <ele>335</ele>
        <time>2022-05-26T09:43:57Z</time>
      </trkpt>
      <trkpt lat="43.32332" lon="6.08513">
        <ele>334.8</ele>
        <time>2022-05-26T09:43:58Z</time>
      </trkpt>
      <trkpt lat="43.32339" lon="6.08469">
        <ele>333.8</ele>
        <time>2022-05-26T09:44:02Z</time>
      </trkpt>
      <trkpt lat="43.32349" lon="6.08415">
        <ele>333</ele>
        <time>2022-05-26T09:44:07Z</time>
      </trkpt>
      <trkpt lat="43.32351" lon="6.08401">
        <ele>332.8</ele>
        <time>2022-05-26T09:44:08Z</time>
      </trkpt>
      <trkpt lat="43.32358" lon="6.08357">
        <ele>332</ele>
        <time>2022-05-26T09:44:12Z</time>
      </trkpt>
      <trkpt lat="43.32363" lon="6.08321">
        <ele>330.6</ele>
        <time>2022-05-26T09:44:15Z</time>
      </trkpt>
      <trkpt lat="43.32367" lon="6.08298">
        <ele>330.4</ele>
        <time>2022-05-26T09:44:17Z</time>
      </trkpt>
      <trkpt lat="43.32373" lon="6.08263">
        <ele>329.6</ele>
        <time>2022-05-26T09:44:20Z</time>
      </trkpt>
      <trkpt lat="43.3238" lon="6.08219">
        <ele>329</ele>
        <time>2022-05-26T09:44:24Z</time>
      </trkpt>
      <trkpt lat="43.32382" lon="6.08206">
        <ele>329</ele>
        <time>2022-05-26T09:44:25Z</time>
      </trkpt>
      <trkpt lat="43.32385" lon="6.08186">
        <ele>328.4</ele>
        <time>2022-05-26T09:44:27Z</time>
      </trkpt>
      <trkpt lat="43.32396" lon="6.08122">
        <ele>327.2</ele>
        <time>2022-05-26T09:44:33Z</time>
      </trkpt>
      <trkpt lat="43.32404" lon="6.0809">
        <ele>326.8</ele>
        <time>2022-05-26T09:44:36Z</time>
      </trkpt>
      <trkpt lat="43.32411" lon="6.08074">
        <ele>326.8</ele>
        <time>2022-05-26T09:44:38Z</time>
      </trkpt>
      <trkpt lat="43.32431" lon="6.08042">
        <ele>326.2</ele>
        <time>2022-05-26T09:44:42Z</time>
      </trkpt>
      <trkpt lat="43.32437" lon="6.08035">
        <ele>325.8</ele>
        <time>2022-05-26T09:44:43Z</time>
      </trkpt>
      <trkpt lat="43.32448" lon="6.08025">
        <ele>325.6</ele>
        <time>2022-05-26T09:44:45Z</time>
      </trkpt>
      <trkpt lat="43.32468" lon="6.08012">
        <ele>325.2</ele>
        <time>2022-05-26T09:44:48Z</time>
      </trkpt>
      <trkpt lat="43.32481" lon="6.08004">
        <ele>325</ele>
        <time>2022-05-26T09:44:50Z</time>
      </trkpt>
      <trkpt lat="43.32527" lon="6.07978">
        <ele>324.2</ele>
        <time>2022-05-26T09:44:57Z</time>
      </trkpt>
      <trkpt lat="43.32536" lon="6.07976">
        <ele>324.2</ele>
        <time>2022-05-26T09:44:58Z</time>
      </trkpt>
      <trkpt lat="43.32543" lon="6.07975">
        <ele>324</ele>
        <time>2022-05-26T09:44:59Z</time>
      </trkpt>
      <trkpt lat="43.32556" lon="6.07974">
        <ele>323.6</ele>
        <time>2022-05-26T09:45:01Z</time>
      </trkpt>
      <trkpt lat="43.32575" lon="6.07965">
        <ele>323</ele>
        <time>2022-05-26T09:45:04Z</time>
      </trkpt>
      <trkpt lat="43.32582" lon="6.07963">
        <ele>323</ele>
        <time>2022-05-26T09:45:05Z</time>
      </trkpt>
      <trkpt lat="43.32596" lon="6.07963">
        <ele>323.2</ele>
        <time>2022-05-26T09:45:07Z</time>
      </trkpt>
      <trkpt lat="43.32609" lon="6.07969">
        <ele>322.8</ele>
        <time>2022-05-26T09:45:09Z</time>
      </trkpt>
      <trkpt lat="43.32639" lon="6.07999">
        <ele>322</ele>
        <time>2022-05-26T09:45:15Z</time>
      </trkpt>
      <trkpt lat="43.32654" lon="6.08015">
        <ele>322</ele>
        <time>2022-05-26T09:45:18Z</time>
      </trkpt>
      <trkpt lat="43.32674" lon="6.08037">
        <ele>321.8</ele>
        <time>2022-05-26T09:45:22Z</time>
      </trkpt>
      <trkpt lat="43.32709" lon="6.08082">
        <ele>321.6</ele>
        <time>2022-05-26T09:45:30Z</time>
      </trkpt>
      <trkpt lat="43.32729" lon="6.08112">
        <ele>321.6</ele>
        <time>2022-05-26T09:45:35Z</time>
      </trkpt>
      <trkpt lat="43.32745" lon="6.08135">
        <ele>321.2</ele>
        <time>2022-05-26T09:45:39Z</time>
      </trkpt>
      <trkpt lat="43.32761" lon="6.08159">
        <ele>321.2</ele>
        <time>2022-05-26T09:45:43Z</time>
      </trkpt>
      <trkpt lat="43.32779" lon="6.08188">
        <ele>321.2</ele>
        <time>2022-05-26T09:45:48Z</time>
      </trkpt>
      <trkpt lat="43.32806" lon="6.08228">
        <ele>321.2</ele>
        <time>2022-05-26T09:45:55Z</time>
      </trkpt>
      <trkpt lat="43.32845" lon="6.08285">
        <ele>321</ele>
        <time>2022-05-26T09:46:05Z</time>
      </trkpt>
      <trkpt lat="43.3285" lon="6.08291">
        <ele>321</ele>
        <time>2022-05-26T09:46:06Z</time>
      </trkpt>
      <trkpt lat="43.32883" lon="6.08337">
        <ele>321</ele>
        <time>2022-05-26T09:46:14Z</time>
      </trkpt>
      <trkpt lat="43.32904" lon="6.08364">
        <ele>321</ele>
        <time>2022-05-26T09:46:19Z</time>
      </trkpt>
      <trkpt lat="43.32921" lon="6.08383">
        <ele>321</ele>
        <time>2022-05-26T09:46:23Z</time>
      </trkpt>
      <trkpt lat="43.32964" lon="6.08432">
        <ele>320.8</ele>
        <time>2022-05-26T09:46:33Z</time>
      </trkpt>
      <trkpt lat="43.32986" lon="6.08454">
        <ele>320.6</ele>
        <time>2022-05-26T09:46:39Z</time>
      </trkpt>
      <trkpt lat="43.33016" lon="6.08481">
        <ele>320.4</ele>
        <time>2022-05-26T09:46:47Z</time>
      </trkpt>
      <trkpt lat="43.33048" lon="6.08506">
        <ele>320.4</ele>
        <time>2022-05-26T09:46:55Z</time>
      </trkpt>
      <trkpt lat="43.33053" lon="6.0851">
        <ele>320.2</ele>
        <time>2022-05-26T09:46:56Z</time>
      </trkpt>
      <trkpt lat="43.33066" lon="6.08521">
        <ele>319.8</ele>
        <time>2022-05-26T09:47:00Z</time>
      </trkpt>
      <trkpt lat="43.33067" lon="6.08523">
        <ele>319.8</ele>
        <time>2022-05-26T09:47:01Z</time>
      </trkpt>
      <trkpt lat="43.33067" lon="6.08524">
        <ele>319.6</ele>
        <time>2022-05-26T09:47:04Z</time>
      </trkpt>
      <trkpt lat="43.33067" lon="6.08524">
        <ele>319.2</ele>
        <time>2022-05-26T09:47:11Z</time>
      </trkpt>
      <trkpt lat="43.33067" lon="6.08524">
        <ele>319</ele>
        <time>2022-05-26T09:47:29Z</time>
      </trkpt>
      <trkpt lat="43.33067" lon="6.08524">
        <ele>319</ele>
        <time>2022-05-26T09:47:32Z</time>
      </trkpt>
      <trkpt lat="43.33066" lon="6.0853">
        <ele>319</ele>
        <time>2022-05-26T09:47:34Z</time>
      </trkpt>
      <trkpt lat="43.33065" lon="6.08533">
        <ele>319</ele>
        <time>2022-05-26T09:47:35Z</time>
      </trkpt>
      <trkpt lat="43.33051" lon="6.08546">
        <ele>319.4</ele>
        <time>2022-05-26T09:47:42Z</time>
      </trkpt>
      <trkpt lat="43.33043" lon="6.08554">
        <ele>320.2</ele>
        <time>2022-05-26T09:47:46Z</time>
      </trkpt>
      <trkpt lat="43.33036" lon="6.08559">
        <ele>321</ele>
        <time>2022-05-26T09:47:49Z</time>
      </trkpt>
      <trkpt lat="43.3303" lon="6.08564">
        <ele>321.6</ele>
        <time>2022-05-26T09:47:52Z</time>
      </trkpt>
      <trkpt lat="43.33024" lon="6.08569">
        <ele>321.8</ele>
        <time>2022-05-26T09:47:55Z</time>
      </trkpt>
      <trkpt lat="43.33018" lon="6.08575">
        <ele>322.2</ele>
        <time>2022-05-26T09:47:58Z</time>
      </trkpt>
      <trkpt lat="43.33018" lon="6.08581">
        <ele>322.4</ele>
        <time>2022-05-26T09:48:00Z</time>
      </trkpt>
      <trkpt lat="43.33022" lon="6.08588">
        <ele>322.6</ele>
        <time>2022-05-26T09:48:02Z</time>
      </trkpt>
      <trkpt lat="43.33029" lon="6.08594">
        <ele>322.8</ele>
        <time>2022-05-26T09:48:05Z</time>
      </trkpt>
      <trkpt lat="43.33035" lon="6.08601">
        <ele>323</ele>
        <time>2022-05-26T09:48:08Z</time>
      </trkpt>
      <trkpt lat="43.33052" lon="6.08615">
        <ele>323.4</ele>
        <time>2022-05-26T09:48:13Z</time>
      </trkpt>
      <trkpt lat="43.33063" lon="6.08626">
        <ele>323.4</ele>
        <time>2022-05-26T09:48:16Z</time>
      </trkpt>
      <trkpt lat="43.33067" lon="6.0863">
        <ele>323.4</ele>
        <time>2022-05-26T09:48:17Z</time>
      </trkpt>
      <trkpt lat="43.33074" lon="6.0864">
        <ele>323.4</ele>
        <time>2022-05-26T09:48:19Z</time>
      </trkpt>
      <trkpt lat="43.33104" lon="6.08681">
        <ele>323.2</ele>
        <time>2022-05-26T09:48:27Z</time>
      </trkpt>
      <trkpt lat="43.3313" lon="6.08721">
        <ele>322.8</ele>
        <time>2022-05-26T09:48:35Z</time>
      </trkpt>
      <trkpt lat="43.33147" lon="6.08762">
        <ele>322.6</ele>
        <time>2022-05-26T09:48:42Z</time>
      </trkpt>
      <trkpt lat="43.3316" lon="6.08794">
        <ele>322.4</ele>
        <time>2022-05-26T09:48:47Z</time>
      </trkpt>
      <trkpt lat="43.33172" lon="6.08827">
        <ele>322.4</ele>
        <time>2022-05-26T09:48:52Z</time>
      </trkpt>
      <trkpt lat="43.3318" lon="6.08846">
        <ele>322.4</ele>
        <time>2022-05-26T09:48:55Z</time>
      </trkpt>
      <trkpt lat="43.33184" lon="6.08862">
        <ele>322.4</ele>
        <time>2022-05-26T09:48:57Z</time>
      </trkpt>
      <trkpt lat="43.33195" lon="6.08909">
        <ele>322</ele>
        <time>2022-05-26T09:49:04Z</time>
      </trkpt>
      <trkpt lat="43.33196" lon="6.08914">
        <ele>322</ele>
        <time>2022-05-26T09:49:05Z</time>
      </trkpt>
      <trkpt lat="43.33202" lon="6.08939">
        <ele>322</ele>
        <time>2022-05-26T09:49:09Z</time>
      </trkpt>
      <trkpt lat="43.33207" lon="6.08955">
        <ele>322</ele>
        <time>2022-05-26T09:49:12Z</time>
      </trkpt>
      <trkpt lat="43.33213" lon="6.08977">
        <ele>322.2</ele>
        <time>2022-05-26T09:49:16Z</time>
      </trkpt>
      <trkpt lat="43.33228" lon="6.09035">
        <ele>322.6</ele>
        <time>2022-05-26T09:49:26Z</time>
      </trkpt>
      <trkpt lat="43.33234" lon="6.0905">
        <ele>322.6</ele>
        <time>2022-05-26T09:49:29Z</time>
      </trkpt>
      <trkpt lat="43.33239" lon="6.09059">
        <ele>322.4</ele>
        <time>2022-05-26T09:49:31Z</time>
      </trkpt>
      <trkpt lat="43.33241" lon="6.09063">
        <ele>322.4</ele>
        <time>2022-05-26T09:49:32Z</time>
      </trkpt>
      <trkpt lat="43.33245" lon="6.09074">
        <ele>322.4</ele>
        <time>2022-05-26T09:49:34Z</time>
      </trkpt>
      <trkpt lat="43.33249" lon="6.09098">
        <ele>322.6</ele>
        <time>2022-05-26T09:49:38Z</time>
      </trkpt>
      <trkpt lat="43.33259" lon="6.09142">
        <ele>323.2</ele>
        <time>2022-05-26T09:49:46Z</time>
      </trkpt>
      <trkpt lat="43.33261" lon="6.09148">
        <ele>323.4</ele>
        <time>2022-05-26T09:49:47Z</time>
      </trkpt>
      <trkpt lat="43.33264" lon="6.09159">
        <ele>323.6</ele>
        <time>2022-05-26T09:49:49Z</time>
      </trkpt>
      <trkpt lat="43.3327" lon="6.09175">
        <ele>323.8</ele>
        <time>2022-05-26T09:49:52Z</time>
      </trkpt>
      <trkpt lat="43.33276" lon="6.0921">
        <ele>324</ele>
        <time>2022-05-26T09:49:58Z</time>
      </trkpt>
      <trkpt lat="43.33267" lon="6.09223">
        <ele>324</ele>
        <time>2022-05-26T09:50:01Z</time>
      </trkpt>
      <trkpt lat="43.33261" lon="6.09243">
        <ele>324.2</ele>
        <time>2022-05-26T09:50:05Z</time>
      </trkpt>
      <trkpt lat="43.3326" lon="6.09263">
        <ele>324.6</ele>
        <time>2022-05-26T09:50:09Z</time>
      </trkpt>
      <trkpt lat="43.33258" lon="6.09269">
        <ele>324.8</ele>
        <time>2022-05-26T09:50:10Z</time>
      </trkpt>
      <trkpt lat="43.33258" lon="6.09274">
        <ele>324.8</ele>
        <time>2022-05-26T09:50:11Z</time>
      </trkpt>
      <trkpt lat="43.33259" lon="6.09291">
        <ele>325.4</ele>
        <time>2022-05-26T09:50:15Z</time>
      </trkpt>
      <trkpt lat="43.33259" lon="6.093">
        <ele>325.8</ele>
        <time>2022-05-26T09:50:17Z</time>
      </trkpt>
      <trkpt lat="43.33262" lon="6.09332">
        <ele>327</ele>
        <time>2022-05-26T09:50:24Z</time>
      </trkpt>
      <trkpt lat="43.33263" lon="6.09355">
        <ele>328</ele>
        <time>2022-05-26T09:50:29Z</time>
      </trkpt>
      <trkpt lat="43.33263" lon="6.09368">
        <ele>328.6</ele>
        <time>2022-05-26T09:50:32Z</time>
      </trkpt>
      <trkpt lat="43.33264" lon="6.09386">
        <ele>329.2</ele>
        <time>2022-05-26T09:50:36Z</time>
      </trkpt>
      <trkpt lat="43.33264" lon="6.09413">
        <ele>330.2</ele>
        <time>2022-05-26T09:50:42Z</time>
      </trkpt>
      <trkpt lat="43.33264" lon="6.09418">
        <ele>330.4</ele>
        <time>2022-05-26T09:50:43Z</time>
      </trkpt>
      <trkpt lat="43.33264" lon="6.09443">
        <ele>331.4</ele>
        <time>2022-05-26T09:50:49Z</time>
      </trkpt>
      <trkpt lat="43.33264" lon="6.09446">
        <ele>331.6</ele>
        <time>2022-05-26T09:50:50Z</time>
      </trkpt>
      <trkpt lat="43.33265" lon="6.09463">
        <ele>332.2</ele>
        <time>2022-05-26T09:50:54Z</time>
      </trkpt>
      <trkpt lat="43.33265" lon="6.09474">
        <ele>332.6</ele>
        <time>2022-05-26T09:50:57Z</time>
      </trkpt>
      <trkpt lat="43.33265" lon="6.09482">
        <ele>333</ele>
        <time>2022-05-26T09:51:00Z</time>
      </trkpt>
      <trkpt lat="43.33266" lon="6.09493">
        <ele>333.4</ele>
        <time>2022-05-26T09:51:04Z</time>
      </trkpt>
      <trkpt lat="43.33268" lon="6.09501">
        <ele>333.6</ele>
        <time>2022-05-26T09:51:06Z</time>
      </trkpt>
      <trkpt lat="43.33274" lon="6.09516">
        <ele>333.6</ele>
        <time>2022-05-26T09:51:10Z</time>
      </trkpt>
      <trkpt lat="43.33277" lon="6.0953">
        <ele>333.6</ele>
        <time>2022-05-26T09:51:16Z</time>
      </trkpt>
      <trkpt lat="43.33278" lon="6.09551">
        <ele>333.8</ele>
        <time>2022-05-26T09:51:22Z</time>
      </trkpt>
      <trkpt lat="43.33283" lon="6.09579">
        <ele>334.6</ele>
        <time>2022-05-26T09:51:29Z</time>
      </trkpt>
      <trkpt lat="43.33292" lon="6.09605">
        <ele>334.8</ele>
        <time>2022-05-26T09:51:36Z</time>
      </trkpt>
      <trkpt lat="43.33293" lon="6.09608">
        <ele>334.8</ele>
        <time>2022-05-26T09:51:37Z</time>
      </trkpt>
      <trkpt lat="43.33296" lon="6.09636">
        <ele>335</ele>
        <time>2022-05-26T09:51:43Z</time>
      </trkpt>
      <trkpt lat="43.33297" lon="6.09641">
        <ele>335</ele>
        <time>2022-05-26T09:51:44Z</time>
      </trkpt>
      <trkpt lat="43.333" lon="6.09671">
        <ele>335</ele>
        <time>2022-05-26T09:51:50Z</time>
      </trkpt>
      <trkpt lat="43.33301" lon="6.09681">
        <ele>335</ele>
        <time>2022-05-26T09:51:52Z</time>
      </trkpt>
      <trkpt lat="43.3331" lon="6.09708">
        <ele>334.6</ele>
        <time>2022-05-26T09:51:58Z</time>
      </trkpt>
      <trkpt lat="43.33318" lon="6.0972">
        <ele>334.6</ele>
        <time>2022-05-26T09:52:01Z</time>
      </trkpt>
      <trkpt lat="43.33325" lon="6.09728">
        <ele>334.6</ele>
        <time>2022-05-26T09:52:03Z</time>
      </trkpt>
      <trkpt lat="43.33328" lon="6.09731">
        <ele>334.4</ele>
        <time>2022-05-26T09:52:04Z</time>
      </trkpt>
      <trkpt lat="43.33341" lon="6.09747">
        <ele>334</ele>
        <time>2022-05-26T09:52:08Z</time>
      </trkpt>
      <trkpt lat="43.33347" lon="6.09753">
        <ele>333.6</ele>
        <time>2022-05-26T09:52:10Z</time>
      </trkpt>
      <trkpt lat="43.33349" lon="6.09757">
        <ele>333.4</ele>
        <time>2022-05-26T09:52:11Z</time>
      </trkpt>
      <trkpt lat="43.33347" lon="6.09771">
        <ele>333.2</ele>
        <time>2022-05-26T09:52:15Z</time>
      </trkpt>
      <trkpt lat="43.33343" lon="6.09792">
        <ele>333.2</ele>
        <time>2022-05-26T09:52:20Z</time>
      </trkpt>
      <trkpt lat="43.33342" lon="6.09798">
        <ele>333.2</ele>
        <time>2022-05-26T09:52:21Z</time>
      </trkpt>
      <trkpt lat="43.33342" lon="6.09809">
        <ele>333.2</ele>
        <time>2022-05-26T09:52:23Z</time>
      </trkpt>
      <trkpt lat="43.33344" lon="6.09812">
        <ele>333.2</ele>
        <time>2022-05-26T09:52:24Z</time>
      </trkpt>
      <trkpt lat="43.33347" lon="6.09815">
        <ele>333.2</ele>
        <time>2022-05-26T09:52:25Z</time>
      </trkpt>
      <trkpt lat="43.33355" lon="6.09819">
        <ele>333.2</ele>
        <time>2022-05-26T09:52:28Z</time>
      </trkpt>
      <trkpt lat="43.33363" lon="6.09823">
        <ele>333.2</ele>
        <time>2022-05-26T09:52:30Z</time>
      </trkpt>
      <trkpt lat="43.33375" lon="6.09835">
        <ele>333.2</ele>
        <time>2022-05-26T09:52:34Z</time>
      </trkpt>
      <trkpt lat="43.3339" lon="6.09858">
        <ele>333</ele>
        <time>2022-05-26T09:52:40Z</time>
      </trkpt>
      <trkpt lat="43.33393" lon="6.09872">
        <ele>332.4</ele>
        <time>2022-05-26T09:52:43Z</time>
      </trkpt>
      <trkpt lat="43.33393" lon="6.09883">
        <ele>332</ele>
        <time>2022-05-26T09:52:45Z</time>
      </trkpt>
      <trkpt lat="43.33393" lon="6.09893">
        <ele>331.4</ele>
        <time>2022-05-26T09:52:47Z</time>
      </trkpt>
      <trkpt lat="43.33396" lon="6.09907">
        <ele>330</ele>
        <time>2022-05-26T09:52:50Z</time>
      </trkpt>
      <trkpt lat="43.33398" lon="6.09912">
        <ele>329.8</ele>
        <time>2022-05-26T09:52:51Z</time>
      </trkpt>
      <trkpt lat="43.33404" lon="6.0993">
        <ele>329.2</ele>
        <time>2022-05-26T09:52:55Z</time>
      </trkpt>
      <trkpt lat="43.33405" lon="6.09934">
        <ele>329</ele>
        <time>2022-05-26T09:52:56Z</time>
      </trkpt>
      <trkpt lat="43.33406" lon="6.0994">
        <ele>328.8</ele>
        <time>2022-05-26T09:52:57Z</time>
      </trkpt>
      <trkpt lat="43.33405" lon="6.09955">
        <ele>328.4</ele>
        <time>2022-05-26T09:53:00Z</time>
      </trkpt>
      <trkpt lat="43.33404" lon="6.0996">
        <ele>328.2</ele>
        <time>2022-05-26T09:53:01Z</time>
      </trkpt>
      <trkpt lat="43.33406" lon="6.09972">
        <ele>327.8</ele>
        <time>2022-05-26T09:53:03Z</time>
      </trkpt>
      <trkpt lat="43.33408" lon="6.09977">
        <ele>327.8</ele>
        <time>2022-05-26T09:53:04Z</time>
      </trkpt>
      <trkpt lat="43.33416" lon="6.09983">
        <ele>327.4</ele>
        <time>2022-05-26T09:53:07Z</time>
      </trkpt>
      <trkpt lat="43.33431" lon="6.09993">
        <ele>327.2</ele>
        <time>2022-05-26T09:53:13Z</time>
      </trkpt>
      <trkpt lat="43.33434" lon="6.10013">
        <ele>327</ele>
        <time>2022-05-26T09:53:18Z</time>
      </trkpt>
      <trkpt lat="43.33435" lon="6.10025">
        <ele>326.8</ele>
        <time>2022-05-26T09:53:20Z</time>
      </trkpt>
      <trkpt lat="43.33434" lon="6.10031">
        <ele>326.6</ele>
        <time>2022-05-26T09:53:21Z</time>
      </trkpt>
      <trkpt lat="43.33434" lon="6.10044">
        <ele>326.2</ele>
        <time>2022-05-26T09:53:23Z</time>
      </trkpt>
      <trkpt lat="43.33434" lon="6.10059">
        <ele>326</ele>
        <time>2022-05-26T09:53:25Z</time>
      </trkpt>
      <trkpt lat="43.33435" lon="6.1007">
        <ele>325.8</ele>
        <time>2022-05-26T09:53:27Z</time>
      </trkpt>
      <trkpt lat="43.33437" lon="6.10082">
        <ele>325.4</ele>
        <time>2022-05-26T09:53:29Z</time>
      </trkpt>
      <trkpt lat="43.33437" lon="6.1009">
        <ele>325.2</ele>
        <time>2022-05-26T09:53:30Z</time>
      </trkpt>
      <trkpt lat="43.33442" lon="6.10113">
        <ele>325</ele>
        <time>2022-05-26T09:53:34Z</time>
      </trkpt>
      <trkpt lat="43.33454" lon="6.10142">
        <ele>324.8</ele>
        <time>2022-05-26T09:53:39Z</time>
      </trkpt>
      <trkpt lat="43.33459" lon="6.10157">
        <ele>324.6</ele>
        <time>2022-05-26T09:53:42Z</time>
      </trkpt>
      <trkpt lat="43.33461" lon="6.10164">
        <ele>324.6</ele>
        <time>2022-05-26T09:53:43Z</time>
      </trkpt>
      <trkpt lat="43.33472" lon="6.10203">
        <ele>324</ele>
        <time>2022-05-26T09:53:49Z</time>
      </trkpt>
      <trkpt lat="43.33473" lon="6.10209">
        <ele>323.8</ele>
        <time>2022-05-26T09:53:50Z</time>
      </trkpt>
      <trkpt lat="43.33475" lon="6.10215">
        <ele>323.6</ele>
        <time>2022-05-26T09:53:51Z</time>
      </trkpt>
      <trkpt lat="43.33479" lon="6.10237">
        <ele>323</ele>
        <time>2022-05-26T09:53:54Z</time>
      </trkpt>
      <trkpt lat="43.33479" lon="6.10249">
        <ele>322.8</ele>
        <time>2022-05-26T09:53:56Z</time>
      </trkpt>
      <trkpt lat="43.33484" lon="6.10265">
        <ele>322.8</ele>
        <time>2022-05-26T09:53:58Z</time>
      </trkpt>
      <trkpt lat="43.33485" lon="6.10272">
        <ele>322.8</ele>
        <time>2022-05-26T09:53:59Z</time>
      </trkpt>
      <trkpt lat="43.33489" lon="6.10288">
        <ele>322.4</ele>
        <time>2022-05-26T09:54:01Z</time>
      </trkpt>
      <trkpt lat="43.33496" lon="6.10334">
        <ele>321.4</ele>
        <time>2022-05-26T09:54:07Z</time>
      </trkpt>
      <trkpt lat="43.33498" lon="6.10354">
        <ele>321</ele>
        <time>2022-05-26T09:54:10Z</time>
      </trkpt>
      <trkpt lat="43.33499" lon="6.1037">
        <ele>320.6</ele>
        <time>2022-05-26T09:54:13Z</time>
      </trkpt>
      <trkpt lat="43.33499" lon="6.10378">
        <ele>320.6</ele>
        <time>2022-05-26T09:54:15Z</time>
      </trkpt>
      <trkpt lat="43.33497" lon="6.10385">
        <ele>321</ele>
        <time>2022-05-26T09:54:17Z</time>
      </trkpt>
      <trkpt lat="43.33492" lon="6.10408">
        <ele>322.2</ele>
        <time>2022-05-26T09:54:23Z</time>
      </trkpt>
      <trkpt lat="43.33491" lon="6.10415">
        <ele>322.6</ele>
        <time>2022-05-26T09:54:25Z</time>
      </trkpt>
      <trkpt lat="43.33486" lon="6.10435">
        <ele>323.4</ele>
        <time>2022-05-26T09:54:30Z</time>
      </trkpt>
      <trkpt lat="43.33484" lon="6.10441">
        <ele>323.6</ele>
        <time>2022-05-26T09:54:32Z</time>
      </trkpt>
      <trkpt lat="43.33482" lon="6.10463">
        <ele>324.2</ele>
        <time>2022-05-26T09:54:37Z</time>
      </trkpt>
      <trkpt lat="43.33485" lon="6.10488">
        <ele>324.6</ele>
        <time>2022-05-26T09:54:43Z</time>
      </trkpt>
      <trkpt lat="43.33486" lon="6.10492">
        <ele>324.8</ele>
        <time>2022-05-26T09:54:44Z</time>
      </trkpt>
      <trkpt lat="43.33487" lon="6.10512">
        <ele>325.8</ele>
        <time>2022-05-26T09:54:50Z</time>
      </trkpt>
      <trkpt lat="43.33486" lon="6.10533">
        <ele>326.6</ele>
        <time>2022-05-26T09:54:55Z</time>
      </trkpt>
      <trkpt lat="43.33485" lon="6.10546">
        <ele>326.8</ele>
        <time>2022-05-26T09:54:58Z</time>
      </trkpt>
      <trkpt lat="43.33485" lon="6.10559">
        <ele>326.8</ele>
        <time>2022-05-26T09:55:01Z</time>
      </trkpt>
      <trkpt lat="43.33487" lon="6.10569">
        <ele>327</ele>
        <time>2022-05-26T09:55:03Z</time>
      </trkpt>
      <trkpt lat="43.33488" lon="6.10577">
        <ele>327</ele>
        <time>2022-05-26T09:55:05Z</time>
      </trkpt>
      <trkpt lat="43.33488" lon="6.10582">
        <ele>327</ele>
        <time>2022-05-26T09:55:06Z</time>
      </trkpt>
      <trkpt lat="43.33489" lon="6.1061">
        <ele>326.6</ele>
        <time>2022-05-26T09:55:11Z</time>
      </trkpt>
      <trkpt lat="43.3349" lon="6.1062">
        <ele>326.6</ele>
        <time>2022-05-26T09:55:13Z</time>
      </trkpt>
      <trkpt lat="43.33493" lon="6.10631">
        <ele>326.2</ele>
        <time>2022-05-26T09:55:15Z</time>
      </trkpt>
      <trkpt lat="43.33497" lon="6.10643">
        <ele>326</ele>
        <time>2022-05-26T09:55:17Z</time>
      </trkpt>
      <trkpt lat="43.33498" lon="6.10647">
        <ele>325.8</ele>
        <time>2022-05-26T09:55:18Z</time>
      </trkpt>
      <trkpt lat="43.335" lon="6.1066">
        <ele>325.2</ele>
        <time>2022-05-26T09:55:20Z</time>
      </trkpt>
      <trkpt lat="43.33501" lon="6.10673">
        <ele>325</ele>
        <time>2022-05-26T09:55:22Z</time>
      </trkpt>
      <trkpt lat="43.33502" lon="6.10688">
        <ele>324.6</ele>
        <time>2022-05-26T09:55:24Z</time>
      </trkpt>
      <trkpt lat="43.33503" lon="6.10716">
        <ele>323.8</ele>
        <time>2022-05-26T09:55:28Z</time>
      </trkpt>
      <trkpt lat="43.33502" lon="6.10723">
        <ele>323.4</ele>
        <time>2022-05-26T09:55:29Z</time>
      </trkpt>
      <trkpt lat="43.33501" lon="6.10729">
        <ele>323.4</ele>
        <time>2022-05-26T09:55:30Z</time>
      </trkpt>
      <trkpt lat="43.33497" lon="6.10743">
        <ele>323.2</ele>
        <time>2022-05-26T09:55:33Z</time>
      </trkpt>
      <trkpt lat="43.33493" lon="6.10755">
        <ele>323.2</ele>
        <time>2022-05-26T09:55:37Z</time>
      </trkpt>
      <trkpt lat="43.33491" lon="6.10762">
        <ele>323.6</ele>
        <time>2022-05-26T09:55:39Z</time>
      </trkpt>
      <trkpt lat="43.3349" lon="6.10772">
        <ele>324.4</ele>
        <time>2022-05-26T09:55:42Z</time>
      </trkpt>
      <trkpt lat="43.33483" lon="6.1079">
        <ele>325.6</ele>
        <time>2022-05-26T09:55:48Z</time>
      </trkpt>
      <trkpt lat="43.33478" lon="6.10801">
        <ele>326.4</ele>
        <time>2022-05-26T09:55:52Z</time>
      </trkpt>
      <trkpt lat="43.33475" lon="6.10805">
        <ele>326.6</ele>
        <time>2022-05-26T09:55:54Z</time>
      </trkpt>
      <trkpt lat="43.33474" lon="6.10807">
        <ele>327</ele>
        <time>2022-05-26T09:55:55Z</time>
      </trkpt>
      <trkpt lat="43.33468" lon="6.10814">
        <ele>327.8</ele>
        <time>2022-05-26T09:55:59Z</time>
      </trkpt>
      <trkpt lat="43.33463" lon="6.10819">
        <ele>328.4</ele>
        <time>2022-05-26T09:56:03Z</time>
      </trkpt>
      <trkpt lat="43.3346" lon="6.10821">
        <ele>328.8</ele>
        <time>2022-05-26T09:56:05Z</time>
      </trkpt>
      <trkpt lat="43.33457" lon="6.10823">
        <ele>328.8</ele>
        <time>2022-05-26T09:56:06Z</time>
      </trkpt>
      <trkpt lat="43.33454" lon="6.10825">
        <ele>329.4</ele>
        <time>2022-05-26T09:56:08Z</time>
      </trkpt>
      <trkpt lat="43.33444" lon="6.10828">
        <ele>329.8</ele>
        <time>2022-05-26T09:56:13Z</time>
      </trkpt>
      <trkpt lat="43.33435" lon="6.10829">
        <ele>330</ele>
        <time>2022-05-26T09:56:16Z</time>
      </trkpt>
      <trkpt lat="43.33416" lon="6.1083">
        <ele>330</ele>
        <time>2022-05-26T09:56:22Z</time>
      </trkpt>
      <trkpt lat="43.33384" lon="6.1083">
        <ele>329.4</ele>
        <time>2022-05-26T09:56:30Z</time>
      </trkpt>
      <trkpt lat="43.33375" lon="6.10832">
        <ele>328.8</ele>
        <time>2022-05-26T09:56:33Z</time>
      </trkpt>
      <trkpt lat="43.33363" lon="6.10837">
        <ele>328.2</ele>
        <time>2022-05-26T09:56:37Z</time>
      </trkpt>
      <trkpt lat="43.33357" lon="6.10842">
        <ele>327.6</ele>
        <time>2022-05-26T09:56:39Z</time>
      </trkpt>
      <trkpt lat="43.33355" lon="6.10849">
        <ele>326.8</ele>
        <time>2022-05-26T09:56:41Z</time>
      </trkpt>
      <trkpt lat="43.33355" lon="6.10854">
        <ele>326.6</ele>
        <time>2022-05-26T09:56:42Z</time>
      </trkpt>
      <trkpt lat="43.3336" lon="6.10866">
        <ele>325.8</ele>
        <time>2022-05-26T09:56:45Z</time>
      </trkpt>
      <trkpt lat="43.33367" lon="6.10871">
        <ele>325.8</ele>
        <time>2022-05-26T09:56:49Z</time>
      </trkpt>
      <trkpt lat="43.33369" lon="6.10872">
        <ele>325.8</ele>
        <time>2022-05-26T09:56:50Z</time>
      </trkpt>
      <trkpt lat="43.33375" lon="6.10874">
        <ele>326</ele>
        <time>2022-05-26T09:56:53Z</time>
      </trkpt>
      <trkpt lat="43.33387" lon="6.10882">
        <ele>327.6</ele>
        <time>2022-05-26T09:56:59Z</time>
      </trkpt>
      <trkpt lat="43.33392" lon="6.10886">
        <ele>328.2</ele>
        <time>2022-05-26T09:57:02Z</time>
      </trkpt>
      <trkpt lat="43.33394" lon="6.10887">
        <ele>328.4</ele>
        <time>2022-05-26T09:57:03Z</time>
      </trkpt>
      <trkpt lat="43.33399" lon="6.10892">
        <ele>329</ele>
        <time>2022-05-26T09:57:06Z</time>
      </trkpt>
      <trkpt lat="43.33404" lon="6.10896">
        <ele>329.6</ele>
        <time>2022-05-26T09:57:09Z</time>
      </trkpt>
      <trkpt lat="43.33406" lon="6.109">
        <ele>330.2</ele>
        <time>2022-05-26T09:57:11Z</time>
      </trkpt>
      <trkpt lat="43.33413" lon="6.10906">
        <ele>330.4</ele>
        <time>2022-05-26T09:57:14Z</time>
      </trkpt>
      <trkpt lat="43.33428" lon="6.10921">
        <ele>330.6</ele>
        <time>2022-05-26T09:57:20Z</time>
      </trkpt>
      <trkpt lat="43.33444" lon="6.10933">
        <ele>330.4</ele>
        <time>2022-05-26T09:57:26Z</time>
      </trkpt>
      <trkpt lat="43.33451" lon="6.10936">
        <ele>330</ele>
        <time>2022-05-26T09:57:28Z</time>
      </trkpt>
      <trkpt lat="43.33462" lon="6.10942">
        <ele>329.6</ele>
        <time>2022-05-26T09:57:31Z</time>
      </trkpt>
      <trkpt lat="43.33475" lon="6.10949">
        <ele>329</ele>
        <time>2022-05-26T09:57:34Z</time>
      </trkpt>
      <trkpt lat="43.33485" lon="6.10954">
        <ele>328.8</ele>
        <time>2022-05-26T09:57:36Z</time>
      </trkpt>
      <trkpt lat="43.33492" lon="6.1096">
        <ele>328.4</ele>
        <time>2022-05-26T09:57:38Z</time>
      </trkpt>
      <trkpt lat="43.33498" lon="6.10969">
        <ele>328</ele>
        <time>2022-05-26T09:57:40Z</time>
      </trkpt>
      <trkpt lat="43.335" lon="6.10974">
        <ele>327.8</ele>
        <time>2022-05-26T09:57:41Z</time>
      </trkpt>
      <trkpt lat="43.33503" lon="6.10986">
        <ele>327.4</ele>
        <time>2022-05-26T09:57:43Z</time>
      </trkpt>
      <trkpt lat="43.33505" lon="6.11006">
        <ele>327</ele>
        <time>2022-05-26T09:57:46Z</time>
      </trkpt>
      <trkpt lat="43.33505" lon="6.11013">
        <ele>326.8</ele>
        <time>2022-05-26T09:57:47Z</time>
      </trkpt>
      <trkpt lat="43.33505" lon="6.1102">
        <ele>326.4</ele>
        <time>2022-05-26T09:57:48Z</time>
      </trkpt>
      <trkpt lat="43.33503" lon="6.11032">
        <ele>325.8</ele>
        <time>2022-05-26T09:57:50Z</time>
      </trkpt>
      <trkpt lat="43.33502" lon="6.11046">
        <ele>325.2</ele>
        <time>2022-05-26T09:57:52Z</time>
      </trkpt>
      <trkpt lat="43.335" lon="6.11061">
        <ele>324.8</ele>
        <time>2022-05-26T09:57:54Z</time>
      </trkpt>
      <trkpt lat="43.33499" lon="6.11075">
        <ele>324.4</ele>
        <time>2022-05-26T09:57:56Z</time>
      </trkpt>
      <trkpt lat="43.33496" lon="6.11096">
        <ele>323.8</ele>
        <time>2022-05-26T09:57:59Z</time>
      </trkpt>
      <trkpt lat="43.33496" lon="6.11104">
        <ele>323.6</ele>
        <time>2022-05-26T09:58:00Z</time>
      </trkpt>
      <trkpt lat="43.33496" lon="6.11127">
        <ele>322.6</ele>
        <time>2022-05-26T09:58:03Z</time>
      </trkpt>
      <trkpt lat="43.33495" lon="6.11134">
        <ele>322.2</ele>
        <time>2022-05-26T09:58:04Z</time>
      </trkpt>
      <trkpt lat="43.33495" lon="6.11141">
        <ele>321.8</ele>
        <time>2022-05-26T09:58:05Z</time>
      </trkpt>
      <trkpt lat="43.33492" lon="6.11153">
        <ele>321.6</ele>
        <time>2022-05-26T09:58:07Z</time>
      </trkpt>
      <trkpt lat="43.3349" lon="6.11159">
        <ele>321.4</ele>
        <time>2022-05-26T09:58:08Z</time>
      </trkpt>
      <trkpt lat="43.33486" lon="6.11169">
        <ele>320.2</ele>
        <time>2022-05-26T09:58:10Z</time>
      </trkpt>
      <trkpt lat="43.33485" lon="6.11181">
        <ele>319.2</ele>
        <time>2022-05-26T09:58:12Z</time>
      </trkpt>
      <trkpt lat="43.33486" lon="6.11187">
        <ele>319</ele>
        <time>2022-05-26T09:58:13Z</time>
      </trkpt>
      <trkpt lat="43.33489" lon="6.11192">
        <ele>318.8</ele>
        <time>2022-05-26T09:58:14Z</time>
      </trkpt>
      <trkpt lat="43.33492" lon="6.11196">
        <ele>318.6</ele>
        <time>2022-05-26T09:58:15Z</time>
      </trkpt>
      <trkpt lat="43.335" lon="6.11205">
        <ele>318.2</ele>
        <time>2022-05-26T09:58:17Z</time>
      </trkpt>
      <trkpt lat="43.33502" lon="6.1121">
        <ele>318</ele>
        <time>2022-05-26T09:58:18Z</time>
      </trkpt>
      <trkpt lat="43.33504" lon="6.11215">
        <ele>317.8</ele>
        <time>2022-05-26T09:58:19Z</time>
      </trkpt>
      <trkpt lat="43.33506" lon="6.1122">
        <ele>317.6</ele>
        <time>2022-05-26T09:58:20Z</time>
      </trkpt>
      <trkpt lat="43.33507" lon="6.11235">
        <ele>317.2</ele>
        <time>2022-05-26T09:58:23Z</time>
      </trkpt>
      <trkpt lat="43.33512" lon="6.11242">
        <ele>317</ele>
        <time>2022-05-26T09:58:25Z</time>
      </trkpt>
      <trkpt lat="43.33515" lon="6.11243">
        <ele>316.6</ele>
        <time>2022-05-26T09:58:26Z</time>
      </trkpt>
      <trkpt lat="43.33521" lon="6.1124">
        <ele>316</ele>
        <time>2022-05-26T09:58:28Z</time>
      </trkpt>
      <trkpt lat="43.33524" lon="6.11237">
        <ele>315.6</ele>
        <time>2022-05-26T09:58:29Z</time>
      </trkpt>
      <trkpt lat="43.33528" lon="6.11233">
        <ele>315.4</ele>
        <time>2022-05-26T09:58:30Z</time>
      </trkpt>
      <trkpt lat="43.3353" lon="6.1123">
        <ele>315.4</ele>
        <time>2022-05-26T09:58:31Z</time>
      </trkpt>
      <trkpt lat="43.33545" lon="6.1122">
        <ele>314.6</ele>
        <time>2022-05-26T09:58:35Z</time>
      </trkpt>
      <trkpt lat="43.33549" lon="6.11219">
        <ele>314.6</ele>
        <time>2022-05-26T09:58:36Z</time>
      </trkpt>
      <trkpt lat="43.33567" lon="6.11213">
        <ele>312.6</ele>
        <time>2022-05-26T09:58:40Z</time>
      </trkpt>
      <trkpt lat="43.33576" lon="6.11209">
        <ele>311.8</ele>
        <time>2022-05-26T09:58:42Z</time>
      </trkpt>
      <trkpt lat="43.33581" lon="6.11207">
        <ele>311.4</ele>
        <time>2022-05-26T09:58:43Z</time>
      </trkpt>
      <trkpt lat="43.33586" lon="6.11206">
        <ele>311.2</ele>
        <time>2022-05-26T09:58:44Z</time>
      </trkpt>
      <trkpt lat="43.33592" lon="6.11204">
        <ele>310.8</ele>
        <time>2022-05-26T09:58:45Z</time>
      </trkpt>
      <trkpt lat="43.33601" lon="6.11201">
        <ele>310.2</ele>
        <time>2022-05-26T09:58:47Z</time>
      </trkpt>
      <trkpt lat="43.33606" lon="6.11199">
        <ele>309.8</ele>
        <time>2022-05-26T09:58:48Z</time>
      </trkpt>
      <trkpt lat="43.33611" lon="6.11197">
        <ele>309.2</ele>
        <time>2022-05-26T09:58:49Z</time>
      </trkpt>
      <trkpt lat="43.33616" lon="6.11195">
        <ele>308.6</ele>
        <time>2022-05-26T09:58:50Z</time>
      </trkpt>
      <trkpt lat="43.33623" lon="6.11192">
        <ele>307.6</ele>
        <time>2022-05-26T09:58:52Z</time>
      </trkpt>
      <trkpt lat="43.33638" lon="6.11186">
        <ele>306.6</ele>
        <time>2022-05-26T09:58:55Z</time>
      </trkpt>
      <trkpt lat="43.33642" lon="6.11184">
        <ele>306.4</ele>
        <time>2022-05-26T09:58:56Z</time>
      </trkpt>
      <trkpt lat="43.33645" lon="6.11181">
        <ele>306</ele>
        <time>2022-05-26T09:58:57Z</time>
      </trkpt>
      <trkpt lat="43.33658" lon="6.11175">
        <ele>305</ele>
        <time>2022-05-26T09:59:01Z</time>
      </trkpt>
      <trkpt lat="43.33669" lon="6.11176">
        <ele>304.6</ele>
        <time>2022-05-26T09:59:04Z</time>
      </trkpt>
      <trkpt lat="43.33673" lon="6.11177">
        <ele>304.4</ele>
        <time>2022-05-26T09:59:05Z</time>
      </trkpt>
      <trkpt lat="43.33682" lon="6.11178">
        <ele>304.2</ele>
        <time>2022-05-26T09:59:07Z</time>
      </trkpt>
      <trkpt lat="43.33687" lon="6.1118">
        <ele>304</ele>
        <time>2022-05-26T09:59:08Z</time>
      </trkpt>
      <trkpt lat="43.33699" lon="6.11186">
        <ele>303.6</ele>
        <time>2022-05-26T09:59:11Z</time>
      </trkpt>
      <trkpt lat="43.33712" lon="6.11193">
        <ele>302.8</ele>
        <time>2022-05-26T09:59:14Z</time>
      </trkpt>
      <trkpt lat="43.3373" lon="6.11199">
        <ele>302.4</ele>
        <time>2022-05-26T09:59:18Z</time>
      </trkpt>
      <trkpt lat="43.33734" lon="6.11201">
        <ele>302.4</ele>
        <time>2022-05-26T09:59:19Z</time>
      </trkpt>
      <trkpt lat="43.33739" lon="6.11203">
        <ele>301.8</ele>
        <time>2022-05-26T09:59:20Z</time>
      </trkpt>
      <trkpt lat="43.33753" lon="6.11211">
        <ele>300.6</ele>
        <time>2022-05-26T09:59:23Z</time>
      </trkpt>
      <trkpt lat="43.33762" lon="6.11217">
        <ele>300.4</ele>
        <time>2022-05-26T09:59:25Z</time>
      </trkpt>
      <trkpt lat="43.33771" lon="6.11223">
        <ele>300</ele>
        <time>2022-05-26T09:59:27Z</time>
      </trkpt>
      <trkpt lat="43.33776" lon="6.11225">
        <ele>300</ele>
        <time>2022-05-26T09:59:28Z</time>
      </trkpt>
      <trkpt lat="43.33786" lon="6.11229">
        <ele>299.8</ele>
        <time>2022-05-26T09:59:30Z</time>
      </trkpt>
      <trkpt lat="43.33797" lon="6.11233">
        <ele>299.8</ele>
        <time>2022-05-26T09:59:32Z</time>
      </trkpt>
      <trkpt lat="43.33808" lon="6.11236">
        <ele>299.4</ele>
        <time>2022-05-26T09:59:34Z</time>
      </trkpt>
      <trkpt lat="43.33818" lon="6.11236">
        <ele>299.2</ele>
        <time>2022-05-26T09:59:36Z</time>
      </trkpt>
      <trkpt lat="43.33854" lon="6.11233">
        <ele>298.8</ele>
        <time>2022-05-26T09:59:43Z</time>
      </trkpt>
      <trkpt lat="43.33859" lon="6.11232">
        <ele>298.6</ele>
        <time>2022-05-26T09:59:44Z</time>
      </trkpt>
      <trkpt lat="43.33868" lon="6.11231">
        <ele>298.6</ele>
        <time>2022-05-26T09:59:46Z</time>
      </trkpt>
      <trkpt lat="43.33874" lon="6.11231">
        <ele>298.4</ele>
        <time>2022-05-26T09:59:48Z</time>
      </trkpt>
      <trkpt lat="43.3388" lon="6.11232">
        <ele>298.4</ele>
        <time>2022-05-26T09:59:52Z</time>
      </trkpt>
      <trkpt lat="43.33881" lon="6.11231">
        <ele>298.6</ele>
        <time>2022-05-26T09:59:57Z</time>
      </trkpt>
      <trkpt lat="43.33884" lon="6.11232">
        <ele>298.6</ele>
        <time>2022-05-26T10:00:00Z</time>
      </trkpt>
      <trkpt lat="43.33888" lon="6.11232">
        <ele>298.6</ele>
        <time>2022-05-26T10:00:02Z</time>
      </trkpt>
      <trkpt lat="43.33904" lon="6.11232">
        <ele>298.4</ele>
        <time>2022-05-26T10:00:06Z</time>
      </trkpt>
      <trkpt lat="43.33923" lon="6.11234">
        <ele>298.2</ele>
        <time>2022-05-26T10:00:10Z</time>
      </trkpt>
      <trkpt lat="43.33933" lon="6.11236">
        <ele>297.8</ele>
        <time>2022-05-26T10:00:12Z</time>
      </trkpt>
      <trkpt lat="43.33939" lon="6.11237">
        <ele>297.6</ele>
        <time>2022-05-26T10:00:13Z</time>
      </trkpt>
      <trkpt lat="43.33944" lon="6.11239">
        <ele>297.6</ele>
        <time>2022-05-26T10:00:14Z</time>
      </trkpt>
      <trkpt lat="43.33949" lon="6.11241">
        <ele>297.4</ele>
        <time>2022-05-26T10:00:15Z</time>
      </trkpt>
      <trkpt lat="43.3396" lon="6.11245">
        <ele>297</ele>
        <time>2022-05-26T10:00:17Z</time>
      </trkpt>
      <trkpt lat="43.33966" lon="6.11245">
        <ele>296.8</ele>
        <time>2022-05-26T10:00:18Z</time>
      </trkpt>
      <trkpt lat="43.33972" lon="6.11244">
        <ele>296.6</ele>
        <time>2022-05-26T10:00:19Z</time>
      </trkpt>
      <trkpt lat="43.33977" lon="6.11243">
        <ele>296.4</ele>
        <time>2022-05-26T10:00:20Z</time>
      </trkpt>
      <trkpt lat="43.33992" lon="6.11238">
        <ele>295.4</ele>
        <time>2022-05-26T10:00:23Z</time>
      </trkpt>
      <trkpt lat="43.33998" lon="6.11238">
        <ele>295</ele>
        <time>2022-05-26T10:00:24Z</time>
      </trkpt>
      <trkpt lat="43.34007" lon="6.1124">
        <ele>294</ele>
        <time>2022-05-26T10:00:26Z</time>
      </trkpt>
      <trkpt lat="43.34012" lon="6.11242">
        <ele>293.8</ele>
        <time>2022-05-26T10:00:27Z</time>
      </trkpt>
      <trkpt lat="43.34018" lon="6.11243">
        <ele>293.6</ele>
        <time>2022-05-26T10:00:28Z</time>
      </trkpt>
      <trkpt lat="43.34035" lon="6.11245">
        <ele>292.8</ele>
        <time>2022-05-26T10:00:31Z</time>
      </trkpt>
      <trkpt lat="43.34066" lon="6.1126">
        <ele>291.8</ele>
        <time>2022-05-26T10:00:36Z</time>
      </trkpt>
      <trkpt lat="43.34072" lon="6.11263">
        <ele>291.6</ele>
        <time>2022-05-26T10:00:37Z</time>
      </trkpt>
      <trkpt lat="43.34091" lon="6.11276">
        <ele>290.6</ele>
        <time>2022-05-26T10:00:42Z</time>
      </trkpt>
      <trkpt lat="43.34092" lon="6.11277">
        <ele>290.6</ele>
        <time>2022-05-26T10:00:43Z</time>
      </trkpt>
      <trkpt lat="43.34095" lon="6.1128">
        <ele>290.2</ele>
        <time>2022-05-26T10:00:46Z</time>
      </trkpt>
      <trkpt lat="43.34102" lon="6.11281">
        <ele>289.8</ele>
        <time>2022-05-26T10:00:52Z</time>
      </trkpt>
      <trkpt lat="43.34118" lon="6.11279">
        <ele>289.8</ele>
        <time>2022-05-26T10:00:59Z</time>
      </trkpt>
      <trkpt lat="43.34129" lon="6.11274">
        <ele>289.8</ele>
        <time>2022-05-26T10:01:05Z</time>
      </trkpt>
      <trkpt lat="43.3413" lon="6.11271">
        <ele>289.8</ele>
        <time>2022-05-26T10:01:06Z</time>
      </trkpt>
      <trkpt lat="43.34142" lon="6.11257">
        <ele>290.2</ele>
        <time>2022-05-26T10:01:12Z</time>
      </trkpt>
      <trkpt lat="43.34145" lon="6.11256">
        <ele>290.6</ele>
        <time>2022-05-26T10:01:13Z</time>
      </trkpt>
      <trkpt lat="43.34153" lon="6.11257">
        <ele>291</ele>
        <time>2022-05-26T10:01:16Z</time>
      </trkpt>
      <trkpt lat="43.34166" lon="6.11255">
        <ele>291.2</ele>
        <time>2022-05-26T10:01:20Z</time>
      </trkpt>
      <trkpt lat="43.34171" lon="6.1125">
        <ele>291.4</ele>
        <time>2022-05-26T10:01:22Z</time>
      </trkpt>
      <trkpt lat="43.34175" lon="6.1123">
        <ele>291.6</ele>
        <time>2022-05-26T10:01:26Z</time>
      </trkpt>
      <trkpt lat="43.3418" lon="6.11207">
        <ele>291.8</ele>
        <time>2022-05-26T10:01:32Z</time>
      </trkpt>
      <trkpt lat="43.34191" lon="6.11188">
        <ele>292.8</ele>
        <time>2022-05-26T10:01:38Z</time>
      </trkpt>
      <trkpt lat="43.34194" lon="6.11186">
        <ele>293</ele>
        <time>2022-05-26T10:01:39Z</time>
      </trkpt>
      <trkpt lat="43.34198" lon="6.11186">
        <ele>293.2</ele>
        <time>2022-05-26T10:01:41Z</time>
      </trkpt>
      <trkpt lat="43.34202" lon="6.11188">
        <ele>293.6</ele>
        <time>2022-05-26T10:01:43Z</time>
      </trkpt>
      <trkpt lat="43.34209" lon="6.11193">
        <ele>294.2</ele>
        <time>2022-05-26T10:01:46Z</time>
      </trkpt>
      <trkpt lat="43.34216" lon="6.11197">
        <ele>295.4</ele>
        <time>2022-05-26T10:01:50Z</time>
      </trkpt>
      <trkpt lat="43.3422" lon="6.11199">
        <ele>295.8</ele>
        <time>2022-05-26T10:01:52Z</time>
      </trkpt>
      <trkpt lat="43.34226" lon="6.11203">
        <ele>296.4</ele>
        <time>2022-05-26T10:01:55Z</time>
      </trkpt>
      <trkpt lat="43.34231" lon="6.11206">
        <ele>297</ele>
        <time>2022-05-26T10:01:58Z</time>
      </trkpt>
      <trkpt lat="43.34232" lon="6.11207">
        <ele>297.2</ele>
        <time>2022-05-26T10:01:59Z</time>
      </trkpt>
      <trkpt lat="43.34239" lon="6.11209">
        <ele>297.6</ele>
        <time>2022-05-26T10:02:02Z</time>
      </trkpt>
      <trkpt lat="43.34244" lon="6.11207">
        <ele>298</ele>
        <time>2022-05-26T10:02:04Z</time>
      </trkpt>
      <trkpt lat="43.3425" lon="6.11201">
        <ele>298.4</ele>
        <time>2022-05-26T10:02:07Z</time>
      </trkpt>
      <trkpt lat="43.34253" lon="6.11199">
        <ele>298.4</ele>
        <time>2022-05-26T10:02:08Z</time>
      </trkpt>
      <trkpt lat="43.34256" lon="6.11197">
        <ele>298.6</ele>
        <time>2022-05-26T10:02:09Z</time>
      </trkpt>
      <trkpt lat="43.34258" lon="6.11196">
        <ele>298.8</ele>
        <time>2022-05-26T10:02:10Z</time>
      </trkpt>
      <trkpt lat="43.34261" lon="6.11195">
        <ele>298.8</ele>
        <time>2022-05-26T10:02:11Z</time>
      </trkpt>
      <trkpt lat="43.34264" lon="6.11195">
        <ele>298.8</ele>
        <time>2022-05-26T10:02:12Z</time>
      </trkpt>
      <trkpt lat="43.34269" lon="6.11196">
        <ele>299</ele>
        <time>2022-05-26T10:02:14Z</time>
      </trkpt>
      <trkpt lat="43.34271" lon="6.11196">
        <ele>299</ele>
        <time>2022-05-26T10:02:15Z</time>
      </trkpt>
      <trkpt lat="43.34285" lon="6.11199">
        <ele>299.8</ele>
        <time>2022-05-26T10:02:20Z</time>
      </trkpt>
      <trkpt lat="43.34294" lon="6.112">
        <ele>300</ele>
        <time>2022-05-26T10:02:23Z</time>
      </trkpt>
      <trkpt lat="43.34309" lon="6.11205">
        <ele>300.8</ele>
        <time>2022-05-26T10:02:28Z</time>
      </trkpt>
      <trkpt lat="43.34322" lon="6.11203">
        <ele>301</ele>
        <time>2022-05-26T10:02:32Z</time>
      </trkpt>
      <trkpt lat="43.34326" lon="6.11204">
        <ele>301</ele>
        <time>2022-05-26T10:02:33Z</time>
      </trkpt>
      <trkpt lat="43.34347" lon="6.11204">
        <ele>301.4</ele>
        <time>2022-05-26T10:02:39Z</time>
      </trkpt>
      <trkpt lat="43.34373" lon="6.11199">
        <ele>301.6</ele>
        <time>2022-05-26T10:02:46Z</time>
      </trkpt>
      <trkpt lat="43.34388" lon="6.11199">
        <ele>301.6</ele>
        <time>2022-05-26T10:02:51Z</time>
      </trkpt>
      <trkpt lat="43.3439" lon="6.11202">
        <ele>301.6</ele>
        <time>2022-05-26T10:02:52Z</time>
      </trkpt>
      <trkpt lat="43.34393" lon="6.11209">
        <ele>301.6</ele>
        <time>2022-05-26T10:02:54Z</time>
      </trkpt>
      <trkpt lat="43.34393" lon="6.11214">
        <ele>301.6</ele>
        <time>2022-05-26T10:02:55Z</time>
      </trkpt>
      <trkpt lat="43.34394" lon="6.11219">
        <ele>301.6</ele>
        <time>2022-05-26T10:02:56Z</time>
      </trkpt>
      <trkpt lat="43.344" lon="6.11233">
        <ele>301.6</ele>
        <time>2022-05-26T10:02:59Z</time>
      </trkpt>
      <trkpt lat="43.34408" lon="6.11235">
        <ele>301.6</ele>
        <time>2022-05-26T10:03:01Z</time>
      </trkpt>
      <trkpt lat="43.34417" lon="6.11234">
        <ele>301.6</ele>
        <time>2022-05-26T10:03:03Z</time>
      </trkpt>
      <trkpt lat="43.34426" lon="6.11232">
        <ele>301.4</ele>
        <time>2022-05-26T10:03:05Z</time>
      </trkpt>
      <trkpt lat="43.34434" lon="6.1123">
        <ele>301.4</ele>
        <time>2022-05-26T10:03:07Z</time>
      </trkpt>
      <trkpt lat="43.34449" lon="6.11226">
        <ele>301.4</ele>
        <time>2022-05-26T10:03:10Z</time>
      </trkpt>
      <trkpt lat="43.34472" lon="6.1122">
        <ele>300.6</ele>
        <time>2022-05-26T10:03:15Z</time>
      </trkpt>
      <trkpt lat="43.3448" lon="6.11221">
        <ele>300.2</ele>
        <time>2022-05-26T10:03:17Z</time>
      </trkpt>
      <trkpt lat="43.34484" lon="6.11223">
        <ele>300</ele>
        <time>2022-05-26T10:03:18Z</time>
      </trkpt>
      <trkpt lat="43.34489" lon="6.11227">
        <ele>299.6</ele>
        <time>2022-05-26T10:03:19Z</time>
      </trkpt>
      <trkpt lat="43.34496" lon="6.1124">
        <ele>298.8</ele>
        <time>2022-05-26T10:03:21Z</time>
      </trkpt>
      <trkpt lat="43.34499" lon="6.11248">
        <ele>298.2</ele>
        <time>2022-05-26T10:03:22Z</time>
      </trkpt>
      <trkpt lat="43.34507" lon="6.11275">
        <ele>297</ele>
        <time>2022-05-26T10:03:25Z</time>
      </trkpt>
      <trkpt lat="43.34511" lon="6.11285">
        <ele>296.8</ele>
        <time>2022-05-26T10:03:26Z</time>
      </trkpt>
      <trkpt lat="43.34518" lon="6.11302">
        <ele>296</ele>
        <time>2022-05-26T10:03:28Z</time>
      </trkpt>
      <trkpt lat="43.34528" lon="6.11325">
        <ele>295.4</ele>
        <time>2022-05-26T10:03:31Z</time>
      </trkpt>
      <trkpt lat="43.34532" lon="6.11333">
        <ele>295.2</ele>
        <time>2022-05-26T10:03:32Z</time>
      </trkpt>
      <trkpt lat="43.34537" lon="6.11343">
        <ele>295.2</ele>
        <time>2022-05-26T10:03:34Z</time>
      </trkpt>
      <trkpt lat="43.34543" lon="6.11355">
        <ele>295</ele>
        <time>2022-05-26T10:03:36Z</time>
      </trkpt>
      <trkpt lat="43.34548" lon="6.11367">
        <ele>295.2</ele>
        <time>2022-05-26T10:03:38Z</time>
      </trkpt>
      <trkpt lat="43.34552" lon="6.11377">
        <ele>295.4</ele>
        <time>2022-05-26T10:03:40Z</time>
      </trkpt>
      <trkpt lat="43.34557" lon="6.11394">
        <ele>295.8</ele>
        <time>2022-05-26T10:03:44Z</time>
      </trkpt>
      <trkpt lat="43.34557" lon="6.11417">
        <ele>296.2</ele>
        <time>2022-05-26T10:03:49Z</time>
      </trkpt>
      <trkpt lat="43.34557" lon="6.11422">
        <ele>296.4</ele>
        <time>2022-05-26T10:03:50Z</time>
      </trkpt>
      <trkpt lat="43.3456" lon="6.11438">
        <ele>296.6</ele>
        <time>2022-05-26T10:03:53Z</time>
      </trkpt>
      <trkpt lat="43.34561" lon="6.11449">
        <ele>296.6</ele>
        <time>2022-05-26T10:03:55Z</time>
      </trkpt>
      <trkpt lat="43.34563" lon="6.11458">
        <ele>296.6</ele>
        <time>2022-05-26T10:03:57Z</time>
      </trkpt>
      <trkpt lat="43.34566" lon="6.11497">
        <ele>296.6</ele>
        <time>2022-05-26T10:04:03Z</time>
      </trkpt>
      <trkpt lat="43.34571" lon="6.11523">
        <ele>296.6</ele>
        <time>2022-05-26T10:04:07Z</time>
      </trkpt>
      <trkpt lat="43.34573" lon="6.11535">
        <ele>296.6</ele>
        <time>2022-05-26T10:04:09Z</time>
      </trkpt>
      <trkpt lat="43.34573" lon="6.1156">
        <ele>296.6</ele>
        <time>2022-05-26T10:04:13Z</time>
      </trkpt>
      <trkpt lat="43.34574" lon="6.11567">
        <ele>296.8</ele>
        <time>2022-05-26T10:04:14Z</time>
      </trkpt>
      <trkpt lat="43.34574" lon="6.11574">
        <ele>296.8</ele>
        <time>2022-05-26T10:04:15Z</time>
      </trkpt>
      <trkpt lat="43.34576" lon="6.11587">
        <ele>296.8</ele>
        <time>2022-05-26T10:04:17Z</time>
      </trkpt>
      <trkpt lat="43.34577" lon="6.11599">
        <ele>297</ele>
        <time>2022-05-26T10:04:19Z</time>
      </trkpt>
      <trkpt lat="43.34579" lon="6.11605">
        <ele>297</ele>
        <time>2022-05-26T10:04:20Z</time>
      </trkpt>
      <trkpt lat="43.34583" lon="6.11634">
        <ele>297</ele>
        <time>2022-05-26T10:04:24Z</time>
      </trkpt>
      <trkpt lat="43.34585" lon="6.1164">
        <ele>297</ele>
        <time>2022-05-26T10:04:25Z</time>
      </trkpt>
      <trkpt lat="43.34591" lon="6.11651">
        <ele>297</ele>
        <time>2022-05-26T10:04:27Z</time>
      </trkpt>
      <trkpt lat="43.34604" lon="6.11663">
        <ele>297</ele>
        <time>2022-05-26T10:04:30Z</time>
      </trkpt>
      <trkpt lat="43.34612" lon="6.11671">
        <ele>296.8</ele>
        <time>2022-05-26T10:04:32Z</time>
      </trkpt>
      <trkpt lat="43.34619" lon="6.11689">
        <ele>296.4</ele>
        <time>2022-05-26T10:04:35Z</time>
      </trkpt>
      <trkpt lat="43.34617" lon="6.11697">
        <ele>296</ele>
        <time>2022-05-26T10:04:36Z</time>
      </trkpt>
      <trkpt lat="43.34618" lon="6.11716">
        <ele>295</ele>
        <time>2022-05-26T10:04:38Z</time>
      </trkpt>
      <trkpt lat="43.34621" lon="6.11725">
        <ele>294.6</ele>
        <time>2022-05-26T10:04:39Z</time>
      </trkpt>
      <trkpt lat="43.34623" lon="6.11743">
        <ele>293.4</ele>
        <time>2022-05-26T10:04:41Z</time>
      </trkpt>
      <trkpt lat="43.34628" lon="6.11773">
        <ele>292.6</ele>
        <time>2022-05-26T10:04:44Z</time>
      </trkpt>
      <trkpt lat="43.3463" lon="6.11794">
        <ele>292.4</ele>
        <time>2022-05-26T10:04:46Z</time>
      </trkpt>
      <trkpt lat="43.34633" lon="6.11834">
        <ele>291.6</ele>
        <time>2022-05-26T10:04:50Z</time>
      </trkpt>
      <trkpt lat="43.34635" lon="6.11854">
        <ele>291.2</ele>
        <time>2022-05-26T10:04:52Z</time>
      </trkpt>
      <trkpt lat="43.34637" lon="6.11886">
        <ele>290.6</ele>
        <time>2022-05-26T10:04:55Z</time>
      </trkpt>
      <trkpt lat="43.34637" lon="6.11896">
        <ele>290.6</ele>
        <time>2022-05-26T10:04:56Z</time>
      </trkpt>
      <trkpt lat="43.34635" lon="6.11917">
        <ele>289.8</ele>
        <time>2022-05-26T10:04:58Z</time>
      </trkpt>
      <trkpt lat="43.34635" lon="6.11927">
        <ele>289.8</ele>
        <time>2022-05-26T10:04:59Z</time>
      </trkpt>
      <trkpt lat="43.34636" lon="6.11944">
        <ele>289.2</ele>
        <time>2022-05-26T10:05:01Z</time>
      </trkpt>
      <trkpt lat="43.34637" lon="6.11953">
        <ele>289</ele>
        <time>2022-05-26T10:05:02Z</time>
      </trkpt>
      <trkpt lat="43.34637" lon="6.11961">
        <ele>288.8</ele>
        <time>2022-05-26T10:05:03Z</time>
      </trkpt>
      <trkpt lat="43.34642" lon="6.11984">
        <ele>288.2</ele>
        <time>2022-05-26T10:05:06Z</time>
      </trkpt>
      <trkpt lat="43.34644" lon="6.11997">
        <ele>287.8</ele>
        <time>2022-05-26T10:05:08Z</time>
      </trkpt>
      <trkpt lat="43.34651" lon="6.12024">
        <ele>286.6</ele>
        <time>2022-05-26T10:05:12Z</time>
      </trkpt>
      <trkpt lat="43.34653" lon="6.12031">
        <ele>286.6</ele>
        <time>2022-05-26T10:05:13Z</time>
      </trkpt>
      <trkpt lat="43.3466" lon="6.12049">
        <ele>286.4</ele>
        <time>2022-05-26T10:05:16Z</time>
      </trkpt>
      <trkpt lat="43.34662" lon="6.12056">
        <ele>286.4</ele>
        <time>2022-05-26T10:05:17Z</time>
      </trkpt>
      <trkpt lat="43.34676" lon="6.12091">
        <ele>286.2</ele>
        <time>2022-05-26T10:05:23Z</time>
      </trkpt>
      <trkpt lat="43.34685" lon="6.12112">
        <ele>286.4</ele>
        <time>2022-05-26T10:05:28Z</time>
      </trkpt>
      <trkpt lat="43.34687" lon="6.12116">
        <ele>286.4</ele>
        <time>2022-05-26T10:05:30Z</time>
      </trkpt>
      <trkpt lat="43.34694" lon="6.12116">
        <ele>286.6</ele>
        <time>2022-05-26T10:05:32Z</time>
      </trkpt>
      <trkpt lat="43.34701" lon="6.12108">
        <ele>286.6</ele>
        <time>2022-05-26T10:05:35Z</time>
      </trkpt>
      <trkpt lat="43.34704" lon="6.12105">
        <ele>286.6</ele>
        <time>2022-05-26T10:05:36Z</time>
      </trkpt>
      <trkpt lat="43.34715" lon="6.12097">
        <ele>287</ele>
        <time>2022-05-26T10:05:41Z</time>
      </trkpt>
      <trkpt lat="43.34724" lon="6.12094">
        <ele>287.2</ele>
        <time>2022-05-26T10:05:44Z</time>
      </trkpt>
      <trkpt lat="43.34725" lon="6.1209">
        <ele>287.4</ele>
        <time>2022-05-26T10:05:45Z</time>
      </trkpt>
      <trkpt lat="43.34728" lon="6.12064">
        <ele>287.8</ele>
        <time>2022-05-26T10:05:51Z</time>
      </trkpt>
      <trkpt lat="43.34732" lon="6.12054">
        <ele>287.8</ele>
        <time>2022-05-26T10:05:53Z</time>
      </trkpt>
      <trkpt lat="43.34738" lon="6.12043">
        <ele>287.8</ele>
        <time>2022-05-26T10:05:56Z</time>
      </trkpt>
      <trkpt lat="43.34741" lon="6.12041">
        <ele>287.8</ele>
        <time>2022-05-26T10:05:57Z</time>
      </trkpt>
      <trkpt lat="43.34759" lon="6.12034">
        <ele>288.2</ele>
        <time>2022-05-26T10:06:02Z</time>
      </trkpt>
      <trkpt lat="43.34775" lon="6.12017">
        <ele>288.4</ele>
        <time>2022-05-26T10:06:07Z</time>
      </trkpt>
      <trkpt lat="43.34778" lon="6.12014">
        <ele>288.6</ele>
        <time>2022-05-26T10:06:08Z</time>
      </trkpt>
      <trkpt lat="43.34791" lon="6.12006">
        <ele>288.8</ele>
        <time>2022-05-26T10:06:12Z</time>
      </trkpt>
      <trkpt lat="43.34794" lon="6.12005">
        <ele>288.8</ele>
        <time>2022-05-26T10:06:13Z</time>
      </trkpt>
      <trkpt lat="43.34815" lon="6.11998">
        <ele>289.2</ele>
        <time>2022-05-26T10:06:19Z</time>
      </trkpt>
      <trkpt lat="43.34826" lon="6.11997">
        <ele>289.4</ele>
        <time>2022-05-26T10:06:22Z</time>
      </trkpt>
      <trkpt lat="43.34848" lon="6.12001">
        <ele>289.6</ele>
        <time>2022-05-26T10:06:28Z</time>
      </trkpt>
      <trkpt lat="43.34858" lon="6.12006">
        <ele>290</ele>
        <time>2022-05-26T10:06:31Z</time>
      </trkpt>
      <trkpt lat="43.34867" lon="6.12013">
        <ele>290.2</ele>
        <time>2022-05-26T10:06:34Z</time>
      </trkpt>
      <trkpt lat="43.34893" lon="6.12035">
        <ele>291.2</ele>
        <time>2022-05-26T10:06:43Z</time>
      </trkpt>
      <trkpt lat="43.34895" lon="6.12038">
        <ele>291.2</ele>
        <time>2022-05-26T10:06:44Z</time>
      </trkpt>
      <trkpt lat="43.34909" lon="6.12048">
        <ele>292.2</ele>
        <time>2022-05-26T10:06:50Z</time>
      </trkpt>
      <trkpt lat="43.34912" lon="6.12049">
        <ele>292.2</ele>
        <time>2022-05-26T10:06:51Z</time>
      </trkpt>
      <trkpt lat="43.34924" lon="6.12053">
        <ele>293.4</ele>
        <time>2022-05-26T10:06:56Z</time>
      </trkpt>
      <trkpt lat="43.34928" lon="6.12055">
        <ele>293.6</ele>
        <time>2022-05-26T10:06:58Z</time>
      </trkpt>
      <trkpt lat="43.34937" lon="6.12056">
        <ele>294.4</ele>
        <time>2022-05-26T10:07:02Z</time>
      </trkpt>
      <trkpt lat="43.34942" lon="6.12057">
        <ele>294.8</ele>
        <time>2022-05-26T10:07:04Z</time>
      </trkpt>
      <trkpt lat="43.34951" lon="6.12058">
        <ele>295.4</ele>
        <time>2022-05-26T10:07:08Z</time>
      </trkpt>
      <trkpt lat="43.34959" lon="6.12061">
        <ele>296</ele>
        <time>2022-05-26T10:07:12Z</time>
      </trkpt>
      <trkpt lat="43.34966" lon="6.12065">
        <ele>296.4</ele>
        <time>2022-05-26T10:07:16Z</time>
      </trkpt>
      <trkpt lat="43.34971" lon="6.12073">
        <ele>297</ele>
        <time>2022-05-26T10:07:20Z</time>
      </trkpt>
      <trkpt lat="43.34976" lon="6.1208">
        <ele>297.6</ele>
        <time>2022-05-26T10:07:23Z</time>
      </trkpt>
      <trkpt lat="43.34985" lon="6.12091">
        <ele>298.6</ele>
        <time>2022-05-26T10:07:29Z</time>
      </trkpt>
      <trkpt lat="43.34986" lon="6.12093">
        <ele>298.6</ele>
        <time>2022-05-26T10:07:30Z</time>
      </trkpt>
      <trkpt lat="43.34994" lon="6.12105">
        <ele>299.6</ele>
        <time>2022-05-26T10:07:36Z</time>
      </trkpt>
      <trkpt lat="43.34998" lon="6.1211">
        <ele>300.4</ele>
        <time>2022-05-26T10:07:39Z</time>
      </trkpt>
      <trkpt lat="43.35003" lon="6.12118">
        <ele>301</ele>
        <time>2022-05-26T10:07:43Z</time>
      </trkpt>
      <trkpt lat="43.35007" lon="6.12126">
        <ele>301.6</ele>
        <time>2022-05-26T10:07:47Z</time>
      </trkpt>
      <trkpt lat="43.35011" lon="6.12132">
        <ele>302</ele>
        <time>2022-05-26T10:07:50Z</time>
      </trkpt>
      <trkpt lat="43.3502" lon="6.12144">
        <ele>303</ele>
        <time>2022-05-26T10:07:57Z</time>
      </trkpt>
      <trkpt lat="43.35023" lon="6.12147">
        <ele>303.2</ele>
        <time>2022-05-26T10:07:59Z</time>
      </trkpt>
      <trkpt lat="43.3503" lon="6.1215">
        <ele>303.8</ele>
        <time>2022-05-26T10:08:03Z</time>
      </trkpt>
      <trkpt lat="43.35031" lon="6.12149">
        <ele>304</ele>
        <time>2022-05-26T10:08:04Z</time>
      </trkpt>
      <trkpt lat="43.35033" lon="6.12147">
        <ele>304.6</ele>
        <time>2022-05-26T10:08:06Z</time>
      </trkpt>
      <trkpt lat="43.35036" lon="6.12142">
        <ele>305</ele>
        <time>2022-05-26T10:08:08Z</time>
      </trkpt>
      <trkpt lat="43.35041" lon="6.12133">
        <ele>305.6</ele>
        <time>2022-05-26T10:08:13Z</time>
      </trkpt>
      <trkpt lat="43.35042" lon="6.12131">
        <ele>305.6</ele>
        <time>2022-05-26T10:08:14Z</time>
      </trkpt>
      <trkpt lat="43.3505" lon="6.12117">
        <ele>306.4</ele>
        <time>2022-05-26T10:08:21Z</time>
      </trkpt>
      <trkpt lat="43.35052" lon="6.12112">
        <ele>306.8</ele>
        <time>2022-05-26T10:08:23Z</time>
      </trkpt>
      <trkpt lat="43.35056" lon="6.12102">
        <ele>307.2</ele>
        <time>2022-05-26T10:08:27Z</time>
      </trkpt>
      <trkpt lat="43.3506" lon="6.12091">
        <ele>307.8</ele>
        <time>2022-05-26T10:08:31Z</time>
      </trkpt>
      <trkpt lat="43.35064" lon="6.12079">
        <ele>308</ele>
        <time>2022-05-26T10:08:36Z</time>
      </trkpt>
      <trkpt lat="43.3507" lon="6.12065">
        <ele>308.4</ele>
        <time>2022-05-26T10:08:42Z</time>
      </trkpt>
      <trkpt lat="43.35072" lon="6.12061">
        <ele>308.6</ele>
        <time>2022-05-26T10:08:44Z</time>
      </trkpt>
      <trkpt lat="43.35078" lon="6.12053">
        <ele>309</ele>
        <time>2022-05-26T10:08:48Z</time>
      </trkpt>
      <trkpt lat="43.35082" lon="6.12046">
        <ele>309.4</ele>
        <time>2022-05-26T10:08:51Z</time>
      </trkpt>
      <trkpt lat="43.35087" lon="6.12037">
        <ele>310</ele>
        <time>2022-05-26T10:08:55Z</time>
      </trkpt>
      <trkpt lat="43.35089" lon="6.12033">
        <ele>310.4</ele>
        <time>2022-05-26T10:08:57Z</time>
      </trkpt>
      <trkpt lat="43.35091" lon="6.12028">
        <ele>310.6</ele>
        <time>2022-05-26T10:08:59Z</time>
      </trkpt>
      <trkpt lat="43.35094" lon="6.12022">
        <ele>311.2</ele>
        <time>2022-05-26T10:09:02Z</time>
      </trkpt>
      <trkpt lat="43.35098" lon="6.12006">
        <ele>312.2</ele>
        <time>2022-05-26T10:09:08Z</time>
      </trkpt>
      <trkpt lat="43.35099" lon="6.12001">
        <ele>312.4</ele>
        <time>2022-05-26T10:09:10Z</time>
      </trkpt>
      <trkpt lat="43.35102" lon="6.11986">
        <ele>313.4</ele>
        <time>2022-05-26T10:09:15Z</time>
      </trkpt>
      <trkpt lat="43.35104" lon="6.11981">
        <ele>313.4</ele>
        <time>2022-05-26T10:09:17Z</time>
      </trkpt>
      <trkpt lat="43.3511" lon="6.11969">
        <ele>313.8</ele>
        <time>2022-05-26T10:09:23Z</time>
      </trkpt>
      <trkpt lat="43.35115" lon="6.11963">
        <ele>314.4</ele>
        <time>2022-05-26T10:09:28Z</time>
      </trkpt>
      <trkpt lat="43.35116" lon="6.11961">
        <ele>314.4</ele>
        <time>2022-05-26T10:09:29Z</time>
      </trkpt>
      <trkpt lat="43.35121" lon="6.11952">
        <ele>315.6</ele>
        <time>2022-05-26T10:09:35Z</time>
      </trkpt>
      <trkpt lat="43.35125" lon="6.11947">
        <ele>316</ele>
        <time>2022-05-26T10:09:38Z</time>
      </trkpt>
      <trkpt lat="43.35131" lon="6.11945">
        <ele>317.2</ele>
        <time>2022-05-26T10:09:42Z</time>
      </trkpt>
      <trkpt lat="43.35134" lon="6.11947">
        <ele>317.8</ele>
        <time>2022-05-26T10:09:45Z</time>
      </trkpt>
      <trkpt lat="43.35134" lon="6.11948">
        <ele>318.2</ele>
        <time>2022-05-26T10:09:46Z</time>
      </trkpt>
      <trkpt lat="43.35135" lon="6.11958">
        <ele>319.4</ele>
        <time>2022-05-26T10:09:51Z</time>
      </trkpt>
      <trkpt lat="43.35136" lon="6.11965">
        <ele>320.2</ele>
        <time>2022-05-26T10:09:55Z</time>
      </trkpt>
      <trkpt lat="43.35137" lon="6.1197">
        <ele>320.6</ele>
        <time>2022-05-26T10:09:58Z</time>
      </trkpt>
      <trkpt lat="43.35137" lon="6.11974">
        <ele>320.8</ele>
        <time>2022-05-26T10:10:00Z</time>
      </trkpt>
      <trkpt lat="43.35137" lon="6.11978">
        <ele>321</ele>
        <time>2022-05-26T10:10:02Z</time>
      </trkpt>
      <trkpt lat="43.35136" lon="6.11983">
        <ele>321.4</ele>
        <time>2022-05-26T10:10:05Z</time>
      </trkpt>
      <trkpt lat="43.35135" lon="6.11985">
        <ele>321.4</ele>
        <time>2022-05-26T10:10:06Z</time>
      </trkpt>
      <trkpt lat="43.35136" lon="6.11993">
        <ele>321.6</ele>
        <time>2022-05-26T10:10:09Z</time>
      </trkpt>
      <trkpt lat="43.35135" lon="6.11998">
        <ele>321.6</ele>
        <time>2022-05-26T10:10:11Z</time>
      </trkpt>
      <trkpt lat="43.35133" lon="6.12011">
        <ele>322.4</ele>
        <time>2022-05-26T10:10:16Z</time>
      </trkpt>
      <trkpt lat="43.35133" lon="6.12014">
        <ele>322.4</ele>
        <time>2022-05-26T10:10:17Z</time>
      </trkpt>
      <trkpt lat="43.35134" lon="6.12019">
        <ele>322.8</ele>
        <time>2022-05-26T10:10:19Z</time>
      </trkpt>
      <trkpt lat="43.35135" lon="6.12024">
        <ele>323</ele>
        <time>2022-05-26T10:10:21Z</time>
      </trkpt>
      <trkpt lat="43.35135" lon="6.12033">
        <ele>323.2</ele>
        <time>2022-05-26T10:10:24Z</time>
      </trkpt>
      <trkpt lat="43.35135" lon="6.1204">
        <ele>323.6</ele>
        <time>2022-05-26T10:10:27Z</time>
      </trkpt>
      <trkpt lat="43.35136" lon="6.12042">
        <ele>323.8</ele>
        <time>2022-05-26T10:10:28Z</time>
      </trkpt>
      <trkpt lat="43.35136" lon="6.12056">
        <ele>324.4</ele>
        <time>2022-05-26T10:10:33Z</time>
      </trkpt>
      <trkpt lat="43.35138" lon="6.12066">
        <ele>324.8</ele>
        <time>2022-05-26T10:10:37Z</time>
      </trkpt>
      <trkpt lat="43.35139" lon="6.12072">
        <ele>325</ele>
        <time>2022-05-26T10:10:39Z</time>
      </trkpt>
      <trkpt lat="43.35139" lon="6.12085">
        <ele>325.8</ele>
        <time>2022-05-26T10:10:44Z</time>
      </trkpt>
      <trkpt lat="43.35139" lon="6.12091">
        <ele>326</ele>
        <time>2022-05-26T10:10:46Z</time>
      </trkpt>
      <trkpt lat="43.35139" lon="6.12113">
        <ele>326.2</ele>
        <time>2022-05-26T10:10:53Z</time>
      </trkpt>
      <trkpt lat="43.35141" lon="6.12137">
        <ele>326.8</ele>
        <time>2022-05-26T10:11:00Z</time>
      </trkpt>
      <trkpt lat="43.3514" lon="6.12145">
        <ele>327</ele>
        <time>2022-05-26T10:11:02Z</time>
      </trkpt>
      <trkpt lat="43.3514" lon="6.12158">
        <ele>327.6</ele>
        <time>2022-05-26T10:11:06Z</time>
      </trkpt>
      <trkpt lat="43.35141" lon="6.12167">
        <ele>328</ele>
        <time>2022-05-26T10:11:09Z</time>
      </trkpt>
      <trkpt lat="43.35145" lon="6.12186">
        <ele>329</ele>
        <time>2022-05-26T10:11:16Z</time>
      </trkpt>
      <trkpt lat="43.35145" lon="6.12189">
        <ele>329.4</ele>
        <time>2022-05-26T10:11:17Z</time>
      </trkpt>
      <trkpt lat="43.35152" lon="6.12207">
        <ele>330.2</ele>
        <time>2022-05-26T10:11:24Z</time>
      </trkpt>
      <trkpt lat="43.35154" lon="6.12212">
        <ele>330.4</ele>
        <time>2022-05-26T10:11:26Z</time>
      </trkpt>
      <trkpt lat="43.35161" lon="6.12223">
        <ele>331.2</ele>
        <time>2022-05-26T10:11:31Z</time>
      </trkpt>
      <trkpt lat="43.35167" lon="6.12232">
        <ele>331.6</ele>
        <time>2022-05-26T10:11:35Z</time>
      </trkpt>
      <trkpt lat="43.35174" lon="6.12244">
        <ele>332.2</ele>
        <time>2022-05-26T10:11:40Z</time>
      </trkpt>
      <trkpt lat="43.35176" lon="6.12249">
        <ele>332.4</ele>
        <time>2022-05-26T10:11:42Z</time>
      </trkpt>
      <trkpt lat="43.35176" lon="6.12272">
        <ele>333.2</ele>
        <time>2022-05-26T10:11:50Z</time>
      </trkpt>
      <trkpt lat="43.35177" lon="6.12288">
        <ele>333.6</ele>
        <time>2022-05-26T10:11:55Z</time>
      </trkpt>
      <trkpt lat="43.35181" lon="6.12312">
        <ele>334.2</ele>
        <time>2022-05-26T10:12:03Z</time>
      </trkpt>
      <trkpt lat="43.35182" lon="6.12314">
        <ele>334.2</ele>
        <time>2022-05-26T10:12:04Z</time>
      </trkpt>
      <trkpt lat="43.35181" lon="6.12338">
        <ele>335</ele>
        <time>2022-05-26T10:12:12Z</time>
      </trkpt>
      <trkpt lat="43.3518" lon="6.12341">
        <ele>335.2</ele>
        <time>2022-05-26T10:12:13Z</time>
      </trkpt>
      <trkpt lat="43.35179" lon="6.12343">
        <ele>335.4</ele>
        <time>2022-05-26T10:12:14Z</time>
      </trkpt>
      <trkpt lat="43.35174" lon="6.12349">
        <ele>335.8</ele>
        <time>2022-05-26T10:12:17Z</time>
      </trkpt>
      <trkpt lat="43.35164" lon="6.12365">
        <ele>336.4</ele>
        <time>2022-05-26T10:12:23Z</time>
      </trkpt>
      <trkpt lat="43.35163" lon="6.12367">
        <ele>336.4</ele>
        <time>2022-05-26T10:12:24Z</time>
      </trkpt>
      <trkpt lat="43.35161" lon="6.12384">
        <ele>336.8</ele>
        <time>2022-05-26T10:12:29Z</time>
      </trkpt>
      <trkpt lat="43.35163" lon="6.12402">
        <ele>337.4</ele>
        <time>2022-05-26T10:12:35Z</time>
      </trkpt>
      <trkpt lat="43.35163" lon="6.12409">
        <ele>337.4</ele>
        <time>2022-05-26T10:12:37Z</time>
      </trkpt>
      <trkpt lat="43.35168" lon="6.12426">
        <ele>338.4</ele>
        <time>2022-05-26T10:12:43Z</time>
      </trkpt>
      <trkpt lat="43.35171" lon="6.12435">
        <ele>338.6</ele>
        <time>2022-05-26T10:12:46Z</time>
      </trkpt>
      <trkpt lat="43.35182" lon="6.12456">
        <ele>339.4</ele>
        <time>2022-05-26T10:12:54Z</time>
      </trkpt>
      <trkpt lat="43.35183" lon="6.12458">
        <ele>339.8</ele>
        <time>2022-05-26T10:12:55Z</time>
      </trkpt>
      <trkpt lat="43.35196" lon="6.12484">
        <ele>340.4</ele>
        <time>2022-05-26T10:13:05Z</time>
      </trkpt>
      <trkpt lat="43.352" lon="6.12493">
        <ele>340.8</ele>
        <time>2022-05-26T10:13:08Z</time>
      </trkpt>
      <trkpt lat="43.35201" lon="6.12503">
        <ele>340.8</ele>
        <time>2022-05-26T10:13:11Z</time>
      </trkpt>
      <trkpt lat="43.35201" lon="6.12526">
        <ele>341.2</ele>
        <time>2022-05-26T10:13:17Z</time>
      </trkpt>
      <trkpt lat="43.35201" lon="6.12529">
        <ele>341.2</ele>
        <time>2022-05-26T10:13:18Z</time>
      </trkpt>
      <trkpt lat="43.35201" lon="6.12533">
        <ele>341.4</ele>
        <time>2022-05-26T10:13:20Z</time>
      </trkpt>
      <trkpt lat="43.35201" lon="6.12536">
        <ele>341.8</ele>
        <time>2022-05-26T10:13:21Z</time>
      </trkpt>
      <trkpt lat="43.352" lon="6.12551">
        <ele>342.6</ele>
        <time>2022-05-26T10:13:27Z</time>
      </trkpt>
      <trkpt lat="43.352" lon="6.12554">
        <ele>342.8</ele>
        <time>2022-05-26T10:13:28Z</time>
      </trkpt>
      <trkpt lat="43.35202" lon="6.1257">
        <ele>343.6</ele>
        <time>2022-05-26T10:13:33Z</time>
      </trkpt>
      <trkpt lat="43.35203" lon="6.12576">
        <ele>343.8</ele>
        <time>2022-05-26T10:13:35Z</time>
      </trkpt>
      <trkpt lat="43.35205" lon="6.12585">
        <ele>344.2</ele>
        <time>2022-05-26T10:13:38Z</time>
      </trkpt>
      <trkpt lat="43.35211" lon="6.12601">
        <ele>344.6</ele>
        <time>2022-05-26T10:13:44Z</time>
      </trkpt>
      <trkpt lat="43.35214" lon="6.12609">
        <ele>345</ele>
        <time>2022-05-26T10:13:47Z</time>
      </trkpt>
      <trkpt lat="43.35216" lon="6.12614">
        <ele>345.2</ele>
        <time>2022-05-26T10:13:49Z</time>
      </trkpt>
      <trkpt lat="43.35222" lon="6.12629">
        <ele>345.8</ele>
        <time>2022-05-26T10:13:55Z</time>
      </trkpt>
      <trkpt lat="43.35223" lon="6.12631">
        <ele>346</ele>
        <time>2022-05-26T10:13:56Z</time>
      </trkpt>
      <trkpt lat="43.35224" lon="6.12644">
        <ele>346.4</ele>
        <time>2022-05-26T10:14:01Z</time>
      </trkpt>
      <trkpt lat="43.3522" lon="6.12654">
        <ele>346.6</ele>
        <time>2022-05-26T10:14:05Z</time>
      </trkpt>
      <trkpt lat="43.35217" lon="6.12659">
        <ele>346.8</ele>
        <time>2022-05-26T10:14:07Z</time>
      </trkpt>
      <trkpt lat="43.35214" lon="6.12664">
        <ele>347</ele>
        <time>2022-05-26T10:14:09Z</time>
      </trkpt>
      <trkpt lat="43.35211" lon="6.1267">
        <ele>347.4</ele>
        <time>2022-05-26T10:14:11Z</time>
      </trkpt>
      <trkpt lat="43.35209" lon="6.12675">
        <ele>347.8</ele>
        <time>2022-05-26T10:14:13Z</time>
      </trkpt>
      <trkpt lat="43.35205" lon="6.12684">
        <ele>348</ele>
        <time>2022-05-26T10:14:17Z</time>
      </trkpt>
      <trkpt lat="43.35201" lon="6.12691">
        <ele>348.2</ele>
        <time>2022-05-26T10:14:19Z</time>
      </trkpt>
      <trkpt lat="43.35197" lon="6.12714">
        <ele>349</ele>
        <time>2022-05-26T10:14:26Z</time>
      </trkpt>
      <trkpt lat="43.35197" lon="6.1272">
        <ele>349.2</ele>
        <time>2022-05-26T10:14:28Z</time>
      </trkpt>
      <trkpt lat="43.35198" lon="6.12733">
        <ele>350</ele>
        <time>2022-05-26T10:14:33Z</time>
      </trkpt>
      <trkpt lat="43.35198" lon="6.12739">
        <ele>350.2</ele>
        <time>2022-05-26T10:14:35Z</time>
      </trkpt>
      <trkpt lat="43.35199" lon="6.12742">
        <ele>350.4</ele>
        <time>2022-05-26T10:14:36Z</time>
      </trkpt>
      <trkpt lat="43.35202" lon="6.12749">
        <ele>350.8</ele>
        <time>2022-05-26T10:14:39Z</time>
      </trkpt>
      <trkpt lat="43.35205" lon="6.12762">
        <ele>351.4</ele>
        <time>2022-05-26T10:14:44Z</time>
      </trkpt>
      <trkpt lat="43.35208" lon="6.12767">
        <ele>351.6</ele>
        <time>2022-05-26T10:14:46Z</time>
      </trkpt>
      <trkpt lat="43.35218" lon="6.12786">
        <ele>352.2</ele>
        <time>2022-05-26T10:14:54Z</time>
      </trkpt>
      <trkpt lat="43.35219" lon="6.12788">
        <ele>352.4</ele>
        <time>2022-05-26T10:14:55Z</time>
      </trkpt>
      <trkpt lat="43.35227" lon="6.12796">
        <ele>352.8</ele>
        <time>2022-05-26T10:15:00Z</time>
      </trkpt>
      <trkpt lat="43.35234" lon="6.12802">
        <ele>353.4</ele>
        <time>2022-05-26T10:15:04Z</time>
      </trkpt>
      <trkpt lat="43.35242" lon="6.12808">
        <ele>353.8</ele>
        <time>2022-05-26T10:15:08Z</time>
      </trkpt>
      <trkpt lat="43.35255" lon="6.12824">
        <ele>354.4</ele>
        <time>2022-05-26T10:15:15Z</time>
      </trkpt>
      <trkpt lat="43.35257" lon="6.1283">
        <ele>354.6</ele>
        <time>2022-05-26T10:15:17Z</time>
      </trkpt>
      <trkpt lat="43.35256" lon="6.12839">
        <ele>354.6</ele>
        <time>2022-05-26T10:15:20Z</time>
      </trkpt>
      <trkpt lat="43.35255" lon="6.12843">
        <ele>354.4</ele>
        <time>2022-05-26T10:15:21Z</time>
      </trkpt>
      <trkpt lat="43.35251" lon="6.12855">
        <ele>354.8</ele>
        <time>2022-05-26T10:15:25Z</time>
      </trkpt>
      <trkpt lat="43.35251" lon="6.12856">
        <ele>355</ele>
        <time>2022-05-26T10:15:26Z</time>
      </trkpt>
      <trkpt lat="43.35249" lon="6.12866">
        <ele>355.2</ele>
        <time>2022-05-26T10:15:29Z</time>
      </trkpt>
      <trkpt lat="43.35249" lon="6.12874">
        <ele>355.4</ele>
        <time>2022-05-26T10:15:31Z</time>
      </trkpt>
      <trkpt lat="43.35248" lon="6.12887">
        <ele>356</ele>
        <time>2022-05-26T10:15:35Z</time>
      </trkpt>
      <trkpt lat="43.35249" lon="6.12912">
        <ele>356.4</ele>
        <time>2022-05-26T10:15:42Z</time>
      </trkpt>
      <trkpt lat="43.35246" lon="6.12923">
        <ele>356.6</ele>
        <time>2022-05-26T10:15:45Z</time>
      </trkpt>
      <trkpt lat="43.35245" lon="6.12926">
        <ele>356.6</ele>
        <time>2022-05-26T10:15:46Z</time>
      </trkpt>
      <trkpt lat="43.35244" lon="6.12929">
        <ele>356.8</ele>
        <time>2022-05-26T10:15:47Z</time>
      </trkpt>
      <trkpt lat="43.35239" lon="6.12945">
        <ele>357.4</ele>
        <time>2022-05-26T10:15:53Z</time>
      </trkpt>
      <trkpt lat="43.35238" lon="6.12952">
        <ele>357.6</ele>
        <time>2022-05-26T10:15:56Z</time>
      </trkpt>
      <trkpt lat="43.35238" lon="6.12955">
        <ele>357.8</ele>
        <time>2022-05-26T10:15:57Z</time>
      </trkpt>
      <trkpt lat="43.35237" lon="6.12961">
        <ele>358</ele>
        <time>2022-05-26T10:15:59Z</time>
      </trkpt>
      <trkpt lat="43.35238" lon="6.12974">
        <ele>358.4</ele>
        <time>2022-05-26T10:16:04Z</time>
      </trkpt>
      <trkpt lat="43.35239" lon="6.12985">
        <ele>358.6</ele>
        <time>2022-05-26T10:16:08Z</time>
      </trkpt>
      <trkpt lat="43.35239" lon="6.12988">
        <ele>358.8</ele>
        <time>2022-05-26T10:16:09Z</time>
      </trkpt>
      <trkpt lat="43.35242" lon="6.13008">
        <ele>359.6</ele>
        <time>2022-05-26T10:16:16Z</time>
      </trkpt>
      <trkpt lat="43.35242" lon="6.13013">
        <ele>359.8</ele>
        <time>2022-05-26T10:16:18Z</time>
      </trkpt>
      <trkpt lat="43.35245" lon="6.13028">
        <ele>360.6</ele>
        <time>2022-05-26T10:16:23Z</time>
      </trkpt>
      <trkpt lat="43.35244" lon="6.13034">
        <ele>360.8</ele>
        <time>2022-05-26T10:16:25Z</time>
      </trkpt>
      <trkpt lat="43.35246" lon="6.13047">
        <ele>361.2</ele>
        <time>2022-05-26T10:16:29Z</time>
      </trkpt>
      <trkpt lat="43.35247" lon="6.13069">
        <ele>361.8</ele>
        <time>2022-05-26T10:16:36Z</time>
      </trkpt>
      <trkpt lat="43.35247" lon="6.13072">
        <ele>361.8</ele>
        <time>2022-05-26T10:16:37Z</time>
      </trkpt>
      <trkpt lat="43.35246" lon="6.13087">
        <ele>362.4</ele>
        <time>2022-05-26T10:16:42Z</time>
      </trkpt>
      <trkpt lat="43.35249" lon="6.131">
        <ele>362.8</ele>
        <time>2022-05-26T10:16:47Z</time>
      </trkpt>
      <trkpt lat="43.35249" lon="6.13106">
        <ele>362.8</ele>
        <time>2022-05-26T10:16:49Z</time>
      </trkpt>
      <trkpt lat="43.35254" lon="6.13126">
        <ele>363.8</ele>
        <time>2022-05-26T10:16:56Z</time>
      </trkpt>
      <trkpt lat="43.35256" lon="6.13135">
        <ele>364.2</ele>
        <time>2022-05-26T10:16:59Z</time>
      </trkpt>
      <trkpt lat="43.3526" lon="6.1315">
        <ele>365</ele>
        <time>2022-05-26T10:17:04Z</time>
      </trkpt>
      <trkpt lat="43.35264" lon="6.13161">
        <ele>365.4</ele>
        <time>2022-05-26T10:17:08Z</time>
      </trkpt>
      <trkpt lat="43.35271" lon="6.13172">
        <ele>366</ele>
        <time>2022-05-26T10:17:13Z</time>
      </trkpt>
      <trkpt lat="43.35273" lon="6.13174">
        <ele>366.2</ele>
        <time>2022-05-26T10:17:14Z</time>
      </trkpt>
      <trkpt lat="43.35284" lon="6.13188">
        <ele>366.6</ele>
        <time>2022-05-26T10:17:21Z</time>
      </trkpt>
      <trkpt lat="43.35287" lon="6.13201">
        <ele>367</ele>
        <time>2022-05-26T10:17:26Z</time>
      </trkpt>
      <trkpt lat="43.35285" lon="6.13206">
        <ele>367.2</ele>
        <time>2022-05-26T10:17:28Z</time>
      </trkpt>
      <trkpt lat="43.35282" lon="6.13215">
        <ele>367.8</ele>
        <time>2022-05-26T10:17:32Z</time>
      </trkpt>
      <trkpt lat="43.35278" lon="6.13224">
        <ele>368.2</ele>
        <time>2022-05-26T10:17:36Z</time>
      </trkpt>
      <trkpt lat="43.35277" lon="6.13227">
        <ele>368.4</ele>
        <time>2022-05-26T10:17:37Z</time>
      </trkpt>
      <trkpt lat="43.35272" lon="6.13245">
        <ele>369.2</ele>
        <time>2022-05-26T10:17:44Z</time>
      </trkpt>
      <trkpt lat="43.35272" lon="6.13248">
        <ele>369.4</ele>
        <time>2022-05-26T10:17:45Z</time>
      </trkpt>
      <trkpt lat="43.35268" lon="6.13267">
        <ele>370</ele>
        <time>2022-05-26T10:17:52Z</time>
      </trkpt>
      <trkpt lat="43.35268" lon="6.1327">
        <ele>370.4</ele>
        <time>2022-05-26T10:17:53Z</time>
      </trkpt>
      <trkpt lat="43.35269" lon="6.13292">
        <ele>371.2</ele>
        <time>2022-05-26T10:18:00Z</time>
      </trkpt>
      <trkpt lat="43.3527" lon="6.13296">
        <ele>371.4</ele>
        <time>2022-05-26T10:18:02Z</time>
      </trkpt>
      <trkpt lat="43.35272" lon="6.13313">
        <ele>372</ele>
        <time>2022-05-26T10:18:08Z</time>
      </trkpt>
      <trkpt lat="43.35273" lon="6.1333">
        <ele>372.4</ele>
        <time>2022-05-26T10:18:14Z</time>
      </trkpt>
      <trkpt lat="43.35273" lon="6.13335">
        <ele>372.6</ele>
        <time>2022-05-26T10:18:16Z</time>
      </trkpt>
      <trkpt lat="43.35273" lon="6.13356">
        <ele>373.4</ele>
        <time>2022-05-26T10:18:23Z</time>
      </trkpt>
      <trkpt lat="43.35273" lon="6.13365">
        <ele>373.6</ele>
        <time>2022-05-26T10:18:26Z</time>
      </trkpt>
      <trkpt lat="43.35275" lon="6.13385">
        <ele>374.2</ele>
        <time>2022-05-26T10:18:33Z</time>
      </trkpt>
      <trkpt lat="43.35277" lon="6.13393">
        <ele>374.6</ele>
        <time>2022-05-26T10:18:36Z</time>
      </trkpt>
      <trkpt lat="43.35281" lon="6.13413">
        <ele>375.4</ele>
        <time>2022-05-26T10:18:43Z</time>
      </trkpt>
      <trkpt lat="43.35283" lon="6.13418">
        <ele>375.8</ele>
        <time>2022-05-26T10:18:45Z</time>
      </trkpt>
      <trkpt lat="43.35291" lon="6.13431">
        <ele>376.8</ele>
        <time>2022-05-26T10:18:51Z</time>
      </trkpt>
      <trkpt lat="43.35293" lon="6.13433">
        <ele>376.8</ele>
        <time>2022-05-26T10:18:52Z</time>
      </trkpt>
      <trkpt lat="43.35301" lon="6.13442">
        <ele>377.4</ele>
        <time>2022-05-26T10:18:57Z</time>
      </trkpt>
      <trkpt lat="43.35302" lon="6.13444">
        <ele>377.6</ele>
        <time>2022-05-26T10:18:58Z</time>
      </trkpt>
      <trkpt lat="43.35307" lon="6.13454">
        <ele>378</ele>
        <time>2022-05-26T10:19:02Z</time>
      </trkpt>
      <trkpt lat="43.35308" lon="6.1346">
        <ele>378</ele>
        <time>2022-05-26T10:19:04Z</time>
      </trkpt>
      <trkpt lat="43.35305" lon="6.1348">
        <ele>379</ele>
        <time>2022-05-26T10:19:11Z</time>
      </trkpt>
      <trkpt lat="43.35304" lon="6.13483">
        <ele>379.2</ele>
        <time>2022-05-26T10:19:12Z</time>
      </trkpt>
      <trkpt lat="43.35304" lon="6.13488">
        <ele>379.4</ele>
        <time>2022-05-26T10:19:14Z</time>
      </trkpt>
      <trkpt lat="43.35305" lon="6.13493">
        <ele>379.6</ele>
        <time>2022-05-26T10:19:16Z</time>
      </trkpt>
      <trkpt lat="43.35307" lon="6.13504">
        <ele>380.2</ele>
        <time>2022-05-26T10:19:20Z</time>
      </trkpt>
      <trkpt lat="43.35308" lon="6.1351">
        <ele>380.2</ele>
        <time>2022-05-26T10:19:22Z</time>
      </trkpt>
      <trkpt lat="43.35313" lon="6.13529">
        <ele>380.4</ele>
        <time>2022-05-26T10:19:29Z</time>
      </trkpt>
      <trkpt lat="43.35311" lon="6.13534">
        <ele>380.4</ele>
        <time>2022-05-26T10:19:31Z</time>
      </trkpt>
      <trkpt lat="43.35306" lon="6.13538">
        <ele>380.4</ele>
        <time>2022-05-26T10:19:34Z</time>
      </trkpt>
      <trkpt lat="43.35294" lon="6.13548">
        <ele>380.8</ele>
        <time>2022-05-26T10:19:41Z</time>
      </trkpt>
      <trkpt lat="43.35293" lon="6.13553">
        <ele>381</ele>
        <time>2022-05-26T10:19:43Z</time>
      </trkpt>
      <trkpt lat="43.35292" lon="6.13569">
        <ele>381.4</ele>
        <time>2022-05-26T10:19:48Z</time>
      </trkpt>
      <trkpt lat="43.35294" lon="6.13588">
        <ele>382</ele>
        <time>2022-05-26T10:19:54Z</time>
      </trkpt>
      <trkpt lat="43.35293" lon="6.13597">
        <ele>382.2</ele>
        <time>2022-05-26T10:19:57Z</time>
      </trkpt>
      <trkpt lat="43.35292" lon="6.13603">
        <ele>382.2</ele>
        <time>2022-05-26T10:19:59Z</time>
      </trkpt>
      <trkpt lat="43.35291" lon="6.13607">
        <ele>382.4</ele>
        <time>2022-05-26T10:20:01Z</time>
      </trkpt>
      <trkpt lat="43.35292" lon="6.13623">
        <ele>382.8</ele>
        <time>2022-05-26T10:20:07Z</time>
      </trkpt>
      <trkpt lat="43.35293" lon="6.1363">
        <ele>383.2</ele>
        <time>2022-05-26T10:20:10Z</time>
      </trkpt>
      <trkpt lat="43.35296" lon="6.13641">
        <ele>383.6</ele>
        <time>2022-05-26T10:20:14Z</time>
      </trkpt>
      <trkpt lat="43.35306" lon="6.13658">
        <ele>384</ele>
        <time>2022-05-26T10:20:22Z</time>
      </trkpt>
      <trkpt lat="43.35307" lon="6.1366">
        <ele>384.4</ele>
        <time>2022-05-26T10:20:23Z</time>
      </trkpt>
      <trkpt lat="43.3531" lon="6.13671">
        <ele>385</ele>
        <time>2022-05-26T10:20:28Z</time>
      </trkpt>
      <trkpt lat="43.3531" lon="6.13682">
        <ele>385.2</ele>
        <time>2022-05-26T10:20:33Z</time>
      </trkpt>
      <trkpt lat="43.3531" lon="6.13683">
        <ele>385.2</ele>
        <time>2022-05-26T10:20:34Z</time>
      </trkpt>
      <trkpt lat="43.35312" lon="6.13687">
        <ele>385.2</ele>
        <time>2022-05-26T10:20:36Z</time>
      </trkpt>
      <trkpt lat="43.35315" lon="6.13689">
        <ele>385.4</ele>
        <time>2022-05-26T10:20:39Z</time>
      </trkpt>
      <trkpt lat="43.35316" lon="6.1369">
        <ele>385.4</ele>
        <time>2022-05-26T10:20:40Z</time>
      </trkpt>
      <trkpt lat="43.35318" lon="6.13692">
        <ele>385.4</ele>
        <time>2022-05-26T10:20:42Z</time>
      </trkpt>
      <trkpt lat="43.35321" lon="6.13699">
        <ele>385.8</ele>
        <time>2022-05-26T10:20:45Z</time>
      </trkpt>
      <trkpt lat="43.35322" lon="6.13709">
        <ele>386.4</ele>
        <time>2022-05-26T10:20:50Z</time>
      </trkpt>
      <trkpt lat="43.35321" lon="6.13711">
        <ele>386.6</ele>
        <time>2022-05-26T10:20:51Z</time>
      </trkpt>
      <trkpt lat="43.35318" lon="6.13719">
        <ele>387.2</ele>
        <time>2022-05-26T10:20:55Z</time>
      </trkpt>
      <trkpt lat="43.35318" lon="6.13721">
        <ele>387.2</ele>
        <time>2022-05-26T10:20:56Z</time>
      </trkpt>
      <trkpt lat="43.35318" lon="6.13722">
        <ele>387.4</ele>
        <time>2022-05-26T10:20:57Z</time>
      </trkpt>
      <trkpt lat="43.35318" lon="6.13726">
        <ele>387.6</ele>
        <time>2022-05-26T10:20:59Z</time>
      </trkpt>
      <trkpt lat="43.35317" lon="6.13729">
        <ele>387.6</ele>
        <time>2022-05-26T10:21:01Z</time>
      </trkpt>
      <trkpt lat="43.35316" lon="6.13731">
        <ele>387.6</ele>
        <time>2022-05-26T10:21:02Z</time>
      </trkpt>
      <trkpt lat="43.35317" lon="6.13738">
        <ele>388.4</ele>
        <time>2022-05-26T10:21:06Z</time>
      </trkpt>
      <trkpt lat="43.35318" lon="6.13743">
        <ele>388.6</ele>
        <time>2022-05-26T10:21:08Z</time>
      </trkpt>
      <trkpt lat="43.35318" lon="6.13746">
        <ele>388.6</ele>
        <time>2022-05-26T10:21:09Z</time>
      </trkpt>
      <trkpt lat="43.3532" lon="6.13755">
        <ele>389</ele>
        <time>2022-05-26T10:21:12Z</time>
      </trkpt>
      <trkpt lat="43.35327" lon="6.13767">
        <ele>389.8</ele>
        <time>2022-05-26T10:21:17Z</time>
      </trkpt>
      <trkpt lat="43.35328" lon="6.1377">
        <ele>390</ele>
        <time>2022-05-26T10:21:18Z</time>
      </trkpt>
      <trkpt lat="43.35335" lon="6.13786">
        <ele>391</ele>
        <time>2022-05-26T10:21:25Z</time>
      </trkpt>
      <trkpt lat="43.35336" lon="6.13789">
        <ele>391</ele>
        <time>2022-05-26T10:21:26Z</time>
      </trkpt>
      <trkpt lat="43.35343" lon="6.138">
        <ele>391.6</ele>
        <time>2022-05-26T10:21:32Z</time>
      </trkpt>
      <trkpt lat="43.35345" lon="6.1381">
        <ele>392</ele>
        <time>2022-05-26T10:21:36Z</time>
      </trkpt>
      <trkpt lat="43.35349" lon="6.1382">
        <ele>392.4</ele>
        <time>2022-05-26T10:21:40Z</time>
      </trkpt>
      <trkpt lat="43.35355" lon="6.13829">
        <ele>393.2</ele>
        <time>2022-05-26T10:21:45Z</time>
      </trkpt>
      <trkpt lat="43.3536" lon="6.13834">
        <ele>393.6</ele>
        <time>2022-05-26T10:21:48Z</time>
      </trkpt>
      <trkpt lat="43.35369" lon="6.13842">
        <ele>394.2</ele>
        <time>2022-05-26T10:21:53Z</time>
      </trkpt>
      <trkpt lat="43.35373" lon="6.13846">
        <ele>394.4</ele>
        <time>2022-05-26T10:21:56Z</time>
      </trkpt>
      <trkpt lat="43.35384" lon="6.13857">
        <ele>395.2</ele>
        <time>2022-05-26T10:22:03Z</time>
      </trkpt>
      <trkpt lat="43.35386" lon="6.13858">
        <ele>395.2</ele>
        <time>2022-05-26T10:22:04Z</time>
      </trkpt>
      <trkpt lat="43.35397" lon="6.13867">
        <ele>395.6</ele>
        <time>2022-05-26T10:22:10Z</time>
      </trkpt>
      <trkpt lat="43.35408" lon="6.1388">
        <ele>396</ele>
        <time>2022-05-26T10:22:16Z</time>
      </trkpt>
      <trkpt lat="43.35413" lon="6.13884">
        <ele>396.4</ele>
        <time>2022-05-26T10:22:19Z</time>
      </trkpt>
      <trkpt lat="43.35417" lon="6.13887">
        <ele>396.6</ele>
        <time>2022-05-26T10:22:21Z</time>
      </trkpt>
      <trkpt lat="43.35418" lon="6.13888">
        <ele>396.6</ele>
        <time>2022-05-26T10:22:22Z</time>
      </trkpt>
      <trkpt lat="43.35425" lon="6.1389">
        <ele>397.2</ele>
        <time>2022-05-26T10:22:26Z</time>
      </trkpt>
      <trkpt lat="43.35431" lon="6.13892">
        <ele>397.4</ele>
        <time>2022-05-26T10:22:29Z</time>
      </trkpt>
      <trkpt lat="43.35434" lon="6.13892">
        <ele>397.6</ele>
        <time>2022-05-26T10:22:30Z</time>
      </trkpt>
      <trkpt lat="43.35436" lon="6.13892">
        <ele>397.6</ele>
        <time>2022-05-26T10:22:31Z</time>
      </trkpt>
      <trkpt lat="43.35439" lon="6.13893">
        <ele>397.6</ele>
        <time>2022-05-26T10:22:32Z</time>
      </trkpt>
      <trkpt lat="43.35454" lon="6.13895">
        <ele>398</ele>
        <time>2022-05-26T10:22:40Z</time>
      </trkpt>
      <trkpt lat="43.35463" lon="6.13899">
        <ele>398.6</ele>
        <time>2022-05-26T10:22:45Z</time>
      </trkpt>
      <trkpt lat="43.35466" lon="6.13902">
        <ele>399</ele>
        <time>2022-05-26T10:22:47Z</time>
      </trkpt>
      <trkpt lat="43.35469" lon="6.13911">
        <ele>399.8</ele>
        <time>2022-05-26T10:22:52Z</time>
      </trkpt>
      <trkpt lat="43.35469" lon="6.13917">
        <ele>399.8</ele>
        <time>2022-05-26T10:22:54Z</time>
      </trkpt>
      <trkpt lat="43.35462" lon="6.13929">
        <ele>400</ele>
        <time>2022-05-26T10:23:00Z</time>
      </trkpt>
      <trkpt lat="43.35452" lon="6.13938">
        <ele>400.4</ele>
        <time>2022-05-26T10:23:06Z</time>
      </trkpt>
      <trkpt lat="43.3545" lon="6.13944">
        <ele>400.6</ele>
        <time>2022-05-26T10:23:08Z</time>
      </trkpt>
      <trkpt lat="43.35448" lon="6.13953">
        <ele>401</ele>
        <time>2022-05-26T10:23:11Z</time>
      </trkpt>
      <trkpt lat="43.35448" lon="6.1396">
        <ele>401.2</ele>
        <time>2022-05-26T10:23:13Z</time>
      </trkpt>
      <trkpt lat="43.35449" lon="6.13978">
        <ele>401.6</ele>
        <time>2022-05-26T10:23:19Z</time>
      </trkpt>
      <trkpt lat="43.3545" lon="6.13983">
        <ele>401.8</ele>
        <time>2022-05-26T10:23:21Z</time>
      </trkpt>
      <trkpt lat="43.35455" lon="6.13996">
        <ele>402.2</ele>
        <time>2022-05-26T10:23:26Z</time>
      </trkpt>
      <trkpt lat="43.35458" lon="6.14">
        <ele>402.6</ele>
        <time>2022-05-26T10:23:30Z</time>
      </trkpt>
      <trkpt lat="43.35499" lon="6.14047">
        <ele>405.4</ele>
        <time>2022-05-26T10:25:19Z</time>
      </trkpt>
      <trkpt lat="43.355" lon="6.14048">
        <ele>405.4</ele>
        <time>2022-05-26T10:25:20Z</time>
      </trkpt>
      <trkpt lat="43.35511" lon="6.1406">
        <ele>406.4</ele>
        <time>2022-05-26T10:25:28Z</time>
      </trkpt>
      <trkpt lat="43.35517" lon="6.14066">
        <ele>406.8</ele>
        <time>2022-05-26T10:25:33Z</time>
      </trkpt>
      <trkpt lat="43.35522" lon="6.1407">
        <ele>407</ele>
        <time>2022-05-26T10:25:36Z</time>
      </trkpt>
      <trkpt lat="43.35529" lon="6.14077">
        <ele>407.4</ele>
        <time>2022-05-26T10:25:41Z</time>
      </trkpt>
      <trkpt lat="43.35534" lon="6.1408">
        <ele>407.6</ele>
        <time>2022-05-26T10:25:44Z</time>
      </trkpt>
      <trkpt lat="43.35542" lon="6.14091">
        <ele>408</ele>
        <time>2022-05-26T10:25:51Z</time>
      </trkpt>
      <trkpt lat="43.35542" lon="6.14094">
        <ele>408</ele>
        <time>2022-05-26T10:25:52Z</time>
      </trkpt>
      <trkpt lat="43.35542" lon="6.14096">
        <ele>408.2</ele>
        <time>2022-05-26T10:25:53Z</time>
      </trkpt>
      <trkpt lat="43.35542" lon="6.141">
        <ele>408.4</ele>
        <time>2022-05-26T10:25:55Z</time>
      </trkpt>
      <trkpt lat="43.35539" lon="6.14105">
        <ele>408.8</ele>
        <time>2022-05-26T10:25:59Z</time>
      </trkpt>
      <trkpt lat="43.35533" lon="6.1411">
        <ele>409.2</ele>
        <time>2022-05-26T10:26:04Z</time>
      </trkpt>
      <trkpt lat="43.35528" lon="6.14112">
        <ele>409.6</ele>
        <time>2022-05-26T10:26:07Z</time>
      </trkpt>
      <trkpt lat="43.35515" lon="6.1412">
        <ele>410.2</ele>
        <time>2022-05-26T10:26:15Z</time>
      </trkpt>
      <trkpt lat="43.35504" lon="6.14131">
        <ele>411</ele>
        <time>2022-05-26T10:26:23Z</time>
      </trkpt>
      <trkpt lat="43.355" lon="6.14136">
        <ele>411.2</ele>
        <time>2022-05-26T10:26:26Z</time>
      </trkpt>
      <trkpt lat="43.35498" lon="6.14139">
        <ele>411.4</ele>
        <time>2022-05-26T10:26:28Z</time>
      </trkpt>
      <trkpt lat="43.35494" lon="6.14143">
        <ele>411.6</ele>
        <time>2022-05-26T10:26:31Z</time>
      </trkpt>
      <trkpt lat="43.35486" lon="6.14155">
        <ele>412</ele>
        <time>2022-05-26T10:26:38Z</time>
      </trkpt>
      <trkpt lat="43.35483" lon="6.1416">
        <ele>412.4</ele>
        <time>2022-05-26T10:26:41Z</time>
      </trkpt>
      <trkpt lat="43.35477" lon="6.1417">
        <ele>413.2</ele>
        <time>2022-05-26T10:26:46Z</time>
      </trkpt>
      <trkpt lat="43.35471" lon="6.14178">
        <ele>413.4</ele>
        <time>2022-05-26T10:26:51Z</time>
      </trkpt>
      <trkpt lat="43.35463" lon="6.14192">
        <ele>414</ele>
        <time>2022-05-26T10:26:57Z</time>
      </trkpt>
      <trkpt lat="43.35459" lon="6.14199">
        <ele>414.6</ele>
        <time>2022-05-26T10:27:00Z</time>
      </trkpt>
      <trkpt lat="43.35452" lon="6.14213">
        <ele>415.2</ele>
        <time>2022-05-26T10:27:06Z</time>
      </trkpt>
      <trkpt lat="43.35449" lon="6.14222">
        <ele>415.6</ele>
        <time>2022-05-26T10:27:10Z</time>
      </trkpt>
      <trkpt lat="43.35448" lon="6.14227">
        <ele>415.8</ele>
        <time>2022-05-26T10:27:12Z</time>
      </trkpt>
      <trkpt lat="43.35448" lon="6.14241">
        <ele>416.4</ele>
        <time>2022-05-26T10:27:18Z</time>
      </trkpt>
      <trkpt lat="43.35448" lon="6.14243">
        <ele>416.6</ele>
        <time>2022-05-26T10:27:19Z</time>
      </trkpt>
      <trkpt lat="43.35449" lon="6.14246">
        <ele>416.8</ele>
        <time>2022-05-26T10:27:20Z</time>
      </trkpt>
      <trkpt lat="43.35452" lon="6.14252">
        <ele>417</ele>
        <time>2022-05-26T10:27:23Z</time>
      </trkpt>
      <trkpt lat="43.35457" lon="6.1426">
        <ele>417.2</ele>
        <time>2022-05-26T10:27:27Z</time>
      </trkpt>
      <trkpt lat="43.3546" lon="6.14266">
        <ele>417.4</ele>
        <time>2022-05-26T10:27:30Z</time>
      </trkpt>
      <trkpt lat="43.35467" lon="6.14273">
        <ele>417.8</ele>
        <time>2022-05-26T10:27:34Z</time>
      </trkpt>
      <trkpt lat="43.35472" lon="6.14279">
        <ele>418.2</ele>
        <time>2022-05-26T10:27:37Z</time>
      </trkpt>
      <trkpt lat="43.35482" lon="6.14288">
        <ele>418.6</ele>
        <time>2022-05-26T10:27:44Z</time>
      </trkpt>
      <trkpt lat="43.35486" lon="6.1429">
        <ele>419</ele>
        <time>2022-05-26T10:27:46Z</time>
      </trkpt>
      <trkpt lat="43.35496" lon="6.14294">
        <ele>419</ele>
        <time>2022-05-26T10:27:52Z</time>
      </trkpt>
      <trkpt lat="43.35506" lon="6.143">
        <ele>419.8</ele>
        <time>2022-05-26T10:27:58Z</time>
      </trkpt>
      <trkpt lat="43.3551" lon="6.14303">
        <ele>419.8</ele>
        <time>2022-05-26T10:28:00Z</time>
      </trkpt>
      <trkpt lat="43.35514" lon="6.14307">
        <ele>420</ele>
        <time>2022-05-26T10:28:03Z</time>
      </trkpt>
      <trkpt lat="43.35518" lon="6.14312">
        <ele>420.6</ele>
        <time>2022-05-26T10:28:06Z</time>
      </trkpt>
      <trkpt lat="43.35531" lon="6.14323">
        <ele>421</ele>
        <time>2022-05-26T10:28:14Z</time>
      </trkpt>
      <trkpt lat="43.35533" lon="6.14324">
        <ele>421.4</ele>
        <time>2022-05-26T10:28:15Z</time>
      </trkpt>
      <trkpt lat="43.35545" lon="6.14326">
        <ele>421.8</ele>
        <time>2022-05-26T10:28:21Z</time>
      </trkpt>
      <trkpt lat="43.35553" lon="6.14329">
        <ele>422.4</ele>
        <time>2022-05-26T10:28:25Z</time>
      </trkpt>
      <trkpt lat="43.35563" lon="6.14331">
        <ele>422.8</ele>
        <time>2022-05-26T10:28:30Z</time>
      </trkpt>
      <trkpt lat="43.35578" lon="6.14335">
        <ele>423.4</ele>
        <time>2022-05-26T10:28:38Z</time>
      </trkpt>
      <trkpt lat="43.3558" lon="6.14336">
        <ele>423.4</ele>
        <time>2022-05-26T10:28:39Z</time>
      </trkpt>
      <trkpt lat="43.35588" lon="6.14341">
        <ele>423.8</ele>
        <time>2022-05-26T10:28:43Z</time>
      </trkpt>
      <trkpt lat="43.35589" lon="6.14342">
        <ele>423.8</ele>
        <time>2022-05-26T10:28:44Z</time>
      </trkpt>
      <trkpt lat="43.35591" lon="6.14343">
        <ele>424</ele>
        <time>2022-05-26T10:28:45Z</time>
      </trkpt>
      <trkpt lat="43.35596" lon="6.1435">
        <ele>424</ele>
        <time>2022-05-26T10:28:48Z</time>
      </trkpt>
      <trkpt lat="43.35596" lon="6.14354">
        <ele>424.2</ele>
        <time>2022-05-26T10:28:50Z</time>
      </trkpt>
      <trkpt lat="43.35597" lon="6.14365">
        <ele>424.4</ele>
        <time>2022-05-26T10:28:54Z</time>
      </trkpt>
      <trkpt lat="43.35596" lon="6.14367">
        <ele>424.6</ele>
        <time>2022-05-26T10:28:55Z</time>
      </trkpt>
      <trkpt lat="43.35592" lon="6.14379">
        <ele>425.4</ele>
        <time>2022-05-26T10:29:01Z</time>
      </trkpt>
      <trkpt lat="43.35591" lon="6.14381">
        <ele>425.8</ele>
        <time>2022-05-26T10:29:02Z</time>
      </trkpt>
      <trkpt lat="43.35592" lon="6.1439">
        <ele>426.6</ele>
        <time>2022-05-26T10:29:06Z</time>
      </trkpt>
      <trkpt lat="43.35593" lon="6.144">
        <ele>427</ele>
        <time>2022-05-26T10:29:10Z</time>
      </trkpt>
      <trkpt lat="43.35596" lon="6.14408">
        <ele>427.6</ele>
        <time>2022-05-26T10:29:14Z</time>
      </trkpt>
      <trkpt lat="43.356" lon="6.14416">
        <ele>428</ele>
        <time>2022-05-26T10:29:18Z</time>
      </trkpt>
      <trkpt lat="43.35603" lon="6.14423">
        <ele>428.8</ele>
        <time>2022-05-26T10:29:22Z</time>
      </trkpt>
      <trkpt lat="43.35607" lon="6.14434">
        <ele>429.4</ele>
        <time>2022-05-26T10:29:27Z</time>
      </trkpt>
      <trkpt lat="43.3561" lon="6.1445">
        <ele>429.8</ele>
        <time>2022-05-26T10:29:34Z</time>
      </trkpt>
      <trkpt lat="43.35611" lon="6.14455">
        <ele>429.8</ele>
        <time>2022-05-26T10:29:36Z</time>
      </trkpt>
      <trkpt lat="43.3561" lon="6.14462">
        <ele>430.2</ele>
        <time>2022-05-26T10:29:39Z</time>
      </trkpt>
      <trkpt lat="43.35609" lon="6.14464">
        <ele>430.2</ele>
        <time>2022-05-26T10:29:40Z</time>
      </trkpt>
      <trkpt lat="43.35599" lon="6.14469">
        <ele>430.8</ele>
        <time>2022-05-26T10:29:46Z</time>
      </trkpt>
      <trkpt lat="43.35597" lon="6.1447">
        <ele>430.8</ele>
        <time>2022-05-26T10:29:47Z</time>
      </trkpt>
      <trkpt lat="43.35586" lon="6.1447">
        <ele>431.4</ele>
        <time>2022-05-26T10:29:53Z</time>
      </trkpt>
      <trkpt lat="43.35577" lon="6.1447">
        <ele>432</ele>
        <time>2022-05-26T10:29:58Z</time>
      </trkpt>
      <trkpt lat="43.35572" lon="6.1447">
        <ele>432.4</ele>
        <time>2022-05-26T10:30:01Z</time>
      </trkpt>
      <trkpt lat="43.35559" lon="6.14471">
        <ele>433.2</ele>
        <time>2022-05-26T10:30:08Z</time>
      </trkpt>
      <trkpt lat="43.35558" lon="6.14471">
        <ele>433.2</ele>
        <time>2022-05-26T10:30:09Z</time>
      </trkpt>
      <trkpt lat="43.35544" lon="6.14475">
        <ele>434</ele>
        <time>2022-05-26T10:30:18Z</time>
      </trkpt>
      <trkpt lat="43.35539" lon="6.14476">
        <ele>434.2</ele>
        <time>2022-05-26T10:30:21Z</time>
      </trkpt>
      <trkpt lat="43.35523" lon="6.1448">
        <ele>435</ele>
        <time>2022-05-26T10:30:30Z</time>
      </trkpt>
      <trkpt lat="43.35518" lon="6.14483">
        <ele>435.4</ele>
        <time>2022-05-26T10:30:33Z</time>
      </trkpt>
      <trkpt lat="43.35508" lon="6.14492">
        <ele>435.8</ele>
        <time>2022-05-26T10:30:39Z</time>
      </trkpt>
      <trkpt lat="43.35497" lon="6.14505">
        <ele>436.4</ele>
        <time>2022-05-26T10:30:46Z</time>
      </trkpt>
      <trkpt lat="43.35496" lon="6.14507">
        <ele>436.6</ele>
        <time>2022-05-26T10:30:47Z</time>
      </trkpt>
      <trkpt lat="43.3549" lon="6.14523">
        <ele>437.2</ele>
        <time>2022-05-26T10:30:53Z</time>
      </trkpt>
      <trkpt lat="43.35493" lon="6.14539">
        <ele>437.6</ele>
        <time>2022-05-26T10:30:59Z</time>
      </trkpt>
      <trkpt lat="43.35494" lon="6.14542">
        <ele>437.6</ele>
        <time>2022-05-26T10:31:00Z</time>
      </trkpt>
      <trkpt lat="43.355" lon="6.14558">
        <ele>438.2</ele>
        <time>2022-05-26T10:31:06Z</time>
      </trkpt>
      <trkpt lat="43.35504" lon="6.14567">
        <ele>438.8</ele>
        <time>2022-05-26T10:31:10Z</time>
      </trkpt>
      <trkpt lat="43.35507" lon="6.14574">
        <ele>439</ele>
        <time>2022-05-26T10:31:13Z</time>
      </trkpt>
      <trkpt lat="43.35517" lon="6.14595">
        <ele>439.8</ele>
        <time>2022-05-26T10:31:22Z</time>
      </trkpt>
      <trkpt lat="43.35528" lon="6.14609">
        <ele>440.4</ele>
        <time>2022-05-26T10:31:30Z</time>
      </trkpt>
      <trkpt lat="43.35537" lon="6.14617">
        <ele>440.8</ele>
        <time>2022-05-26T10:31:36Z</time>
      </trkpt>
      <trkpt lat="43.3554" lon="6.14621">
        <ele>441.4</ele>
        <time>2022-05-26T10:31:38Z</time>
      </trkpt>
      <trkpt lat="43.35552" lon="6.14631">
        <ele>442</ele>
        <time>2022-05-26T10:31:46Z</time>
      </trkpt>
      <trkpt lat="43.35553" lon="6.14633">
        <ele>442</ele>
        <time>2022-05-26T10:31:47Z</time>
      </trkpt>
      <trkpt lat="43.35564" lon="6.14641">
        <ele>442.4</ele>
        <time>2022-05-26T10:31:54Z</time>
      </trkpt>
      <trkpt lat="43.35573" lon="6.14649">
        <ele>443</ele>
        <time>2022-05-26T10:32:00Z</time>
      </trkpt>
      <trkpt lat="43.3558" lon="6.14655">
        <ele>443.6</ele>
        <time>2022-05-26T10:32:04Z</time>
      </trkpt>
      <trkpt lat="43.35586" lon="6.1466">
        <ele>444</ele>
        <time>2022-05-26T10:32:08Z</time>
      </trkpt>
      <trkpt lat="43.35593" lon="6.14669">
        <ele>444.2</ele>
        <time>2022-05-26T10:32:14Z</time>
      </trkpt>
      <trkpt lat="43.35602" lon="6.14682">
        <ele>445</ele>
        <time>2022-05-26T10:32:21Z</time>
      </trkpt>
      <trkpt lat="43.35605" lon="6.14689">
        <ele>445.4</ele>
        <time>2022-05-26T10:32:24Z</time>
      </trkpt>
      <trkpt lat="43.35607" lon="6.14699">
        <ele>446</ele>
        <time>2022-05-26T10:32:28Z</time>
      </trkpt>
      <trkpt lat="43.3561" lon="6.14709">
        <ele>446.4</ele>
        <time>2022-05-26T10:32:32Z</time>
      </trkpt>
      <trkpt lat="43.35611" lon="6.14723">
        <ele>447.2</ele>
        <time>2022-05-26T10:32:38Z</time>
      </trkpt>
      <trkpt lat="43.35611" lon="6.14726">
        <ele>447.2</ele>
        <time>2022-05-26T10:32:39Z</time>
      </trkpt>
      <trkpt lat="43.3561" lon="6.14733">
        <ele>447.4</ele>
        <time>2022-05-26T10:32:42Z</time>
      </trkpt>
      <trkpt lat="43.35609" lon="6.14738">
        <ele>447.6</ele>
        <time>2022-05-26T10:32:44Z</time>
      </trkpt>
      <trkpt lat="43.35603" lon="6.14749">
        <ele>448.4</ele>
        <time>2022-05-26T10:32:50Z</time>
      </trkpt>
      <trkpt lat="43.35599" lon="6.14753">
        <ele>449</ele>
        <time>2022-05-26T10:32:53Z</time>
      </trkpt>
      <trkpt lat="43.35594" lon="6.14758">
        <ele>449.6</ele>
        <time>2022-05-26T10:32:57Z</time>
      </trkpt>
      <trkpt lat="43.35588" lon="6.14763">
        <ele>449.8</ele>
        <time>2022-05-26T10:33:01Z</time>
      </trkpt>
      <trkpt lat="43.35577" lon="6.14773">
        <ele>450.2</ele>
        <time>2022-05-26T10:33:09Z</time>
      </trkpt>
      <trkpt lat="43.35572" lon="6.14776">
        <ele>450.6</ele>
        <time>2022-05-26T10:33:12Z</time>
      </trkpt>
      <trkpt lat="43.35567" lon="6.14781">
        <ele>451</ele>
        <time>2022-05-26T10:33:15Z</time>
      </trkpt>
      <trkpt lat="43.3556" lon="6.14795">
        <ele>451.6</ele>
        <time>2022-05-26T10:33:22Z</time>
      </trkpt>
      <trkpt lat="43.35559" lon="6.14797">
        <ele>451.6</ele>
        <time>2022-05-26T10:33:23Z</time>
      </trkpt>
      <trkpt lat="43.35558" lon="6.14805">
        <ele>452</ele>
        <time>2022-05-26T10:33:26Z</time>
      </trkpt>
      <trkpt lat="43.35558" lon="6.14807">
        <ele>452.2</ele>
        <time>2022-05-26T10:33:27Z</time>
      </trkpt>
      <trkpt lat="43.35559" lon="6.1481">
        <ele>452.2</ele>
        <time>2022-05-26T10:33:28Z</time>
      </trkpt>
      <trkpt lat="43.35562" lon="6.14817">
        <ele>452.6</ele>
        <time>2022-05-26T10:33:31Z</time>
      </trkpt>
      <trkpt lat="43.35566" lon="6.14823">
        <ele>453.2</ele>
        <time>2022-05-26T10:33:34Z</time>
      </trkpt>
      <trkpt lat="43.35582" lon="6.14833">
        <ele>453.6</ele>
        <time>2022-05-26T10:33:42Z</time>
      </trkpt>
      <trkpt lat="43.35591" lon="6.14837">
        <ele>453.8</ele>
        <time>2022-05-26T10:33:46Z</time>
      </trkpt>
      <trkpt lat="43.35601" lon="6.14844">
        <ele>454</ele>
        <time>2022-05-26T10:33:50Z</time>
      </trkpt>
      <trkpt lat="43.35618" lon="6.14855">
        <ele>453.8</ele>
        <time>2022-05-26T10:33:56Z</time>
      </trkpt>
      <trkpt lat="43.35624" lon="6.14858">
        <ele>453.8</ele>
        <time>2022-05-26T10:33:58Z</time>
      </trkpt>
      <trkpt lat="43.35633" lon="6.14859">
        <ele>453.6</ele>
        <time>2022-05-26T10:34:00Z</time>
      </trkpt>
      <trkpt lat="43.35637" lon="6.1486">
        <ele>453.2</ele>
        <time>2022-05-26T10:34:01Z</time>
      </trkpt>
      <trkpt lat="43.35647" lon="6.14864">
        <ele>453</ele>
        <time>2022-05-26T10:34:03Z</time>
      </trkpt>
      <trkpt lat="43.3566" lon="6.14869">
        <ele>453</ele>
        <time>2022-05-26T10:34:06Z</time>
      </trkpt>
      <trkpt lat="43.35668" lon="6.14873">
        <ele>452.6</ele>
        <time>2022-05-26T10:34:08Z</time>
      </trkpt>
      <trkpt lat="43.35675" lon="6.14876">
        <ele>452.6</ele>
        <time>2022-05-26T10:34:10Z</time>
      </trkpt>
      <trkpt lat="43.35687" lon="6.14882">
        <ele>452.4</ele>
        <time>2022-05-26T10:34:15Z</time>
      </trkpt>
      <trkpt lat="43.35692" lon="6.14886">
        <ele>452.6</ele>
        <time>2022-05-26T10:34:17Z</time>
      </trkpt>
      <trkpt lat="43.35694" lon="6.14887">
        <ele>452.8</ele>
        <time>2022-05-26T10:34:18Z</time>
      </trkpt>
      <trkpt lat="43.35696" lon="6.14889">
        <ele>452.8</ele>
        <time>2022-05-26T10:34:19Z</time>
      </trkpt>
      <trkpt lat="43.35707" lon="6.14902">
        <ele>453</ele>
        <time>2022-05-26T10:34:25Z</time>
      </trkpt>
      <trkpt lat="43.3572" lon="6.14916">
        <ele>453.6</ele>
        <time>2022-05-26T10:34:32Z</time>
      </trkpt>
      <trkpt lat="43.35725" lon="6.14925">
        <ele>454.2</ele>
        <time>2022-05-26T10:34:36Z</time>
      </trkpt>
      <trkpt lat="43.3573" lon="6.14932">
        <ele>454.6</ele>
        <time>2022-05-26T10:34:39Z</time>
      </trkpt>
      <trkpt lat="43.35741" lon="6.1495">
        <ele>454.8</ele>
        <time>2022-05-26T10:34:47Z</time>
      </trkpt>
      <trkpt lat="43.35747" lon="6.14958">
        <ele>455.2</ele>
        <time>2022-05-26T10:34:51Z</time>
      </trkpt>
      <trkpt lat="43.3575" lon="6.14963">
        <ele>455.6</ele>
        <time>2022-05-26T10:34:53Z</time>
      </trkpt>
      <trkpt lat="43.35759" lon="6.1498">
        <ele>456</ele>
        <time>2022-05-26T10:35:00Z</time>
      </trkpt>
      <trkpt lat="43.35765" lon="6.14992">
        <ele>456.8</ele>
        <time>2022-05-26T10:35:05Z</time>
      </trkpt>
      <trkpt lat="43.35767" lon="6.14999">
        <ele>457</ele>
        <time>2022-05-26T10:35:07Z</time>
      </trkpt>
      <trkpt lat="43.35773" lon="6.15017">
        <ele>457.4</ele>
        <time>2022-05-26T10:35:13Z</time>
      </trkpt>
      <trkpt lat="43.35779" lon="6.15036">
        <ele>458.2</ele>
        <time>2022-05-26T10:35:20Z</time>
      </trkpt>
      <trkpt lat="43.3578" lon="6.15039">
        <ele>458.2</ele>
        <time>2022-05-26T10:35:21Z</time>
      </trkpt>
      <trkpt lat="43.35786" lon="6.15051">
        <ele>459.2</ele>
        <time>2022-05-26T10:35:26Z</time>
      </trkpt>
      <trkpt lat="43.35789" lon="6.15056">
        <ele>459.4</ele>
        <time>2022-05-26T10:35:28Z</time>
      </trkpt>
      <trkpt lat="43.35804" lon="6.15074">
        <ele>460.2</ele>
        <time>2022-05-26T10:35:37Z</time>
      </trkpt>
      <trkpt lat="43.35805" lon="6.15076">
        <ele>460.2</ele>
        <time>2022-05-26T10:35:38Z</time>
      </trkpt>
      <trkpt lat="43.35819" lon="6.15091">
        <ele>460.8</ele>
        <time>2022-05-26T10:35:46Z</time>
      </trkpt>
      <trkpt lat="43.35829" lon="6.15101">
        <ele>461</ele>
        <time>2022-05-26T10:35:51Z</time>
      </trkpt>
      <trkpt lat="43.35835" lon="6.1511">
        <ele>461.4</ele>
        <time>2022-05-26T10:35:55Z</time>
      </trkpt>
      <trkpt lat="43.35849" lon="6.15126">
        <ele>462.2</ele>
        <time>2022-05-26T10:36:03Z</time>
      </trkpt>
      <trkpt lat="43.35851" lon="6.15128">
        <ele>462.4</ele>
        <time>2022-05-26T10:36:04Z</time>
      </trkpt>
      <trkpt lat="43.35861" lon="6.15139">
        <ele>463.2</ele>
        <time>2022-05-26T10:36:10Z</time>
      </trkpt>
      <trkpt lat="43.35868" lon="6.15147">
        <ele>463.6</ele>
        <time>2022-05-26T10:36:14Z</time>
      </trkpt>
      <trkpt lat="43.35875" lon="6.15155">
        <ele>464</ele>
        <time>2022-05-26T10:36:18Z</time>
      </trkpt>
      <trkpt lat="43.35884" lon="6.15167">
        <ele>464.6</ele>
        <time>2022-05-26T10:36:23Z</time>
      </trkpt>
      <trkpt lat="43.35889" lon="6.15178">
        <ele>464.8</ele>
        <time>2022-05-26T10:36:27Z</time>
      </trkpt>
      <trkpt lat="43.35897" lon="6.15205">
        <ele>465.6</ele>
        <time>2022-05-26T10:36:36Z</time>
      </trkpt>
      <trkpt lat="43.35896" lon="6.15226">
        <ele>466.2</ele>
        <time>2022-05-26T10:36:43Z</time>
      </trkpt>
      <trkpt lat="43.35894" lon="6.15235">
        <ele>466.4</ele>
        <time>2022-05-26T10:36:46Z</time>
      </trkpt>
      <trkpt lat="43.35893" lon="6.15256">
        <ele>467</ele>
        <time>2022-05-26T10:36:52Z</time>
      </trkpt>
      <trkpt lat="43.35893" lon="6.15274">
        <ele>467.8</ele>
        <time>2022-05-26T10:36:57Z</time>
      </trkpt>
      <trkpt lat="43.35895" lon="6.15283">
        <ele>468</ele>
        <time>2022-05-26T10:37:00Z</time>
      </trkpt>
      <trkpt lat="43.35902" lon="6.15302">
        <ele>468.8</ele>
        <time>2022-05-26T10:37:06Z</time>
      </trkpt>
      <trkpt lat="43.35914" lon="6.15314">
        <ele>469.6</ele>
        <time>2022-05-26T10:37:13Z</time>
      </trkpt>
      <trkpt lat="43.35915" lon="6.15315">
        <ele>469.8</ele>
        <time>2022-05-26T10:37:14Z</time>
      </trkpt>
      <trkpt lat="43.35916" lon="6.15316">
        <ele>470</ele>
        <time>2022-05-26T10:37:15Z</time>
      </trkpt>
      <trkpt lat="43.35917" lon="6.15316">
        <ele>470.4</ele>
        <time>2022-05-26T10:37:35Z</time>
      </trkpt>
      <trkpt lat="43.35917" lon="6.15316">
        <ele>470.4</ele>
        <time>2022-05-26T10:37:36Z</time>
      </trkpt>
      <trkpt lat="43.35918" lon="6.15317">
        <ele>470.4</ele>
        <time>2022-05-26T10:37:40Z</time>
      </trkpt>
      <trkpt lat="43.35922" lon="6.15318">
        <ele>470.4</ele>
        <time>2022-05-26T10:37:43Z</time>
      </trkpt>
      <trkpt lat="43.35931" lon="6.15319">
        <ele>470.6</ele>
        <time>2022-05-26T10:37:49Z</time>
      </trkpt>
      <trkpt lat="43.35945" lon="6.15319">
        <ele>470.6</ele>
        <time>2022-05-26T10:37:56Z</time>
      </trkpt>
      <trkpt lat="43.35957" lon="6.15318">
        <ele>470.6</ele>
        <time>2022-05-26T10:38:01Z</time>
      </trkpt>
      <trkpt lat="43.35959" lon="6.15317">
        <ele>470.6</ele>
        <time>2022-05-26T10:38:02Z</time>
      </trkpt>
      <trkpt lat="43.35964" lon="6.15316">
        <ele>470.8</ele>
        <time>2022-05-26T10:38:05Z</time>
      </trkpt>
      <trkpt lat="43.35966" lon="6.15315">
        <ele>471</ele>
        <time>2022-05-26T10:38:06Z</time>
      </trkpt>
      <trkpt lat="43.35968" lon="6.15315">
        <ele>471</ele>
        <time>2022-05-26T10:38:07Z</time>
      </trkpt>
      <trkpt lat="43.3597" lon="6.15315">
        <ele>471</ele>
        <time>2022-05-26T10:38:08Z</time>
      </trkpt>
      <trkpt lat="43.35978" lon="6.15323">
        <ele>471.2</ele>
        <time>2022-05-26T10:38:11Z</time>
      </trkpt>
      <trkpt lat="43.35982" lon="6.15333">
        <ele>471.2</ele>
        <time>2022-05-26T10:38:15Z</time>
      </trkpt>
      <trkpt lat="43.35983" lon="6.15334">
        <ele>471.4</ele>
        <time>2022-05-26T10:38:16Z</time>
      </trkpt>
      <trkpt lat="43.35979" lon="6.15346">
        <ele>471.6</ele>
        <time>2022-05-26T10:38:20Z</time>
      </trkpt>
      <trkpt lat="43.35973" lon="6.15371">
        <ele>471.8</ele>
        <time>2022-05-26T10:38:26Z</time>
      </trkpt>
      <trkpt lat="43.35966" lon="6.15397">
        <ele>471.8</ele>
        <time>2022-05-26T10:38:33Z</time>
      </trkpt>
      <trkpt lat="43.35965" lon="6.15401">
        <ele>471.8</ele>
        <time>2022-05-26T10:38:34Z</time>
      </trkpt>
      <trkpt lat="43.35964" lon="6.1543">
        <ele>472</ele>
        <time>2022-05-26T10:38:40Z</time>
      </trkpt>
      <trkpt lat="43.3597" lon="6.15464">
        <ele>472</ele>
        <time>2022-05-26T10:38:47Z</time>
      </trkpt>
      <trkpt lat="43.35968" lon="6.15492">
        <ele>471.6</ele>
        <time>2022-05-26T10:38:53Z</time>
      </trkpt>
      <trkpt lat="43.35956" lon="6.15515">
        <ele>471.2</ele>
        <time>2022-05-26T10:38:59Z</time>
      </trkpt>
      <trkpt lat="43.35939" lon="6.15534">
        <ele>470.8</ele>
        <time>2022-05-26T10:39:05Z</time>
      </trkpt>
      <trkpt lat="43.35937" lon="6.15538">
        <ele>470.8</ele>
        <time>2022-05-26T10:39:06Z</time>
      </trkpt>
      <trkpt lat="43.35931" lon="6.15554">
        <ele>470.4</ele>
        <time>2022-05-26T10:39:10Z</time>
      </trkpt>
      <trkpt lat="43.35928" lon="6.1558">
        <ele>470.4</ele>
        <time>2022-05-26T10:39:17Z</time>
      </trkpt>
      <trkpt lat="43.35932" lon="6.15601">
        <ele>470.8</ele>
        <time>2022-05-26T10:39:23Z</time>
      </trkpt>
      <trkpt lat="43.35941" lon="6.15618">
        <ele>471</ele>
        <time>2022-05-26T10:39:28Z</time>
      </trkpt>
      <trkpt lat="43.35961" lon="6.15631">
        <ele>470.8</ele>
        <time>2022-05-26T10:39:34Z</time>
      </trkpt>
      <trkpt lat="43.35979" lon="6.15627">
        <ele>470.4</ele>
        <time>2022-05-26T10:39:39Z</time>
      </trkpt>
      <trkpt lat="43.35986" lon="6.15626">
        <ele>470</ele>
        <time>2022-05-26T10:39:41Z</time>
      </trkpt>
      <trkpt lat="43.35995" lon="6.15627">
        <ele>469.6</ele>
        <time>2022-05-26T10:39:43Z</time>
      </trkpt>
      <trkpt lat="43.36003" lon="6.15628">
        <ele>469</ele>
        <time>2022-05-26T10:39:45Z</time>
      </trkpt>
      <trkpt lat="43.36007" lon="6.15628">
        <ele>468.8</ele>
        <time>2022-05-26T10:39:46Z</time>
      </trkpt>
      <trkpt lat="43.36011" lon="6.15628">
        <ele>468.2</ele>
        <time>2022-05-26T10:39:47Z</time>
      </trkpt>
      <trkpt lat="43.36028" lon="6.15628">
        <ele>467.2</ele>
        <time>2022-05-26T10:39:51Z</time>
      </trkpt>
      <trkpt lat="43.36038" lon="6.15626">
        <ele>466.8</ele>
        <time>2022-05-26T10:39:53Z</time>
      </trkpt>
      <trkpt lat="43.36042" lon="6.15625">
        <ele>466.6</ele>
        <time>2022-05-26T10:39:54Z</time>
      </trkpt>
      <trkpt lat="43.36052" lon="6.15623">
        <ele>466.4</ele>
        <time>2022-05-26T10:39:56Z</time>
      </trkpt>
      <trkpt lat="43.36056" lon="6.15623">
        <ele>466.2</ele>
        <time>2022-05-26T10:39:57Z</time>
      </trkpt>
      <trkpt lat="43.3606" lon="6.15624">
        <ele>466.2</ele>
        <time>2022-05-26T10:39:58Z</time>
      </trkpt>
      <trkpt lat="43.36064" lon="6.15626">
        <ele>466</ele>
        <time>2022-05-26T10:39:59Z</time>
      </trkpt>
      <trkpt lat="43.3607" lon="6.15632">
        <ele>465.6</ele>
        <time>2022-05-26T10:40:01Z</time>
      </trkpt>
      <trkpt lat="43.36078" lon="6.15643">
        <ele>465</ele>
        <time>2022-05-26T10:40:04Z</time>
      </trkpt>
      <trkpt lat="43.36081" lon="6.15653">
        <ele>464.6</ele>
        <time>2022-05-26T10:40:06Z</time>
      </trkpt>
      <trkpt lat="43.36082" lon="6.15659">
        <ele>464.4</ele>
        <time>2022-05-26T10:40:07Z</time>
      </trkpt>
      <trkpt lat="43.36083" lon="6.15683">
        <ele>463.8</ele>
        <time>2022-05-26T10:40:11Z</time>
      </trkpt>
      <trkpt lat="43.36081" lon="6.15711">
        <ele>463.4</ele>
        <time>2022-05-26T10:40:16Z</time>
      </trkpt>
      <trkpt lat="43.3608" lon="6.15723">
        <ele>463</ele>
        <time>2022-05-26T10:40:18Z</time>
      </trkpt>
      <trkpt lat="43.36079" lon="6.15729">
        <ele>462.8</ele>
        <time>2022-05-26T10:40:19Z</time>
      </trkpt>
      <trkpt lat="43.36075" lon="6.15746">
        <ele>462.2</ele>
        <time>2022-05-26T10:40:23Z</time>
      </trkpt>
      <trkpt lat="43.36075" lon="6.15748">
        <ele>462</ele>
        <time>2022-05-26T10:40:24Z</time>
      </trkpt>
      <trkpt lat="43.36071" lon="6.15759">
        <ele>461.6</ele>
        <time>2022-05-26T10:40:27Z</time>
      </trkpt>
      <trkpt lat="43.36071" lon="6.15766">
        <ele>461.6</ele>
        <time>2022-05-26T10:40:29Z</time>
      </trkpt>
      <trkpt lat="43.36071" lon="6.1577">
        <ele>461.4</ele>
        <time>2022-05-26T10:40:30Z</time>
      </trkpt>
      <trkpt lat="43.36072" lon="6.1578">
        <ele>461</ele>
        <time>2022-05-26T10:40:33Z</time>
      </trkpt>
      <trkpt lat="43.36072" lon="6.15788">
        <ele>460.6</ele>
        <time>2022-05-26T10:40:35Z</time>
      </trkpt>
      <trkpt lat="43.36073" lon="6.15791">
        <ele>460.2</ele>
        <time>2022-05-26T10:40:36Z</time>
      </trkpt>
      <trkpt lat="43.36075" lon="6.15797">
        <ele>460</ele>
        <time>2022-05-26T10:40:38Z</time>
      </trkpt>
      <trkpt lat="43.36076" lon="6.158">
        <ele>459.6</ele>
        <time>2022-05-26T10:40:40Z</time>
      </trkpt>
      <trkpt lat="43.36076" lon="6.158">
        <ele>459</ele>
        <time>2022-05-26T10:40:42Z</time>
      </trkpt>
      <trkpt lat="43.36076" lon="6.158">
        <ele>458.8</ele>
        <time>2022-05-26T10:40:43Z</time>
      </trkpt>
      <trkpt lat="43.36076" lon="6.158">
        <ele>457.4</ele>
        <time>2022-05-26T10:41:31Z</time>
      </trkpt>
      <trkpt lat="43.36076" lon="6.158">
        <ele>457.4</ele>
        <time>2022-05-26T10:41:32Z</time>
      </trkpt>
      <trkpt lat="43.36079" lon="6.15807">
        <ele>457.6</ele>
        <time>2022-05-26T10:41:38Z</time>
      </trkpt>
      <trkpt lat="43.36093" lon="6.15826">
        <ele>457.4</ele>
        <time>2022-05-26T10:41:43Z</time>
      </trkpt>
      <trkpt lat="43.36106" lon="6.1584">
        <ele>457</ele>
        <time>2022-05-26T10:41:47Z</time>
      </trkpt>
      <trkpt lat="43.36109" lon="6.15843">
        <ele>456.8</ele>
        <time>2022-05-26T10:41:48Z</time>
      </trkpt>
      <trkpt lat="43.36123" lon="6.15852">
        <ele>456.2</ele>
        <time>2022-05-26T10:41:53Z</time>
      </trkpt>
      <trkpt lat="43.36125" lon="6.15853">
        <ele>456.2</ele>
        <time>2022-05-26T10:41:54Z</time>
      </trkpt>
      <trkpt lat="43.36135" lon="6.15855">
        <ele>455.2</ele>
        <time>2022-05-26T10:41:58Z</time>
      </trkpt>
      <trkpt lat="43.36137" lon="6.15854">
        <ele>455</ele>
        <time>2022-05-26T10:41:59Z</time>
      </trkpt>
      <trkpt lat="43.36143" lon="6.15852">
        <ele>454.8</ele>
        <time>2022-05-26T10:42:01Z</time>
      </trkpt>
      <trkpt lat="43.36154" lon="6.15849">
        <ele>454.2</ele>
        <time>2022-05-26T10:42:04Z</time>
      </trkpt>
      <trkpt lat="43.36157" lon="6.15848">
        <ele>454</ele>
        <time>2022-05-26T10:42:05Z</time>
      </trkpt>
      <trkpt lat="43.36179" lon="6.15844">
        <ele>453.4</ele>
        <time>2022-05-26T10:42:10Z</time>
      </trkpt>
      <trkpt lat="43.36189" lon="6.15845">
        <ele>452.8</ele>
        <time>2022-05-26T10:42:12Z</time>
      </trkpt>
      <trkpt lat="43.36193" lon="6.15845">
        <ele>452.6</ele>
        <time>2022-05-26T10:42:13Z</time>
      </trkpt>
      <trkpt lat="43.36202" lon="6.15846">
        <ele>451.8</ele>
        <time>2022-05-26T10:42:15Z</time>
      </trkpt>
      <trkpt lat="43.36212" lon="6.15847">
        <ele>451.4</ele>
        <time>2022-05-26T10:42:18Z</time>
      </trkpt>
      <trkpt lat="43.36221" lon="6.15848">
        <ele>450.8</ele>
        <time>2022-05-26T10:42:21Z</time>
      </trkpt>
      <trkpt lat="43.36236" lon="6.15846">
        <ele>450</ele>
        <time>2022-05-26T10:42:26Z</time>
      </trkpt>
      <trkpt lat="43.36244" lon="6.15839">
        <ele>449.6</ele>
        <time>2022-05-26T10:42:29Z</time>
      </trkpt>
      <trkpt lat="43.36248" lon="6.15832">
        <ele>449.4</ele>
        <time>2022-05-26T10:42:31Z</time>
      </trkpt>
      <trkpt lat="43.36255" lon="6.15817">
        <ele>449</ele>
        <time>2022-05-26T10:42:35Z</time>
      </trkpt>
      <trkpt lat="43.36257" lon="6.15807">
        <ele>448.6</ele>
        <time>2022-05-26T10:42:38Z</time>
      </trkpt>
      <trkpt lat="43.36258" lon="6.15782">
        <ele>447.6</ele>
        <time>2022-05-26T10:42:42Z</time>
      </trkpt>
      <trkpt lat="43.36257" lon="6.15773">
        <ele>447</ele>
        <time>2022-05-26T10:42:44Z</time>
      </trkpt>
      <trkpt lat="43.36256" lon="6.15767">
        <ele>446.8</ele>
        <time>2022-05-26T10:42:45Z</time>
      </trkpt>
      <trkpt lat="43.36256" lon="6.15762">
        <ele>446.2</ele>
        <time>2022-05-26T10:42:47Z</time>
      </trkpt>
      <trkpt lat="43.36251" lon="6.15731">
        <ele>445.4</ele>
        <time>2022-05-26T10:42:52Z</time>
      </trkpt>
      <trkpt lat="43.36248" lon="6.15718">
        <ele>445.2</ele>
        <time>2022-05-26T10:42:55Z</time>
      </trkpt>
      <trkpt lat="43.36249" lon="6.1571">
        <ele>445</ele>
        <time>2022-05-26T10:42:57Z</time>
      </trkpt>
      <trkpt lat="43.3626" lon="6.15697">
        <ele>444.2</ele>
        <time>2022-05-26T10:43:02Z</time>
      </trkpt>
      <trkpt lat="43.36262" lon="6.15695">
        <ele>444.2</ele>
        <time>2022-05-26T10:43:03Z</time>
      </trkpt>
      <trkpt lat="43.36273" lon="6.15685">
        <ele>444</ele>
        <time>2022-05-26T10:43:08Z</time>
      </trkpt>
      <trkpt lat="43.36283" lon="6.1567">
        <ele>444.2</ele>
        <time>2022-05-26T10:43:13Z</time>
      </trkpt>
      <trkpt lat="43.36285" lon="6.15667">
        <ele>444.2</ele>
        <time>2022-05-26T10:43:14Z</time>
      </trkpt>
      <trkpt lat="43.36292" lon="6.15642">
        <ele>444.6</ele>
        <time>2022-05-26T10:43:20Z</time>
      </trkpt>
      <trkpt lat="43.36297" lon="6.15612">
        <ele>444.6</ele>
        <time>2022-05-26T10:43:27Z</time>
      </trkpt>
      <trkpt lat="43.36297" lon="6.15612">
        <ele>444.6</ele>
        <time>2022-05-26T10:43:28Z</time>
      </trkpt>
      <trkpt lat="43.36289" lon="6.1558">
        <ele>444</ele>
        <time>2022-05-26T10:43:34Z</time>
      </trkpt>
      <trkpt lat="43.36288" lon="6.15571">
        <ele>443</ele>
        <time>2022-05-26T10:43:37Z</time>
      </trkpt>
      <trkpt lat="43.3629" lon="6.15556">
        <ele>442.8</ele>
        <time>2022-05-26T10:43:39Z</time>
      </trkpt>
      <trkpt lat="43.36293" lon="6.15547">
        <ele>442.6</ele>
        <time>2022-05-26T10:43:41Z</time>
      </trkpt>
      <trkpt lat="43.36301" lon="6.15531">
        <ele>442.2</ele>
        <time>2022-05-26T10:43:45Z</time>
      </trkpt>
      <trkpt lat="43.36301" lon="6.15531">
        <ele>442.2</ele>
        <time>2022-05-26T10:43:46Z</time>
      </trkpt>
      <trkpt lat="43.36304" lon="6.15524">
        <ele>441.8</ele>
        <time>2022-05-26T10:43:47Z</time>
      </trkpt>
      <trkpt lat="43.36315" lon="6.15509">
        <ele>441.8</ele>
        <time>2022-05-26T10:43:51Z</time>
      </trkpt>
      <trkpt lat="43.36325" lon="6.15495">
        <ele>441.8</ele>
        <time>2022-05-26T10:43:56Z</time>
      </trkpt>
      <trkpt lat="43.3634" lon="6.15478">
        <ele>441.6</ele>
        <time>2022-05-26T10:44:02Z</time>
      </trkpt>
      <trkpt lat="43.36353" lon="6.15471">
        <ele>442.2</ele>
        <time>2022-05-26T10:44:07Z</time>
      </trkpt>
      <trkpt lat="43.36366" lon="6.15468">
        <ele>442.6</ele>
        <time>2022-05-26T10:44:13Z</time>
      </trkpt>
      <trkpt lat="43.36372" lon="6.15467">
        <ele>442.8</ele>
        <time>2022-05-26T10:44:16Z</time>
      </trkpt>
      <trkpt lat="43.36375" lon="6.15465">
        <ele>443</ele>
        <time>2022-05-26T10:44:17Z</time>
      </trkpt>
      <trkpt lat="43.36386" lon="6.15453">
        <ele>443.4</ele>
        <time>2022-05-26T10:44:22Z</time>
      </trkpt>
      <trkpt lat="43.36393" lon="6.15444">
        <ele>443.8</ele>
        <time>2022-05-26T10:44:25Z</time>
      </trkpt>
      <trkpt lat="43.36407" lon="6.1542">
        <ele>443.8</ele>
        <time>2022-05-26T10:44:32Z</time>
      </trkpt>
      <trkpt lat="43.3641" lon="6.15415">
        <ele>443.8</ele>
        <time>2022-05-26T10:44:34Z</time>
      </trkpt>
      <trkpt lat="43.36418" lon="6.154">
        <ele>443.8</ele>
        <time>2022-05-26T10:44:38Z</time>
      </trkpt>
      <trkpt lat="43.36438" lon="6.15375">
        <ele>444</ele>
        <time>2022-05-26T10:44:46Z</time>
      </trkpt>
      <trkpt lat="43.36445" lon="6.15372">
        <ele>443.8</ele>
        <time>2022-05-26T10:44:50Z</time>
      </trkpt>
      <trkpt lat="43.36463" lon="6.15361">
        <ele>443.8</ele>
        <time>2022-05-26T10:44:55Z</time>
      </trkpt>
      <trkpt lat="43.36474" lon="6.15347">
        <ele>443.6</ele>
        <time>2022-05-26T10:45:00Z</time>
      </trkpt>
      <trkpt lat="43.36476" lon="6.15345">
        <ele>443.6</ele>
        <time>2022-05-26T10:45:01Z</time>
      </trkpt>
      <trkpt lat="43.3648" lon="6.15346">
        <ele>443.6</ele>
        <time>2022-05-26T10:45:03Z</time>
      </trkpt>
      <trkpt lat="43.36486" lon="6.15352">
        <ele>443.2</ele>
        <time>2022-05-26T10:45:08Z</time>
      </trkpt>
      <trkpt lat="43.36491" lon="6.15358">
        <ele>443</ele>
        <time>2022-05-26T10:45:10Z</time>
      </trkpt>
      <trkpt lat="43.36493" lon="6.1536">
        <ele>442.8</ele>
        <time>2022-05-26T10:45:11Z</time>
      </trkpt>
      <trkpt lat="43.36501" lon="6.15373">
        <ele>442.4</ele>
        <time>2022-05-26T10:45:15Z</time>
      </trkpt>
      <trkpt lat="43.36508" lon="6.15391">
        <ele>441.8</ele>
        <time>2022-05-26T10:45:19Z</time>
      </trkpt>
      <trkpt lat="43.3651" lon="6.15401">
        <ele>441.2</ele>
        <time>2022-05-26T10:45:22Z</time>
      </trkpt>
      <trkpt lat="43.36513" lon="6.15424">
        <ele>440.8</ele>
        <time>2022-05-26T10:45:26Z</time>
      </trkpt>
      <trkpt lat="43.36514" lon="6.15434">
        <ele>440.6</ele>
        <time>2022-05-26T10:45:28Z</time>
      </trkpt>
      <trkpt lat="43.36515" lon="6.15457">
        <ele>440</ele>
        <time>2022-05-26T10:45:32Z</time>
      </trkpt>
      <trkpt lat="43.36515" lon="6.15468">
        <ele>439.8</ele>
        <time>2022-05-26T10:45:34Z</time>
      </trkpt>
      <trkpt lat="43.36514" lon="6.15492">
        <ele>439.4</ele>
        <time>2022-05-26T10:45:38Z</time>
      </trkpt>
      <trkpt lat="43.36515" lon="6.15505">
        <ele>439.4</ele>
        <time>2022-05-26T10:45:40Z</time>
      </trkpt>
      <trkpt lat="43.36516" lon="6.15512">
        <ele>439.2</ele>
        <time>2022-05-26T10:45:41Z</time>
      </trkpt>
      <trkpt lat="43.36516" lon="6.15537">
        <ele>438.8</ele>
        <time>2022-05-26T10:45:45Z</time>
      </trkpt>
      <trkpt lat="43.36516" lon="6.15544">
        <ele>438.6</ele>
        <time>2022-05-26T10:45:46Z</time>
      </trkpt>
      <trkpt lat="43.36516" lon="6.1557">
        <ele>438</ele>
        <time>2022-05-26T10:45:50Z</time>
      </trkpt>
      <trkpt lat="43.36516" lon="6.15595">
        <ele>437.6</ele>
        <time>2022-05-26T10:45:54Z</time>
      </trkpt>
      <trkpt lat="43.36516" lon="6.15595">
        <ele>437.6</ele>
        <time>2022-05-26T10:45:55Z</time>
      </trkpt>
      <trkpt lat="43.36521" lon="6.15628">
        <ele>437.6</ele>
        <time>2022-05-26T10:45:59Z</time>
      </trkpt>
      <trkpt lat="43.36523" lon="6.15641">
        <ele>437.6</ele>
        <time>2022-05-26T10:46:01Z</time>
      </trkpt>
      <trkpt lat="43.36524" lon="6.15654">
        <ele>437.2</ele>
        <time>2022-05-26T10:46:03Z</time>
      </trkpt>
      <trkpt lat="43.36525" lon="6.15661">
        <ele>437.2</ele>
        <time>2022-05-26T10:46:04Z</time>
      </trkpt>
      <trkpt lat="43.36528" lon="6.15674">
        <ele>437</ele>
        <time>2022-05-26T10:46:06Z</time>
      </trkpt>
      <trkpt lat="43.3653" lon="6.1568">
        <ele>437</ele>
        <time>2022-05-26T10:46:07Z</time>
      </trkpt>
      <trkpt lat="43.36531" lon="6.15686">
        <ele>437</ele>
        <time>2022-05-26T10:46:08Z</time>
      </trkpt>
      <trkpt lat="43.36533" lon="6.15698">
        <ele>436.8</ele>
        <time>2022-05-26T10:46:11Z</time>
      </trkpt>
      <trkpt lat="43.36536" lon="6.15723">
        <ele>436.4</ele>
        <time>2022-05-26T10:46:14Z</time>
      </trkpt>
      <trkpt lat="43.3654" lon="6.15744">
        <ele>435.4</ele>
        <time>2022-05-26T10:46:17Z</time>
      </trkpt>
      <trkpt lat="43.36544" lon="6.15765">
        <ele>434.8</ele>
        <time>2022-05-26T10:46:21Z</time>
      </trkpt>
      <trkpt lat="43.3655" lon="6.1578">
        <ele>434.6</ele>
        <time>2022-05-26T10:46:25Z</time>
      </trkpt>
      <trkpt lat="43.36552" lon="6.15783">
        <ele>434.4</ele>
        <time>2022-05-26T10:46:26Z</time>
      </trkpt>
      <trkpt lat="43.36555" lon="6.15785">
        <ele>434.2</ele>
        <time>2022-05-26T10:46:27Z</time>
      </trkpt>
      <trkpt lat="43.36558" lon="6.15786">
        <ele>434</ele>
        <time>2022-05-26T10:46:28Z</time>
      </trkpt>
      <trkpt lat="43.36572" lon="6.15784">
        <ele>433.4</ele>
        <time>2022-05-26T10:46:33Z</time>
      </trkpt>
      <trkpt lat="43.3658" lon="6.15781">
        <ele>433.2</ele>
        <time>2022-05-26T10:46:34Z</time>
      </trkpt>
      <trkpt lat="43.3659" lon="6.15775">
        <ele>433</ele>
        <time>2022-05-26T10:46:37Z</time>
      </trkpt>
      <trkpt lat="43.36598" lon="6.15774">
        <ele>432.8</ele>
        <time>2022-05-26T10:46:39Z</time>
      </trkpt>
      <trkpt lat="43.36602" lon="6.15775">
        <ele>432.8</ele>
        <time>2022-05-26T10:46:40Z</time>
      </trkpt>
      <trkpt lat="43.36617" lon="6.15784">
        <ele>432.2</ele>
        <time>2022-05-26T10:46:44Z</time>
      </trkpt>
      <trkpt lat="43.36633" lon="6.15799">
        <ele>431.8</ele>
        <time>2022-05-26T10:46:49Z</time>
      </trkpt>
      <trkpt lat="43.3665" lon="6.15809">
        <ele>431.4</ele>
        <time>2022-05-26T10:46:53Z</time>
      </trkpt>
      <trkpt lat="43.36658" lon="6.15816">
        <ele>431.2</ele>
        <time>2022-05-26T10:46:55Z</time>
      </trkpt>
      <trkpt lat="43.36664" lon="6.15826">
        <ele>430.8</ele>
        <time>2022-05-26T10:46:57Z</time>
      </trkpt>
      <trkpt lat="43.36671" lon="6.15842">
        <ele>430.6</ele>
        <time>2022-05-26T10:47:00Z</time>
      </trkpt>
      <trkpt lat="43.36676" lon="6.15858">
        <ele>430.2</ele>
        <time>2022-05-26T10:47:03Z</time>
      </trkpt>
      <trkpt lat="43.36679" lon="6.15868">
        <ele>430</ele>
        <time>2022-05-26T10:47:05Z</time>
      </trkpt>
      <trkpt lat="43.36681" lon="6.15873">
        <ele>429.8</ele>
        <time>2022-05-26T10:47:06Z</time>
      </trkpt>
      <trkpt lat="43.36688" lon="6.15884">
        <ele>429.6</ele>
        <time>2022-05-26T10:47:09Z</time>
      </trkpt>
      <trkpt lat="43.36692" lon="6.15886">
        <ele>429.6</ele>
        <time>2022-05-26T10:47:10Z</time>
      </trkpt>
      <trkpt lat="43.36706" lon="6.15884">
        <ele>429.4</ele>
        <time>2022-05-26T10:47:14Z</time>
      </trkpt>
      <trkpt lat="43.36721" lon="6.15867">
        <ele>429</ele>
        <time>2022-05-26T10:47:19Z</time>
      </trkpt>
      <trkpt lat="43.36742" lon="6.15837">
        <ele>428.2</ele>
        <time>2022-05-26T10:47:26Z</time>
      </trkpt>
      <trkpt lat="43.36751" lon="6.15822">
        <ele>427.8</ele>
        <time>2022-05-26T10:47:29Z</time>
      </trkpt>
      <trkpt lat="43.36757" lon="6.15813">
        <ele>427.4</ele>
        <time>2022-05-26T10:47:31Z</time>
      </trkpt>
      <trkpt lat="43.36761" lon="6.15802">
        <ele>427.2</ele>
        <time>2022-05-26T10:47:33Z</time>
      </trkpt>
      <trkpt lat="43.36768" lon="6.15783">
        <ele>426.8</ele>
        <time>2022-05-26T10:47:37Z</time>
      </trkpt>
      <trkpt lat="43.3677" lon="6.1578">
        <ele>426.8</ele>
        <time>2022-05-26T10:47:38Z</time>
      </trkpt>
      <trkpt lat="43.36773" lon="6.15777">
        <ele>426.6</ele>
        <time>2022-05-26T10:47:39Z</time>
      </trkpt>
      <trkpt lat="43.3678" lon="6.15776">
        <ele>426.4</ele>
        <time>2022-05-26T10:47:41Z</time>
      </trkpt>
      <trkpt lat="43.36785" lon="6.1578">
        <ele>426</ele>
        <time>2022-05-26T10:47:43Z</time>
      </trkpt>
      <trkpt lat="43.36792" lon="6.15795">
        <ele>425.8</ele>
        <time>2022-05-26T10:47:47Z</time>
      </trkpt>
      <trkpt lat="43.36794" lon="6.15799">
        <ele>425.6</ele>
        <time>2022-05-26T10:47:48Z</time>
      </trkpt>
      <trkpt lat="43.36802" lon="6.15824">
        <ele>425.2</ele>
        <time>2022-05-26T10:47:53Z</time>
      </trkpt>
      <trkpt lat="43.36805" lon="6.15835">
        <ele>425.2</ele>
        <time>2022-05-26T10:47:55Z</time>
      </trkpt>
      <trkpt lat="43.36808" lon="6.15861">
        <ele>425.2</ele>
        <time>2022-05-26T10:47:59Z</time>
      </trkpt>
      <trkpt lat="43.36814" lon="6.15913">
        <ele>425</ele>
        <time>2022-05-26T10:48:07Z</time>
      </trkpt>
      <trkpt lat="43.36817" lon="6.15958">
        <ele>425</ele>
        <time>2022-05-26T10:48:15Z</time>
      </trkpt>
      <trkpt lat="43.36819" lon="6.15983">
        <ele>425</ele>
        <time>2022-05-26T10:48:19Z</time>
      </trkpt>
      <trkpt lat="43.3682" lon="6.16002">
        <ele>424.8</ele>
        <time>2022-05-26T10:48:22Z</time>
      </trkpt>
      <trkpt lat="43.36822" lon="6.16028">
        <ele>424.8</ele>
        <time>2022-05-26T10:48:26Z</time>
      </trkpt>
      <trkpt lat="43.36823" lon="6.16034">
        <ele>424.8</ele>
        <time>2022-05-26T10:48:27Z</time>
      </trkpt>
      <trkpt lat="43.36822" lon="6.16045">
        <ele>424.6</ele>
        <time>2022-05-26T10:48:29Z</time>
      </trkpt>
      <trkpt lat="43.36821" lon="6.16079">
        <ele>424.6</ele>
        <time>2022-05-26T10:48:36Z</time>
      </trkpt>
      <trkpt lat="43.36819" lon="6.16134">
        <ele>424.4</ele>
        <time>2022-05-26T10:48:45Z</time>
      </trkpt>
      <trkpt lat="43.36821" lon="6.16161">
        <ele>424.2</ele>
        <time>2022-05-26T10:48:51Z</time>
      </trkpt>
      <trkpt lat="43.36829" lon="6.16181">
        <ele>424.2</ele>
        <time>2022-05-26T10:48:57Z</time>
      </trkpt>
      <trkpt lat="43.36837" lon="6.16192">
        <ele>423.6</ele>
        <time>2022-05-26T10:49:00Z</time>
      </trkpt>
      <trkpt lat="43.36844" lon="6.16203">
        <ele>422.8</ele>
        <time>2022-05-26T10:49:04Z</time>
      </trkpt>
      <trkpt lat="43.3685" lon="6.16209">
        <ele>422.4</ele>
        <time>2022-05-26T10:49:07Z</time>
      </trkpt>
      <trkpt lat="43.3686" lon="6.16226">
        <ele>422</ele>
        <time>2022-05-26T10:49:12Z</time>
      </trkpt>
      <trkpt lat="43.36863" lon="6.1624">
        <ele>421.4</ele>
        <time>2022-05-26T10:49:15Z</time>
      </trkpt>
      <trkpt lat="43.36863" lon="6.16255">
        <ele>421.2</ele>
        <time>2022-05-26T10:49:18Z</time>
      </trkpt>
      <trkpt lat="43.36862" lon="6.1626">
        <ele>421</ele>
        <time>2022-05-26T10:49:19Z</time>
      </trkpt>
      <trkpt lat="43.36858" lon="6.16292">
        <ele>421</ele>
        <time>2022-05-26T10:49:25Z</time>
      </trkpt>
      <trkpt lat="43.36857" lon="6.16312">
        <ele>420.8</ele>
        <time>2022-05-26T10:49:29Z</time>
      </trkpt>
      <trkpt lat="43.36854" lon="6.16338">
        <ele>420.6</ele>
        <time>2022-05-26T10:49:33Z</time>
      </trkpt>
      <trkpt lat="43.36847" lon="6.16369">
        <ele>420.8</ele>
        <time>2022-05-26T10:49:38Z</time>
      </trkpt>
      <trkpt lat="43.36845" lon="6.16375">
        <ele>420.6</ele>
        <time>2022-05-26T10:49:39Z</time>
      </trkpt>
      <trkpt lat="43.36843" lon="6.16381">
        <ele>420.4</ele>
        <time>2022-05-26T10:49:40Z</time>
      </trkpt>
      <trkpt lat="43.36842" lon="6.16387">
        <ele>420.4</ele>
        <time>2022-05-26T10:49:41Z</time>
      </trkpt>
      <trkpt lat="43.36841" lon="6.16393">
        <ele>420.6</ele>
        <time>2022-05-26T10:49:42Z</time>
      </trkpt>
      <trkpt lat="43.36838" lon="6.16404">
        <ele>420.4</ele>
        <time>2022-05-26T10:49:44Z</time>
      </trkpt>
      <trkpt lat="43.36832" lon="6.16422">
        <ele>420.2</ele>
        <time>2022-05-26T10:49:47Z</time>
      </trkpt>
      <trkpt lat="43.36829" lon="6.16442">
        <ele>420</ele>
        <time>2022-05-26T10:49:50Z</time>
      </trkpt>
      <trkpt lat="43.36828" lon="6.1646">
        <ele>420</ele>
        <time>2022-05-26T10:49:53Z</time>
      </trkpt>
      <trkpt lat="43.36828" lon="6.16472">
        <ele>419.8</ele>
        <time>2022-05-26T10:49:55Z</time>
      </trkpt>
      <trkpt lat="43.36829" lon="6.16478">
        <ele>419.8</ele>
        <time>2022-05-26T10:49:56Z</time>
      </trkpt>
      <trkpt lat="43.36832" lon="6.16484">
        <ele>419.8</ele>
        <time>2022-05-26T10:49:57Z</time>
      </trkpt>
      <trkpt lat="43.36837" lon="6.16492">
        <ele>419.6</ele>
        <time>2022-05-26T10:49:59Z</time>
      </trkpt>
      <trkpt lat="43.36841" lon="6.16495">
        <ele>419.6</ele>
        <time>2022-05-26T10:50:00Z</time>
      </trkpt>
      <trkpt lat="43.36859" lon="6.16504">
        <ele>419.4</ele>
        <time>2022-05-26T10:50:05Z</time>
      </trkpt>
      <trkpt lat="43.36862" lon="6.16505">
        <ele>419.4</ele>
        <time>2022-05-26T10:50:06Z</time>
      </trkpt>
      <trkpt lat="43.3687" lon="6.1651">
        <ele>419.2</ele>
        <time>2022-05-26T10:50:08Z</time>
      </trkpt>
      <trkpt lat="43.36874" lon="6.16512">
        <ele>419</ele>
        <time>2022-05-26T10:50:09Z</time>
      </trkpt>
      <trkpt lat="43.36882" lon="6.16517">
        <ele>419</ele>
        <time>2022-05-26T10:50:11Z</time>
      </trkpt>
      <trkpt lat="43.3689" lon="6.16525">
        <ele>418.8</ele>
        <time>2022-05-26T10:50:13Z</time>
      </trkpt>
      <trkpt lat="43.36893" lon="6.1653">
        <ele>418.8</ele>
        <time>2022-05-26T10:50:14Z</time>
      </trkpt>
      <trkpt lat="43.36895" lon="6.16536">
        <ele>418.8</ele>
        <time>2022-05-26T10:50:15Z</time>
      </trkpt>
      <trkpt lat="43.36897" lon="6.16548">
        <ele>418.8</ele>
        <time>2022-05-26T10:50:17Z</time>
      </trkpt>
      <trkpt lat="43.36895" lon="6.16589">
        <ele>418.6</ele>
        <time>2022-05-26T10:50:23Z</time>
      </trkpt>
      <trkpt lat="43.36893" lon="6.16601">
        <ele>418.6</ele>
        <time>2022-05-26T10:50:25Z</time>
      </trkpt>
      <trkpt lat="43.36893" lon="6.16646">
        <ele>418.6</ele>
        <time>2022-05-26T10:50:32Z</time>
      </trkpt>
      <trkpt lat="43.36894" lon="6.16684">
        <ele>418.4</ele>
        <time>2022-05-26T10:50:37Z</time>
      </trkpt>
      <trkpt lat="43.36892" lon="6.1672">
        <ele>417.8</ele>
        <time>2022-05-26T10:50:42Z</time>
      </trkpt>
      <trkpt lat="43.36889" lon="6.16733">
        <ele>417.8</ele>
        <time>2022-05-26T10:50:44Z</time>
      </trkpt>
      <trkpt lat="43.36885" lon="6.16744">
        <ele>417.6</ele>
        <time>2022-05-26T10:50:46Z</time>
      </trkpt>
      <trkpt lat="43.36879" lon="6.16755">
        <ele>417.4</ele>
        <time>2022-05-26T10:50:48Z</time>
      </trkpt>
      <trkpt lat="43.36876" lon="6.1676">
        <ele>417.4</ele>
        <time>2022-05-26T10:50:49Z</time>
      </trkpt>
      <trkpt lat="43.36867" lon="6.16777">
        <ele>417</ele>
        <time>2022-05-26T10:50:52Z</time>
      </trkpt>
      <trkpt lat="43.36859" lon="6.16795">
        <ele>417</ele>
        <time>2022-05-26T10:50:55Z</time>
      </trkpt>
      <trkpt lat="43.36841" lon="6.1684">
        <ele>416.4</ele>
        <time>2022-05-26T10:51:02Z</time>
      </trkpt>
      <trkpt lat="43.36834" lon="6.16859">
        <ele>416.2</ele>
        <time>2022-05-26T10:51:05Z</time>
      </trkpt>
      <trkpt lat="43.3683" lon="6.16872">
        <ele>416</ele>
        <time>2022-05-26T10:51:07Z</time>
      </trkpt>
      <trkpt lat="43.36824" lon="6.16891">
        <ele>415.8</ele>
        <time>2022-05-26T10:51:10Z</time>
      </trkpt>
      <trkpt lat="43.36815" lon="6.16928">
        <ele>415.6</ele>
        <time>2022-05-26T10:51:16Z</time>
      </trkpt>
      <trkpt lat="43.36814" lon="6.16935">
        <ele>415.2</ele>
        <time>2022-05-26T10:51:17Z</time>
      </trkpt>
      <trkpt lat="43.36809" lon="6.16963">
        <ele>415.2</ele>
        <time>2022-05-26T10:51:21Z</time>
      </trkpt>
      <trkpt lat="43.36807" lon="6.16991">
        <ele>415.2</ele>
        <time>2022-05-26T10:51:25Z</time>
      </trkpt>
      <trkpt lat="43.36806" lon="6.16998">
        <ele>415</ele>
        <time>2022-05-26T10:51:26Z</time>
      </trkpt>
      <trkpt lat="43.36806" lon="6.17004">
        <ele>415.2</ele>
        <time>2022-05-26T10:51:27Z</time>
      </trkpt>
      <trkpt lat="43.36805" lon="6.17027">
        <ele>414.6</ele>
        <time>2022-05-26T10:51:31Z</time>
      </trkpt>
      <trkpt lat="43.36805" lon="6.17032">
        <ele>414.6</ele>
        <time>2022-05-26T10:51:32Z</time>
      </trkpt>
      <trkpt lat="43.36806" lon="6.17063">
        <ele>414.4</ele>
        <time>2022-05-26T10:51:37Z</time>
      </trkpt>
      <trkpt lat="43.36808" lon="6.17077">
        <ele>414.2</ele>
        <time>2022-05-26T10:51:39Z</time>
      </trkpt>
      <trkpt lat="43.36809" lon="6.17083">
        <ele>414.2</ele>
        <time>2022-05-26T10:51:40Z</time>
      </trkpt>
      <trkpt lat="43.36817" lon="6.17113">
        <ele>414</ele>
        <time>2022-05-26T10:51:45Z</time>
      </trkpt>
      <trkpt lat="43.36817" lon="6.1712">
        <ele>413.8</ele>
        <time>2022-05-26T10:51:46Z</time>
      </trkpt>
      <trkpt lat="43.36819" lon="6.17132">
        <ele>413.8</ele>
        <time>2022-05-26T10:51:48Z</time>
      </trkpt>
      <trkpt lat="43.36826" lon="6.17149">
        <ele>413.8</ele>
        <time>2022-05-26T10:51:51Z</time>
      </trkpt>
      <trkpt lat="43.36831" lon="6.17159">
        <ele>413.6</ele>
        <time>2022-05-26T10:51:53Z</time>
      </trkpt>
      <trkpt lat="43.36838" lon="6.17169">
        <ele>413.6</ele>
        <time>2022-05-26T10:51:55Z</time>
      </trkpt>
      <trkpt lat="43.36842" lon="6.17173">
        <ele>413.6</ele>
        <time>2022-05-26T10:51:56Z</time>
      </trkpt>
      <trkpt lat="43.36846" lon="6.17179">
        <ele>413.6</ele>
        <time>2022-05-26T10:51:57Z</time>
      </trkpt>
      <trkpt lat="43.3685" lon="6.17196">
        <ele>413.2</ele>
        <time>2022-05-26T10:52:00Z</time>
      </trkpt>
      <trkpt lat="43.36848" lon="6.17208">
        <ele>413</ele>
        <time>2022-05-26T10:52:02Z</time>
      </trkpt>
      <trkpt lat="43.36845" lon="6.17215">
        <ele>412.8</ele>
        <time>2022-05-26T10:52:03Z</time>
      </trkpt>
      <trkpt lat="43.3682" lon="6.17254">
        <ele>412.4</ele>
        <time>2022-05-26T10:52:09Z</time>
      </trkpt>
      <trkpt lat="43.36803" lon="6.17287">
        <ele>412.6</ele>
        <time>2022-05-26T10:52:14Z</time>
      </trkpt>
      <trkpt lat="43.368" lon="6.17292">
        <ele>412.4</ele>
        <time>2022-05-26T10:52:15Z</time>
      </trkpt>
      <trkpt lat="43.3678" lon="6.17326">
        <ele>412</ele>
        <time>2022-05-26T10:52:21Z</time>
      </trkpt>
      <trkpt lat="43.36776" lon="6.17332">
        <ele>411.8</ele>
        <time>2022-05-26T10:52:22Z</time>
      </trkpt>
      <trkpt lat="43.36767" lon="6.1735">
        <ele>411.8</ele>
        <time>2022-05-26T10:52:25Z</time>
      </trkpt>
      <trkpt lat="43.36758" lon="6.17367">
        <ele>411.6</ele>
        <time>2022-05-26T10:52:28Z</time>
      </trkpt>
      <trkpt lat="43.36756" lon="6.17373">
        <ele>411.6</ele>
        <time>2022-05-26T10:52:29Z</time>
      </trkpt>
      <trkpt lat="43.36751" lon="6.17392">
        <ele>411.2</ele>
        <time>2022-05-26T10:52:32Z</time>
      </trkpt>
      <trkpt lat="43.36751" lon="6.17398">
        <ele>411.2</ele>
        <time>2022-05-26T10:52:33Z</time>
      </trkpt>
      <trkpt lat="43.36751" lon="6.17411">
        <ele>411.2</ele>
        <time>2022-05-26T10:52:35Z</time>
      </trkpt>
      <trkpt lat="43.36754" lon="6.17431">
        <ele>411.4</ele>
        <time>2022-05-26T10:52:38Z</time>
      </trkpt>
      <trkpt lat="43.36757" lon="6.17442">
        <ele>411.2</ele>
        <time>2022-05-26T10:52:40Z</time>
      </trkpt>
      <trkpt lat="43.36758" lon="6.17457">
        <ele>411.2</ele>
        <time>2022-05-26T10:52:43Z</time>
      </trkpt>
      <trkpt lat="43.36754" lon="6.17477">
        <ele>411.4</ele>
        <time>2022-05-26T10:52:47Z</time>
      </trkpt>
      <trkpt lat="43.36747" lon="6.17508">
        <ele>411.6</ele>
        <time>2022-05-26T10:52:53Z</time>
      </trkpt>
      <trkpt lat="43.36745" lon="6.17518">
        <ele>411.6</ele>
        <time>2022-05-26T10:52:55Z</time>
      </trkpt>
      <trkpt lat="43.36738" lon="6.1754">
        <ele>411.8</ele>
        <time>2022-05-26T10:52:59Z</time>
      </trkpt>
      <trkpt lat="43.36731" lon="6.17554">
        <ele>411.8</ele>
        <time>2022-05-26T10:53:02Z</time>
      </trkpt>
      <trkpt lat="43.36729" lon="6.17559">
        <ele>411.6</ele>
        <time>2022-05-26T10:53:03Z</time>
      </trkpt>
      <trkpt lat="43.36728" lon="6.1757">
        <ele>411.6</ele>
        <time>2022-05-26T10:53:05Z</time>
      </trkpt>
      <trkpt lat="43.36729" lon="6.17575">
        <ele>411.6</ele>
        <time>2022-05-26T10:53:06Z</time>
      </trkpt>
      <trkpt lat="43.3673" lon="6.1758">
        <ele>411.6</ele>
        <time>2022-05-26T10:53:07Z</time>
      </trkpt>
      <trkpt lat="43.36736" lon="6.17599">
        <ele>411.4</ele>
        <time>2022-05-26T10:53:11Z</time>
      </trkpt>
      <trkpt lat="43.36733" lon="6.1762">
        <ele>411.2</ele>
        <time>2022-05-26T10:53:15Z</time>
      </trkpt>
      <trkpt lat="43.36721" lon="6.17644">
        <ele>411.4</ele>
        <time>2022-05-26T10:53:20Z</time>
      </trkpt>
      <trkpt lat="43.36718" lon="6.17648">
        <ele>411.4</ele>
        <time>2022-05-26T10:53:21Z</time>
      </trkpt>
      <trkpt lat="43.36701" lon="6.17675">
        <ele>412</ele>
        <time>2022-05-26T10:53:27Z</time>
      </trkpt>
      <trkpt lat="43.36696" lon="6.17679">
        <ele>412</ele>
        <time>2022-05-26T10:53:28Z</time>
      </trkpt>
      <trkpt lat="43.36691" lon="6.17681">
        <ele>412.2</ele>
        <time>2022-05-26T10:53:29Z</time>
      </trkpt>
      <trkpt lat="43.36673" lon="6.17686">
        <ele>412.2</ele>
        <time>2022-05-26T10:53:33Z</time>
      </trkpt>
      <trkpt lat="43.36664" lon="6.17689">
        <ele>412</ele>
        <time>2022-05-26T10:53:35Z</time>
      </trkpt>
      <trkpt lat="43.36646" lon="6.17696">
        <ele>411.2</ele>
        <time>2022-05-26T10:53:39Z</time>
      </trkpt>
      <trkpt lat="43.36628" lon="6.17703">
        <ele>411.2</ele>
        <time>2022-05-26T10:53:43Z</time>
      </trkpt>
      <trkpt lat="43.3662" lon="6.17709">
        <ele>411</ele>
        <time>2022-05-26T10:53:45Z</time>
      </trkpt>
      <trkpt lat="43.36617" lon="6.17714">
        <ele>410.8</ele>
        <time>2022-05-26T10:53:46Z</time>
      </trkpt>
      <trkpt lat="43.36615" lon="6.17719">
        <ele>410.8</ele>
        <time>2022-05-26T10:53:47Z</time>
      </trkpt>
      <trkpt lat="43.36611" lon="6.17729">
        <ele>410.8</ele>
        <time>2022-05-26T10:53:49Z</time>
      </trkpt>
      <trkpt lat="43.36606" lon="6.17751">
        <ele>410.4</ele>
        <time>2022-05-26T10:53:53Z</time>
      </trkpt>
      <trkpt lat="43.36602" lon="6.17768">
        <ele>410.2</ele>
        <time>2022-05-26T10:53:56Z</time>
      </trkpt>
      <trkpt lat="43.36601" lon="6.17774">
        <ele>410.2</ele>
        <time>2022-05-26T10:53:57Z</time>
      </trkpt>
      <trkpt lat="43.36596" lon="6.1779">
        <ele>410.2</ele>
        <time>2022-05-26T10:54:00Z</time>
      </trkpt>
      <trkpt lat="43.3659" lon="6.17799">
        <ele>410.2</ele>
        <time>2022-05-26T10:54:02Z</time>
      </trkpt>
      <trkpt lat="43.36583" lon="6.17807">
        <ele>410.2</ele>
        <time>2022-05-26T10:54:04Z</time>
      </trkpt>
      <trkpt lat="43.36576" lon="6.17814">
        <ele>410.4</ele>
        <time>2022-05-26T10:54:06Z</time>
      </trkpt>
      <trkpt lat="43.3655" lon="6.17832">
        <ele>410.4</ele>
        <time>2022-05-26T10:54:13Z</time>
      </trkpt>
      <trkpt lat="43.36541" lon="6.17842">
        <ele>410.6</ele>
        <time>2022-05-26T10:54:17Z</time>
      </trkpt>
      <trkpt lat="43.36532" lon="6.17859">
        <ele>410.2</ele>
        <time>2022-05-26T10:54:23Z</time>
      </trkpt>
      <trkpt lat="43.36527" lon="6.17872">
        <ele>410.2</ele>
        <time>2022-05-26T10:54:28Z</time>
      </trkpt>
      <trkpt lat="43.36525" lon="6.17884">
        <ele>410.2</ele>
        <time>2022-05-26T10:54:32Z</time>
      </trkpt>
      <trkpt lat="43.36526" lon="6.1789">
        <ele>410.2</ele>
        <time>2022-05-26T10:54:34Z</time>
      </trkpt>
      <trkpt lat="43.3653" lon="6.17918">
        <ele>410.2</ele>
        <time>2022-05-26T10:54:42Z</time>
      </trkpt>
      <trkpt lat="43.36531" lon="6.17927">
        <ele>410</ele>
        <time>2022-05-26T10:54:44Z</time>
      </trkpt>
      <trkpt lat="43.36528" lon="6.17934">
        <ele>410</ele>
        <time>2022-05-26T10:54:46Z</time>
      </trkpt>
      <trkpt lat="43.36526" lon="6.17938">
        <ele>409.8</ele>
        <time>2022-05-26T10:54:47Z</time>
      </trkpt>
      <trkpt lat="43.36517" lon="6.17949">
        <ele>409.6</ele>
        <time>2022-05-26T10:54:50Z</time>
      </trkpt>
      <trkpt lat="43.36512" lon="6.17952">
        <ele>409.6</ele>
        <time>2022-05-26T10:54:51Z</time>
      </trkpt>
      <trkpt lat="43.36499" lon="6.1796">
        <ele>409</ele>
        <time>2022-05-26T10:54:54Z</time>
      </trkpt>
      <trkpt lat="43.36495" lon="6.17964">
        <ele>408.8</ele>
        <time>2022-05-26T10:54:55Z</time>
      </trkpt>
      <trkpt lat="43.36491" lon="6.17969">
        <ele>408.6</ele>
        <time>2022-05-26T10:54:56Z</time>
      </trkpt>
      <trkpt lat="43.36484" lon="6.17979">
        <ele>408.4</ele>
        <time>2022-05-26T10:54:58Z</time>
      </trkpt>
      <trkpt lat="43.36481" lon="6.1799">
        <ele>408.2</ele>
        <time>2022-05-26T10:55:00Z</time>
      </trkpt>
      <trkpt lat="43.3648" lon="6.18001">
        <ele>407.4</ele>
        <time>2022-05-26T10:55:02Z</time>
      </trkpt>
      <trkpt lat="43.36481" lon="6.1801">
        <ele>406.6</ele>
        <time>2022-05-26T10:55:04Z</time>
      </trkpt>
      <trkpt lat="43.36482" lon="6.18015">
        <ele>406.2</ele>
        <time>2022-05-26T10:55:05Z</time>
      </trkpt>
      <trkpt lat="43.36485" lon="6.18029">
        <ele>405</ele>
        <time>2022-05-26T10:55:08Z</time>
      </trkpt>
      <trkpt lat="43.36486" lon="6.18038">
        <ele>404.4</ele>
        <time>2022-05-26T10:55:10Z</time>
      </trkpt>
      <trkpt lat="43.36489" lon="6.18047">
        <ele>404</ele>
        <time>2022-05-26T10:55:12Z</time>
      </trkpt>
      <trkpt lat="43.36492" lon="6.18059">
        <ele>403.4</ele>
        <time>2022-05-26T10:55:15Z</time>
      </trkpt>
      <trkpt lat="43.36495" lon="6.18071">
        <ele>402.4</ele>
        <time>2022-05-26T10:55:18Z</time>
      </trkpt>
      <trkpt lat="43.36496" lon="6.18079">
        <ele>402</ele>
        <time>2022-05-26T10:55:20Z</time>
      </trkpt>
      <trkpt lat="43.36495" lon="6.18092">
        <ele>401.2</ele>
        <time>2022-05-26T10:55:23Z</time>
      </trkpt>
      <trkpt lat="43.36489" lon="6.18106">
        <ele>400.8</ele>
        <time>2022-05-26T10:55:27Z</time>
      </trkpt>
      <trkpt lat="43.36484" lon="6.18123">
        <ele>400.2</ele>
        <time>2022-05-26T10:55:31Z</time>
      </trkpt>
      <trkpt lat="43.36481" lon="6.18133">
        <ele>399.4</ele>
        <time>2022-05-26T10:55:33Z</time>
      </trkpt>
      <trkpt lat="43.36481" lon="6.18138">
        <ele>399</ele>
        <time>2022-05-26T10:55:34Z</time>
      </trkpt>
      <trkpt lat="43.36479" lon="6.18161">
        <ele>398</ele>
        <time>2022-05-26T10:55:39Z</time>
      </trkpt>
      <trkpt lat="43.36478" lon="6.18169">
        <ele>397.4</ele>
        <time>2022-05-26T10:55:41Z</time>
      </trkpt>
      <trkpt lat="43.36477" lon="6.18174">
        <ele>396.8</ele>
        <time>2022-05-26T10:55:42Z</time>
      </trkpt>
      <trkpt lat="43.36472" lon="6.18188">
        <ele>396</ele>
        <time>2022-05-26T10:55:45Z</time>
      </trkpt>
      <trkpt lat="43.36469" lon="6.18192">
        <ele>395.4</ele>
        <time>2022-05-26T10:55:46Z</time>
      </trkpt>
      <trkpt lat="43.36466" lon="6.182">
        <ele>395</ele>
        <time>2022-05-26T10:55:48Z</time>
      </trkpt>
      <trkpt lat="43.36461" lon="6.18209">
        <ele>394.6</ele>
        <time>2022-05-26T10:55:50Z</time>
      </trkpt>
      <trkpt lat="43.36459" lon="6.18215">
        <ele>394.4</ele>
        <time>2022-05-26T10:55:51Z</time>
      </trkpt>
      <trkpt lat="43.36458" lon="6.18221">
        <ele>394.4</ele>
        <time>2022-05-26T10:55:52Z</time>
      </trkpt>
      <trkpt lat="43.36457" lon="6.18246">
        <ele>393.8</ele>
        <time>2022-05-26T10:55:56Z</time>
      </trkpt>
      <trkpt lat="43.36457" lon="6.1826">
        <ele>393.4</ele>
        <time>2022-05-26T10:55:58Z</time>
      </trkpt>
      <trkpt lat="43.36456" lon="6.18279">
        <ele>392.6</ele>
        <time>2022-05-26T10:56:01Z</time>
      </trkpt>
      <trkpt lat="43.36455" lon="6.18291">
        <ele>392</ele>
        <time>2022-05-26T10:56:03Z</time>
      </trkpt>
      <trkpt lat="43.36454" lon="6.18304">
        <ele>391.4</ele>
        <time>2022-05-26T10:56:05Z</time>
      </trkpt>
      <trkpt lat="43.36454" lon="6.18316">
        <ele>391</ele>
        <time>2022-05-26T10:56:07Z</time>
      </trkpt>
      <trkpt lat="43.36454" lon="6.18323">
        <ele>390.6</ele>
        <time>2022-05-26T10:56:08Z</time>
      </trkpt>
      <trkpt lat="43.36454" lon="6.18334">
        <ele>389.8</ele>
        <time>2022-05-26T10:56:10Z</time>
      </trkpt>
      <trkpt lat="43.36454" lon="6.1834">
        <ele>389.6</ele>
        <time>2022-05-26T10:56:11Z</time>
      </trkpt>
      <trkpt lat="43.36454" lon="6.18349">
        <ele>388.8</ele>
        <time>2022-05-26T10:56:13Z</time>
      </trkpt>
      <trkpt lat="43.36453" lon="6.18354">
        <ele>388.4</ele>
        <time>2022-05-26T10:56:14Z</time>
      </trkpt>
      <trkpt lat="43.3645" lon="6.18369">
        <ele>387.2</ele>
        <time>2022-05-26T10:56:17Z</time>
      </trkpt>
      <trkpt lat="43.36446" lon="6.18378">
        <ele>386.6</ele>
        <time>2022-05-26T10:56:19Z</time>
      </trkpt>
      <trkpt lat="43.36441" lon="6.18387">
        <ele>386.2</ele>
        <time>2022-05-26T10:56:21Z</time>
      </trkpt>
      <trkpt lat="43.36431" lon="6.18401">
        <ele>385.4</ele>
        <time>2022-05-26T10:56:25Z</time>
      </trkpt>
      <trkpt lat="43.36428" lon="6.18405">
        <ele>385.2</ele>
        <time>2022-05-26T10:56:26Z</time>
      </trkpt>
      <trkpt lat="43.36418" lon="6.18413">
        <ele>383.8</ele>
        <time>2022-05-26T10:56:29Z</time>
      </trkpt>
      <trkpt lat="43.36411" lon="6.18419">
        <ele>383.2</ele>
        <time>2022-05-26T10:56:31Z</time>
      </trkpt>
      <trkpt lat="43.36404" lon="6.18423">
        <ele>382.6</ele>
        <time>2022-05-26T10:56:33Z</time>
      </trkpt>
      <trkpt lat="43.36397" lon="6.18426">
        <ele>381.6</ele>
        <time>2022-05-26T10:56:36Z</time>
      </trkpt>
      <trkpt lat="43.3639" lon="6.1843">
        <ele>381.4</ele>
        <time>2022-05-26T10:56:37Z</time>
      </trkpt>
      <trkpt lat="43.36381" lon="6.18439">
        <ele>380.2</ele>
        <time>2022-05-26T10:56:40Z</time>
      </trkpt>
      <trkpt lat="43.36378" lon="6.18443">
        <ele>380</ele>
        <time>2022-05-26T10:56:41Z</time>
      </trkpt>
      <trkpt lat="43.36374" lon="6.18452">
        <ele>379</ele>
        <time>2022-05-26T10:56:43Z</time>
      </trkpt>
      <trkpt lat="43.36372" lon="6.18458">
        <ele>378.4</ele>
        <time>2022-05-26T10:56:45Z</time>
      </trkpt>
      <trkpt lat="43.36371" lon="6.18473">
        <ele>377.8</ele>
        <time>2022-05-26T10:56:47Z</time>
      </trkpt>
      <trkpt lat="43.3637" lon="6.18479">
        <ele>377.6</ele>
        <time>2022-05-26T10:56:48Z</time>
      </trkpt>
      <trkpt lat="43.3637" lon="6.1849">
        <ele>376.8</ele>
        <time>2022-05-26T10:56:50Z</time>
      </trkpt>
      <trkpt lat="43.3637" lon="6.18502">
        <ele>376.4</ele>
        <time>2022-05-26T10:56:52Z</time>
      </trkpt>
      <trkpt lat="43.3637" lon="6.18514">
        <ele>375.8</ele>
        <time>2022-05-26T10:56:54Z</time>
      </trkpt>
      <trkpt lat="43.3637" lon="6.1852">
        <ele>375.6</ele>
        <time>2022-05-26T10:56:55Z</time>
      </trkpt>
      <trkpt lat="43.3637" lon="6.18531">
        <ele>374.8</ele>
        <time>2022-05-26T10:56:57Z</time>
      </trkpt>
      <trkpt lat="43.3637" lon="6.18536">
        <ele>374.6</ele>
        <time>2022-05-26T10:56:58Z</time>
      </trkpt>
      <trkpt lat="43.36375" lon="6.18551">
        <ele>373.6</ele>
        <time>2022-05-26T10:57:01Z</time>
      </trkpt>
      <trkpt lat="43.3638" lon="6.18556">
        <ele>373.2</ele>
        <time>2022-05-26T10:57:03Z</time>
      </trkpt>
      <trkpt lat="43.36383" lon="6.18556">
        <ele>373</ele>
        <time>2022-05-26T10:57:04Z</time>
      </trkpt>
      <trkpt lat="43.36392" lon="6.18553">
        <ele>372.8</ele>
        <time>2022-05-26T10:57:06Z</time>
      </trkpt>
      <trkpt lat="43.364" lon="6.1855">
        <ele>372.6</ele>
        <time>2022-05-26T10:57:08Z</time>
      </trkpt>
      <trkpt lat="43.36403" lon="6.18549">
        <ele>372.4</ele>
        <time>2022-05-26T10:57:09Z</time>
      </trkpt>
      <trkpt lat="43.36417" lon="6.18545">
        <ele>372</ele>
        <time>2022-05-26T10:57:12Z</time>
      </trkpt>
      <trkpt lat="43.36421" lon="6.18543">
        <ele>371.8</ele>
        <time>2022-05-26T10:57:13Z</time>
      </trkpt>
      <trkpt lat="43.36424" lon="6.18543">
        <ele>371.6</ele>
        <time>2022-05-26T10:57:14Z</time>
      </trkpt>
      <trkpt lat="43.36439" lon="6.1854">
        <ele>370.4</ele>
        <time>2022-05-26T10:57:17Z</time>
      </trkpt>
      <trkpt lat="43.36444" lon="6.18539">
        <ele>370</ele>
        <time>2022-05-26T10:57:18Z</time>
      </trkpt>
      <trkpt lat="43.36453" lon="6.18537">
        <ele>369.6</ele>
        <time>2022-05-26T10:57:20Z</time>
      </trkpt>
      <trkpt lat="43.36459" lon="6.18535">
        <ele>369.4</ele>
        <time>2022-05-26T10:57:21Z</time>
      </trkpt>
      <trkpt lat="43.36482" lon="6.18528">
        <ele>368.4</ele>
        <time>2022-05-26T10:57:25Z</time>
      </trkpt>
      <trkpt lat="43.36488" lon="6.18526">
        <ele>368.2</ele>
        <time>2022-05-26T10:57:26Z</time>
      </trkpt>
      <trkpt lat="43.36504" lon="6.1852">
        <ele>367</ele>
        <time>2022-05-26T10:57:29Z</time>
      </trkpt>
      <trkpt lat="43.36512" lon="6.18518">
        <ele>365.6</ele>
        <time>2022-05-26T10:57:31Z</time>
      </trkpt>
      <trkpt lat="43.36518" lon="6.18517">
        <ele>365</ele>
        <time>2022-05-26T10:57:32Z</time>
      </trkpt>
      <trkpt lat="43.36523" lon="6.18518">
        <ele>364.8</ele>
        <time>2022-05-26T10:57:33Z</time>
      </trkpt>
      <trkpt lat="43.36528" lon="6.18518">
        <ele>364</ele>
        <time>2022-05-26T10:57:34Z</time>
      </trkpt>
      <trkpt lat="43.36545" lon="6.1852">
        <ele>362.6</ele>
        <time>2022-05-26T10:57:37Z</time>
      </trkpt>
      <trkpt lat="43.3657" lon="6.18525">
        <ele>361.2</ele>
        <time>2022-05-26T10:57:41Z</time>
      </trkpt>
      <trkpt lat="43.36576" lon="6.18527">
        <ele>360.8</ele>
        <time>2022-05-26T10:57:42Z</time>
      </trkpt>
      <trkpt lat="43.36591" lon="6.1853">
        <ele>360</ele>
        <time>2022-05-26T10:57:45Z</time>
      </trkpt>
      <trkpt lat="43.36596" lon="6.18531">
        <ele>359.4</ele>
        <time>2022-05-26T10:57:46Z</time>
      </trkpt>
      <trkpt lat="43.36599" lon="6.18531">
        <ele>359</ele>
        <time>2022-05-26T10:57:47Z</time>
      </trkpt>
      <trkpt lat="43.36604" lon="6.18531">
        <ele>358.6</ele>
        <time>2022-05-26T10:57:48Z</time>
      </trkpt>
      <trkpt lat="43.36611" lon="6.18532">
        <ele>357.4</ele>
        <time>2022-05-26T10:57:50Z</time>
      </trkpt>
      <trkpt lat="43.3662" lon="6.18535">
        <ele>356.4</ele>
        <time>2022-05-26T10:57:52Z</time>
      </trkpt>
      <trkpt lat="43.36624" lon="6.18538">
        <ele>355.8</ele>
        <time>2022-05-26T10:57:53Z</time>
      </trkpt>
      <trkpt lat="43.3663" lon="6.18541">
        <ele>355</ele>
        <time>2022-05-26T10:57:55Z</time>
      </trkpt>
      <trkpt lat="43.3664" lon="6.1855">
        <ele>353.8</ele>
        <time>2022-05-26T10:57:58Z</time>
      </trkpt>
      <trkpt lat="43.36647" lon="6.18561">
        <ele>352.6</ele>
        <time>2022-05-26T10:58:01Z</time>
      </trkpt>
      <trkpt lat="43.3665" lon="6.18572">
        <ele>351.2</ele>
        <time>2022-05-26T10:58:03Z</time>
      </trkpt>
      <trkpt lat="43.36651" lon="6.18578">
        <ele>351.2</ele>
        <time>2022-05-26T10:58:04Z</time>
      </trkpt>
      <trkpt lat="43.36653" lon="6.1859">
        <ele>350.6</ele>
        <time>2022-05-26T10:58:06Z</time>
      </trkpt>
      <trkpt lat="43.36654" lon="6.18597">
        <ele>350.2</ele>
        <time>2022-05-26T10:58:07Z</time>
      </trkpt>
      <trkpt lat="43.36653" lon="6.18604">
        <ele>350</ele>
        <time>2022-05-26T10:58:08Z</time>
      </trkpt>
      <trkpt lat="43.36649" lon="6.18617">
        <ele>349</ele>
        <time>2022-05-26T10:58:10Z</time>
      </trkpt>
      <trkpt lat="43.36645" lon="6.18636">
        <ele>348.2</ele>
        <time>2022-05-26T10:58:13Z</time>
      </trkpt>
      <trkpt lat="43.36644" lon="6.18643">
        <ele>347.8</ele>
        <time>2022-05-26T10:58:14Z</time>
      </trkpt>
      <trkpt lat="43.3664" lon="6.18655">
        <ele>347.2</ele>
        <time>2022-05-26T10:58:16Z</time>
      </trkpt>
      <trkpt lat="43.36636" lon="6.18663">
        <ele>346.8</ele>
        <time>2022-05-26T10:58:17Z</time>
      </trkpt>
      <trkpt lat="43.36628" lon="6.18683">
        <ele>345.4</ele>
        <time>2022-05-26T10:58:20Z</time>
      </trkpt>
      <trkpt lat="43.36621" lon="6.18697">
        <ele>344.2</ele>
        <time>2022-05-26T10:58:22Z</time>
      </trkpt>
      <trkpt lat="43.36617" lon="6.1871">
        <ele>343.2</ele>
        <time>2022-05-26T10:58:24Z</time>
      </trkpt>
      <trkpt lat="43.36615" lon="6.18717">
        <ele>343</ele>
        <time>2022-05-26T10:58:25Z</time>
      </trkpt>
      <trkpt lat="43.36612" lon="6.18728">
        <ele>341.8</ele>
        <time>2022-05-26T10:58:27Z</time>
      </trkpt>
      <trkpt lat="43.36609" lon="6.18738">
        <ele>340.2</ele>
        <time>2022-05-26T10:58:29Z</time>
      </trkpt>
      <trkpt lat="43.36607" lon="6.18746">
        <ele>339.2</ele>
        <time>2022-05-26T10:58:31Z</time>
      </trkpt>
      <trkpt lat="43.36606" lon="6.1876">
        <ele>338</ele>
        <time>2022-05-26T10:58:34Z</time>
      </trkpt>
      <trkpt lat="43.36606" lon="6.18768">
        <ele>337.2</ele>
        <time>2022-05-26T10:58:36Z</time>
      </trkpt>
      <trkpt lat="43.3661" lon="6.18777">
        <ele>336.6</ele>
        <time>2022-05-26T10:58:38Z</time>
      </trkpt>
      <trkpt lat="43.36616" lon="6.1878">
        <ele>336</ele>
        <time>2022-05-26T10:58:40Z</time>
      </trkpt>
      <trkpt lat="43.36622" lon="6.18778">
        <ele>335.4</ele>
        <time>2022-05-26T10:58:42Z</time>
      </trkpt>
      <trkpt lat="43.36635" lon="6.18771">
        <ele>334.8</ele>
        <time>2022-05-26T10:58:46Z</time>
      </trkpt>
      <trkpt lat="43.3664" lon="6.18768">
        <ele>334.6</ele>
        <time>2022-05-26T10:58:48Z</time>
      </trkpt>
      <trkpt lat="43.36651" lon="6.18766">
        <ele>333.6</ele>
        <time>2022-05-26T10:58:51Z</time>
      </trkpt>
      <trkpt lat="43.36657" lon="6.18765">
        <ele>333</ele>
        <time>2022-05-26T10:58:53Z</time>
      </trkpt>
      <trkpt lat="43.36667" lon="6.18767">
        <ele>332.4</ele>
        <time>2022-05-26T10:58:56Z</time>
      </trkpt>
      <trkpt lat="43.3667" lon="6.18769">
        <ele>332</ele>
        <time>2022-05-26T10:58:57Z</time>
      </trkpt>
      <trkpt lat="43.36671" lon="6.18772">
        <ele>331.8</ele>
        <time>2022-05-26T10:58:58Z</time>
      </trkpt>
      <trkpt lat="43.36672" lon="6.18775">
        <ele>331.4</ele>
        <time>2022-05-26T10:58:59Z</time>
      </trkpt>
      <trkpt lat="43.36671" lon="6.18778">
        <ele>331.4</ele>
        <time>2022-05-26T10:59:00Z</time>
      </trkpt>
      <trkpt lat="43.36669" lon="6.1878">
        <ele>331</ele>
        <time>2022-05-26T10:59:01Z</time>
      </trkpt>
      <trkpt lat="43.36659" lon="6.18786">
        <ele>330</ele>
        <time>2022-05-26T10:59:06Z</time>
      </trkpt>
      <trkpt lat="43.36647" lon="6.18794">
        <ele>329.2</ele>
        <time>2022-05-26T10:59:10Z</time>
      </trkpt>
      <trkpt lat="43.36644" lon="6.18798">
        <ele>329</ele>
        <time>2022-05-26T10:59:11Z</time>
      </trkpt>
      <trkpt lat="43.36638" lon="6.18809">
        <ele>328.6</ele>
        <time>2022-05-26T10:59:13Z</time>
      </trkpt>
      <trkpt lat="43.36629" lon="6.18831">
        <ele>327.8</ele>
        <time>2022-05-26T10:59:16Z</time>
      </trkpt>
      <trkpt lat="43.36626" lon="6.18838">
        <ele>327.6</ele>
        <time>2022-05-26T10:59:17Z</time>
      </trkpt>
      <trkpt lat="43.36615" lon="6.18858">
        <ele>326.8</ele>
        <time>2022-05-26T10:59:20Z</time>
      </trkpt>
      <trkpt lat="43.3661" lon="6.18864">
        <ele>326.4</ele>
        <time>2022-05-26T10:59:21Z</time>
      </trkpt>
      <trkpt lat="43.36601" lon="6.18874">
        <ele>325.6</ele>
        <time>2022-05-26T10:59:23Z</time>
      </trkpt>
      <trkpt lat="43.36571" lon="6.18906">
        <ele>324.6</ele>
        <time>2022-05-26T10:59:30Z</time>
      </trkpt>
      <trkpt lat="43.36559" lon="6.18924">
        <ele>324.4</ele>
        <time>2022-05-26T10:59:34Z</time>
      </trkpt>
      <trkpt lat="43.36554" lon="6.18934">
        <ele>324.2</ele>
        <time>2022-05-26T10:59:36Z</time>
      </trkpt>
      <trkpt lat="43.36543" lon="6.18964">
        <ele>323.4</ele>
        <time>2022-05-26T10:59:41Z</time>
      </trkpt>
      <trkpt lat="43.36542" lon="6.18971">
        <ele>323.4</ele>
        <time>2022-05-26T10:59:42Z</time>
      </trkpt>
      <trkpt lat="43.36538" lon="6.19017">
        <ele>322.8</ele>
        <time>2022-05-26T10:59:48Z</time>
      </trkpt>
      <trkpt lat="43.36538" lon="6.19025">
        <ele>322.6</ele>
        <time>2022-05-26T10:59:49Z</time>
      </trkpt>
      <trkpt lat="43.36539" lon="6.19034">
        <ele>322.4</ele>
        <time>2022-05-26T10:59:50Z</time>
      </trkpt>
      <trkpt lat="43.36543" lon="6.19067">
        <ele>322</ele>
        <time>2022-05-26T10:59:54Z</time>
      </trkpt>
      <trkpt lat="43.36546" lon="6.19093">
        <ele>321.6</ele>
        <time>2022-05-26T10:59:57Z</time>
      </trkpt>
      <trkpt lat="43.36546" lon="6.19109">
        <ele>321.4</ele>
        <time>2022-05-26T10:59:59Z</time>
      </trkpt>
      <trkpt lat="43.36549" lon="6.19131">
        <ele>320.8</ele>
        <time>2022-05-26T11:00:02Z</time>
      </trkpt>
      <trkpt lat="43.36551" lon="6.19139">
        <ele>320.4</ele>
        <time>2022-05-26T11:00:03Z</time>
      </trkpt>
      <trkpt lat="43.36554" lon="6.19147">
        <ele>320.4</ele>
        <time>2022-05-26T11:00:04Z</time>
      </trkpt>
      <trkpt lat="43.36556" lon="6.19154">
        <ele>320</ele>
        <time>2022-05-26T11:00:05Z</time>
      </trkpt>
      <trkpt lat="43.36563" lon="6.19172">
        <ele>319.6</ele>
        <time>2022-05-26T11:00:08Z</time>
      </trkpt>
      <trkpt lat="43.36568" lon="6.19191">
        <ele>319.4</ele>
        <time>2022-05-26T11:00:12Z</time>
      </trkpt>
      <trkpt lat="43.36572" lon="6.19214">
        <ele>318.6</ele>
        <time>2022-05-26T11:00:17Z</time>
      </trkpt>
      <trkpt lat="43.36572" lon="6.19222">
        <ele>318.2</ele>
        <time>2022-05-26T11:00:19Z</time>
      </trkpt>
      <trkpt lat="43.36573" lon="6.19238">
        <ele>317.8</ele>
        <time>2022-05-26T11:00:22Z</time>
      </trkpt>
      <trkpt lat="43.3658" lon="6.19267">
        <ele>317.2</ele>
        <time>2022-05-26T11:00:27Z</time>
      </trkpt>
      <trkpt lat="43.3659" lon="6.19298">
        <ele>316.6</ele>
        <time>2022-05-26T11:00:32Z</time>
      </trkpt>
      <trkpt lat="43.36593" lon="6.19304">
        <ele>316.6</ele>
        <time>2022-05-26T11:00:33Z</time>
      </trkpt>
      <trkpt lat="43.36597" lon="6.19309">
        <ele>316.2</ele>
        <time>2022-05-26T11:00:34Z</time>
      </trkpt>
      <trkpt lat="43.36611" lon="6.19333">
        <ele>315.6</ele>
        <time>2022-05-26T11:00:38Z</time>
      </trkpt>
      <trkpt lat="43.36617" lon="6.19345">
        <ele>315.4</ele>
        <time>2022-05-26T11:00:40Z</time>
      </trkpt>
      <trkpt lat="43.36623" lon="6.19359">
        <ele>315.2</ele>
        <time>2022-05-26T11:00:42Z</time>
      </trkpt>
      <trkpt lat="43.36624" lon="6.19367">
        <ele>315.2</ele>
        <time>2022-05-26T11:00:43Z</time>
      </trkpt>
      <trkpt lat="43.36624" lon="6.19375">
        <ele>315</ele>
        <time>2022-05-26T11:00:44Z</time>
      </trkpt>
      <trkpt lat="43.36623" lon="6.19407">
        <ele>314.2</ele>
        <time>2022-05-26T11:00:48Z</time>
      </trkpt>
      <trkpt lat="43.36622" lon="6.19415">
        <ele>314</ele>
        <time>2022-05-26T11:00:49Z</time>
      </trkpt>
      <trkpt lat="43.3662" lon="6.1943">
        <ele>313.8</ele>
        <time>2022-05-26T11:00:51Z</time>
      </trkpt>
      <trkpt lat="43.36612" lon="6.19442">
        <ele>313.4</ele>
        <time>2022-05-26T11:00:53Z</time>
      </trkpt>
      <trkpt lat="43.36603" lon="6.19449">
        <ele>313</ele>
        <time>2022-05-26T11:00:55Z</time>
      </trkpt>
      <trkpt lat="43.36598" lon="6.1945">
        <ele>312.8</ele>
        <time>2022-05-26T11:00:56Z</time>
      </trkpt>
      <trkpt lat="43.36593" lon="6.1945">
        <ele>312.6</ele>
        <time>2022-05-26T11:00:57Z</time>
      </trkpt>
      <trkpt lat="43.36584" lon="6.19454">
        <ele>312.2</ele>
        <time>2022-05-26T11:00:59Z</time>
      </trkpt>
      <trkpt lat="43.36576" lon="6.19461">
        <ele>311.6</ele>
        <time>2022-05-26T11:01:01Z</time>
      </trkpt>
      <trkpt lat="43.36569" lon="6.19471">
        <ele>311.4</ele>
        <time>2022-05-26T11:01:03Z</time>
      </trkpt>
      <trkpt lat="43.36565" lon="6.19482">
        <ele>311</ele>
        <time>2022-05-26T11:01:05Z</time>
      </trkpt>
      <trkpt lat="43.36562" lon="6.19489">
        <ele>311</ele>
        <time>2022-05-26T11:01:06Z</time>
      </trkpt>
      <trkpt lat="43.36558" lon="6.19501">
        <ele>310.8</ele>
        <time>2022-05-26T11:01:08Z</time>
      </trkpt>
      <trkpt lat="43.36556" lon="6.19508">
        <ele>310.6</ele>
        <time>2022-05-26T11:01:09Z</time>
      </trkpt>
      <trkpt lat="43.36555" lon="6.19517">
        <ele>310.4</ele>
        <time>2022-05-26T11:01:10Z</time>
      </trkpt>
      <trkpt lat="43.36555" lon="6.19524">
        <ele>310.2</ele>
        <time>2022-05-26T11:01:11Z</time>
      </trkpt>
      <trkpt lat="43.36556" lon="6.19537">
        <ele>310</ele>
        <time>2022-05-26T11:01:13Z</time>
      </trkpt>
      <trkpt lat="43.36559" lon="6.1955">
        <ele>309.8</ele>
        <time>2022-05-26T11:01:15Z</time>
      </trkpt>
      <trkpt lat="43.36561" lon="6.19558">
        <ele>309.8</ele>
        <time>2022-05-26T11:01:16Z</time>
      </trkpt>
      <trkpt lat="43.36567" lon="6.19571">
        <ele>309.6</ele>
        <time>2022-05-26T11:01:18Z</time>
      </trkpt>
      <trkpt lat="43.36581" lon="6.19593">
        <ele>309.2</ele>
        <time>2022-05-26T11:01:22Z</time>
      </trkpt>
      <trkpt lat="43.36595" lon="6.19606">
        <ele>309</ele>
        <time>2022-05-26T11:01:25Z</time>
      </trkpt>
      <trkpt lat="43.36604" lon="6.19612">
        <ele>308.6</ele>
        <time>2022-05-26T11:01:27Z</time>
      </trkpt>
      <trkpt lat="43.36609" lon="6.19615">
        <ele>308.6</ele>
        <time>2022-05-26T11:01:28Z</time>
      </trkpt>
      <trkpt lat="43.36619" lon="6.19617">
        <ele>308.2</ele>
        <time>2022-05-26T11:01:30Z</time>
      </trkpt>
      <trkpt lat="43.36624" lon="6.19617">
        <ele>308.2</ele>
        <time>2022-05-26T11:01:31Z</time>
      </trkpt>
      <trkpt lat="43.36628" lon="6.19616">
        <ele>308</ele>
        <time>2022-05-26T11:01:32Z</time>
      </trkpt>
      <trkpt lat="43.36648" lon="6.19607">
        <ele>307.8</ele>
        <time>2022-05-26T11:01:36Z</time>
      </trkpt>
      <trkpt lat="43.36652" lon="6.19605">
        <ele>307.8</ele>
        <time>2022-05-26T11:01:37Z</time>
      </trkpt>
      <trkpt lat="43.36663" lon="6.19607">
        <ele>307.6</ele>
        <time>2022-05-26T11:01:39Z</time>
      </trkpt>
      <trkpt lat="43.36667" lon="6.1961">
        <ele>307.4</ele>
        <time>2022-05-26T11:01:40Z</time>
      </trkpt>
      <trkpt lat="43.36672" lon="6.19615">
        <ele>307.2</ele>
        <time>2022-05-26T11:01:41Z</time>
      </trkpt>
      <trkpt lat="43.36681" lon="6.19632">
        <ele>306.8</ele>
        <time>2022-05-26T11:01:44Z</time>
      </trkpt>
      <trkpt lat="43.36687" lon="6.19644">
        <ele>306.4</ele>
        <time>2022-05-26T11:01:46Z</time>
      </trkpt>
      <trkpt lat="43.36688" lon="6.1965">
        <ele>306</ele>
        <time>2022-05-26T11:01:47Z</time>
      </trkpt>
      <trkpt lat="43.3669" lon="6.19657">
        <ele>305.6</ele>
        <time>2022-05-26T11:01:48Z</time>
      </trkpt>
      <trkpt lat="43.36695" lon="6.19675">
        <ele>304.8</ele>
        <time>2022-05-26T11:01:51Z</time>
      </trkpt>
      <trkpt lat="43.36696" lon="6.19683">
        <ele>304.6</ele>
        <time>2022-05-26T11:01:53Z</time>
      </trkpt>
      <trkpt lat="43.367" lon="6.19694">
        <ele>303.6</ele>
        <time>2022-05-26T11:01:56Z</time>
      </trkpt>
      <trkpt lat="43.36703" lon="6.19701">
        <ele>303</ele>
        <time>2022-05-26T11:01:58Z</time>
      </trkpt>
      <trkpt lat="43.36708" lon="6.19708">
        <ele>302.2</ele>
        <time>2022-05-26T11:02:01Z</time>
      </trkpt>
      <trkpt lat="43.36712" lon="6.19712">
        <ele>301.8</ele>
        <time>2022-05-26T11:02:03Z</time>
      </trkpt>
      <trkpt lat="43.36715" lon="6.19719">
        <ele>301</ele>
        <time>2022-05-26T11:02:06Z</time>
      </trkpt>
      <trkpt lat="43.3672" lon="6.19733">
        <ele>299.8</ele>
        <time>2022-05-26T11:02:11Z</time>
      </trkpt>
      <trkpt lat="43.36721" lon="6.19736">
        <ele>299.2</ele>
        <time>2022-05-26T11:02:12Z</time>
      </trkpt>
      <trkpt lat="43.36721" lon="6.1974">
        <ele>298.8</ele>
        <time>2022-05-26T11:02:13Z</time>
      </trkpt>
      <trkpt lat="43.36724" lon="6.19756">
        <ele>297.8</ele>
        <time>2022-05-26T11:02:17Z</time>
      </trkpt>
      <trkpt lat="43.36726" lon="6.19768">
        <ele>296.2</ele>
        <time>2022-05-26T11:02:20Z</time>
      </trkpt>
      <trkpt lat="43.3673" lon="6.19788">
        <ele>294.8</ele>
        <time>2022-05-26T11:02:24Z</time>
      </trkpt>
      <trkpt lat="43.36731" lon="6.19793">
        <ele>294.4</ele>
        <time>2022-05-26T11:02:25Z</time>
      </trkpt>
      <trkpt lat="43.36734" lon="6.19804">
        <ele>293.4</ele>
        <time>2022-05-26T11:02:27Z</time>
      </trkpt>
      <trkpt lat="43.36737" lon="6.19816">
        <ele>292.6</ele>
        <time>2022-05-26T11:02:29Z</time>
      </trkpt>
      <trkpt lat="43.36737" lon="6.19822">
        <ele>292.4</ele>
        <time>2022-05-26T11:02:30Z</time>
      </trkpt>
      <trkpt lat="43.36738" lon="6.19833">
        <ele>292</ele>
        <time>2022-05-26T11:02:32Z</time>
      </trkpt>
      <trkpt lat="43.36738" lon="6.19847">
        <ele>290.8</ele>
        <time>2022-05-26T11:02:35Z</time>
      </trkpt>
      <trkpt lat="43.36738" lon="6.19853">
        <ele>290.6</ele>
        <time>2022-05-26T11:02:36Z</time>
      </trkpt>
      <trkpt lat="43.36738" lon="6.1987">
        <ele>289.8</ele>
        <time>2022-05-26T11:02:39Z</time>
      </trkpt>
      <trkpt lat="43.36739" lon="6.19892">
        <ele>288.8</ele>
        <time>2022-05-26T11:02:43Z</time>
      </trkpt>
      <trkpt lat="43.36739" lon="6.19897">
        <ele>288.6</ele>
        <time>2022-05-26T11:02:44Z</time>
      </trkpt>
      <trkpt lat="43.36739" lon="6.19903">
        <ele>287.2</ele>
        <time>2022-05-26T11:02:46Z</time>
      </trkpt>
      <trkpt lat="43.3674" lon="6.19914">
        <ele>286</ele>
        <time>2022-05-26T11:02:49Z</time>
      </trkpt>
      <trkpt lat="43.36741" lon="6.19928">
        <ele>285</ele>
        <time>2022-05-26T11:02:53Z</time>
      </trkpt>
      <trkpt lat="43.36742" lon="6.19935">
        <ele>284</ele>
        <time>2022-05-26T11:02:56Z</time>
      </trkpt>
      <trkpt lat="43.36742" lon="6.19939">
        <ele>283.6</ele>
        <time>2022-05-26T11:02:57Z</time>
      </trkpt>
      <trkpt lat="43.36743" lon="6.19955">
        <ele>282.2</ele>
        <time>2022-05-26T11:03:02Z</time>
      </trkpt>
      <trkpt lat="43.36745" lon="6.19967">
        <ele>281.2</ele>
        <time>2022-05-26T11:03:05Z</time>
      </trkpt>
      <trkpt lat="43.36746" lon="6.19985">
        <ele>280.2</ele>
        <time>2022-05-26T11:03:09Z</time>
      </trkpt>
      <trkpt lat="43.36746" lon="6.19989">
        <ele>280.2</ele>
        <time>2022-05-26T11:03:10Z</time>
      </trkpt>
      <trkpt lat="43.36743" lon="6.20006">
        <ele>279.2</ele>
        <time>2022-05-26T11:03:13Z</time>
      </trkpt>
      <trkpt lat="43.36743" lon="6.20012">
        <ele>279</ele>
        <time>2022-05-26T11:03:14Z</time>
      </trkpt>
      <trkpt lat="43.36744" lon="6.20019">
        <ele>278.8</ele>
        <time>2022-05-26T11:03:15Z</time>
      </trkpt>
      <trkpt lat="43.36746" lon="6.20034">
        <ele>278.6</ele>
        <time>2022-05-26T11:03:17Z</time>
      </trkpt>
      <trkpt lat="43.36746" lon="6.20043">
        <ele>278.2</ele>
        <time>2022-05-26T11:03:18Z</time>
      </trkpt>
      <trkpt lat="43.36747" lon="6.20051">
        <ele>277.8</ele>
        <time>2022-05-26T11:03:19Z</time>
      </trkpt>
      <trkpt lat="43.36749" lon="6.20065">
        <ele>277.2</ele>
        <time>2022-05-26T11:03:21Z</time>
      </trkpt>
      <trkpt lat="43.3675" lon="6.20081">
        <ele>276.8</ele>
        <time>2022-05-26T11:03:23Z</time>
      </trkpt>
      <trkpt lat="43.36749" lon="6.20089">
        <ele>276.6</ele>
        <time>2022-05-26T11:03:24Z</time>
      </trkpt>
      <trkpt lat="43.36749" lon="6.20095">
        <ele>276.4</ele>
        <time>2022-05-26T11:03:25Z</time>
      </trkpt>
      <trkpt lat="43.36752" lon="6.20115">
        <ele>275.8</ele>
        <time>2022-05-26T11:03:28Z</time>
      </trkpt>
      <trkpt lat="43.36753" lon="6.20121">
        <ele>275.4</ele>
        <time>2022-05-26T11:03:29Z</time>
      </trkpt>
      <trkpt lat="43.36753" lon="6.2013">
        <ele>274.8</ele>
        <time>2022-05-26T11:03:31Z</time>
      </trkpt>
      <trkpt lat="43.36755" lon="6.20134">
        <ele>274.6</ele>
        <time>2022-05-26T11:03:32Z</time>
      </trkpt>
      <trkpt lat="43.36759" lon="6.20155">
        <ele>274</ele>
        <time>2022-05-26T11:03:36Z</time>
      </trkpt>
      <trkpt lat="43.3676" lon="6.20159">
        <ele>273.4</ele>
        <time>2022-05-26T11:03:37Z</time>
      </trkpt>
      <trkpt lat="43.3676" lon="6.20167">
        <ele>272</ele>
        <time>2022-05-26T11:03:39Z</time>
      </trkpt>
      <trkpt lat="43.3676" lon="6.20173">
        <ele>271.2</ele>
        <time>2022-05-26T11:03:41Z</time>
      </trkpt>
      <trkpt lat="43.36761" lon="6.20177">
        <ele>271</ele>
        <time>2022-05-26T11:03:42Z</time>
      </trkpt>
      <trkpt lat="43.36766" lon="6.20188">
        <ele>269.8</ele>
        <time>2022-05-26T11:03:45Z</time>
      </trkpt>
      <trkpt lat="43.36769" lon="6.20194">
        <ele>269.2</ele>
        <time>2022-05-26T11:03:47Z</time>
      </trkpt>
      <trkpt lat="43.36773" lon="6.20197">
        <ele>268.4</ele>
        <time>2022-05-26T11:03:49Z</time>
      </trkpt>
      <trkpt lat="43.36776" lon="6.20199">
        <ele>268</ele>
        <time>2022-05-26T11:03:51Z</time>
      </trkpt>
      <trkpt lat="43.36779" lon="6.20204">
        <ele>267.4</ele>
        <time>2022-05-26T11:03:53Z</time>
      </trkpt>
      <trkpt lat="43.36782" lon="6.20209">
        <ele>266.2</ele>
        <time>2022-05-26T11:03:56Z</time>
      </trkpt>
      <trkpt lat="43.36783" lon="6.20209">
        <ele>265.2</ele>
        <time>2022-05-26T11:03:59Z</time>
      </trkpt>
      <trkpt lat="43.36783" lon="6.20209">
        <ele>265</ele>
        <time>2022-05-26T11:04:00Z</time>
      </trkpt>
      <trkpt lat="43.36783" lon="6.20209">
        <ele>264.2</ele>
        <time>2022-05-26T11:04:08Z</time>
      </trkpt>
      <trkpt lat="43.36783" lon="6.20209">
        <ele>264</ele>
        <time>2022-05-26T11:04:16Z</time>
      </trkpt>
      <trkpt lat="43.36783" lon="6.20209">
        <ele>264</ele>
        <time>2022-05-26T11:04:19Z</time>
      </trkpt>
      <trkpt lat="43.36783" lon="6.20209">
        <ele>264</ele>
        <time>2022-05-26T11:04:22Z</time>
      </trkpt>
      <trkpt lat="43.36784" lon="6.2021">
        <ele>264</ele>
        <time>2022-05-26T11:04:26Z</time>
      </trkpt>
      <trkpt lat="43.36788" lon="6.20211">
        <ele>264</ele>
        <time>2022-05-26T11:04:28Z</time>
      </trkpt>
      <trkpt lat="43.36805" lon="6.20206">
        <ele>263.8</ele>
        <time>2022-05-26T11:04:34Z</time>
      </trkpt>
      <trkpt lat="43.36834" lon="6.20198">
        <ele>264</ele>
        <time>2022-05-26T11:04:43Z</time>
      </trkpt>
      <trkpt lat="43.36856" lon="6.20194">
        <ele>264.4</ele>
        <time>2022-05-26T11:04:49Z</time>
      </trkpt>
      <trkpt lat="43.36863" lon="6.20193">
        <ele>264.6</ele>
        <time>2022-05-26T11:04:51Z</time>
      </trkpt>
      <trkpt lat="43.36875" lon="6.20199">
        <ele>264.6</ele>
        <time>2022-05-26T11:04:55Z</time>
      </trkpt>
      <trkpt lat="43.36877" lon="6.20206">
        <ele>264.8</ele>
        <time>2022-05-26T11:04:58Z</time>
      </trkpt>
      <trkpt lat="43.36876" lon="6.20209">
        <ele>264.8</ele>
        <time>2022-05-26T11:04:59Z</time>
      </trkpt>
      <trkpt lat="43.36875" lon="6.20214">
        <ele>265.2</ele>
        <time>2022-05-26T11:05:01Z</time>
      </trkpt>
      <trkpt lat="43.36869" lon="6.20226">
        <ele>266.2</ele>
        <time>2022-05-26T11:05:06Z</time>
      </trkpt>
      <trkpt lat="43.36869" lon="6.20229">
        <ele>266.4</ele>
        <time>2022-05-26T11:05:07Z</time>
      </trkpt>
      <trkpt lat="43.36866" lon="6.2024">
        <ele>267</ele>
        <time>2022-05-26T11:05:11Z</time>
      </trkpt>
      <trkpt lat="43.36866" lon="6.20242">
        <ele>267.4</ele>
        <time>2022-05-26T11:05:12Z</time>
      </trkpt>
      <trkpt lat="43.36862" lon="6.20254">
        <ele>268.6</ele>
        <time>2022-05-26T11:05:16Z</time>
      </trkpt>
      <trkpt lat="43.36862" lon="6.20257">
        <ele>268.8</ele>
        <time>2022-05-26T11:05:17Z</time>
      </trkpt>
      <trkpt lat="43.36858" lon="6.2027">
        <ele>269.8</ele>
        <time>2022-05-26T11:05:22Z</time>
      </trkpt>
      <trkpt lat="43.36858" lon="6.20273">
        <ele>270</ele>
        <time>2022-05-26T11:05:23Z</time>
      </trkpt>
      <trkpt lat="43.36857" lon="6.20279">
        <ele>270.4</ele>
        <time>2022-05-26T11:05:25Z</time>
      </trkpt>
      <trkpt lat="43.36857" lon="6.20288">
        <ele>270.8</ele>
        <time>2022-05-26T11:05:28Z</time>
      </trkpt>
      <trkpt lat="43.36856" lon="6.20291">
        <ele>271.2</ele>
        <time>2022-05-26T11:05:29Z</time>
      </trkpt>
      <trkpt lat="43.36855" lon="6.20294">
        <ele>271.4</ele>
        <time>2022-05-26T11:05:30Z</time>
      </trkpt>
      <trkpt lat="43.36851" lon="6.20308">
        <ele>272.2</ele>
        <time>2022-05-26T11:05:35Z</time>
      </trkpt>
      <trkpt lat="43.36851" lon="6.20312">
        <ele>272.4</ele>
        <time>2022-05-26T11:05:36Z</time>
      </trkpt>
      <trkpt lat="43.3685" lon="6.20319">
        <ele>272.8</ele>
        <time>2022-05-26T11:05:39Z</time>
      </trkpt>
      <trkpt lat="43.36849" lon="6.2033">
        <ele>273.6</ele>
        <time>2022-05-26T11:05:43Z</time>
      </trkpt>
      <trkpt lat="43.36846" lon="6.20342">
        <ele>274.2</ele>
        <time>2022-05-26T11:05:47Z</time>
      </trkpt>
      <trkpt lat="43.36845" lon="6.20352">
        <ele>274.6</ele>
        <time>2022-05-26T11:05:50Z</time>
      </trkpt>
      <trkpt lat="43.36843" lon="6.20361">
        <ele>275</ele>
        <time>2022-05-26T11:05:53Z</time>
      </trkpt>
      <trkpt lat="43.3684" lon="6.20389">
        <ele>275.6</ele>
        <time>2022-05-26T11:06:01Z</time>
      </trkpt>
      <trkpt lat="43.3684" lon="6.20392">
        <ele>275.8</ele>
        <time>2022-05-26T11:06:02Z</time>
      </trkpt>
      <trkpt lat="43.36838" lon="6.20418">
        <ele>276</ele>
        <time>2022-05-26T11:06:08Z</time>
      </trkpt>
      <trkpt lat="43.36838" lon="6.20447">
        <ele>276.2</ele>
        <time>2022-05-26T11:06:14Z</time>
      </trkpt>
      <trkpt lat="43.36839" lon="6.20465">
        <ele>276.2</ele>
        <time>2022-05-26T11:06:17Z</time>
      </trkpt>
      <trkpt lat="43.36843" lon="6.2049">
        <ele>275.2</ele>
        <time>2022-05-26T11:06:20Z</time>
      </trkpt>
      <trkpt lat="43.36845" lon="6.20519">
        <ele>274.8</ele>
        <time>2022-05-26T11:06:23Z</time>
      </trkpt>
      <trkpt lat="43.36846" lon="6.20531">
        <ele>274.6</ele>
        <time>2022-05-26T11:06:24Z</time>
      </trkpt>
      <trkpt lat="43.36849" lon="6.20564">
        <ele>273.4</ele>
        <time>2022-05-26T11:06:27Z</time>
      </trkpt>
      <trkpt lat="43.36849" lon="6.20587">
        <ele>272</ele>
        <time>2022-05-26T11:06:29Z</time>
      </trkpt>
      <trkpt lat="43.36849" lon="6.206">
        <ele>271.2</ele>
        <time>2022-05-26T11:06:30Z</time>
      </trkpt>
      <trkpt lat="43.36849" lon="6.20612">
        <ele>270.6</ele>
        <time>2022-05-26T11:06:31Z</time>
      </trkpt>
      <trkpt lat="43.36849" lon="6.20634">
        <ele>269.2</ele>
        <time>2022-05-26T11:06:33Z</time>
      </trkpt>
      <trkpt lat="43.36847" lon="6.2066">
        <ele>268.4</ele>
        <time>2022-05-26T11:06:35Z</time>
      </trkpt>
      <trkpt lat="43.36846" lon="6.20683">
        <ele>268</ele>
        <time>2022-05-26T11:06:37Z</time>
      </trkpt>
      <trkpt lat="43.36842" lon="6.20718">
        <ele>267.4</ele>
        <time>2022-05-26T11:06:40Z</time>
      </trkpt>
      <trkpt lat="43.36838" lon="6.20739">
        <ele>266.8</ele>
        <time>2022-05-26T11:06:42Z</time>
      </trkpt>
      <trkpt lat="43.36829" lon="6.20765">
        <ele>266.4</ele>
        <time>2022-05-26T11:06:45Z</time>
      </trkpt>
      <trkpt lat="43.36827" lon="6.20775">
        <ele>265.8</ele>
        <time>2022-05-26T11:06:46Z</time>
      </trkpt>
      <trkpt lat="43.3682" lon="6.20802">
        <ele>264.6</ele>
        <time>2022-05-26T11:06:49Z</time>
      </trkpt>
      <trkpt lat="43.36815" lon="6.20823">
        <ele>264</ele>
        <time>2022-05-26T11:06:51Z</time>
      </trkpt>
      <trkpt lat="43.36812" lon="6.20833">
        <ele>263.4</ele>
        <time>2022-05-26T11:06:52Z</time>
      </trkpt>
      <trkpt lat="43.36808" lon="6.2085">
        <ele>261.4</ele>
        <time>2022-05-26T11:06:54Z</time>
      </trkpt>
      <trkpt lat="43.36805" lon="6.20863">
        <ele>261</ele>
        <time>2022-05-26T11:06:55Z</time>
      </trkpt>
      <trkpt lat="43.36804" lon="6.20875">
        <ele>260.2</ele>
        <time>2022-05-26T11:06:56Z</time>
      </trkpt>
      <trkpt lat="43.36805" lon="6.20884">
        <ele>259.8</ele>
        <time>2022-05-26T11:06:57Z</time>
      </trkpt>
      <trkpt lat="43.36806" lon="6.20894">
        <ele>258.8</ele>
        <time>2022-05-26T11:06:58Z</time>
      </trkpt>
      <trkpt lat="43.36809" lon="6.20915">
        <ele>257.6</ele>
        <time>2022-05-26T11:07:00Z</time>
      </trkpt>
      <trkpt lat="43.36812" lon="6.20929">
        <ele>256.8</ele>
        <time>2022-05-26T11:07:02Z</time>
      </trkpt>
      <trkpt lat="43.36813" lon="6.20933">
        <ele>256</ele>
        <time>2022-05-26T11:07:03Z</time>
      </trkpt>
      <trkpt lat="43.36814" lon="6.20937">
        <ele>255.6</ele>
        <time>2022-05-26T11:07:04Z</time>
      </trkpt>
      <trkpt lat="43.36812" lon="6.20943">
        <ele>254.6</ele>
        <time>2022-05-26T11:07:06Z</time>
      </trkpt>
      <trkpt lat="43.36808" lon="6.20943">
        <ele>254.4</ele>
        <time>2022-05-26T11:07:08Z</time>
      </trkpt>
      <trkpt lat="43.36805" lon="6.2094">
        <ele>254.4</ele>
        <time>2022-05-26T11:07:10Z</time>
      </trkpt>
      <trkpt lat="43.36795" lon="6.20923">
        <ele>255.2</ele>
        <time>2022-05-26T11:07:15Z</time>
      </trkpt>
      <trkpt lat="43.36791" lon="6.20918">
        <ele>255.2</ele>
        <time>2022-05-26T11:07:16Z</time>
      </trkpt>
      <trkpt lat="43.36788" lon="6.20912">
        <ele>255.2</ele>
        <time>2022-05-26T11:07:17Z</time>
      </trkpt>
      <trkpt lat="43.36781" lon="6.20891">
        <ele>255.4</ele>
        <time>2022-05-26T11:07:20Z</time>
      </trkpt>
      <trkpt lat="43.36774" lon="6.20859">
        <ele>254.4</ele>
        <time>2022-05-26T11:07:25Z</time>
      </trkpt>
      <trkpt lat="43.3677" lon="6.20848">
        <ele>254</ele>
        <time>2022-05-26T11:07:27Z</time>
      </trkpt>
      <trkpt lat="43.36767" lon="6.20842">
        <ele>253.8</ele>
        <time>2022-05-26T11:07:28Z</time>
      </trkpt>
      <trkpt lat="43.36764" lon="6.20838">
        <ele>253.6</ele>
        <time>2022-05-26T11:07:29Z</time>
      </trkpt>
      <trkpt lat="43.3676" lon="6.20835">
        <ele>253.4</ele>
        <time>2022-05-26T11:07:30Z</time>
      </trkpt>
      <trkpt lat="43.36756" lon="6.20835">
        <ele>253.2</ele>
        <time>2022-05-26T11:07:31Z</time>
      </trkpt>
      <trkpt lat="43.3675" lon="6.20834">
        <ele>252.6</ele>
        <time>2022-05-26T11:07:32Z</time>
      </trkpt>
      <trkpt lat="43.36737" lon="6.20836">
        <ele>252</ele>
        <time>2022-05-26T11:07:34Z</time>
      </trkpt>
      <trkpt lat="43.36725" lon="6.2084">
        <ele>251.6</ele>
        <time>2022-05-26T11:07:36Z</time>
      </trkpt>
      <trkpt lat="43.36716" lon="6.20843">
        <ele>251.2</ele>
        <time>2022-05-26T11:07:38Z</time>
      </trkpt>
      <trkpt lat="43.36711" lon="6.20844">
        <ele>251</ele>
        <time>2022-05-26T11:07:39Z</time>
      </trkpt>
      <trkpt lat="43.36707" lon="6.20844">
        <ele>251</ele>
        <time>2022-05-26T11:07:40Z</time>
      </trkpt>
      <trkpt lat="43.36691" lon="6.20834">
        <ele>251</ele>
        <time>2022-05-26T11:07:45Z</time>
      </trkpt>
      <trkpt lat="43.36675" lon="6.20819">
        <ele>252.4</ele>
        <time>2022-05-26T11:07:51Z</time>
      </trkpt>
      <trkpt lat="43.3667" lon="6.2081">
        <ele>252.6</ele>
        <time>2022-05-26T11:07:53Z</time>
      </trkpt>
      <trkpt lat="43.3667" lon="6.20804">
        <ele>252.6</ele>
        <time>2022-05-26T11:07:54Z</time>
      </trkpt>
      <trkpt lat="43.3667" lon="6.20797">
        <ele>252.6</ele>
        <time>2022-05-26T11:07:55Z</time>
      </trkpt>
      <trkpt lat="43.36667" lon="6.20784">
        <ele>252.6</ele>
        <time>2022-05-26T11:07:58Z</time>
      </trkpt>
      <trkpt lat="43.36662" lon="6.20766">
        <ele>252.2</ele>
        <time>2022-05-26T11:08:04Z</time>
      </trkpt>
      <trkpt lat="43.3666" lon="6.20762">
        <ele>252.2</ele>
        <time>2022-05-26T11:08:07Z</time>
      </trkpt>
      <trkpt lat="43.36659" lon="6.20763">
        <ele>252.2</ele>
        <time>2022-05-26T11:08:08Z</time>
      </trkpt>
      <trkpt lat="43.36665" lon="6.20778">
        <ele>252.2</ele>
        <time>2022-05-26T11:08:14Z</time>
      </trkpt>
      <trkpt lat="43.36667" lon="6.20783">
        <ele>252.2</ele>
        <time>2022-05-26T11:08:16Z</time>
      </trkpt>
      <trkpt lat="43.36665" lon="6.20785">
        <ele>252.2</ele>
        <time>2022-05-26T11:08:18Z</time>
      </trkpt>
      <trkpt lat="43.3665" lon="6.20783">
        <ele>251.6</ele>
        <time>2022-05-26T11:08:23Z</time>
      </trkpt>
      <trkpt lat="43.36641" lon="6.20783">
        <ele>251.6</ele>
        <time>2022-05-26T11:08:26Z</time>
      </trkpt>
      <trkpt lat="43.36632" lon="6.20781">
        <ele>251.4</ele>
        <time>2022-05-26T11:08:29Z</time>
      </trkpt>
      <trkpt lat="43.36608" lon="6.20776">
        <ele>251.4</ele>
        <time>2022-05-26T11:08:35Z</time>
      </trkpt>
      <trkpt lat="43.36584" lon="6.20775">
        <ele>251.8</ele>
        <time>2022-05-26T11:08:41Z</time>
      </trkpt>
      <trkpt lat="43.36579" lon="6.20777">
        <ele>251.8</ele>
        <time>2022-05-26T11:08:43Z</time>
      </trkpt>
      <trkpt lat="43.36579" lon="6.20779">
        <ele>251.8</ele>
        <time>2022-05-26T11:08:44Z</time>
      </trkpt>
      <trkpt lat="43.36582" lon="6.20781">
        <ele>252</ele>
        <time>2022-05-26T11:08:46Z</time>
      </trkpt>
      <trkpt lat="43.36584" lon="6.2078">
        <ele>252</ele>
        <time>2022-05-26T11:08:47Z</time>
      </trkpt>
      <trkpt lat="43.36592" lon="6.20773">
        <ele>252</ele>
        <time>2022-05-26T11:08:50Z</time>
      </trkpt>
      <trkpt lat="43.36596" lon="6.20773">
        <ele>252</ele>
        <time>2022-05-26T11:08:51Z</time>
      </trkpt>
      <trkpt lat="43.36605" lon="6.20775">
        <ele>252</ele>
        <time>2022-05-26T11:08:53Z</time>
      </trkpt>
      <trkpt lat="43.36621" lon="6.20779">
        <ele>252</ele>
        <time>2022-05-26T11:08:56Z</time>
      </trkpt>
      <trkpt lat="43.36645" lon="6.20783">
        <ele>251.6</ele>
        <time>2022-05-26T11:09:01Z</time>
      </trkpt>
      <trkpt lat="43.3665" lon="6.20783">
        <ele>251.4</ele>
        <time>2022-05-26T11:09:02Z</time>
      </trkpt>
      <trkpt lat="43.36658" lon="6.20784">
        <ele>251.2</ele>
        <time>2022-05-26T11:09:04Z</time>
      </trkpt>
      <trkpt lat="43.36668" lon="6.20789">
        <ele>251</ele>
        <time>2022-05-26T11:09:07Z</time>
      </trkpt>
      <trkpt lat="43.36671" lon="6.20792">
        <ele>251</ele>
        <time>2022-05-26T11:09:08Z</time>
      </trkpt>
      <trkpt lat="43.36672" lon="6.20801">
        <ele>251.2</ele>
        <time>2022-05-26T11:09:10Z</time>
      </trkpt>
      <trkpt lat="43.36673" lon="6.20815">
        <ele>251.2</ele>
        <time>2022-05-26T11:09:15Z</time>
      </trkpt>
      <trkpt lat="43.36676" lon="6.20819">
        <ele>251.4</ele>
        <time>2022-05-26T11:09:18Z</time>
      </trkpt>
      <trkpt lat="43.36679" lon="6.20822">
        <ele>251.6</ele>
        <time>2022-05-26T11:09:20Z</time>
      </trkpt>
      <trkpt lat="43.36681" lon="6.20826">
        <ele>252</ele>
        <time>2022-05-26T11:09:26Z</time>
      </trkpt>
      <trkpt lat="43.36681" lon="6.20826">
        <ele>252.6</ele>
        <time>2022-05-26T11:09:40Z</time>
      </trkpt>
      <trkpt lat="43.36681" lon="6.20826">
        <ele>252.6</ele>
        <time>2022-05-26T11:09:46Z</time>
      </trkpt>
      <trkpt lat="43.36681" lon="6.20826">
        <ele>252.8</ele>
        <time>2022-05-26T11:09:54Z</time>
      </trkpt>
      <trkpt lat="43.36681" lon="6.20826">
        <ele>252.8</ele>
        <time>2022-05-26T11:10:01Z</time>
      </trkpt>
      <trkpt lat="43.36688" lon="6.20831">
        <ele>252.6</ele>
        <time>2022-05-26T11:10:19Z</time>
      </trkpt>
      <trkpt lat="43.36705" lon="6.20845">
        <ele>252.4</ele>
        <time>2022-05-26T11:10:25Z</time>
      </trkpt>
      <trkpt lat="43.36712" lon="6.20848">
        <ele>251.8</ele>
        <time>2022-05-26T11:10:30Z</time>
      </trkpt>
      <trkpt lat="43.36713" lon="6.20847">
        <ele>251.6</ele>
        <time>2022-05-26T11:10:31Z</time>
      </trkpt>
      <trkpt lat="43.36725" lon="6.20842">
        <ele>251</ele>
        <time>2022-05-26T11:10:35Z</time>
      </trkpt>
      <trkpt lat="43.36739" lon="6.20838">
        <ele>250.4</ele>
        <time>2022-05-26T11:10:39Z</time>
      </trkpt>
      <trkpt lat="43.36749" lon="6.20837">
        <ele>250.2</ele>
        <time>2022-05-26T11:10:42Z</time>
      </trkpt>
      <trkpt lat="43.36766" lon="6.20847">
        <ele>250.2</ele>
        <time>2022-05-26T11:10:48Z</time>
      </trkpt>
      <trkpt lat="43.36775" lon="6.20871">
        <ele>251.4</ele>
        <time>2022-05-26T11:10:55Z</time>
      </trkpt>
      <trkpt lat="43.36776" lon="6.20874">
        <ele>251.6</ele>
        <time>2022-05-26T11:10:56Z</time>
      </trkpt>
      <trkpt lat="43.36781" lon="6.20894">
        <ele>252.8</ele>
        <time>2022-05-26T11:11:01Z</time>
      </trkpt>
      <trkpt lat="43.36787" lon="6.20911">
        <ele>253.2</ele>
        <time>2022-05-26T11:11:06Z</time>
      </trkpt>
      <trkpt lat="43.36793" lon="6.20921">
        <ele>253.8</ele>
        <time>2022-05-26T11:11:09Z</time>
      </trkpt>
      <trkpt lat="43.36798" lon="6.2093">
        <ele>254.4</ele>
        <time>2022-05-26T11:11:12Z</time>
      </trkpt>
      <trkpt lat="43.36804" lon="6.20937">
        <ele>254.8</ele>
        <time>2022-05-26T11:11:15Z</time>
      </trkpt>
      <trkpt lat="43.3681" lon="6.20946">
        <ele>254.8</ele>
        <time>2022-05-26T11:11:17Z</time>
      </trkpt>
      <trkpt lat="43.36814" lon="6.20951">
        <ele>255</ele>
        <time>2022-05-26T11:11:18Z</time>
      </trkpt>
      <trkpt lat="43.36817" lon="6.20957">
        <ele>255</ele>
        <time>2022-05-26T11:11:19Z</time>
      </trkpt>
      <trkpt lat="43.36819" lon="6.2097">
        <ele>255</ele>
        <time>2022-05-26T11:11:21Z</time>
      </trkpt>
      <trkpt lat="43.36821" lon="6.21007">
        <ele>253.8</ele>
        <time>2022-05-26T11:11:26Z</time>
      </trkpt>
      <trkpt lat="43.3682" lon="6.21014">
        <ele>253.6</ele>
        <time>2022-05-26T11:11:27Z</time>
      </trkpt>
      <trkpt lat="43.36822" lon="6.21029">
        <ele>253.2</ele>
        <time>2022-05-26T11:11:29Z</time>
      </trkpt>
      <trkpt lat="43.36826" lon="6.2105">
        <ele>253</ele>
        <time>2022-05-26T11:11:32Z</time>
      </trkpt>
      <trkpt lat="43.36827" lon="6.21055">
        <ele>252.8</ele>
        <time>2022-05-26T11:11:33Z</time>
      </trkpt>
      <trkpt lat="43.36828" lon="6.2106">
        <ele>252.8</ele>
        <time>2022-05-26T11:11:34Z</time>
      </trkpt>
      <trkpt lat="43.36829" lon="6.21065">
        <ele>252.8</ele>
        <time>2022-05-26T11:11:35Z</time>
      </trkpt>
      <trkpt lat="43.36833" lon="6.21082">
        <ele>252.8</ele>
        <time>2022-05-26T11:11:38Z</time>
      </trkpt>
      <trkpt lat="43.3684" lon="6.21112">
        <ele>252.6</ele>
        <time>2022-05-26T11:11:42Z</time>
      </trkpt>
      <trkpt lat="43.36843" lon="6.21122">
        <ele>252.6</ele>
        <time>2022-05-26T11:11:43Z</time>
      </trkpt>
      <trkpt lat="43.36845" lon="6.21131">
        <ele>252.6</ele>
        <time>2022-05-26T11:11:44Z</time>
      </trkpt>
      <trkpt lat="43.36848" lon="6.21161">
        <ele>251.8</ele>
        <time>2022-05-26T11:11:47Z</time>
      </trkpt>
      <trkpt lat="43.36849" lon="6.21191">
        <ele>250.8</ele>
        <time>2022-05-26T11:11:50Z</time>
      </trkpt>
      <trkpt lat="43.36849" lon="6.21212">
        <ele>250.4</ele>
        <time>2022-05-26T11:11:52Z</time>
      </trkpt>
      <trkpt lat="43.36851" lon="6.21241">
        <ele>249.8</ele>
        <time>2022-05-26T11:11:55Z</time>
      </trkpt>
      <trkpt lat="43.36851" lon="6.2125">
        <ele>249.6</ele>
        <time>2022-05-26T11:11:56Z</time>
      </trkpt>
      <trkpt lat="43.36852" lon="6.21276">
        <ele>249.2</ele>
        <time>2022-05-26T11:11:59Z</time>
      </trkpt>
      <trkpt lat="43.36852" lon="6.21285">
        <ele>249</ele>
        <time>2022-05-26T11:12:00Z</time>
      </trkpt>
      <trkpt lat="43.36857" lon="6.21317">
        <ele>248.6</ele>
        <time>2022-05-26T11:12:04Z</time>
      </trkpt>
      <trkpt lat="43.36858" lon="6.21324">
        <ele>248.6</ele>
        <time>2022-05-26T11:12:05Z</time>
      </trkpt>
      <trkpt lat="43.36863" lon="6.21348">
        <ele>248.4</ele>
        <time>2022-05-26T11:12:09Z</time>
      </trkpt>
      <trkpt lat="43.36864" lon="6.21353">
        <ele>248.6</ele>
        <time>2022-05-26T11:12:10Z</time>
      </trkpt>
      <trkpt lat="43.36868" lon="6.21378">
        <ele>248.8</ele>
        <time>2022-05-26T11:12:15Z</time>
      </trkpt>
      <trkpt lat="43.36874" lon="6.21424">
        <ele>249</ele>
        <time>2022-05-26T11:12:23Z</time>
      </trkpt>
      <trkpt lat="43.36875" lon="6.21436">
        <ele>249</ele>
        <time>2022-05-26T11:12:25Z</time>
      </trkpt>
      <trkpt lat="43.36878" lon="6.21466">
        <ele>249.2</ele>
        <time>2022-05-26T11:12:30Z</time>
      </trkpt>
      <trkpt lat="43.3688" lon="6.21477">
        <ele>249.2</ele>
        <time>2022-05-26T11:12:32Z</time>
      </trkpt>
      <trkpt lat="43.36882" lon="6.21504">
        <ele>249.6</ele>
        <time>2022-05-26T11:12:37Z</time>
      </trkpt>
      <trkpt lat="43.36883" lon="6.21508">
        <ele>249.6</ele>
        <time>2022-05-26T11:12:38Z</time>
      </trkpt>
      <trkpt lat="43.36883" lon="6.21513">
        <ele>249.6</ele>
        <time>2022-05-26T11:12:39Z</time>
      </trkpt>
      <trkpt lat="43.36888" lon="6.21548">
        <ele>250.2</ele>
        <time>2022-05-26T11:12:46Z</time>
      </trkpt>
      <trkpt lat="43.36891" lon="6.2156">
        <ele>250.4</ele>
        <time>2022-05-26T11:12:49Z</time>
      </trkpt>
      <trkpt lat="43.36892" lon="6.21569">
        <ele>250.4</ele>
        <time>2022-05-26T11:12:51Z</time>
      </trkpt>
      <trkpt lat="43.36895" lon="6.21588">
        <ele>250.4</ele>
        <time>2022-05-26T11:12:54Z</time>
      </trkpt>
      <trkpt lat="43.36898" lon="6.21602">
        <ele>250.4</ele>
        <time>2022-05-26T11:12:56Z</time>
      </trkpt>
      <trkpt lat="43.36899" lon="6.2161">
        <ele>250.4</ele>
        <time>2022-05-26T11:12:57Z</time>
      </trkpt>
      <trkpt lat="43.36908" lon="6.21643">
        <ele>249.2</ele>
        <time>2022-05-26T11:13:01Z</time>
      </trkpt>
      <trkpt lat="43.36913" lon="6.21657">
        <ele>248.4</ele>
        <time>2022-05-26T11:13:03Z</time>
      </trkpt>
      <trkpt lat="43.36918" lon="6.21673">
        <ele>247</ele>
        <time>2022-05-26T11:13:05Z</time>
      </trkpt>
      <trkpt lat="43.36918" lon="6.21681">
        <ele>246</ele>
        <time>2022-05-26T11:13:06Z</time>
      </trkpt>
      <trkpt lat="43.36917" lon="6.2169">
        <ele>245.8</ele>
        <time>2022-05-26T11:13:07Z</time>
      </trkpt>
      <trkpt lat="43.36915" lon="6.21705">
        <ele>244.8</ele>
        <time>2022-05-26T11:13:09Z</time>
      </trkpt>
      <trkpt lat="43.36914" lon="6.21712">
        <ele>244.4</ele>
        <time>2022-05-26T11:13:10Z</time>
      </trkpt>
      <trkpt lat="43.36911" lon="6.21732">
        <ele>244</ele>
        <time>2022-05-26T11:13:13Z</time>
      </trkpt>
      <trkpt lat="43.36907" lon="6.21749">
        <ele>244</ele>
        <time>2022-05-26T11:13:16Z</time>
      </trkpt>
      <trkpt lat="43.36898" lon="6.21794">
        <ele>244.4</ele>
        <time>2022-05-26T11:13:24Z</time>
      </trkpt>
      <trkpt lat="43.36891" lon="6.21831">
        <ele>244.6</ele>
        <time>2022-05-26T11:13:31Z</time>
      </trkpt>
      <trkpt lat="43.3689" lon="6.21835">
        <ele>244.8</ele>
        <time>2022-05-26T11:13:32Z</time>
      </trkpt>
      <trkpt lat="43.36886" lon="6.21866">
        <ele>245</ele>
        <time>2022-05-26T11:13:38Z</time>
      </trkpt>
      <trkpt lat="43.3688" lon="6.21892">
        <ele>245.4</ele>
        <time>2022-05-26T11:13:43Z</time>
      </trkpt>
      <trkpt lat="43.36879" lon="6.21902">
        <ele>245.8</ele>
        <time>2022-05-26T11:13:45Z</time>
      </trkpt>
      <trkpt lat="43.36877" lon="6.21907">
        <ele>246</ele>
        <time>2022-05-26T11:13:46Z</time>
      </trkpt>
      <trkpt lat="43.36874" lon="6.21923">
        <ele>246.4</ele>
        <time>2022-05-26T11:13:49Z</time>
      </trkpt>
      <trkpt lat="43.36871" lon="6.21934">
        <ele>246.8</ele>
        <time>2022-05-26T11:13:51Z</time>
      </trkpt>
      <trkpt lat="43.36868" lon="6.21949">
        <ele>247.2</ele>
        <time>2022-05-26T11:13:54Z</time>
      </trkpt>
      <trkpt lat="43.36864" lon="6.21963">
        <ele>247.6</ele>
        <time>2022-05-26T11:13:57Z</time>
      </trkpt>
      <trkpt lat="43.36861" lon="6.21975">
        <ele>248.4</ele>
        <time>2022-05-26T11:14:00Z</time>
      </trkpt>
      <trkpt lat="43.36859" lon="6.21983">
        <ele>248.6</ele>
        <time>2022-05-26T11:14:02Z</time>
      </trkpt>
      <trkpt lat="43.36858" lon="6.21986">
        <ele>248.8</ele>
        <time>2022-05-26T11:14:03Z</time>
      </trkpt>
      <trkpt lat="43.36853" lon="6.21997">
        <ele>249</ele>
        <time>2022-05-26T11:14:06Z</time>
      </trkpt>
      <trkpt lat="43.36842" lon="6.22015">
        <ele>249.4</ele>
        <time>2022-05-26T11:14:10Z</time>
      </trkpt>
      <trkpt lat="43.36837" lon="6.22021">
        <ele>249.4</ele>
        <time>2022-05-26T11:14:12Z</time>
      </trkpt>
      <trkpt lat="43.36832" lon="6.22022">
        <ele>249.2</ele>
        <time>2022-05-26T11:14:14Z</time>
      </trkpt>
      <trkpt lat="43.36832" lon="6.22015">
        <ele>249</ele>
        <time>2022-05-26T11:14:17Z</time>
      </trkpt>
      <trkpt lat="43.36827" lon="6.22003">
        <ele>248.8</ele>
        <time>2022-05-26T11:14:20Z</time>
      </trkpt>
      <trkpt lat="43.36823" lon="6.22002">
        <ele>248.8</ele>
        <time>2022-05-26T11:14:21Z</time>
      </trkpt>
      <trkpt lat="43.36809" lon="6.21998">
        <ele>248.4</ele>
        <time>2022-05-26T11:14:25Z</time>
      </trkpt>
      <trkpt lat="43.36801" lon="6.21998">
        <ele>248</ele>
        <time>2022-05-26T11:14:27Z</time>
      </trkpt>
      <trkpt lat="43.36792" lon="6.21996">
        <ele>247.4</ele>
        <time>2022-05-26T11:14:29Z</time>
      </trkpt>
      <trkpt lat="43.36787" lon="6.21995">
        <ele>247</ele>
        <time>2022-05-26T11:14:30Z</time>
      </trkpt>
      <trkpt lat="43.36778" lon="6.21993">
        <ele>246.2</ele>
        <time>2022-05-26T11:14:32Z</time>
      </trkpt>
      <trkpt lat="43.36773" lon="6.2199">
        <ele>245.8</ele>
        <time>2022-05-26T11:14:33Z</time>
      </trkpt>
      <trkpt lat="43.36762" lon="6.21984">
        <ele>244.4</ele>
        <time>2022-05-26T11:14:35Z</time>
      </trkpt>
      <trkpt lat="43.36749" lon="6.2198">
        <ele>243</ele>
        <time>2022-05-26T11:14:37Z</time>
      </trkpt>
      <trkpt lat="43.36736" lon="6.21975">
        <ele>241.6</ele>
        <time>2022-05-26T11:14:39Z</time>
      </trkpt>
      <trkpt lat="43.36723" lon="6.21968">
        <ele>240.8</ele>
        <time>2022-05-26T11:14:41Z</time>
      </trkpt>
      <trkpt lat="43.36712" lon="6.21958">
        <ele>240.4</ele>
        <time>2022-05-26T11:14:43Z</time>
      </trkpt>
      <trkpt lat="43.36693" lon="6.21939">
        <ele>239.8</ele>
        <time>2022-05-26T11:14:47Z</time>
      </trkpt>
      <trkpt lat="43.36658" lon="6.21911">
        <ele>239.4</ele>
        <time>2022-05-26T11:14:54Z</time>
      </trkpt>
      <trkpt lat="43.36634" lon="6.21894">
        <ele>239.4</ele>
        <time>2022-05-26T11:14:59Z</time>
      </trkpt>
      <trkpt lat="43.36624" lon="6.21886">
        <ele>239.4</ele>
        <time>2022-05-26T11:15:01Z</time>
      </trkpt>
      <trkpt lat="43.36571" lon="6.21852">
        <ele>239.8</ele>
        <time>2022-05-26T11:15:11Z</time>
      </trkpt>
      <trkpt lat="43.36562" lon="6.21843">
        <ele>239.8</ele>
        <time>2022-05-26T11:15:13Z</time>
      </trkpt>
      <trkpt lat="43.36559" lon="6.21836">
        <ele>239.8</ele>
        <time>2022-05-26T11:15:14Z</time>
      </trkpt>
      <trkpt lat="43.36551" lon="6.21809">
        <ele>239.8</ele>
        <time>2022-05-26T11:15:18Z</time>
      </trkpt>
      <trkpt lat="43.36548" lon="6.21797">
        <ele>240</ele>
        <time>2022-05-26T11:15:20Z</time>
      </trkpt>
      <trkpt lat="43.36541" lon="6.21775">
        <ele>240.8</ele>
        <time>2022-05-26T11:15:24Z</time>
      </trkpt>
      <trkpt lat="43.36539" lon="6.21769">
        <ele>241</ele>
        <time>2022-05-26T11:15:25Z</time>
      </trkpt>
      <trkpt lat="43.36535" lon="6.2176">
        <ele>241.8</ele>
        <time>2022-05-26T11:15:27Z</time>
      </trkpt>
      <trkpt lat="43.36531" lon="6.21751">
        <ele>242.4</ele>
        <time>2022-05-26T11:15:29Z</time>
      </trkpt>
      <trkpt lat="43.36528" lon="6.21732">
        <ele>242.8</ele>
        <time>2022-05-26T11:15:32Z</time>
      </trkpt>
      <trkpt lat="43.36523" lon="6.21712">
        <ele>243</ele>
        <time>2022-05-26T11:15:35Z</time>
      </trkpt>
      <trkpt lat="43.36516" lon="6.217">
        <ele>243</ele>
        <time>2022-05-26T11:15:37Z</time>
      </trkpt>
      <trkpt lat="43.36497" lon="6.21689">
        <ele>242.8</ele>
        <time>2022-05-26T11:15:40Z</time>
      </trkpt>
      <trkpt lat="43.36484" lon="6.21682">
        <ele>242.8</ele>
        <time>2022-05-26T11:15:42Z</time>
      </trkpt>
      <trkpt lat="43.36473" lon="6.21673">
        <ele>242.2</ele>
        <time>2022-05-26T11:15:44Z</time>
      </trkpt>
      <trkpt lat="43.36467" lon="6.21669">
        <ele>241.8</ele>
        <time>2022-05-26T11:15:45Z</time>
      </trkpt>
      <trkpt lat="43.36461" lon="6.21667">
        <ele>241.6</ele>
        <time>2022-05-26T11:15:46Z</time>
      </trkpt>
      <trkpt lat="43.36455" lon="6.21666">
        <ele>241.4</ele>
        <time>2022-05-26T11:15:47Z</time>
      </trkpt>
      <trkpt lat="43.36449" lon="6.21665">
        <ele>241.2</ele>
        <time>2022-05-26T11:15:48Z</time>
      </trkpt>
      <trkpt lat="43.36433" lon="6.21666">
        <ele>241</ele>
        <time>2022-05-26T11:15:51Z</time>
      </trkpt>
      <trkpt lat="43.36425" lon="6.21665">
        <ele>241</ele>
        <time>2022-05-26T11:15:53Z</time>
      </trkpt>
      <trkpt lat="43.36417" lon="6.2166">
        <ele>241</ele>
        <time>2022-05-26T11:15:55Z</time>
      </trkpt>
      <trkpt lat="43.36409" lon="6.21652">
        <ele>241</ele>
        <time>2022-05-26T11:15:57Z</time>
      </trkpt>
      <trkpt lat="43.36397" lon="6.21641">
        <ele>240.8</ele>
        <time>2022-05-26T11:16:00Z</time>
      </trkpt>
      <trkpt lat="43.36392" lon="6.21638">
        <ele>241</ele>
        <time>2022-05-26T11:16:01Z</time>
      </trkpt>
      <trkpt lat="43.36377" lon="6.21629">
        <ele>241</ele>
        <time>2022-05-26T11:16:04Z</time>
      </trkpt>
      <trkpt lat="43.36366" lon="6.21618">
        <ele>241</ele>
        <time>2022-05-26T11:16:06Z</time>
      </trkpt>
      <trkpt lat="43.36354" lon="6.21591">
        <ele>241.2</ele>
        <time>2022-05-26T11:16:10Z</time>
      </trkpt>
      <trkpt lat="43.36345" lon="6.21569">
        <ele>241</ele>
        <time>2022-05-26T11:16:15Z</time>
      </trkpt>
      <trkpt lat="43.36341" lon="6.21562">
        <ele>241</ele>
        <time>2022-05-26T11:16:17Z</time>
      </trkpt>
      <trkpt lat="43.36337" lon="6.21556">
        <ele>241</ele>
        <time>2022-05-26T11:16:20Z</time>
      </trkpt>
      <trkpt lat="43.36334" lon="6.21541">
        <ele>241</ele>
        <time>2022-05-26T11:16:24Z</time>
      </trkpt>
      <trkpt lat="43.36332" lon="6.21536">
        <ele>241</ele>
        <time>2022-05-26T11:16:25Z</time>
      </trkpt>
      <trkpt lat="43.36323" lon="6.21512">
        <ele>241.2</ele>
        <time>2022-05-26T11:16:29Z</time>
      </trkpt>
      <trkpt lat="43.36319" lon="6.21501">
        <ele>241.4</ele>
        <time>2022-05-26T11:16:31Z</time>
      </trkpt>
      <trkpt lat="43.36315" lon="6.2149">
        <ele>241.4</ele>
        <time>2022-05-26T11:16:33Z</time>
      </trkpt>
      <trkpt lat="43.36307" lon="6.21476">
        <ele>241.6</ele>
        <time>2022-05-26T11:16:35Z</time>
      </trkpt>
      <trkpt lat="43.36296" lon="6.21469">
        <ele>241.6</ele>
        <time>2022-05-26T11:16:37Z</time>
      </trkpt>
      <trkpt lat="43.36269" lon="6.21458">
        <ele>242</ele>
        <time>2022-05-26T11:16:42Z</time>
      </trkpt>
      <trkpt lat="43.3625" lon="6.21451">
        <ele>242.2</ele>
        <time>2022-05-26T11:16:46Z</time>
      </trkpt>
      <trkpt lat="43.36241" lon="6.21445">
        <ele>242.2</ele>
        <time>2022-05-26T11:16:48Z</time>
      </trkpt>
      <trkpt lat="43.36216" lon="6.21428">
        <ele>241.8</ele>
        <time>2022-05-26T11:16:55Z</time>
      </trkpt>
      <trkpt lat="43.36194" lon="6.21409">
        <ele>241.4</ele>
        <time>2022-05-26T11:17:02Z</time>
      </trkpt>
      <trkpt lat="43.36171" lon="6.21391">
        <ele>241.6</ele>
        <time>2022-05-26T11:17:08Z</time>
      </trkpt>
      <trkpt lat="43.36163" lon="6.21386">
        <ele>241.6</ele>
        <time>2022-05-26T11:17:10Z</time>
      </trkpt>
      <trkpt lat="43.36155" lon="6.21386">
        <ele>242</ele>
        <time>2022-05-26T11:17:12Z</time>
      </trkpt>
      <trkpt lat="43.36144" lon="6.21387">
        <ele>242.6</ele>
        <time>2022-05-26T11:17:16Z</time>
      </trkpt>
      <trkpt lat="43.36142" lon="6.21386">
        <ele>243.2</ele>
        <time>2022-05-26T11:17:17Z</time>
      </trkpt>
      <trkpt lat="43.36133" lon="6.21377">
        <ele>244</ele>
        <time>2022-05-26T11:17:22Z</time>
      </trkpt>
      <trkpt lat="43.36125" lon="6.2136">
        <ele>244</ele>
        <time>2022-05-26T11:17:28Z</time>
      </trkpt>
      <trkpt lat="43.36122" lon="6.21338">
        <ele>243.6</ele>
        <time>2022-05-26T11:17:34Z</time>
      </trkpt>
      <trkpt lat="43.36122" lon="6.21315">
        <ele>243.4</ele>
        <time>2022-05-26T11:17:39Z</time>
      </trkpt>
      <trkpt lat="43.36124" lon="6.21293">
        <ele>243.6</ele>
        <time>2022-05-26T11:17:45Z</time>
      </trkpt>
      <trkpt lat="43.36124" lon="6.21288">
        <ele>243.6</ele>
        <time>2022-05-26T11:17:47Z</time>
      </trkpt>
      <trkpt lat="43.36121" lon="6.21287">
        <ele>243.6</ele>
        <time>2022-05-26T11:17:49Z</time>
      </trkpt>
      <trkpt lat="43.36121" lon="6.21293">
        <ele>243.6</ele>
        <time>2022-05-26T11:17:52Z</time>
      </trkpt>
      <trkpt lat="43.36122" lon="6.21316">
        <ele>243.4</ele>
        <time>2022-05-26T11:17:57Z</time>
      </trkpt>
      <trkpt lat="43.36125" lon="6.21351">
        <ele>243.8</ele>
        <time>2022-05-26T11:18:03Z</time>
      </trkpt>
      <trkpt lat="43.36127" lon="6.21358">
        <ele>243.8</ele>
        <time>2022-05-26T11:18:04Z</time>
      </trkpt>
      <trkpt lat="43.36131" lon="6.21369">
        <ele>244</ele>
        <time>2022-05-26T11:18:06Z</time>
      </trkpt>
      <trkpt lat="43.36136" lon="6.21379">
        <ele>244.2</ele>
        <time>2022-05-26T11:18:08Z</time>
      </trkpt>
      <trkpt lat="43.3614" lon="6.21383">
        <ele>244.4</ele>
        <time>2022-05-26T11:18:09Z</time>
      </trkpt>
      <trkpt lat="43.36144" lon="6.21386">
        <ele>244.4</ele>
        <time>2022-05-26T11:18:10Z</time>
      </trkpt>
      <trkpt lat="43.36152" lon="6.21389">
        <ele>244.4</ele>
        <time>2022-05-26T11:18:12Z</time>
      </trkpt>
      <trkpt lat="43.36158" lon="6.21389">
        <ele>244.6</ele>
        <time>2022-05-26T11:18:13Z</time>
      </trkpt>
      <trkpt lat="43.36163" lon="6.21389">
        <ele>244.6</ele>
        <time>2022-05-26T11:18:14Z</time>
      </trkpt>
      <trkpt lat="43.36176" lon="6.21394">
        <ele>244.4</ele>
        <time>2022-05-26T11:18:16Z</time>
      </trkpt>
      <trkpt lat="43.36218" lon="6.21428">
        <ele>243.4</ele>
        <time>2022-05-26T11:18:23Z</time>
      </trkpt>
      <trkpt lat="43.36223" lon="6.21432">
        <ele>243.2</ele>
        <time>2022-05-26T11:18:24Z</time>
      </trkpt>
      <trkpt lat="43.36239" lon="6.21442">
        <ele>242.6</ele>
        <time>2022-05-26T11:18:27Z</time>
      </trkpt>
      <trkpt lat="43.36255" lon="6.21452">
        <ele>242.4</ele>
        <time>2022-05-26T11:18:30Z</time>
      </trkpt>
      <trkpt lat="43.36271" lon="6.2146">
        <ele>242</ele>
        <time>2022-05-26T11:18:33Z</time>
      </trkpt>
      <trkpt lat="43.36306" lon="6.21474">
        <ele>242</ele>
        <time>2022-05-26T11:18:40Z</time>
      </trkpt>
      <trkpt lat="43.36314" lon="6.21483">
        <ele>241.8</ele>
        <time>2022-05-26T11:18:42Z</time>
      </trkpt>
      <trkpt lat="43.36319" lon="6.21495">
        <ele>241.8</ele>
        <time>2022-05-26T11:18:44Z</time>
      </trkpt>
      <trkpt lat="43.36324" lon="6.21511">
        <ele>241.6</ele>
        <time>2022-05-26T11:18:47Z</time>
      </trkpt>
      <trkpt lat="43.36328" lon="6.21521">
        <ele>241.6</ele>
        <time>2022-05-26T11:18:49Z</time>
      </trkpt>
      <trkpt lat="43.36334" lon="6.21537">
        <ele>241.6</ele>
        <time>2022-05-26T11:18:52Z</time>
      </trkpt>
      <trkpt lat="43.36337" lon="6.21547">
        <ele>241.4</ele>
        <time>2022-05-26T11:18:54Z</time>
      </trkpt>
      <trkpt lat="43.36337" lon="6.21559">
        <ele>241.2</ele>
        <time>2022-05-26T11:18:56Z</time>
      </trkpt>
      <trkpt lat="43.36334" lon="6.21564">
        <ele>241.2</ele>
        <time>2022-05-26T11:18:57Z</time>
      </trkpt>
      <trkpt lat="43.36309" lon="6.21593">
        <ele>241.4</ele>
        <time>2022-05-26T11:19:04Z</time>
      </trkpt>
      <trkpt lat="43.36301" lon="6.21607">
        <ele>241.6</ele>
        <time>2022-05-26T11:19:07Z</time>
      </trkpt>
      <trkpt lat="43.36292" lon="6.21611">
        <ele>241.8</ele>
        <time>2022-05-26T11:19:09Z</time>
      </trkpt>
      <trkpt lat="43.36262" lon="6.21623">
        <ele>242</ele>
        <time>2022-05-26T11:19:15Z</time>
      </trkpt>
      <trkpt lat="43.36258" lon="6.21627">
        <ele>242</ele>
        <time>2022-05-26T11:19:16Z</time>
      </trkpt>
      <trkpt lat="43.36249" lon="6.21633">
        <ele>242</ele>
        <time>2022-05-26T11:19:18Z</time>
      </trkpt>
      <trkpt lat="43.3624" lon="6.21638">
        <ele>242</ele>
        <time>2022-05-26T11:19:20Z</time>
      </trkpt>
      <trkpt lat="43.36235" lon="6.21639">
        <ele>242.2</ele>
        <time>2022-05-26T11:19:21Z</time>
      </trkpt>
      <trkpt lat="43.36225" lon="6.2164">
        <ele>242.2</ele>
        <time>2022-05-26T11:19:23Z</time>
      </trkpt>
      <trkpt lat="43.362" lon="6.21639">
        <ele>242.4</ele>
        <time>2022-05-26T11:19:28Z</time>
      </trkpt>
      <trkpt lat="43.36195" lon="6.21639">
        <ele>242.4</ele>
        <time>2022-05-26T11:19:29Z</time>
      </trkpt>
      <trkpt lat="43.36174" lon="6.21642">
        <ele>242.4</ele>
        <time>2022-05-26T11:19:33Z</time>
      </trkpt>
      <trkpt lat="43.36164" lon="6.21647">
        <ele>242.4</ele>
        <time>2022-05-26T11:19:35Z</time>
      </trkpt>
      <trkpt lat="43.36156" lon="6.21653">
        <ele>242.4</ele>
        <time>2022-05-26T11:19:37Z</time>
      </trkpt>
      <trkpt lat="43.36147" lon="6.21661">
        <ele>242.6</ele>
        <time>2022-05-26T11:19:40Z</time>
      </trkpt>
      <trkpt lat="43.36144" lon="6.21661">
        <ele>242.6</ele>
        <time>2022-05-26T11:19:41Z</time>
      </trkpt>
      <trkpt lat="43.36137" lon="6.21658">
        <ele>242.8</ele>
        <time>2022-05-26T11:19:43Z</time>
      </trkpt>
      <trkpt lat="43.36133" lon="6.21651">
        <ele>242.6</ele>
        <time>2022-05-26T11:19:45Z</time>
      </trkpt>
      <trkpt lat="43.36123" lon="6.21623">
        <ele>242.6</ele>
        <time>2022-05-26T11:19:52Z</time>
      </trkpt>
      <trkpt lat="43.36118" lon="6.21605">
        <ele>242.6</ele>
        <time>2022-05-26T11:19:56Z</time>
      </trkpt>
      <trkpt lat="43.36114" lon="6.21589">
        <ele>242.6</ele>
        <time>2022-05-26T11:19:59Z</time>
      </trkpt>
      <trkpt lat="43.36113" lon="6.21584">
        <ele>242.6</ele>
        <time>2022-05-26T11:20:00Z</time>
      </trkpt>
      <trkpt lat="43.36111" lon="6.21546">
        <ele>243</ele>
        <time>2022-05-26T11:20:07Z</time>
      </trkpt>
      <trkpt lat="43.36118" lon="6.21523">
        <ele>242.8</ele>
        <time>2022-05-26T11:20:12Z</time>
      </trkpt>
      <trkpt lat="43.36122" lon="6.21509">
        <ele>242.8</ele>
        <time>2022-05-26T11:20:15Z</time>
      </trkpt>
      <trkpt lat="43.36122" lon="6.21498">
        <ele>242.8</ele>
        <time>2022-05-26T11:20:17Z</time>
      </trkpt>
      <trkpt lat="43.36121" lon="6.21492">
        <ele>243</ele>
        <time>2022-05-26T11:20:18Z</time>
      </trkpt>
      <trkpt lat="43.3612" lon="6.21486">
        <ele>243</ele>
        <time>2022-05-26T11:20:19Z</time>
      </trkpt>
      <trkpt lat="43.36113" lon="6.21469">
        <ele>243</ele>
        <time>2022-05-26T11:20:23Z</time>
      </trkpt>
      <trkpt lat="43.36098" lon="6.21435">
        <ele>243</ele>
        <time>2022-05-26T11:20:30Z</time>
      </trkpt>
      <trkpt lat="43.36084" lon="6.21402">
        <ele>243.4</ele>
        <time>2022-05-26T11:20:37Z</time>
      </trkpt>
      <trkpt lat="43.36083" lon="6.21392">
        <ele>243.4</ele>
        <time>2022-05-26T11:20:39Z</time>
      </trkpt>
      <trkpt lat="43.36083" lon="6.21375">
        <ele>243.4</ele>
        <time>2022-05-26T11:20:42Z</time>
      </trkpt>
      <trkpt lat="43.36091" lon="6.21354">
        <ele>243.4</ele>
        <time>2022-05-26T11:20:47Z</time>
      </trkpt>
      <trkpt lat="43.36093" lon="6.2135">
        <ele>243.4</ele>
        <time>2022-05-26T11:20:48Z</time>
      </trkpt>
      <trkpt lat="43.36098" lon="6.21336">
        <ele>243.4</ele>
        <time>2022-05-26T11:20:51Z</time>
      </trkpt>
      <trkpt lat="43.36104" lon="6.21311">
        <ele>243.4</ele>
        <time>2022-05-26T11:20:57Z</time>
      </trkpt>
      <trkpt lat="43.36099" lon="6.21285">
        <ele>243.4</ele>
        <time>2022-05-26T11:21:02Z</time>
      </trkpt>
      <trkpt lat="43.36095" lon="6.2127">
        <ele>243.4</ele>
        <time>2022-05-26T11:21:05Z</time>
      </trkpt>
      <trkpt lat="43.36091" lon="6.21251">
        <ele>243.4</ele>
        <time>2022-05-26T11:21:09Z</time>
      </trkpt>
      <trkpt lat="43.36089" lon="6.21237">
        <ele>243.8</ele>
        <time>2022-05-26T11:21:12Z</time>
      </trkpt>
      <trkpt lat="43.36086" lon="6.2122">
        <ele>243.6</ele>
        <time>2022-05-26T11:21:16Z</time>
      </trkpt>
      <trkpt lat="43.36083" lon="6.21202">
        <ele>243.4</ele>
        <time>2022-05-26T11:21:20Z</time>
      </trkpt>
      <trkpt lat="43.3608" lon="6.21193">
        <ele>243.8</ele>
        <time>2022-05-26T11:21:22Z</time>
      </trkpt>
      <trkpt lat="43.36075" lon="6.21178">
        <ele>243.8</ele>
        <time>2022-05-26T11:21:27Z</time>
      </trkpt>
      <trkpt lat="43.3607" lon="6.21175">
        <ele>244</ele>
        <time>2022-05-26T11:21:30Z</time>
      </trkpt>
      <trkpt lat="43.3607" lon="6.21175">
        <ele>244</ele>
        <time>2022-05-26T11:21:31Z</time>
      </trkpt>
      <trkpt lat="43.3607" lon="6.21175">
        <ele>244</ele>
        <time>2022-05-26T11:21:32Z</time>
      </trkpt>
      <trkpt lat="43.3607" lon="6.21174">
        <ele>243.6</ele>
        <time>2022-05-26T11:21:40Z</time>
      </trkpt>
      <trkpt lat="43.3607" lon="6.21173">
        <ele>243.4</ele>
        <time>2022-05-26T11:21:45Z</time>
      </trkpt>
      <trkpt lat="43.36069" lon="6.21173">
        <ele>243.4</ele>
        <time>2022-05-26T11:21:48Z</time>
      </trkpt>
      <trkpt lat="43.36066" lon="6.21168">
        <ele>243.4</ele>
        <time>2022-05-26T11:21:50Z</time>
      </trkpt>
      <trkpt lat="43.36058" lon="6.21152">
        <ele>243.4</ele>
        <time>2022-05-26T11:21:54Z</time>
      </trkpt>
      <trkpt lat="43.36053" lon="6.21131">
        <ele>243.6</ele>
        <time>2022-05-26T11:22:00Z</time>
      </trkpt>
      <trkpt lat="43.36043" lon="6.21108">
        <ele>243.8</ele>
        <time>2022-05-26T11:22:06Z</time>
      </trkpt>
      <trkpt lat="43.36036" lon="6.21088">
        <ele>243.8</ele>
        <time>2022-05-26T11:22:10Z</time>
      </trkpt>
      <trkpt lat="43.36035" lon="6.21083">
        <ele>244</ele>
        <time>2022-05-26T11:22:11Z</time>
      </trkpt>
      <trkpt lat="43.36033" lon="6.21077">
        <ele>244</ele>
        <time>2022-05-26T11:22:12Z</time>
      </trkpt>
      <trkpt lat="43.36029" lon="6.21053">
        <ele>244</ele>
        <time>2022-05-26T11:22:16Z</time>
      </trkpt>
      <trkpt lat="43.36025" lon="6.21031">
        <ele>244</ele>
        <time>2022-05-26T11:22:20Z</time>
      </trkpt>
      <trkpt lat="43.36024" lon="6.21027">
        <ele>243.8</ele>
        <time>2022-05-26T11:22:21Z</time>
      </trkpt>
      <trkpt lat="43.36017" lon="6.21003">
        <ele>243.6</ele>
        <time>2022-05-26T11:22:28Z</time>
      </trkpt>
      <trkpt lat="43.36014" lon="6.20989">
        <ele>243.4</ele>
        <time>2022-05-26T11:22:34Z</time>
      </trkpt>
      <trkpt lat="43.36014" lon="6.20989">
        <ele>243.2</ele>
        <time>2022-05-26T11:22:40Z</time>
      </trkpt>
      <trkpt lat="43.36014" lon="6.20989">
        <ele>243.2</ele>
        <time>2022-05-26T11:22:43Z</time>
      </trkpt>
      <trkpt lat="43.36014" lon="6.20989">
        <ele>243</ele>
        <time>2022-05-26T11:23:00Z</time>
      </trkpt>
      <trkpt lat="43.36014" lon="6.20989">
        <ele>242.8</ele>
        <time>2022-05-26T11:23:05Z</time>
      </trkpt>
      <trkpt lat="43.36014" lon="6.20989">
        <ele>242.8</ele>
        <time>2022-05-26T11:23:10Z</time>
      </trkpt>
      <trkpt lat="43.36014" lon="6.20989">
        <ele>242.8</ele>
        <time>2022-05-26T11:23:12Z</time>
      </trkpt>
      <trkpt lat="43.36016" lon="6.20998">
        <ele>243</ele>
        <time>2022-05-26T11:23:22Z</time>
      </trkpt>
      <trkpt lat="43.36023" lon="6.21024">
        <ele>242.6</ele>
        <time>2022-05-26T11:23:28Z</time>
      </trkpt>
      <trkpt lat="43.36026" lon="6.21033">
        <ele>242.6</ele>
        <time>2022-05-26T11:23:30Z</time>
      </trkpt>
      <trkpt lat="43.36029" lon="6.21047">
        <ele>243</ele>
        <time>2022-05-26T11:23:33Z</time>
      </trkpt>
      <trkpt lat="43.36034" lon="6.21069">
        <ele>243.2</ele>
        <time>2022-05-26T11:23:38Z</time>
      </trkpt>
      <trkpt lat="43.36038" lon="6.21083">
        <ele>243.4</ele>
        <time>2022-05-26T11:23:41Z</time>
      </trkpt>
      <trkpt lat="43.36046" lon="6.21108">
        <ele>244</ele>
        <time>2022-05-26T11:23:46Z</time>
      </trkpt>
      <trkpt lat="43.36049" lon="6.21113">
        <ele>244</ele>
        <time>2022-05-26T11:23:47Z</time>
      </trkpt>
      <trkpt lat="43.36061" lon="6.21149">
        <ele>244.4</ele>
        <time>2022-05-26T11:23:54Z</time>
      </trkpt>
      <trkpt lat="43.36071" lon="6.2117">
        <ele>244.4</ele>
        <time>2022-05-26T11:23:59Z</time>
      </trkpt>
      <trkpt lat="43.36073" lon="6.21172">
        <ele>244.4</ele>
        <time>2022-05-26T11:24:00Z</time>
      </trkpt>
      <trkpt lat="43.36073" lon="6.21173">
        <ele>244.2</ele>
        <time>2022-05-26T11:24:03Z</time>
      </trkpt>
      <trkpt lat="43.36074" lon="6.21174">
        <ele>243.6</ele>
        <time>2022-05-26T11:24:12Z</time>
      </trkpt>
      <trkpt lat="43.36074" lon="6.21174">
        <ele>243.8</ele>
        <time>2022-05-26T11:24:34Z</time>
      </trkpt>
      <trkpt lat="43.36074" lon="6.21174">
        <ele>243.8</ele>
        <time>2022-05-26T11:24:43Z</time>
      </trkpt>
      <trkpt lat="43.36079" lon="6.21181">
        <ele>243.8</ele>
        <time>2022-05-26T11:24:48Z</time>
      </trkpt>
      <trkpt lat="43.36085" lon="6.212">
        <ele>244</ele>
        <time>2022-05-26T11:24:53Z</time>
      </trkpt>
      <trkpt lat="43.36092" lon="6.21229">
        <ele>244.2</ele>
        <time>2022-05-26T11:24:59Z</time>
      </trkpt>
      <trkpt lat="43.36098" lon="6.2126">
        <ele>244</ele>
        <time>2022-05-26T11:25:05Z</time>
      </trkpt>
      <trkpt lat="43.361" lon="6.2127">
        <ele>244</ele>
        <time>2022-05-26T11:25:07Z</time>
      </trkpt>
      <trkpt lat="43.36106" lon="6.21299">
        <ele>244.2</ele>
        <time>2022-05-26T11:25:13Z</time>
      </trkpt>
      <trkpt lat="43.36104" lon="6.21325">
        <ele>244.2</ele>
        <time>2022-05-26T11:25:19Z</time>
      </trkpt>
      <trkpt lat="43.36092" lon="6.21356">
        <ele>244</ele>
        <time>2022-05-26T11:25:26Z</time>
      </trkpt>
      <trkpt lat="43.36085" lon="6.21377">
        <ele>244</ele>
        <time>2022-05-26T11:25:31Z</time>
      </trkpt>
      <trkpt lat="43.36086" lon="6.21398">
        <ele>244</ele>
        <time>2022-05-26T11:25:35Z</time>
      </trkpt>
      <trkpt lat="43.36089" lon="6.21413">
        <ele>244.2</ele>
        <time>2022-05-26T11:25:38Z</time>
      </trkpt>
      <trkpt lat="43.36093" lon="6.21423">
        <ele>244.2</ele>
        <time>2022-05-26T11:25:40Z</time>
      </trkpt>
      <trkpt lat="43.36095" lon="6.21428">
        <ele>244.2</ele>
        <time>2022-05-26T11:25:41Z</time>
      </trkpt>
      <trkpt lat="43.36104" lon="6.21447">
        <ele>244.4</ele>
        <time>2022-05-26T11:25:45Z</time>
      </trkpt>
      <trkpt lat="43.36121" lon="6.21488">
        <ele>243.8</ele>
        <time>2022-05-26T11:25:54Z</time>
      </trkpt>
      <trkpt lat="43.36121" lon="6.21493">
        <ele>243.8</ele>
        <time>2022-05-26T11:25:55Z</time>
      </trkpt>
      <trkpt lat="43.36119" lon="6.21514">
        <ele>243.6</ele>
        <time>2022-05-26T11:25:59Z</time>
      </trkpt>
      <trkpt lat="43.36116" lon="6.21533">
        <ele>243.8</ele>
        <time>2022-05-26T11:26:03Z</time>
      </trkpt>
      <trkpt lat="43.36111" lon="6.2155">
        <ele>243.8</ele>
        <time>2022-05-26T11:26:06Z</time>
      </trkpt>
      <trkpt lat="43.36111" lon="6.21561">
        <ele>243.8</ele>
        <time>2022-05-26T11:26:08Z</time>
      </trkpt>
      <trkpt lat="43.36113" lon="6.21577">
        <ele>243.8</ele>
        <time>2022-05-26T11:26:11Z</time>
      </trkpt>
      <trkpt lat="43.36121" lon="6.21608">
        <ele>243.8</ele>
        <time>2022-05-26T11:26:17Z</time>
      </trkpt>
      <trkpt lat="43.36122" lon="6.21614">
        <ele>243.8</ele>
        <time>2022-05-26T11:26:18Z</time>
      </trkpt>
      <trkpt lat="43.36124" lon="6.2162">
        <ele>243.8</ele>
        <time>2022-05-26T11:26:19Z</time>
      </trkpt>
      <trkpt lat="43.36133" lon="6.21649">
        <ele>244</ele>
        <time>2022-05-26T11:26:24Z</time>
      </trkpt>
      <trkpt lat="43.36141" lon="6.21664">
        <ele>244.2</ele>
        <time>2022-05-26T11:26:28Z</time>
      </trkpt>
      <trkpt lat="43.36147" lon="6.21664">
        <ele>244</ele>
        <time>2022-05-26T11:26:31Z</time>
      </trkpt>
      <trkpt lat="43.36147" lon="6.21664">
        <ele>244</ele>
        <time>2022-05-26T11:26:35Z</time>
      </trkpt>
      <trkpt lat="43.36147" lon="6.21664">
        <ele>243.8</ele>
        <time>2022-05-26T11:26:43Z</time>
      </trkpt>
      <trkpt lat="43.36147" lon="6.21664">
        <ele>243.6</ele>
        <time>2022-05-26T11:26:52Z</time>
      </trkpt>
      <trkpt lat="43.36147" lon="6.21664">
        <ele>243.4</ele>
        <time>2022-05-26T11:27:06Z</time>
      </trkpt>
      <trkpt lat="43.36147" lon="6.21664">
        <ele>243.4</ele>
        <time>2022-05-26T11:27:13Z</time>
      </trkpt>
      <trkpt lat="43.36147" lon="6.21664">
        <ele>243.4</ele>
        <time>2022-05-26T11:27:31Z</time>
      </trkpt>
      <trkpt lat="43.36147" lon="6.21664">
        <ele>243.4</ele>
        <time>2022-05-26T11:27:33Z</time>
      </trkpt>
      <trkpt lat="43.36147" lon="6.21664">
        <ele>243.2</ele>
        <time>2022-05-26T11:28:01Z</time>
      </trkpt>
      <trkpt lat="43.36147" lon="6.21664">
        <ele>243.2</ele>
        <time>2022-05-26T11:28:07Z</time>
      </trkpt>
      <trkpt lat="43.36147" lon="6.21662">
        <ele>243</ele>
        <time>2022-05-26T11:28:13Z</time>
      </trkpt>
      <trkpt lat="43.36148" lon="6.21661">
        <ele>243</ele>
        <time>2022-05-26T11:28:14Z</time>
      </trkpt>
      <trkpt lat="43.36151" lon="6.21658">
        <ele>243</ele>
        <time>2022-05-26T11:28:16Z</time>
      </trkpt>
      <trkpt lat="43.36163" lon="6.21648">
        <ele>243.4</ele>
        <time>2022-05-26T11:28:21Z</time>
      </trkpt>
      <trkpt lat="43.36189" lon="6.21644">
        <ele>243.4</ele>
        <time>2022-05-26T11:28:27Z</time>
      </trkpt>
      <trkpt lat="43.36202" lon="6.21643">
        <ele>243</ele>
        <time>2022-05-26T11:28:30Z</time>
      </trkpt>
      <trkpt lat="43.36211" lon="6.21644">
        <ele>243</ele>
        <time>2022-05-26T11:28:32Z</time>
      </trkpt>
      <trkpt lat="43.36235" lon="6.21644">
        <ele>243</ele>
        <time>2022-05-26T11:28:37Z</time>
      </trkpt>
      <trkpt lat="43.3624" lon="6.21642">
        <ele>243</ele>
        <time>2022-05-26T11:28:38Z</time>
      </trkpt>
      <trkpt lat="43.36265" lon="6.21625">
        <ele>243.2</ele>
        <time>2022-05-26T11:28:44Z</time>
      </trkpt>
      <trkpt lat="43.36274" lon="6.21622">
        <ele>243</ele>
        <time>2022-05-26T11:28:46Z</time>
      </trkpt>
      <trkpt lat="43.36297" lon="6.21615">
        <ele>242.8</ele>
        <time>2022-05-26T11:28:52Z</time>
      </trkpt>
      <trkpt lat="43.36303" lon="6.21619">
        <ele>242.6</ele>
        <time>2022-05-26T11:28:54Z</time>
      </trkpt>
      <trkpt lat="43.36305" lon="6.21621">
        <ele>242.6</ele>
        <time>2022-05-26T11:28:55Z</time>
      </trkpt>
      <trkpt lat="43.36307" lon="6.21625">
        <ele>242.6</ele>
        <time>2022-05-26T11:28:57Z</time>
      </trkpt>
      <trkpt lat="43.36308" lon="6.21625">
        <ele>242.6</ele>
        <time>2022-05-26T11:28:58Z</time>
      </trkpt>
      <trkpt lat="43.36307" lon="6.21623">
        <ele>242.6</ele>
        <time>2022-05-26T11:29:00Z</time>
      </trkpt>
      <trkpt lat="43.36305" lon="6.21621">
        <ele>242.6</ele>
        <time>2022-05-26T11:29:02Z</time>
      </trkpt>
      <trkpt lat="43.36304" lon="6.21618">
        <ele>242.6</ele>
        <time>2022-05-26T11:29:03Z</time>
      </trkpt>
      <trkpt lat="43.36303" lon="6.21616">
        <ele>242.6</ele>
        <time>2022-05-26T11:29:04Z</time>
      </trkpt>
      <trkpt lat="43.36304" lon="6.21606">
        <ele>242.6</ele>
        <time>2022-05-26T11:29:07Z</time>
      </trkpt>
      <trkpt lat="43.36317" lon="6.21584">
        <ele>242.6</ele>
        <time>2022-05-26T11:29:13Z</time>
      </trkpt>
      <trkpt lat="43.36334" lon="6.21566">
        <ele>242.6</ele>
        <time>2022-05-26T11:29:19Z</time>
      </trkpt>
      <trkpt lat="43.36341" lon="6.21568">
        <ele>242.4</ele>
        <time>2022-05-26T11:29:21Z</time>
      </trkpt>
      <trkpt lat="43.36344" lon="6.21572">
        <ele>242.2</ele>
        <time>2022-05-26T11:29:22Z</time>
      </trkpt>
      <trkpt lat="43.36349" lon="6.21585">
        <ele>242</ele>
        <time>2022-05-26T11:29:25Z</time>
      </trkpt>
      <trkpt lat="43.36353" lon="6.21597">
        <ele>242</ele>
        <time>2022-05-26T11:29:27Z</time>
      </trkpt>
      <trkpt lat="43.36362" lon="6.21621">
        <ele>241.8</ele>
        <time>2022-05-26T11:29:31Z</time>
      </trkpt>
      <trkpt lat="43.36368" lon="6.21629">
        <ele>242</ele>
        <time>2022-05-26T11:29:33Z</time>
      </trkpt>
      <trkpt lat="43.36386" lon="6.21638">
        <ele>242</ele>
        <time>2022-05-26T11:29:38Z</time>
      </trkpt>
      <trkpt lat="43.36389" lon="6.2164">
        <ele>242</ele>
        <time>2022-05-26T11:29:39Z</time>
      </trkpt>
      <trkpt lat="43.36408" lon="6.21653">
        <ele>242</ele>
        <time>2022-05-26T11:29:44Z</time>
      </trkpt>
      <trkpt lat="43.3642" lon="6.21661">
        <ele>242</ele>
        <time>2022-05-26T11:29:47Z</time>
      </trkpt>
      <trkpt lat="43.36435" lon="6.21663">
        <ele>242</ele>
        <time>2022-05-26T11:29:50Z</time>
      </trkpt>
      <trkpt lat="43.36452" lon="6.21665">
        <ele>242</ele>
        <time>2022-05-26T11:29:53Z</time>
      </trkpt>
      <trkpt lat="43.36462" lon="6.21671">
        <ele>242.2</ele>
        <time>2022-05-26T11:29:55Z</time>
      </trkpt>
      <trkpt lat="43.36467" lon="6.21674">
        <ele>242.2</ele>
        <time>2022-05-26T11:29:56Z</time>
      </trkpt>
      <trkpt lat="43.3649" lon="6.2169">
        <ele>242</ele>
        <time>2022-05-26T11:30:02Z</time>
      </trkpt>
      <trkpt lat="43.36511" lon="6.21699">
        <ele>242</ele>
        <time>2022-05-26T11:30:08Z</time>
      </trkpt>
      <trkpt lat="43.36514" lon="6.21701">
        <ele>242.2</ele>
        <time>2022-05-26T11:30:09Z</time>
      </trkpt>
      <trkpt lat="43.36518" lon="6.21703">
        <ele>242.4</ele>
        <time>2022-05-26T11:30:13Z</time>
      </trkpt>
      <trkpt lat="43.36518" lon="6.21703">
        <ele>242.8</ele>
        <time>2022-05-26T11:30:26Z</time>
      </trkpt>
      <trkpt lat="43.36518" lon="6.21703">
        <ele>242.8</ele>
        <time>2022-05-26T11:30:27Z</time>
      </trkpt>
      <trkpt lat="43.36518" lon="6.21703">
        <ele>242.4</ele>
        <time>2022-05-26T11:30:47Z</time>
      </trkpt>
      <trkpt lat="43.36521" lon="6.2171">
        <ele>242.6</ele>
        <time>2022-05-26T11:30:50Z</time>
      </trkpt>
      <trkpt lat="43.36524" lon="6.21719">
        <ele>242.8</ele>
        <time>2022-05-26T11:30:53Z</time>
      </trkpt>
      <trkpt lat="43.36527" lon="6.21733">
        <ele>242.8</ele>
        <time>2022-05-26T11:30:56Z</time>
      </trkpt>
      <trkpt lat="43.36534" lon="6.21758">
        <ele>243.2</ele>
        <time>2022-05-26T11:31:02Z</time>
      </trkpt>
      <trkpt lat="43.36544" lon="6.21781">
        <ele>243.6</ele>
        <time>2022-05-26T11:31:08Z</time>
      </trkpt>
      <trkpt lat="43.36546" lon="6.21788">
        <ele>243.6</ele>
        <time>2022-05-26T11:31:09Z</time>
      </trkpt>
      <trkpt lat="43.36553" lon="6.2181">
        <ele>243.6</ele>
        <time>2022-05-26T11:31:13Z</time>
      </trkpt>
      <trkpt lat="43.36557" lon="6.21825">
        <ele>243.2</ele>
        <time>2022-05-26T11:31:15Z</time>
      </trkpt>
      <trkpt lat="43.36562" lon="6.21841">
        <ele>242.6</ele>
        <time>2022-05-26T11:31:17Z</time>
      </trkpt>
      <trkpt lat="43.3657" lon="6.21854">
        <ele>242.2</ele>
        <time>2022-05-26T11:31:19Z</time>
      </trkpt>
      <trkpt lat="43.36576" lon="6.21857">
        <ele>242</ele>
        <time>2022-05-26T11:31:20Z</time>
      </trkpt>
      <trkpt lat="43.36598" lon="6.21869">
        <ele>241.4</ele>
        <time>2022-05-26T11:31:24Z</time>
      </trkpt>
      <trkpt lat="43.36638" lon="6.219">
        <ele>241</ele>
        <time>2022-05-26T11:31:32Z</time>
      </trkpt>
      <trkpt lat="43.36668" lon="6.21921">
        <ele>241</ele>
        <time>2022-05-26T11:31:38Z</time>
      </trkpt>
      <trkpt lat="43.36693" lon="6.2194">
        <ele>241</ele>
        <time>2022-05-26T11:31:43Z</time>
      </trkpt>
      <trkpt lat="43.36716" lon="6.21962">
        <ele>241</ele>
        <time>2022-05-26T11:31:48Z</time>
      </trkpt>
      <trkpt lat="43.36735" lon="6.21977">
        <ele>241</ele>
        <time>2022-05-26T11:31:52Z</time>
      </trkpt>
      <trkpt lat="43.36746" lon="6.21979">
        <ele>241.2</ele>
        <time>2022-05-26T11:31:54Z</time>
      </trkpt>
      <trkpt lat="43.36762" lon="6.21982">
        <ele>241.2</ele>
        <time>2022-05-26T11:31:57Z</time>
      </trkpt>
      <trkpt lat="43.36771" lon="6.21987">
        <ele>241.4</ele>
        <time>2022-05-26T11:31:59Z</time>
      </trkpt>
      <trkpt lat="43.36784" lon="6.21994">
        <ele>241.8</ele>
        <time>2022-05-26T11:32:03Z</time>
      </trkpt>
      <trkpt lat="43.3679" lon="6.21995">
        <ele>242.2</ele>
        <time>2022-05-26T11:32:05Z</time>
      </trkpt>
      <trkpt lat="43.36799" lon="6.21996">
        <ele>242.8</ele>
        <time>2022-05-26T11:32:08Z</time>
      </trkpt>
      <trkpt lat="43.36804" lon="6.21996">
        <ele>243.6</ele>
        <time>2022-05-26T11:32:10Z</time>
      </trkpt>
      <trkpt lat="43.36811" lon="6.21996">
        <ele>245</ele>
        <time>2022-05-26T11:32:13Z</time>
      </trkpt>
      <trkpt lat="43.36814" lon="6.21991">
        <ele>246.2</ele>
        <time>2022-05-26T11:32:16Z</time>
      </trkpt>
      <trkpt lat="43.36813" lon="6.21989">
        <ele>246.8</ele>
        <time>2022-05-26T11:32:17Z</time>
      </trkpt>
      <trkpt lat="43.36809" lon="6.21981">
        <ele>247.2</ele>
        <time>2022-05-26T11:32:20Z</time>
      </trkpt>
      <trkpt lat="43.36808" lon="6.21978">
        <ele>247.4</ele>
        <time>2022-05-26T11:32:21Z</time>
      </trkpt>
      <trkpt lat="43.368" lon="6.21961">
        <ele>247.4</ele>
        <time>2022-05-26T11:32:26Z</time>
      </trkpt>
      <trkpt lat="43.36788" lon="6.21937">
        <ele>247.2</ele>
        <time>2022-05-26T11:32:32Z</time>
      </trkpt>
      <trkpt lat="43.36774" lon="6.21907">
        <ele>246.8</ele>
        <time>2022-05-26T11:32:39Z</time>
      </trkpt>
      <trkpt lat="43.36761" lon="6.21881">
        <ele>246.6</ele>
        <time>2022-05-26T11:32:44Z</time>
      </trkpt>
      <trkpt lat="43.36757" lon="6.21871">
        <ele>246.6</ele>
        <time>2022-05-26T11:32:46Z</time>
      </trkpt>
      <trkpt lat="43.36755" lon="6.21866">
        <ele>246.6</ele>
        <time>2022-05-26T11:32:47Z</time>
      </trkpt>
      <trkpt lat="43.36751" lon="6.21848">
        <ele>246.4</ele>
        <time>2022-05-26T11:32:50Z</time>
      </trkpt>
      <trkpt lat="43.36746" lon="6.2183">
        <ele>246.2</ele>
        <time>2022-05-26T11:32:52Z</time>
      </trkpt>
      <trkpt lat="43.36742" lon="6.21811">
        <ele>245.4</ele>
        <time>2022-05-26T11:32:54Z</time>
      </trkpt>
      <trkpt lat="43.36736" lon="6.21791">
        <ele>245</ele>
        <time>2022-05-26T11:32:56Z</time>
      </trkpt>
      <trkpt lat="43.36731" lon="6.2177">
        <ele>244.6</ele>
        <time>2022-05-26T11:32:58Z</time>
      </trkpt>
      <trkpt lat="43.36726" lon="6.21749">
        <ele>244</ele>
        <time>2022-05-26T11:33:00Z</time>
      </trkpt>
      <trkpt lat="43.36723" lon="6.21739">
        <ele>243.8</ele>
        <time>2022-05-26T11:33:01Z</time>
      </trkpt>
      <trkpt lat="43.3671" lon="6.21692">
        <ele>242.8</ele>
        <time>2022-05-26T11:33:06Z</time>
      </trkpt>
      <trkpt lat="43.36697" lon="6.21632">
        <ele>242.2</ele>
        <time>2022-05-26T11:33:13Z</time>
      </trkpt>
      <trkpt lat="43.36695" lon="6.21624">
        <ele>242.2</ele>
        <time>2022-05-26T11:33:14Z</time>
      </trkpt>
      <trkpt lat="43.36688" lon="6.2159">
        <ele>242</ele>
        <time>2022-05-26T11:33:18Z</time>
      </trkpt>
      <trkpt lat="43.3667" lon="6.21521">
        <ele>242</ele>
        <time>2022-05-26T11:33:26Z</time>
      </trkpt>
      <trkpt lat="43.36652" lon="6.21444">
        <ele>242.2</ele>
        <time>2022-05-26T11:33:35Z</time>
      </trkpt>
      <trkpt lat="43.36634" lon="6.21368">
        <ele>243.2</ele>
        <time>2022-05-26T11:33:44Z</time>
      </trkpt>
      <trkpt lat="43.36623" lon="6.21321">
        <ele>244</ele>
        <time>2022-05-26T11:33:50Z</time>
      </trkpt>
      <trkpt lat="43.3662" lon="6.21306">
        <ele>244</ele>
        <time>2022-05-26T11:33:52Z</time>
      </trkpt>
      <trkpt lat="43.36611" lon="6.21269">
        <ele>244.2</ele>
        <time>2022-05-26T11:33:57Z</time>
      </trkpt>
      <trkpt lat="43.36604" lon="6.21241">
        <ele>244.6</ele>
        <time>2022-05-26T11:34:01Z</time>
      </trkpt>
      <trkpt lat="43.36602" lon="6.21234">
        <ele>244.6</ele>
        <time>2022-05-26T11:34:02Z</time>
      </trkpt>
      <trkpt lat="43.36597" lon="6.21215">
        <ele>245</ele>
        <time>2022-05-26T11:34:05Z</time>
      </trkpt>
      <trkpt lat="43.36592" lon="6.21197">
        <ele>245.2</ele>
        <time>2022-05-26T11:34:08Z</time>
      </trkpt>
      <trkpt lat="43.36588" lon="6.2118">
        <ele>246</ele>
        <time>2022-05-26T11:34:11Z</time>
      </trkpt>
      <trkpt lat="43.36587" lon="6.21175">
        <ele>246.2</ele>
        <time>2022-05-26T11:34:12Z</time>
      </trkpt>
      <trkpt lat="43.36584" lon="6.2116">
        <ele>246.4</ele>
        <time>2022-05-26T11:34:15Z</time>
      </trkpt>
      <trkpt lat="43.36579" lon="6.21139">
        <ele>247.2</ele>
        <time>2022-05-26T11:34:20Z</time>
      </trkpt>
      <trkpt lat="43.36577" lon="6.21134">
        <ele>247.4</ele>
        <time>2022-05-26T11:34:21Z</time>
      </trkpt>
      <trkpt lat="43.3657" lon="6.21104">
        <ele>248.2</ele>
        <time>2022-05-26T11:34:28Z</time>
      </trkpt>
      <trkpt lat="43.36569" lon="6.211">
        <ele>248.4</ele>
        <time>2022-05-26T11:34:29Z</time>
      </trkpt>
      <trkpt lat="43.36563" lon="6.21077">
        <ele>249.4</ele>
        <time>2022-05-26T11:34:34Z</time>
      </trkpt>
      <trkpt lat="43.36562" lon="6.21072">
        <ele>249.4</ele>
        <time>2022-05-26T11:34:35Z</time>
      </trkpt>
      <trkpt lat="43.36557" lon="6.21043">
        <ele>250.4</ele>
        <time>2022-05-26T11:34:41Z</time>
      </trkpt>
      <trkpt lat="43.36557" lon="6.21018">
        <ele>251</ele>
        <time>2022-05-26T11:34:46Z</time>
      </trkpt>
      <trkpt lat="43.36558" lon="6.21005">
        <ele>251.6</ele>
        <time>2022-05-26T11:34:49Z</time>
      </trkpt>
      <trkpt lat="43.3656" lon="6.20991">
        <ele>252.2</ele>
        <time>2022-05-26T11:34:52Z</time>
      </trkpt>
      <trkpt lat="43.36561" lon="6.20981">
        <ele>252.6</ele>
        <time>2022-05-26T11:34:54Z</time>
      </trkpt>
      <trkpt lat="43.36564" lon="6.20968">
        <ele>253</ele>
        <time>2022-05-26T11:34:57Z</time>
      </trkpt>
      <trkpt lat="43.36566" lon="6.20956">
        <ele>253.8</ele>
        <time>2022-05-26T11:35:00Z</time>
      </trkpt>
      <trkpt lat="43.36567" lon="6.20948">
        <ele>254</ele>
        <time>2022-05-26T11:35:02Z</time>
      </trkpt>
      <trkpt lat="43.3657" lon="6.20916">
        <ele>254.8</ele>
        <time>2022-05-26T11:35:08Z</time>
      </trkpt>
      <trkpt lat="43.36572" lon="6.20883">
        <ele>256</ele>
        <time>2022-05-26T11:35:14Z</time>
      </trkpt>
      <trkpt lat="43.36571" lon="6.20877">
        <ele>256.2</ele>
        <time>2022-05-26T11:35:15Z</time>
      </trkpt>
      <trkpt lat="43.36565" lon="6.20839">
        <ele>257.2</ele>
        <time>2022-05-26T11:35:22Z</time>
      </trkpt>
      <trkpt lat="43.36561" lon="6.20821">
        <ele>257.6</ele>
        <time>2022-05-26T11:35:26Z</time>
      </trkpt>
      <trkpt lat="43.36556" lon="6.20802">
        <ele>258.2</ele>
        <time>2022-05-26T11:35:30Z</time>
      </trkpt>
      <trkpt lat="43.36547" lon="6.2077">
        <ele>258.8</ele>
        <time>2022-05-26T11:35:36Z</time>
      </trkpt>
      <trkpt lat="43.36543" lon="6.20743">
        <ele>259.4</ele>
        <time>2022-05-26T11:35:41Z</time>
      </trkpt>
      <trkpt lat="43.36537" lon="6.20711">
        <ele>260.4</ele>
        <time>2022-05-26T11:35:48Z</time>
      </trkpt>
      <trkpt lat="43.36529" lon="6.20677">
        <ele>261.4</ele>
        <time>2022-05-26T11:35:55Z</time>
      </trkpt>
      <trkpt lat="43.36528" lon="6.20671">
        <ele>261.6</ele>
        <time>2022-05-26T11:35:56Z</time>
      </trkpt>
      <trkpt lat="43.36528" lon="6.20645">
        <ele>262.6</ele>
        <time>2022-05-26T11:36:01Z</time>
      </trkpt>
      <trkpt lat="43.36529" lon="6.2064">
        <ele>262.8</ele>
        <time>2022-05-26T11:36:02Z</time>
      </trkpt>
      <trkpt lat="43.36531" lon="6.20629">
        <ele>263</ele>
        <time>2022-05-26T11:36:04Z</time>
      </trkpt>
      <trkpt lat="43.36532" lon="6.2061">
        <ele>263.4</ele>
        <time>2022-05-26T11:36:07Z</time>
      </trkpt>
      <trkpt lat="43.36529" lon="6.20558">
        <ele>263.4</ele>
        <time>2022-05-26T11:36:14Z</time>
      </trkpt>
      <trkpt lat="43.36527" lon="6.20499">
        <ele>262.8</ele>
        <time>2022-05-26T11:36:22Z</time>
      </trkpt>
      <trkpt lat="43.36528" lon="6.20492">
        <ele>262.6</ele>
        <time>2022-05-26T11:36:23Z</time>
      </trkpt>
      <trkpt lat="43.36529" lon="6.20449">
        <ele>262</ele>
        <time>2022-05-26T11:36:29Z</time>
      </trkpt>
      <trkpt lat="43.36529" lon="6.20419">
        <ele>261.8</ele>
        <time>2022-05-26T11:36:33Z</time>
      </trkpt>
      <trkpt lat="43.36529" lon="6.20403">
        <ele>261.4</ele>
        <time>2022-05-26T11:36:35Z</time>
      </trkpt>
      <trkpt lat="43.36528" lon="6.20379">
        <ele>261</ele>
        <time>2022-05-26T11:36:38Z</time>
      </trkpt>
      <trkpt lat="43.36529" lon="6.20356">
        <ele>260.6</ele>
        <time>2022-05-26T11:36:41Z</time>
      </trkpt>
      <trkpt lat="43.36531" lon="6.20348">
        <ele>260.4</ele>
        <time>2022-05-26T11:36:42Z</time>
      </trkpt>
      <trkpt lat="43.36533" lon="6.2034">
        <ele>260.4</ele>
        <time>2022-05-26T11:36:43Z</time>
      </trkpt>
      <trkpt lat="43.36535" lon="6.20336">
        <ele>260.2</ele>
        <time>2022-05-26T11:36:44Z</time>
      </trkpt>
      <trkpt lat="43.36541" lon="6.20328">
        <ele>260.2</ele>
        <time>2022-05-26T11:36:46Z</time>
      </trkpt>
      <trkpt lat="43.36551" lon="6.20326">
        <ele>260.4</ele>
        <time>2022-05-26T11:36:48Z</time>
      </trkpt>
      <trkpt lat="43.36556" lon="6.20326">
        <ele>260.4</ele>
        <time>2022-05-26T11:36:49Z</time>
      </trkpt>
      <trkpt lat="43.36597" lon="6.20335">
        <ele>260.4</ele>
        <time>2022-05-26T11:36:56Z</time>
      </trkpt>
      <trkpt lat="43.3662" lon="6.20335">
        <ele>260.2</ele>
        <time>2022-05-26T11:37:00Z</time>
      </trkpt>
      <trkpt lat="43.3663" lon="6.20332">
        <ele>260.2</ele>
        <time>2022-05-26T11:37:02Z</time>
      </trkpt>
      <trkpt lat="43.36657" lon="6.20318">
        <ele>260.2</ele>
        <time>2022-05-26T11:37:08Z</time>
      </trkpt>
      <trkpt lat="43.36675" lon="6.20307">
        <ele>260.8</ele>
        <time>2022-05-26T11:37:13Z</time>
      </trkpt>
      <trkpt lat="43.36677" lon="6.20305">
        <ele>261.2</ele>
        <time>2022-05-26T11:37:16Z</time>
      </trkpt>
      <trkpt lat="43.36677" lon="6.20305">
        <ele>261.4</ele>
        <time>2022-05-26T11:37:28Z</time>
      </trkpt>
      <trkpt lat="43.36677" lon="6.20305">
        <ele>261.4</ele>
        <time>2022-05-26T11:37:33Z</time>
      </trkpt>
      <trkpt lat="43.36677" lon="6.20305">
        <ele>261.4</ele>
        <time>2022-05-26T11:37:38Z</time>
      </trkpt>
      <trkpt lat="43.36677" lon="6.20305">
        <ele>261.4</ele>
        <time>2022-05-26T11:37:41Z</time>
      </trkpt>
      <trkpt lat="43.3667" lon="6.20306">
        <ele>261.4</ele>
        <time>2022-05-26T11:37:45Z</time>
      </trkpt>
      <trkpt lat="43.36653" lon="6.20315">
        <ele>261.2</ele>
        <time>2022-05-26T11:37:51Z</time>
      </trkpt>
      <trkpt lat="43.36649" lon="6.20317">
        <ele>261</ele>
        <time>2022-05-26T11:37:52Z</time>
      </trkpt>
      <trkpt lat="43.36635" lon="6.20324">
        <ele>260.6</ele>
        <time>2022-05-26T11:37:55Z</time>
      </trkpt>
      <trkpt lat="43.36628" lon="6.20327">
        <ele>260.6</ele>
        <time>2022-05-26T11:37:56Z</time>
      </trkpt>
      <trkpt lat="43.36622" lon="6.2033">
        <ele>260.4</ele>
        <time>2022-05-26T11:37:57Z</time>
      </trkpt>
      <trkpt lat="43.36616" lon="6.20331">
        <ele>260.4</ele>
        <time>2022-05-26T11:37:58Z</time>
      </trkpt>
      <trkpt lat="43.36603" lon="6.20331">
        <ele>260.2</ele>
        <time>2022-05-26T11:38:00Z</time>
      </trkpt>
      <trkpt lat="43.36596" lon="6.2033">
        <ele>260.2</ele>
        <time>2022-05-26T11:38:01Z</time>
      </trkpt>
      <trkpt lat="43.36577" lon="6.20325">
        <ele>260.2</ele>
        <time>2022-05-26T11:38:04Z</time>
      </trkpt>
      <trkpt lat="43.36571" lon="6.20323">
        <ele>260.4</ele>
        <time>2022-05-26T11:38:05Z</time>
      </trkpt>
      <trkpt lat="43.36533" lon="6.20312">
        <ele>260.8</ele>
        <time>2022-05-26T11:38:12Z</time>
      </trkpt>
      <trkpt lat="43.36512" lon="6.20308">
        <ele>261.6</ele>
        <time>2022-05-26T11:38:17Z</time>
      </trkpt>
      <trkpt lat="43.36504" lon="6.20307">
        <ele>261.8</ele>
        <time>2022-05-26T11:38:19Z</time>
      </trkpt>
      <trkpt lat="43.36489" lon="6.20307">
        <ele>262.6</ele>
        <time>2022-05-26T11:38:23Z</time>
      </trkpt>
      <trkpt lat="43.36486" lon="6.20307">
        <ele>262.8</ele>
        <time>2022-05-26T11:38:24Z</time>
      </trkpt>
      <trkpt lat="43.36476" lon="6.20308">
        <ele>263.8</ele>
        <time>2022-05-26T11:38:27Z</time>
      </trkpt>
      <trkpt lat="43.36462" lon="6.2031">
        <ele>265</ele>
        <time>2022-05-26T11:38:31Z</time>
      </trkpt>
      <trkpt lat="43.36448" lon="6.20313">
        <ele>266.2</ele>
        <time>2022-05-26T11:38:35Z</time>
      </trkpt>
      <trkpt lat="43.3644" lon="6.20317">
        <ele>267.4</ele>
        <time>2022-05-26T11:38:38Z</time>
      </trkpt>
      <trkpt lat="43.36437" lon="6.20319">
        <ele>267.6</ele>
        <time>2022-05-26T11:38:39Z</time>
      </trkpt>
      <trkpt lat="43.36429" lon="6.20323">
        <ele>268.4</ele>
        <time>2022-05-26T11:38:42Z</time>
      </trkpt>
      <trkpt lat="43.36418" lon="6.20327">
        <ele>269.4</ele>
        <time>2022-05-26T11:38:46Z</time>
      </trkpt>
      <trkpt lat="43.36416" lon="6.20328">
        <ele>269.4</ele>
        <time>2022-05-26T11:38:47Z</time>
      </trkpt>
      <trkpt lat="43.36398" lon="6.20335">
        <ele>270.8</ele>
        <time>2022-05-26T11:38:53Z</time>
      </trkpt>
      <trkpt lat="43.36395" lon="6.20336">
        <ele>270.8</ele>
        <time>2022-05-26T11:38:54Z</time>
      </trkpt>
      <trkpt lat="43.36392" lon="6.20337">
        <ele>271</ele>
        <time>2022-05-26T11:38:55Z</time>
      </trkpt>
      <trkpt lat="43.36389" lon="6.20337">
        <ele>271.2</ele>
        <time>2022-05-26T11:38:56Z</time>
      </trkpt>
      <trkpt lat="43.36386" lon="6.20337">
        <ele>271.4</ele>
        <time>2022-05-26T11:38:57Z</time>
      </trkpt>
      <trkpt lat="43.36383" lon="6.20338">
        <ele>271.6</ele>
        <time>2022-05-26T11:38:58Z</time>
      </trkpt>
      <trkpt lat="43.3638" lon="6.20338">
        <ele>272</ele>
        <time>2022-05-26T11:38:59Z</time>
      </trkpt>
      <trkpt lat="43.36373" lon="6.20339">
        <ele>272.4</ele>
        <time>2022-05-26T11:39:01Z</time>
      </trkpt>
      <trkpt lat="43.36361" lon="6.20338">
        <ele>273</ele>
        <time>2022-05-26T11:39:05Z</time>
      </trkpt>
      <trkpt lat="43.36355" lon="6.20338">
        <ele>273.4</ele>
        <time>2022-05-26T11:39:07Z</time>
      </trkpt>
      <trkpt lat="43.36337" lon="6.20336">
        <ele>274.2</ele>
        <time>2022-05-26T11:39:13Z</time>
      </trkpt>
      <trkpt lat="43.36324" lon="6.20334">
        <ele>274.8</ele>
        <time>2022-05-26T11:39:17Z</time>
      </trkpt>
      <trkpt lat="43.36308" lon="6.20328">
        <ele>275</ele>
        <time>2022-05-26T11:39:21Z</time>
      </trkpt>
      <trkpt lat="43.36295" lon="6.20322">
        <ele>275.2</ele>
        <time>2022-05-26T11:39:24Z</time>
      </trkpt>
      <trkpt lat="43.36285" lon="6.20318">
        <ele>275.2</ele>
        <time>2022-05-26T11:39:26Z</time>
      </trkpt>
      <trkpt lat="43.36281" lon="6.20315">
        <ele>275</ele>
        <time>2022-05-26T11:39:27Z</time>
      </trkpt>
      <trkpt lat="43.36254" lon="6.20291">
        <ele>274.2</ele>
        <time>2022-05-26T11:39:32Z</time>
      </trkpt>
      <trkpt lat="43.36228" lon="6.20256">
        <ele>273.2</ele>
        <time>2022-05-26T11:39:37Z</time>
      </trkpt>
      <trkpt lat="43.3622" lon="6.20239">
        <ele>272.6</ele>
        <time>2022-05-26T11:39:39Z</time>
      </trkpt>
      <trkpt lat="43.36213" lon="6.20219">
        <ele>272.2</ele>
        <time>2022-05-26T11:39:41Z</time>
      </trkpt>
      <trkpt lat="43.36202" lon="6.20186">
        <ele>271.2</ele>
        <time>2022-05-26T11:39:44Z</time>
      </trkpt>
      <trkpt lat="43.3619" lon="6.20153">
        <ele>270</ele>
        <time>2022-05-26T11:39:47Z</time>
      </trkpt>
      <trkpt lat="43.36175" lon="6.20122">
        <ele>269</ele>
        <time>2022-05-26T11:39:50Z</time>
      </trkpt>
      <trkpt lat="43.36162" lon="6.20103">
        <ele>268.2</ele>
        <time>2022-05-26T11:39:52Z</time>
      </trkpt>
      <trkpt lat="43.36147" lon="6.20085">
        <ele>267.8</ele>
        <time>2022-05-26T11:39:54Z</time>
      </trkpt>
      <trkpt lat="43.36132" lon="6.20067">
        <ele>267</ele>
        <time>2022-05-26T11:39:56Z</time>
      </trkpt>
      <trkpt lat="43.36125" lon="6.20058">
        <ele>266.4</ele>
        <time>2022-05-26T11:39:57Z</time>
      </trkpt>
      <trkpt lat="43.36117" lon="6.20049">
        <ele>266</ele>
        <time>2022-05-26T11:39:58Z</time>
      </trkpt>
      <trkpt lat="43.3611" lon="6.2004">
        <ele>265.4</ele>
        <time>2022-05-26T11:39:59Z</time>
      </trkpt>
      <trkpt lat="43.36087" lon="6.20011">
        <ele>263.6</ele>
        <time>2022-05-26T11:40:02Z</time>
      </trkpt>
      <trkpt lat="43.3607" lon="6.19991">
        <ele>262.8</ele>
        <time>2022-05-26T11:40:04Z</time>
      </trkpt>
      <trkpt lat="43.36062" lon="6.19982">
        <ele>262.6</ele>
        <time>2022-05-26T11:40:05Z</time>
      </trkpt>
      <trkpt lat="43.36043" lon="6.19967">
        <ele>261.6</ele>
        <time>2022-05-26T11:40:07Z</time>
      </trkpt>
      <trkpt lat="43.36034" lon="6.19959">
        <ele>261</ele>
        <time>2022-05-26T11:40:08Z</time>
      </trkpt>
      <trkpt lat="43.36014" lon="6.19947">
        <ele>259.6</ele>
        <time>2022-05-26T11:40:10Z</time>
      </trkpt>
      <trkpt lat="43.35993" lon="6.19942">
        <ele>258.2</ele>
        <time>2022-05-26T11:40:12Z</time>
      </trkpt>
      <trkpt lat="43.35972" lon="6.19935">
        <ele>256.8</ele>
        <time>2022-05-26T11:40:14Z</time>
      </trkpt>
      <trkpt lat="43.35962" lon="6.19931">
        <ele>256.4</ele>
        <time>2022-05-26T11:40:15Z</time>
      </trkpt>
      <trkpt lat="43.35952" lon="6.19926">
        <ele>255.8</ele>
        <time>2022-05-26T11:40:16Z</time>
      </trkpt>
      <trkpt lat="43.35942" lon="6.19919">
        <ele>255.4</ele>
        <time>2022-05-26T11:40:17Z</time>
      </trkpt>
      <trkpt lat="43.35933" lon="6.19911">
        <ele>255.2</ele>
        <time>2022-05-26T11:40:18Z</time>
      </trkpt>
      <trkpt lat="43.35917" lon="6.19892">
        <ele>254.6</ele>
        <time>2022-05-26T11:40:20Z</time>
      </trkpt>
      <trkpt lat="43.35903" lon="6.19871">
        <ele>254</ele>
        <time>2022-05-26T11:40:22Z</time>
      </trkpt>
      <trkpt lat="43.35896" lon="6.19859">
        <ele>253.4</ele>
        <time>2022-05-26T11:40:23Z</time>
      </trkpt>
      <trkpt lat="43.35888" lon="6.19834">
        <ele>253</ele>
        <time>2022-05-26T11:40:25Z</time>
      </trkpt>
      <trkpt lat="43.35879" lon="6.19793">
        <ele>252.2</ele>
        <time>2022-05-26T11:40:28Z</time>
      </trkpt>
      <trkpt lat="43.35878" lon="6.19779">
        <ele>252.2</ele>
        <time>2022-05-26T11:40:29Z</time>
      </trkpt>
      <trkpt lat="43.35878" lon="6.19753">
        <ele>251.2</ele>
        <time>2022-05-26T11:40:31Z</time>
      </trkpt>
      <trkpt lat="43.35879" lon="6.19715">
        <ele>251</ele>
        <time>2022-05-26T11:40:34Z</time>
      </trkpt>
      <trkpt lat="43.35879" lon="6.19669">
        <ele>250.8</ele>
        <time>2022-05-26T11:40:38Z</time>
      </trkpt>
      <trkpt lat="43.35878" lon="6.19658">
        <ele>251</ele>
        <time>2022-05-26T11:40:39Z</time>
      </trkpt>
      <trkpt lat="43.35876" lon="6.19648">
        <ele>251</ele>
        <time>2022-05-26T11:40:40Z</time>
      </trkpt>
      <trkpt lat="43.35867" lon="6.1961">
        <ele>251</ele>
        <time>2022-05-26T11:40:44Z</time>
      </trkpt>
      <trkpt lat="43.35848" lon="6.19561">
        <ele>251.4</ele>
        <time>2022-05-26T11:40:50Z</time>
      </trkpt>
      <trkpt lat="43.35822" lon="6.1951">
        <ele>251.4</ele>
        <time>2022-05-26T11:40:57Z</time>
      </trkpt>
      <trkpt lat="43.35819" lon="6.19503">
        <ele>251.4</ele>
        <time>2022-05-26T11:40:58Z</time>
      </trkpt>
      <trkpt lat="43.35799" lon="6.19461">
        <ele>251.6</ele>
        <time>2022-05-26T11:41:04Z</time>
      </trkpt>
      <trkpt lat="43.35771" lon="6.19404">
        <ele>251.8</ele>
        <time>2022-05-26T11:41:12Z</time>
      </trkpt>
      <trkpt lat="43.35746" lon="6.19366">
        <ele>252.2</ele>
        <time>2022-05-26T11:41:18Z</time>
      </trkpt>
      <trkpt lat="43.35736" lon="6.19354">
        <ele>252.2</ele>
        <time>2022-05-26T11:41:20Z</time>
      </trkpt>
      <trkpt lat="43.35725" lon="6.19343">
        <ele>252.4</ele>
        <time>2022-05-26T11:41:22Z</time>
      </trkpt>
      <trkpt lat="43.35715" lon="6.19334">
        <ele>252.6</ele>
        <time>2022-05-26T11:41:24Z</time>
      </trkpt>
      <trkpt lat="43.35667" lon="6.1929">
        <ele>252.8</ele>
        <time>2022-05-26T11:41:33Z</time>
      </trkpt>
      <trkpt lat="43.35636" lon="6.19252">
        <ele>253</ele>
        <time>2022-05-26T11:41:40Z</time>
      </trkpt>
      <trkpt lat="43.35618" lon="6.19222">
        <ele>253.4</ele>
        <time>2022-05-26T11:41:45Z</time>
      </trkpt>
      <trkpt lat="43.35607" lon="6.19202">
        <ele>253.8</ele>
        <time>2022-05-26T11:41:48Z</time>
      </trkpt>
      <trkpt lat="43.35598" lon="6.19184">
        <ele>254.2</ele>
        <time>2022-05-26T11:41:51Z</time>
      </trkpt>
      <trkpt lat="43.35595" lon="6.19177">
        <ele>254.4</ele>
        <time>2022-05-26T11:41:52Z</time>
      </trkpt>
      <trkpt lat="43.35576" lon="6.19137">
        <ele>255.4</ele>
        <time>2022-05-26T11:41:58Z</time>
      </trkpt>
      <trkpt lat="43.3557" lon="6.19124">
        <ele>255.6</ele>
        <time>2022-05-26T11:42:00Z</time>
      </trkpt>
      <trkpt lat="43.35551" lon="6.19084">
        <ele>256.8</ele>
        <time>2022-05-26T11:42:06Z</time>
      </trkpt>
      <trkpt lat="43.35545" lon="6.19072">
        <ele>257</ele>
        <time>2022-05-26T11:42:08Z</time>
      </trkpt>
      <trkpt lat="43.3553" lon="6.19041">
        <ele>257.6</ele>
        <time>2022-05-26T11:42:13Z</time>
      </trkpt>
      <trkpt lat="43.35525" lon="6.19029">
        <ele>257.8</ele>
        <time>2022-05-26T11:42:15Z</time>
      </trkpt>
      <trkpt lat="43.35519" lon="6.19017">
        <ele>258</ele>
        <time>2022-05-26T11:42:17Z</time>
      </trkpt>
      <trkpt lat="43.35494" lon="6.18963">
        <ele>259</ele>
        <time>2022-05-26T11:42:26Z</time>
      </trkpt>
      <trkpt lat="43.35491" lon="6.18957">
        <ele>259.2</ele>
        <time>2022-05-26T11:42:27Z</time>
      </trkpt>
      <trkpt lat="43.35472" lon="6.18915">
        <ele>259.8</ele>
        <time>2022-05-26T11:42:34Z</time>
      </trkpt>
      <trkpt lat="43.3547" lon="6.18909">
        <ele>260</ele>
        <time>2022-05-26T11:42:35Z</time>
      </trkpt>
      <trkpt lat="43.35454" lon="6.18875">
        <ele>260.8</ele>
        <time>2022-05-26T11:42:41Z</time>
      </trkpt>
      <trkpt lat="43.35451" lon="6.1887">
        <ele>260.8</ele>
        <time>2022-05-26T11:42:42Z</time>
      </trkpt>
      <trkpt lat="43.35446" lon="6.18858">
        <ele>261</ele>
        <time>2022-05-26T11:42:44Z</time>
      </trkpt>
      <trkpt lat="43.35428" lon="6.18816">
        <ele>261.4</ele>
        <time>2022-05-26T11:42:51Z</time>
      </trkpt>
      <trkpt lat="43.35406" lon="6.18753">
        <ele>261.8</ele>
        <time>2022-05-26T11:43:01Z</time>
      </trkpt>
      <trkpt lat="43.35394" lon="6.18715">
        <ele>262.2</ele>
        <time>2022-05-26T11:43:07Z</time>
      </trkpt>
      <trkpt lat="43.35379" lon="6.18671">
        <ele>263</ele>
        <time>2022-05-26T11:43:14Z</time>
      </trkpt>
      <trkpt lat="43.35365" lon="6.18633">
        <ele>263.4</ele>
        <time>2022-05-26T11:43:20Z</time>
      </trkpt>
      <trkpt lat="43.35359" lon="6.18615">
        <ele>263.8</ele>
        <time>2022-05-26T11:43:23Z</time>
      </trkpt>
      <trkpt lat="43.35359" lon="6.18601">
        <ele>264.2</ele>
        <time>2022-05-26T11:43:25Z</time>
      </trkpt>
      <trkpt lat="43.35362" lon="6.18588">
        <ele>264.4</ele>
        <time>2022-05-26T11:43:27Z</time>
      </trkpt>
      <trkpt lat="43.35366" lon="6.18573">
        <ele>264.4</ele>
        <time>2022-05-26T11:43:29Z</time>
      </trkpt>
      <trkpt lat="43.35366" lon="6.18565">
        <ele>264.4</ele>
        <time>2022-05-26T11:43:30Z</time>
      </trkpt>
      <trkpt lat="43.35365" lon="6.18557">
        <ele>264.4</ele>
        <time>2022-05-26T11:43:31Z</time>
      </trkpt>
      <trkpt lat="43.35355" lon="6.18503">
        <ele>264.4</ele>
        <time>2022-05-26T11:43:38Z</time>
      </trkpt>
      <trkpt lat="43.35344" lon="6.18443">
        <ele>264.4</ele>
        <time>2022-05-26T11:43:46Z</time>
      </trkpt>
      <trkpt lat="43.35329" lon="6.18366">
        <ele>264.8</ele>
        <time>2022-05-26T11:43:56Z</time>
      </trkpt>
      <trkpt lat="43.35324" lon="6.18343">
        <ele>264.8</ele>
        <time>2022-05-26T11:43:59Z</time>
      </trkpt>
      <trkpt lat="43.35323" lon="6.18336">
        <ele>265</ele>
        <time>2022-05-26T11:44:00Z</time>
      </trkpt>
      <trkpt lat="43.3531" lon="6.18258">
        <ele>265</ele>
        <time>2022-05-26T11:44:10Z</time>
      </trkpt>
      <trkpt lat="43.35303" lon="6.18227">
        <ele>265</ele>
        <time>2022-05-26T11:44:14Z</time>
      </trkpt>
      <trkpt lat="43.35297" lon="6.18196">
        <ele>265.2</ele>
        <time>2022-05-26T11:44:18Z</time>
      </trkpt>
      <trkpt lat="43.35285" lon="6.18133">
        <ele>265.4</ele>
        <time>2022-05-26T11:44:26Z</time>
      </trkpt>
      <trkpt lat="43.35284" lon="6.18125">
        <ele>265.4</ele>
        <time>2022-05-26T11:44:27Z</time>
      </trkpt>
      <trkpt lat="43.35267" lon="6.18073">
        <ele>265.6</ele>
        <time>2022-05-26T11:44:34Z</time>
      </trkpt>
      <trkpt lat="43.3526" lon="6.18058">
        <ele>265.6</ele>
        <time>2022-05-26T11:44:36Z</time>
      </trkpt>
      <trkpt lat="43.35247" lon="6.1804">
        <ele>265.8</ele>
        <time>2022-05-26T11:44:39Z</time>
      </trkpt>
      <trkpt lat="43.35218" lon="6.18017">
        <ele>265.8</ele>
        <time>2022-05-26T11:44:44Z</time>
      </trkpt>
      <trkpt lat="43.35178" lon="6.18001">
        <ele>265.6</ele>
        <time>2022-05-26T11:44:50Z</time>
      </trkpt>
      <trkpt lat="43.35119" lon="6.17982">
        <ele>265</ele>
        <time>2022-05-26T11:44:59Z</time>
      </trkpt>
      <trkpt lat="43.35079" lon="6.1797">
        <ele>264.8</ele>
        <time>2022-05-26T11:45:06Z</time>
      </trkpt>
      <trkpt lat="43.35045" lon="6.17959">
        <ele>264.6</ele>
        <time>2022-05-26T11:45:12Z</time>
      </trkpt>
      <trkpt lat="43.35026" lon="6.17953">
        <ele>264.2</ele>
        <time>2022-05-26T11:45:15Z</time>
      </trkpt>
      <trkpt lat="43.34999" lon="6.17944">
        <ele>263.4</ele>
        <time>2022-05-26T11:45:19Z</time>
      </trkpt>
      <trkpt lat="43.34985" lon="6.17939">
        <ele>263</ele>
        <time>2022-05-26T11:45:21Z</time>
      </trkpt>
      <trkpt lat="43.34972" lon="6.17933">
        <ele>262.6</ele>
        <time>2022-05-26T11:45:23Z</time>
      </trkpt>
      <trkpt lat="43.34966" lon="6.17931">
        <ele>262.2</ele>
        <time>2022-05-26T11:45:24Z</time>
      </trkpt>
      <trkpt lat="43.34953" lon="6.17926">
        <ele>262</ele>
        <time>2022-05-26T11:45:26Z</time>
      </trkpt>
      <trkpt lat="43.34946" lon="6.17924">
        <ele>261.6</ele>
        <time>2022-05-26T11:45:27Z</time>
      </trkpt>
      <trkpt lat="43.34939" lon="6.17921">
        <ele>261.6</ele>
        <time>2022-05-26T11:45:28Z</time>
      </trkpt>
      <trkpt lat="43.34919" lon="6.17913">
        <ele>261.2</ele>
        <time>2022-05-26T11:45:31Z</time>
      </trkpt>
      <trkpt lat="43.34913" lon="6.17908">
        <ele>261.2</ele>
        <time>2022-05-26T11:45:32Z</time>
      </trkpt>
      <trkpt lat="43.34909" lon="6.179">
        <ele>261</ele>
        <time>2022-05-26T11:45:33Z</time>
      </trkpt>
      <trkpt lat="43.34906" lon="6.17882">
        <ele>260.6</ele>
        <time>2022-05-26T11:45:35Z</time>
      </trkpt>
      <trkpt lat="43.34902" lon="6.17825">
        <ele>260.2</ele>
        <time>2022-05-26T11:45:42Z</time>
      </trkpt>
      <trkpt lat="43.349" lon="6.17809">
        <ele>260.2</ele>
        <time>2022-05-26T11:45:44Z</time>
      </trkpt>
      <trkpt lat="43.34896" lon="6.17787">
        <ele>260.2</ele>
        <time>2022-05-26T11:45:47Z</time>
      </trkpt>
      <trkpt lat="43.34893" lon="6.17754">
        <ele>260</ele>
        <time>2022-05-26T11:45:52Z</time>
      </trkpt>
      <trkpt lat="43.34891" lon="6.17739">
        <ele>260.2</ele>
        <time>2022-05-26T11:45:56Z</time>
      </trkpt>
      <trkpt lat="43.34889" lon="6.17736">
        <ele>260.4</ele>
        <time>2022-05-26T11:45:59Z</time>
      </trkpt>
      <trkpt lat="43.34888" lon="6.17734">
        <ele>260.4</ele>
        <time>2022-05-26T11:46:00Z</time>
      </trkpt>
      <trkpt lat="43.34888" lon="6.17733">
        <ele>260.4</ele>
        <time>2022-05-26T11:46:02Z</time>
      </trkpt>
      <trkpt lat="43.34888" lon="6.17733">
        <ele>260.4</ele>
        <time>2022-05-26T11:46:28Z</time>
      </trkpt>
      <trkpt lat="43.34888" lon="6.17733">
        <ele>260.4</ele>
        <time>2022-05-26T11:46:30Z</time>
      </trkpt>
      <trkpt lat="43.34888" lon="6.17733">
        <ele>260.4</ele>
        <time>2022-05-26T11:46:31Z</time>
      </trkpt>
      <trkpt lat="43.34888" lon="6.17732">
        <ele>260.6</ele>
        <time>2022-05-26T11:46:35Z</time>
      </trkpt>
      <trkpt lat="43.3489" lon="6.17729">
        <ele>260.6</ele>
        <time>2022-05-26T11:46:37Z</time>
      </trkpt>
      <trkpt lat="43.34892" lon="6.17727">
        <ele>260.8</ele>
        <time>2022-05-26T11:46:38Z</time>
      </trkpt>
      <trkpt lat="43.34903" lon="6.17708">
        <ele>260.6</ele>
        <time>2022-05-26T11:46:44Z</time>
      </trkpt>
      <trkpt lat="43.34906" lon="6.17704">
        <ele>260.6</ele>
        <time>2022-05-26T11:46:45Z</time>
      </trkpt>
      <trkpt lat="43.34912" lon="6.17699">
        <ele>260.6</ele>
        <time>2022-05-26T11:46:47Z</time>
      </trkpt>
      <trkpt lat="43.34917" lon="6.17694">
        <ele>260.6</ele>
        <time>2022-05-26T11:46:49Z</time>
      </trkpt>
      <trkpt lat="43.34926" lon="6.17687">
        <ele>260.6</ele>
        <time>2022-05-26T11:46:52Z</time>
      </trkpt>
      <trkpt lat="43.34928" lon="6.17685">
        <ele>260.6</ele>
        <time>2022-05-26T11:46:53Z</time>
      </trkpt>
      <trkpt lat="43.3493" lon="6.17683">
        <ele>260.6</ele>
        <time>2022-05-26T11:46:54Z</time>
      </trkpt>
      <trkpt lat="43.34933" lon="6.17681">
        <ele>260.6</ele>
        <time>2022-05-26T11:46:56Z</time>
      </trkpt>
      <trkpt lat="43.34935" lon="6.1768">
        <ele>260.6</ele>
        <time>2022-05-26T11:46:57Z</time>
      </trkpt>
      <trkpt lat="43.34938" lon="6.17679">
        <ele>260.8</ele>
        <time>2022-05-26T11:46:59Z</time>
      </trkpt>
      <trkpt lat="43.34939" lon="6.17678">
        <ele>260.8</ele>
        <time>2022-05-26T11:47:01Z</time>
      </trkpt>
      <trkpt lat="43.34946" lon="6.17677">
        <ele>261</ele>
        <time>2022-05-26T11:47:05Z</time>
      </trkpt>
      <trkpt lat="43.34947" lon="6.1768">
        <ele>261</ele>
        <time>2022-05-26T11:47:06Z</time>
      </trkpt>
      <trkpt lat="43.34948" lon="6.17683">
        <ele>261</ele>
        <time>2022-05-26T11:47:08Z</time>
      </trkpt>
      <trkpt lat="43.34948" lon="6.17684">
        <ele>261.2</ele>
        <time>2022-05-26T11:47:10Z</time>
      </trkpt>
      <trkpt lat="43.34947" lon="6.17684">
        <ele>261</ele>
        <time>2022-05-26T11:47:15Z</time>
      </trkpt>
      <trkpt lat="43.34947" lon="6.17684">
        <ele>261</ele>
        <time>2022-05-26T11:47:19Z</time>
      </trkpt>
      <trkpt lat="43.34961" lon="6.1765">
        <ele>261</ele>
        <time>2022-05-26T11:47:25Z</time>
      </trkpt>
      <trkpt lat="43.34964" lon="6.17652">
        <ele>261.2</ele>
        <time>2022-05-26T11:47:30Z</time>
      </trkpt>
      <trkpt lat="43.34953" lon="6.17659">
        <ele>261.2</ele>
        <time>2022-05-26T11:47:35Z</time>
      </trkpt>
      <trkpt lat="43.34947" lon="6.17663">
        <ele>261.2</ele>
        <time>2022-05-26T11:47:36Z</time>
      </trkpt>
      <trkpt lat="43.34946" lon="6.17669">
        <ele>261</ele>
        <time>2022-05-26T11:47:37Z</time>
      </trkpt>
      <trkpt lat="43.34945" lon="6.17673">
        <ele>261</ele>
        <time>2022-05-26T11:47:38Z</time>
      </trkpt>
      <trkpt lat="43.34944" lon="6.17676">
        <ele>260.8</ele>
        <time>2022-05-26T11:47:39Z</time>
      </trkpt>
      <trkpt lat="43.34942" lon="6.1768">
        <ele>260.8</ele>
        <time>2022-05-26T11:47:41Z</time>
      </trkpt>
      <trkpt lat="43.34943" lon="6.17682">
        <ele>261</ele>
        <time>2022-05-26T11:47:42Z</time>
      </trkpt>
      <trkpt lat="43.34943" lon="6.17682">
        <ele>260.6</ele>
        <time>2022-05-26T11:47:44Z</time>
      </trkpt>
      <trkpt lat="43.34943" lon="6.17682">
        <ele>260.6</ele>
        <time>2022-05-26T11:47:46Z</time>
      </trkpt>
      <trkpt lat="43.34943" lon="6.17682">
        <ele>260.2</ele>
        <time>2022-05-26T11:48:38Z</time>
      </trkpt>
      <trkpt lat="43.34943" lon="6.17682">
        <ele>260</ele>
        <time>2022-05-26T11:48:39Z</time>
      </trkpt>
      <trkpt lat="43.34943" lon="6.17682">
        <ele>260.2</ele>
        <time>2022-05-26T11:48:43Z</time>
      </trkpt>
      <trkpt lat="43.34942" lon="6.17683">
        <ele>260.4</ele>
        <time>2022-05-26T11:48:46Z</time>
      </trkpt>
      <trkpt lat="43.34942" lon="6.17683">
        <ele>260.4</ele>
        <time>2022-05-26T11:48:47Z</time>
      </trkpt>
      <trkpt lat="43.3494" lon="6.17675">
        <ele>260.6</ele>
        <time>2022-05-26T11:48:49Z</time>
      </trkpt>
      <trkpt lat="43.34941" lon="6.17647">
        <ele>260.4</ele>
        <time>2022-05-26T11:48:55Z</time>
      </trkpt>
      <trkpt lat="43.34942" lon="6.17642">
        <ele>260.4</ele>
        <time>2022-05-26T11:48:56Z</time>
      </trkpt>
      <trkpt lat="43.34946" lon="6.1763">
        <ele>260.4</ele>
        <time>2022-05-26T11:48:59Z</time>
      </trkpt>
      <trkpt lat="43.3495" lon="6.17624">
        <ele>260.6</ele>
        <time>2022-05-26T11:49:01Z</time>
      </trkpt>
      <trkpt lat="43.34951" lon="6.17624">
        <ele>260.6</ele>
        <time>2022-05-26T11:49:02Z</time>
      </trkpt>
      <trkpt lat="43.34953" lon="6.17622">
        <ele>260.8</ele>
        <time>2022-05-26T11:49:03Z</time>
      </trkpt>
      <trkpt lat="43.34959" lon="6.17616">
        <ele>260.8</ele>
        <time>2022-05-26T11:49:05Z</time>
      </trkpt>
      <trkpt lat="43.34972" lon="6.17602">
        <ele>261.2</ele>
        <time>2022-05-26T11:49:10Z</time>
      </trkpt>
      <trkpt lat="43.34972" lon="6.17596">
        <ele>261.2</ele>
        <time>2022-05-26T11:49:12Z</time>
      </trkpt>
      <trkpt lat="43.34971" lon="6.1759">
        <ele>261.4</ele>
        <time>2022-05-26T11:49:14Z</time>
      </trkpt>
      <trkpt lat="43.34968" lon="6.17576">
        <ele>261.6</ele>
        <time>2022-05-26T11:49:18Z</time>
      </trkpt>
      <trkpt lat="43.34967" lon="6.17568">
        <ele>261.8</ele>
        <time>2022-05-26T11:49:20Z</time>
      </trkpt>
      <trkpt lat="43.34967" lon="6.17562">
        <ele>261.8</ele>
        <time>2022-05-26T11:49:21Z</time>
      </trkpt>
      <trkpt lat="43.34968" lon="6.17558">
        <ele>262</ele>
        <time>2022-05-26T11:49:22Z</time>
      </trkpt>
      <trkpt lat="43.3497" lon="6.1755">
        <ele>262.2</ele>
        <time>2022-05-26T11:49:24Z</time>
      </trkpt>
      <trkpt lat="43.3497" lon="6.17545">
        <ele>262.2</ele>
        <time>2022-05-26T11:49:25Z</time>
      </trkpt>
      <trkpt lat="43.34969" lon="6.17525">
        <ele>262.8</ele>
        <time>2022-05-26T11:49:30Z</time>
      </trkpt>
      <trkpt lat="43.34968" lon="6.17521">
        <ele>263</ele>
        <time>2022-05-26T11:49:31Z</time>
      </trkpt>
      <trkpt lat="43.34969" lon="6.17499">
        <ele>263.6</ele>
        <time>2022-05-26T11:49:36Z</time>
      </trkpt>
      <trkpt lat="43.34969" lon="6.17488">
        <ele>263.6</ele>
        <time>2022-05-26T11:49:38Z</time>
      </trkpt>
      <trkpt lat="43.3497" lon="6.17478">
        <ele>263.6</ele>
        <time>2022-05-26T11:49:40Z</time>
      </trkpt>
      <trkpt lat="43.34972" lon="6.17473">
        <ele>263.6</ele>
        <time>2022-05-26T11:49:41Z</time>
      </trkpt>
      <trkpt lat="43.34977" lon="6.17447">
        <ele>263.6</ele>
        <time>2022-05-26T11:49:46Z</time>
      </trkpt>
      <trkpt lat="43.34978" lon="6.17438">
        <ele>263.6</ele>
        <time>2022-05-26T11:49:48Z</time>
      </trkpt>
      <trkpt lat="43.34979" lon="6.17425">
        <ele>263.6</ele>
        <time>2022-05-26T11:49:51Z</time>
      </trkpt>
      <trkpt lat="43.34978" lon="6.17418">
        <ele>263.4</ele>
        <time>2022-05-26T11:49:53Z</time>
      </trkpt>
      <trkpt lat="43.3497" lon="6.17399">
        <ele>263.2</ele>
        <time>2022-05-26T11:49:58Z</time>
      </trkpt>
      <trkpt lat="43.3497" lon="6.17397">
        <ele>263.2</ele>
        <time>2022-05-26T11:50:01Z</time>
      </trkpt>
      <trkpt lat="43.3497" lon="6.17395">
        <ele>263.2</ele>
        <time>2022-05-26T11:50:02Z</time>
      </trkpt>
      <trkpt lat="43.34959" lon="6.17372">
        <ele>263.2</ele>
        <time>2022-05-26T11:50:08Z</time>
      </trkpt>
      <trkpt lat="43.34951" lon="6.1735">
        <ele>263.4</ele>
        <time>2022-05-26T11:50:12Z</time>
      </trkpt>
      <trkpt lat="43.34942" lon="6.17317">
        <ele>263.4</ele>
        <time>2022-05-26T11:50:18Z</time>
      </trkpt>
      <trkpt lat="43.34939" lon="6.17304">
        <ele>263.4</ele>
        <time>2022-05-26T11:50:21Z</time>
      </trkpt>
      <trkpt lat="43.34935" lon="6.17291">
        <ele>263.4</ele>
        <time>2022-05-26T11:50:24Z</time>
      </trkpt>
      <trkpt lat="43.34935" lon="6.17272">
        <ele>263.4</ele>
        <time>2022-05-26T11:50:28Z</time>
      </trkpt>
      <trkpt lat="43.34933" lon="6.17244">
        <ele>263.4</ele>
        <time>2022-05-26T11:50:33Z</time>
      </trkpt>
      <trkpt lat="43.34934" lon="6.17207">
        <ele>263.4</ele>
        <time>2022-05-26T11:50:39Z</time>
      </trkpt>
      <trkpt lat="43.34931" lon="6.17179">
        <ele>263.6</ele>
        <time>2022-05-26T11:50:44Z</time>
      </trkpt>
      <trkpt lat="43.34929" lon="6.17173">
        <ele>263.6</ele>
        <time>2022-05-26T11:50:45Z</time>
      </trkpt>
      <trkpt lat="43.34928" lon="6.17154">
        <ele>263.4</ele>
        <time>2022-05-26T11:50:48Z</time>
      </trkpt>
      <trkpt lat="43.34926" lon="6.17131">
        <ele>263.2</ele>
        <time>2022-05-26T11:50:52Z</time>
      </trkpt>
      <trkpt lat="43.34926" lon="6.17114">
        <ele>263.2</ele>
        <time>2022-05-26T11:50:55Z</time>
      </trkpt>
      <trkpt lat="43.34923" lon="6.17084">
        <ele>263.4</ele>
        <time>2022-05-26T11:51:00Z</time>
      </trkpt>
      <trkpt lat="43.34922" lon="6.17067">
        <ele>263.4</ele>
        <time>2022-05-26T11:51:03Z</time>
      </trkpt>
      <trkpt lat="43.34922" lon="6.17056">
        <ele>263.4</ele>
        <time>2022-05-26T11:51:05Z</time>
      </trkpt>
      <trkpt lat="43.34918" lon="6.17032">
        <ele>263.8</ele>
        <time>2022-05-26T11:51:10Z</time>
      </trkpt>
      <trkpt lat="43.34922" lon="6.17012">
        <ele>264</ele>
        <time>2022-05-26T11:51:14Z</time>
      </trkpt>
      <trkpt lat="43.34926" lon="6.17005">
        <ele>264</ele>
        <time>2022-05-26T11:51:16Z</time>
      </trkpt>
      <trkpt lat="43.34928" lon="6.17004">
        <ele>264.2</ele>
        <time>2022-05-26T11:51:17Z</time>
      </trkpt>
      <trkpt lat="43.34934" lon="6.17004">
        <ele>264.6</ele>
        <time>2022-05-26T11:51:21Z</time>
      </trkpt>
      <trkpt lat="43.34934" lon="6.17004">
        <ele>265</ele>
        <time>2022-05-26T11:51:27Z</time>
      </trkpt>
      <trkpt lat="43.34934" lon="6.17004">
        <ele>265</ele>
        <time>2022-05-26T11:51:30Z</time>
      </trkpt>
      <trkpt lat="43.34934" lon="6.17004">
        <ele>265</ele>
        <time>2022-05-26T11:51:40Z</time>
      </trkpt>
      <trkpt lat="43.34934" lon="6.17004">
        <ele>265.2</ele>
        <time>2022-05-26T11:51:47Z</time>
      </trkpt>
      <trkpt lat="43.34939" lon="6.17003">
        <ele>265.2</ele>
        <time>2022-05-26T11:51:58Z</time>
      </trkpt>
      <trkpt lat="43.34951" lon="6.16997">
        <ele>265.2</ele>
        <time>2022-05-26T11:52:03Z</time>
      </trkpt>
      <trkpt lat="43.34963" lon="6.16978">
        <ele>266</ele>
        <time>2022-05-26T11:52:09Z</time>
      </trkpt>
      <trkpt lat="43.34965" lon="6.16975">
        <ele>266.2</ele>
        <time>2022-05-26T11:52:10Z</time>
      </trkpt>
      <trkpt lat="43.34975" lon="6.16957">
        <ele>267.2</ele>
        <time>2022-05-26T11:52:15Z</time>
      </trkpt>
      <trkpt lat="43.34977" lon="6.16953">
        <ele>267.4</ele>
        <time>2022-05-26T11:52:16Z</time>
      </trkpt>
      <trkpt lat="43.34978" lon="6.16949">
        <ele>267.4</ele>
        <time>2022-05-26T11:52:17Z</time>
      </trkpt>
      <trkpt lat="43.34984" lon="6.1693">
        <ele>267.6</ele>
        <time>2022-05-26T11:52:21Z</time>
      </trkpt>
      <trkpt lat="43.34984" lon="6.16918">
        <ele>267.8</ele>
        <time>2022-05-26T11:52:23Z</time>
      </trkpt>
      <trkpt lat="43.3498" lon="6.16884">
        <ele>267.8</ele>
        <time>2022-05-26T11:52:28Z</time>
      </trkpt>
      <trkpt lat="43.34972" lon="6.16836">
        <ele>267.4</ele>
        <time>2022-05-26T11:52:35Z</time>
      </trkpt>
      <trkpt lat="43.34971" lon="6.1683">
        <ele>267.2</ele>
        <time>2022-05-26T11:52:36Z</time>
      </trkpt>
      <trkpt lat="43.34961" lon="6.16779">
        <ele>267.4</ele>
        <time>2022-05-26T11:52:44Z</time>
      </trkpt>
      <trkpt lat="43.34956" lon="6.1673">
        <ele>268</ele>
        <time>2022-05-26T11:52:52Z</time>
      </trkpt>
      <trkpt lat="43.34952" lon="6.16679">
        <ele>268.4</ele>
        <time>2022-05-26T11:53:00Z</time>
      </trkpt>
      <trkpt lat="43.34952" lon="6.16673">
        <ele>268.6</ele>
        <time>2022-05-26T11:53:01Z</time>
      </trkpt>
      <trkpt lat="43.3495" lon="6.1666">
        <ele>268.8</ele>
        <time>2022-05-26T11:53:03Z</time>
      </trkpt>
      <trkpt lat="43.34946" lon="6.16638">
        <ele>269.2</ele>
        <time>2022-05-26T11:53:07Z</time>
      </trkpt>
      <trkpt lat="43.34943" lon="6.16624">
        <ele>269.4</ele>
        <time>2022-05-26T11:53:09Z</time>
      </trkpt>
      <trkpt lat="43.3494" lon="6.16614">
        <ele>269.8</ele>
        <time>2022-05-26T11:53:11Z</time>
      </trkpt>
      <trkpt lat="43.34936" lon="6.16602">
        <ele>270</ele>
        <time>2022-05-26T11:53:13Z</time>
      </trkpt>
      <trkpt lat="43.34929" lon="6.16578">
        <ele>270.4</ele>
        <time>2022-05-26T11:53:17Z</time>
      </trkpt>
      <trkpt lat="43.34929" lon="6.16566">
        <ele>270.4</ele>
        <time>2022-05-26T11:53:19Z</time>
      </trkpt>
      <trkpt lat="43.34932" lon="6.16548">
        <ele>270.8</ele>
        <time>2022-05-26T11:53:22Z</time>
      </trkpt>
      <trkpt lat="43.34935" lon="6.16536">
        <ele>271</ele>
        <time>2022-05-26T11:53:24Z</time>
      </trkpt>
      <trkpt lat="43.34936" lon="6.16532">
        <ele>271</ele>
        <time>2022-05-26T11:53:25Z</time>
      </trkpt>
      <trkpt lat="43.34943" lon="6.16496">
        <ele>272</ele>
        <time>2022-05-26T11:53:31Z</time>
      </trkpt>
      <trkpt lat="43.34945" lon="6.16453">
        <ele>273</ele>
        <time>2022-05-26T11:53:38Z</time>
      </trkpt>
      <trkpt lat="43.34944" lon="6.16443">
        <ele>273.2</ele>
        <time>2022-05-26T11:53:40Z</time>
      </trkpt>
      <trkpt lat="43.3494" lon="6.16422">
        <ele>274</ele>
        <time>2022-05-26T11:53:46Z</time>
      </trkpt>
      <trkpt lat="43.3494" lon="6.16419">
        <ele>274</ele>
        <time>2022-05-26T11:53:47Z</time>
      </trkpt>
      <trkpt lat="43.34936" lon="6.16407">
        <ele>274.6</ele>
        <time>2022-05-26T11:53:52Z</time>
      </trkpt>
      <trkpt lat="43.34935" lon="6.16402">
        <ele>275</ele>
        <time>2022-05-26T11:53:54Z</time>
      </trkpt>
      <trkpt lat="43.34933" lon="6.16391">
        <ele>276</ele>
        <time>2022-05-26T11:53:59Z</time>
      </trkpt>
      <trkpt lat="43.34932" lon="6.16389">
        <ele>276.2</ele>
        <time>2022-05-26T11:54:00Z</time>
      </trkpt>
      <trkpt lat="43.34933" lon="6.16377">
        <ele>277.2</ele>
        <time>2022-05-26T11:54:05Z</time>
      </trkpt>
      <trkpt lat="43.34934" lon="6.16369">
        <ele>277.8</ele>
        <time>2022-05-26T11:54:08Z</time>
      </trkpt>
      <trkpt lat="43.34935" lon="6.16361">
        <ele>278.4</ele>
        <time>2022-05-26T11:54:12Z</time>
      </trkpt>
      <trkpt lat="43.34936" lon="6.16352">
        <ele>279.2</ele>
        <time>2022-05-26T11:54:16Z</time>
      </trkpt>
      <trkpt lat="43.34937" lon="6.16351">
        <ele>279.4</ele>
        <time>2022-05-26T11:54:17Z</time>
      </trkpt>
      <trkpt lat="43.3494" lon="6.1634">
        <ele>280.6</ele>
        <time>2022-05-26T11:54:22Z</time>
      </trkpt>
      <trkpt lat="43.34941" lon="6.16334">
        <ele>281.6</ele>
        <time>2022-05-26T11:54:26Z</time>
      </trkpt>
      <trkpt lat="43.34942" lon="6.16331">
        <ele>282</ele>
        <time>2022-05-26T11:54:28Z</time>
      </trkpt>
      <trkpt lat="43.34942" lon="6.16327">
        <ele>282.6</ele>
        <time>2022-05-26T11:54:30Z</time>
      </trkpt>
      <trkpt lat="43.34943" lon="6.16323">
        <ele>283</ele>
        <time>2022-05-26T11:54:32Z</time>
      </trkpt>
      <trkpt lat="43.34943" lon="6.1632">
        <ele>283.2</ele>
        <time>2022-05-26T11:54:34Z</time>
      </trkpt>
      <trkpt lat="43.34942" lon="6.16311">
        <ele>283.8</ele>
        <time>2022-05-26T11:54:38Z</time>
      </trkpt>
      <trkpt lat="43.34942" lon="6.16307">
        <ele>284</ele>
        <time>2022-05-26T11:54:40Z</time>
      </trkpt>
      <trkpt lat="43.34942" lon="6.16306">
        <ele>284.2</ele>
        <time>2022-05-26T11:54:41Z</time>
      </trkpt>
      <trkpt lat="43.34941" lon="6.16297">
        <ele>284.8</ele>
        <time>2022-05-26T11:54:46Z</time>
      </trkpt>
      <trkpt lat="43.3494" lon="6.16296">
        <ele>285</ele>
        <time>2022-05-26T11:54:47Z</time>
      </trkpt>
      <trkpt lat="43.3494" lon="6.16294">
        <ele>285.2</ele>
        <time>2022-05-26T11:54:48Z</time>
      </trkpt>
      <trkpt lat="43.34939" lon="6.16288">
        <ele>285.8</ele>
        <time>2022-05-26T11:54:51Z</time>
      </trkpt>
      <trkpt lat="43.34939" lon="6.16286">
        <ele>286</ele>
        <time>2022-05-26T11:54:52Z</time>
      </trkpt>
      <trkpt lat="43.34939" lon="6.16282">
        <ele>286.2</ele>
        <time>2022-05-26T11:54:54Z</time>
      </trkpt>
      <trkpt lat="43.3494" lon="6.16276">
        <ele>286.8</ele>
        <time>2022-05-26T11:54:58Z</time>
      </trkpt>
      <trkpt lat="43.3494" lon="6.16274">
        <ele>287</ele>
        <time>2022-05-26T11:54:59Z</time>
      </trkpt>
      <trkpt lat="43.34942" lon="6.16267">
        <ele>287.6</ele>
        <time>2022-05-26T11:55:03Z</time>
      </trkpt>
      <trkpt lat="43.34945" lon="6.16261">
        <ele>288</ele>
        <time>2022-05-26T11:55:07Z</time>
      </trkpt>
      <trkpt lat="43.34945" lon="6.16259">
        <ele>288</ele>
        <time>2022-05-26T11:55:08Z</time>
      </trkpt>
      <trkpt lat="43.34946" lon="6.16256">
        <ele>288.4</ele>
        <time>2022-05-26T11:55:10Z</time>
      </trkpt>
      <trkpt lat="43.34948" lon="6.16253">
        <ele>289.2</ele>
        <time>2022-05-26T11:55:13Z</time>
      </trkpt>
      <trkpt lat="43.34951" lon="6.16244">
        <ele>290.2</ele>
        <time>2022-05-26T11:55:19Z</time>
      </trkpt>
      <trkpt lat="43.34952" lon="6.16241">
        <ele>290.2</ele>
        <time>2022-05-26T11:55:20Z</time>
      </trkpt>
      <trkpt lat="43.34952" lon="6.16238">
        <ele>290.4</ele>
        <time>2022-05-26T11:55:22Z</time>
      </trkpt>
      <trkpt lat="43.34953" lon="6.16235">
        <ele>291</ele>
        <time>2022-05-26T11:55:24Z</time>
      </trkpt>
      <trkpt lat="43.34954" lon="6.16234">
        <ele>291</ele>
        <time>2022-05-26T11:55:25Z</time>
      </trkpt>
      <trkpt lat="43.34955" lon="6.1623">
        <ele>291.2</ele>
        <time>2022-05-26T11:55:27Z</time>
      </trkpt>
      <trkpt lat="43.34956" lon="6.16229">
        <ele>291.4</ele>
        <time>2022-05-26T11:55:28Z</time>
      </trkpt>
      <trkpt lat="43.34956" lon="6.16227">
        <ele>291.6</ele>
        <time>2022-05-26T11:55:29Z</time>
      </trkpt>
      <trkpt lat="43.34957" lon="6.16223">
        <ele>292</ele>
        <time>2022-05-26T11:55:32Z</time>
      </trkpt>
      <trkpt lat="43.34959" lon="6.16218">
        <ele>292.6</ele>
        <time>2022-05-26T11:55:35Z</time>
      </trkpt>
      <trkpt lat="43.34961" lon="6.16209">
        <ele>293.6</ele>
        <time>2022-05-26T11:55:40Z</time>
      </trkpt>
      <trkpt lat="43.34962" lon="6.16207">
        <ele>293.8</ele>
        <time>2022-05-26T11:55:41Z</time>
      </trkpt>
      <trkpt lat="43.34963" lon="6.16204">
        <ele>294</ele>
        <time>2022-05-26T11:55:43Z</time>
      </trkpt>
      <trkpt lat="43.34967" lon="6.162">
        <ele>294.4</ele>
        <time>2022-05-26T11:55:46Z</time>
      </trkpt>
      <trkpt lat="43.34968" lon="6.16198">
        <ele>294.4</ele>
        <time>2022-05-26T11:55:47Z</time>
      </trkpt>
      <trkpt lat="43.34968" lon="6.16196">
        <ele>294.6</ele>
        <time>2022-05-26T11:55:48Z</time>
      </trkpt>
      <trkpt lat="43.34969" lon="6.16193">
        <ele>295</ele>
        <time>2022-05-26T11:55:50Z</time>
      </trkpt>
      <trkpt lat="43.34969" lon="6.1619">
        <ele>295.4</ele>
        <time>2022-05-26T11:55:52Z</time>
      </trkpt>
      <trkpt lat="43.3497" lon="6.16186">
        <ele>296.2</ele>
        <time>2022-05-26T11:55:55Z</time>
      </trkpt>
      <trkpt lat="43.34971" lon="6.16182">
        <ele>296.6</ele>
        <time>2022-05-26T11:55:57Z</time>
      </trkpt>
      <trkpt lat="43.34972" lon="6.16177">
        <ele>297.2</ele>
        <time>2022-05-26T11:56:00Z</time>
      </trkpt>
      <trkpt lat="43.34973" lon="6.16172">
        <ele>297.8</ele>
        <time>2022-05-26T11:56:03Z</time>
      </trkpt>
      <trkpt lat="43.34973" lon="6.16169">
        <ele>298.2</ele>
        <time>2022-05-26T11:56:05Z</time>
      </trkpt>
      <trkpt lat="43.34973" lon="6.16165">
        <ele>298.8</ele>
        <time>2022-05-26T11:56:09Z</time>
      </trkpt>
      <trkpt lat="43.34973" lon="6.1616">
        <ele>299.4</ele>
        <time>2022-05-26T11:56:13Z</time>
      </trkpt>
      <trkpt lat="43.34973" lon="6.16153">
        <ele>300</ele>
        <time>2022-05-26T11:56:18Z</time>
      </trkpt>
      <trkpt lat="43.34972" lon="6.1615">
        <ele>300.4</ele>
        <time>2022-05-26T11:56:21Z</time>
      </trkpt>
      <trkpt lat="43.34971" lon="6.16146">
        <ele>300.8</ele>
        <time>2022-05-26T11:56:24Z</time>
      </trkpt>
      <trkpt lat="43.3497" lon="6.1614">
        <ele>301.4</ele>
        <time>2022-05-26T11:56:27Z</time>
      </trkpt>
      <trkpt lat="43.3497" lon="6.16138">
        <ele>301.4</ele>
        <time>2022-05-26T11:56:28Z</time>
      </trkpt>
      <trkpt lat="43.34969" lon="6.16129">
        <ele>302.4</ele>
        <time>2022-05-26T11:56:33Z</time>
      </trkpt>
      <trkpt lat="43.34968" lon="6.16127">
        <ele>302.6</ele>
        <time>2022-05-26T11:56:34Z</time>
      </trkpt>
      <trkpt lat="43.34968" lon="6.16116">
        <ele>303.2</ele>
        <time>2022-05-26T11:56:39Z</time>
      </trkpt>
      <trkpt lat="43.34967" lon="6.16114">
        <ele>303.2</ele>
        <time>2022-05-26T11:56:40Z</time>
      </trkpt>
      <trkpt lat="43.34965" lon="6.16109">
        <ele>303.6</ele>
        <time>2022-05-26T11:56:42Z</time>
      </trkpt>
      <trkpt lat="43.34965" lon="6.16104">
        <ele>304</ele>
        <time>2022-05-26T11:56:45Z</time>
      </trkpt>
      <trkpt lat="43.34965" lon="6.16099">
        <ele>304.2</ele>
        <time>2022-05-26T11:56:47Z</time>
      </trkpt>
      <trkpt lat="43.34963" lon="6.16092">
        <ele>304.4</ele>
        <time>2022-05-26T11:56:51Z</time>
      </trkpt>
      <trkpt lat="43.34963" lon="6.16089">
        <ele>304.6</ele>
        <time>2022-05-26T11:56:53Z</time>
      </trkpt>
      <trkpt lat="43.34963" lon="6.16088">
        <ele>304.8</ele>
        <time>2022-05-26T11:56:54Z</time>
      </trkpt>
      <trkpt lat="43.34958" lon="6.16077">
        <ele>305.6</ele>
        <time>2022-05-26T11:57:01Z</time>
      </trkpt>
      <trkpt lat="43.34958" lon="6.16076">
        <ele>305.8</ele>
        <time>2022-05-26T11:57:02Z</time>
      </trkpt>
      <trkpt lat="43.34954" lon="6.16069">
        <ele>306.2</ele>
        <time>2022-05-26T11:57:06Z</time>
      </trkpt>
      <trkpt lat="43.3495" lon="6.16063">
        <ele>306.6</ele>
        <time>2022-05-26T11:57:10Z</time>
      </trkpt>
      <trkpt lat="43.34948" lon="6.16058">
        <ele>306.6</ele>
        <time>2022-05-26T11:57:13Z</time>
      </trkpt>
      <trkpt lat="43.34945" lon="6.16052">
        <ele>307</ele>
        <time>2022-05-26T11:57:17Z</time>
      </trkpt>
      <trkpt lat="43.34941" lon="6.16037">
        <ele>307.8</ele>
        <time>2022-05-26T11:57:24Z</time>
      </trkpt>
      <trkpt lat="43.34938" lon="6.16022">
        <ele>308.8</ele>
        <time>2022-05-26T11:57:31Z</time>
      </trkpt>
      <trkpt lat="43.34936" lon="6.16017">
        <ele>309</ele>
        <time>2022-05-26T11:57:33Z</time>
      </trkpt>
      <trkpt lat="43.34934" lon="6.16003">
        <ele>309.8</ele>
        <time>2022-05-26T11:57:40Z</time>
      </trkpt>
      <trkpt lat="43.34934" lon="6.15999">
        <ele>310.2</ele>
        <time>2022-05-26T11:57:42Z</time>
      </trkpt>
      <trkpt lat="43.34933" lon="6.15995">
        <ele>310.6</ele>
        <time>2022-05-26T11:57:45Z</time>
      </trkpt>
      <trkpt lat="43.34933" lon="6.15991">
        <ele>311</ele>
        <time>2022-05-26T11:57:48Z</time>
      </trkpt>
      <trkpt lat="43.34932" lon="6.15988">
        <ele>311.4</ele>
        <time>2022-05-26T11:57:50Z</time>
      </trkpt>
      <trkpt lat="43.34931" lon="6.15987">
        <ele>311.6</ele>
        <time>2022-05-26T11:57:51Z</time>
      </trkpt>
      <trkpt lat="43.34931" lon="6.15982">
        <ele>311.8</ele>
        <time>2022-05-26T11:57:54Z</time>
      </trkpt>
      <trkpt lat="43.34931" lon="6.15977">
        <ele>312.6</ele>
        <time>2022-05-26T11:57:58Z</time>
      </trkpt>
      <trkpt lat="43.3493" lon="6.15974">
        <ele>313.2</ele>
        <time>2022-05-26T11:58:00Z</time>
      </trkpt>
      <trkpt lat="43.3493" lon="6.15973">
        <ele>313.2</ele>
        <time>2022-05-26T11:58:01Z</time>
      </trkpt>
      <trkpt lat="43.34929" lon="6.1597">
        <ele>313.6</ele>
        <time>2022-05-26T11:58:03Z</time>
      </trkpt>
      <trkpt lat="43.34929" lon="6.15964">
        <ele>314.4</ele>
        <time>2022-05-26T11:58:07Z</time>
      </trkpt>
      <trkpt lat="43.34929" lon="6.15962">
        <ele>314.8</ele>
        <time>2022-05-26T11:58:09Z</time>
      </trkpt>
      <trkpt lat="43.34926" lon="6.15953">
        <ele>315.8</ele>
        <time>2022-05-26T11:58:14Z</time>
      </trkpt>
      <trkpt lat="43.34922" lon="6.15943">
        <ele>316.8</ele>
        <time>2022-05-26T11:58:18Z</time>
      </trkpt>
      <trkpt lat="43.34921" lon="6.15942">
        <ele>317</ele>
        <time>2022-05-26T11:58:19Z</time>
      </trkpt>
      <trkpt lat="43.34919" lon="6.15939">
        <ele>317.6</ele>
        <time>2022-05-26T11:58:21Z</time>
      </trkpt>
      <trkpt lat="43.34919" lon="6.15939">
        <ele>318.2</ele>
        <time>2022-05-26T11:58:24Z</time>
      </trkpt>
      <trkpt lat="43.34919" lon="6.15939">
        <ele>318.6</ele>
        <time>2022-05-26T11:58:30Z</time>
      </trkpt>
      <trkpt lat="43.34919" lon="6.15939">
        <ele>318.8</ele>
        <time>2022-05-26T11:58:49Z</time>
      </trkpt>
      <trkpt lat="43.34919" lon="6.15939">
        <ele>318.6</ele>
        <time>2022-05-26T11:59:00Z</time>
      </trkpt>
      <trkpt lat="43.34919" lon="6.15939">
        <ele>318.4</ele>
        <time>2022-05-26T11:59:17Z</time>
      </trkpt>
      <trkpt lat="43.34919" lon="6.15939">
        <ele>318.6</ele>
        <time>2022-05-26T11:59:31Z</time>
      </trkpt>
      <trkpt lat="43.34918" lon="6.15932">
        <ele>318.6</ele>
        <time>2022-05-26T11:59:39Z</time>
      </trkpt>
      <trkpt lat="43.34915" lon="6.15924">
        <ele>319.2</ele>
        <time>2022-05-26T11:59:45Z</time>
      </trkpt>
      <trkpt lat="43.34915" lon="6.15921">
        <ele>319.6</ele>
        <time>2022-05-26T11:59:47Z</time>
      </trkpt>
      <trkpt lat="43.3491" lon="6.15912">
        <ele>320.6</ele>
        <time>2022-05-26T11:59:53Z</time>
      </trkpt>
      <trkpt lat="43.3491" lon="6.1591">
        <ele>320.6</ele>
        <time>2022-05-26T11:59:54Z</time>
      </trkpt>
      <trkpt lat="43.34904" lon="6.15895">
        <ele>321.6</ele>
        <time>2022-05-26T12:00:01Z</time>
      </trkpt>
      <trkpt lat="43.34904" lon="6.15893">
        <ele>321.8</ele>
        <time>2022-05-26T12:00:02Z</time>
      </trkpt>
      <trkpt lat="43.34902" lon="6.15885">
        <ele>322.2</ele>
        <time>2022-05-26T12:00:05Z</time>
      </trkpt>
      <trkpt lat="43.349" lon="6.15881">
        <ele>322.4</ele>
        <time>2022-05-26T12:00:08Z</time>
      </trkpt>
      <trkpt lat="43.34898" lon="6.15877">
        <ele>322.8</ele>
        <time>2022-05-26T12:00:11Z</time>
      </trkpt>
      <trkpt lat="43.34896" lon="6.15873">
        <ele>323.4</ele>
        <time>2022-05-26T12:00:15Z</time>
      </trkpt>
      <trkpt lat="43.34895" lon="6.1587">
        <ele>324</ele>
        <time>2022-05-26T12:00:18Z</time>
      </trkpt>
      <trkpt lat="43.34894" lon="6.15866">
        <ele>324.6</ele>
        <time>2022-05-26T12:00:21Z</time>
      </trkpt>
      <trkpt lat="43.34893" lon="6.15864">
        <ele>324.8</ele>
        <time>2022-05-26T12:00:22Z</time>
      </trkpt>
      <trkpt lat="43.34892" lon="6.15862">
        <ele>325.4</ele>
        <time>2022-05-26T12:00:23Z</time>
      </trkpt>
      <trkpt lat="43.34886" lon="6.15853">
        <ele>326.4</ele>
        <time>2022-05-26T12:00:28Z</time>
      </trkpt>
      <trkpt lat="43.34884" lon="6.15845">
        <ele>327.6</ele>
        <time>2022-05-26T12:00:33Z</time>
      </trkpt>
      <trkpt lat="43.34881" lon="6.1584">
        <ele>328</ele>
        <time>2022-05-26T12:00:36Z</time>
      </trkpt>
      <trkpt lat="43.34879" lon="6.15835">
        <ele>328.6</ele>
        <time>2022-05-26T12:00:39Z</time>
      </trkpt>
      <trkpt lat="43.34874" lon="6.15825">
        <ele>329.6</ele>
        <time>2022-05-26T12:00:43Z</time>
      </trkpt>
      <trkpt lat="43.34873" lon="6.15823">
        <ele>329.6</ele>
        <time>2022-05-26T12:00:44Z</time>
      </trkpt>
      <trkpt lat="43.34866" lon="6.1581">
        <ele>330.6</ele>
        <time>2022-05-26T12:00:51Z</time>
      </trkpt>
      <trkpt lat="43.34865" lon="6.15808">
        <ele>331</ele>
        <time>2022-05-26T12:00:52Z</time>
      </trkpt>
      <trkpt lat="43.34862" lon="6.15803">
        <ele>331.2</ele>
        <time>2022-05-26T12:00:55Z</time>
      </trkpt>
      <trkpt lat="43.34857" lon="6.15795">
        <ele>331.4</ele>
        <time>2022-05-26T12:01:00Z</time>
      </trkpt>
      <trkpt lat="43.34852" lon="6.15781">
        <ele>331.8</ele>
        <time>2022-05-26T12:01:07Z</time>
      </trkpt>
      <trkpt lat="43.34852" lon="6.15779">
        <ele>331.8</ele>
        <time>2022-05-26T12:01:08Z</time>
      </trkpt>
      <trkpt lat="43.3485" lon="6.15775">
        <ele>332</ele>
        <time>2022-05-26T12:01:10Z</time>
      </trkpt>
      <trkpt lat="43.34848" lon="6.15763">
        <ele>333</ele>
        <time>2022-05-26T12:01:15Z</time>
      </trkpt>
      <trkpt lat="43.34848" lon="6.15761">
        <ele>333.2</ele>
        <time>2022-05-26T12:01:16Z</time>
      </trkpt>
      <trkpt lat="43.34848" lon="6.15755">
        <ele>333.8</ele>
        <time>2022-05-26T12:01:19Z</time>
      </trkpt>
      <trkpt lat="43.34849" lon="6.15753">
        <ele>334.2</ele>
        <time>2022-05-26T12:01:20Z</time>
      </trkpt>
      <trkpt lat="43.3485" lon="6.15751">
        <ele>334.4</ele>
        <time>2022-05-26T12:01:21Z</time>
      </trkpt>
      <trkpt lat="43.34851" lon="6.15749">
        <ele>334.6</ele>
        <time>2022-05-26T12:01:22Z</time>
      </trkpt>
      <trkpt lat="43.34857" lon="6.15734">
        <ele>335.2</ele>
        <time>2022-05-26T12:01:28Z</time>
      </trkpt>
      <trkpt lat="43.34865" lon="6.15717">
        <ele>335.6</ele>
        <time>2022-05-26T12:01:34Z</time>
      </trkpt>
      <trkpt lat="43.34871" lon="6.15697">
        <ele>335.4</ele>
        <time>2022-05-26T12:01:39Z</time>
      </trkpt>
      <trkpt lat="43.34872" lon="6.15684">
        <ele>335.2</ele>
        <time>2022-05-26T12:01:41Z</time>
      </trkpt>
      <trkpt lat="43.34873" lon="6.15672">
        <ele>335.2</ele>
        <time>2022-05-26T12:01:43Z</time>
      </trkpt>
      <trkpt lat="43.34876" lon="6.15633">
        <ele>334.6</ele>
        <time>2022-05-26T12:01:48Z</time>
      </trkpt>
      <trkpt lat="43.34876" lon="6.15624">
        <ele>334.4</ele>
        <time>2022-05-26T12:01:49Z</time>
      </trkpt>
      <trkpt lat="43.34876" lon="6.15607">
        <ele>334</ele>
        <time>2022-05-26T12:01:51Z</time>
      </trkpt>
      <trkpt lat="43.34878" lon="6.15578">
        <ele>333.6</ele>
        <time>2022-05-26T12:01:55Z</time>
      </trkpt>
      <trkpt lat="43.34881" lon="6.15549">
        <ele>333.2</ele>
        <time>2022-05-26T12:02:00Z</time>
      </trkpt>
      <trkpt lat="43.34883" lon="6.15533">
        <ele>333.4</ele>
        <time>2022-05-26T12:02:04Z</time>
      </trkpt>
      <trkpt lat="43.34886" lon="6.15523">
        <ele>333.6</ele>
        <time>2022-05-26T12:02:07Z</time>
      </trkpt>
      <trkpt lat="43.34887" lon="6.15506">
        <ele>334</ele>
        <time>2022-05-26T12:02:12Z</time>
      </trkpt>
      <trkpt lat="43.34888" lon="6.15503">
        <ele>334</ele>
        <time>2022-05-26T12:02:13Z</time>
      </trkpt>
      <trkpt lat="43.3489" lon="6.15486">
        <ele>334.6</ele>
        <time>2022-05-26T12:02:19Z</time>
      </trkpt>
      <trkpt lat="43.34891" lon="6.15482">
        <ele>334.8</ele>
        <time>2022-05-26T12:02:21Z</time>
      </trkpt>
      <trkpt lat="43.34892" lon="6.15474">
        <ele>335</ele>
        <time>2022-05-26T12:02:24Z</time>
      </trkpt>
      <trkpt lat="43.34892" lon="6.15468">
        <ele>335.4</ele>
        <time>2022-05-26T12:02:26Z</time>
      </trkpt>
      <trkpt lat="43.34894" lon="6.1545">
        <ele>336.2</ele>
        <time>2022-05-26T12:02:33Z</time>
      </trkpt>
      <trkpt lat="43.34894" lon="6.15448">
        <ele>336.4</ele>
        <time>2022-05-26T12:02:34Z</time>
      </trkpt>
      <trkpt lat="43.34896" lon="6.15434">
        <ele>337.2</ele>
        <time>2022-05-26T12:02:41Z</time>
      </trkpt>
      <trkpt lat="43.34896" lon="6.15432">
        <ele>337.2</ele>
        <time>2022-05-26T12:02:42Z</time>
      </trkpt>
      <trkpt lat="43.34897" lon="6.15424">
        <ele>338.4</ele>
        <time>2022-05-26T12:02:46Z</time>
      </trkpt>
      <trkpt lat="43.34898" lon="6.15419">
        <ele>338.8</ele>
        <time>2022-05-26T12:02:49Z</time>
      </trkpt>
      <trkpt lat="43.34898" lon="6.1541">
        <ele>339.4</ele>
        <time>2022-05-26T12:02:53Z</time>
      </trkpt>
      <trkpt lat="43.34899" lon="6.15403">
        <ele>340</ele>
        <time>2022-05-26T12:02:56Z</time>
      </trkpt>
      <trkpt lat="43.34899" lon="6.15397">
        <ele>340.6</ele>
        <time>2022-05-26T12:02:59Z</time>
      </trkpt>
      <trkpt lat="43.349" lon="6.15393">
        <ele>340.8</ele>
        <time>2022-05-26T12:03:01Z</time>
      </trkpt>
      <trkpt lat="43.349" lon="6.15388">
        <ele>341</ele>
        <time>2022-05-26T12:03:03Z</time>
      </trkpt>
      <trkpt lat="43.349" lon="6.15376">
        <ele>341.6</ele>
        <time>2022-05-26T12:03:08Z</time>
      </trkpt>
      <trkpt lat="43.34901" lon="6.15369">
        <ele>342</ele>
        <time>2022-05-26T12:03:11Z</time>
      </trkpt>
      <trkpt lat="43.349" lon="6.15353">
        <ele>342.8</ele>
        <time>2022-05-26T12:03:18Z</time>
      </trkpt>
      <trkpt lat="43.34899" lon="6.15349">
        <ele>343.2</ele>
        <time>2022-05-26T12:03:20Z</time>
      </trkpt>
      <trkpt lat="43.34895" lon="6.15345">
        <ele>343.8</ele>
        <time>2022-05-26T12:03:23Z</time>
      </trkpt>
      <trkpt lat="43.34884" lon="6.15346">
        <ele>344.2</ele>
        <time>2022-05-26T12:03:28Z</time>
      </trkpt>
      <trkpt lat="43.3488" lon="6.15349">
        <ele>344.2</ele>
        <time>2022-05-26T12:03:29Z</time>
      </trkpt>
      <trkpt lat="43.34877" lon="6.15353">
        <ele>344.2</ele>
        <time>2022-05-26T12:03:30Z</time>
      </trkpt>
      <trkpt lat="43.34863" lon="6.1537">
        <ele>344.2</ele>
        <time>2022-05-26T12:03:33Z</time>
      </trkpt>
      <trkpt lat="43.34839" lon="6.15404">
        <ele>342.8</ele>
        <time>2022-05-26T12:03:37Z</time>
      </trkpt>
      <trkpt lat="43.34821" lon="6.15429">
        <ele>341.2</ele>
        <time>2022-05-26T12:03:40Z</time>
      </trkpt>
      <trkpt lat="43.34813" lon="6.15436">
        <ele>339.8</ele>
        <time>2022-05-26T12:03:42Z</time>
      </trkpt>
      <trkpt lat="43.34811" lon="6.15436">
        <ele>339</ele>
        <time>2022-05-26T12:03:43Z</time>
      </trkpt>
      <trkpt lat="43.3481" lon="6.15435">
        <ele>338.6</ele>
        <time>2022-05-26T12:03:44Z</time>
      </trkpt>
      <trkpt lat="43.3481" lon="6.15434">
        <ele>337.6</ele>
        <time>2022-05-26T12:03:45Z</time>
      </trkpt>
      <trkpt lat="43.3481" lon="6.15432">
        <ele>337</ele>
        <time>2022-05-26T12:03:46Z</time>
      </trkpt>
      <trkpt lat="43.3481" lon="6.15429">
        <ele>336</ele>
        <time>2022-05-26T12:03:50Z</time>
      </trkpt>
      <trkpt lat="43.3481" lon="6.15429">
        <ele>335.8</ele>
        <time>2022-05-26T12:03:51Z</time>
      </trkpt>
      <trkpt lat="43.3481" lon="6.15429">
        <ele>335.4</ele>
        <time>2022-05-26T12:03:55Z</time>
      </trkpt>
      <trkpt lat="43.3481" lon="6.15429">
        <ele>335.6</ele>
        <time>2022-05-26T12:03:59Z</time>
      </trkpt>
      <trkpt lat="43.3481" lon="6.15429">
        <ele>335.6</ele>
        <time>2022-05-26T12:04:14Z</time>
      </trkpt>
      <trkpt lat="43.3481" lon="6.15429">
        <ele>335.6</ele>
        <time>2022-05-26T12:04:24Z</time>
      </trkpt>
      <trkpt lat="43.34812" lon="6.15422">
        <ele>335.4</ele>
        <time>2022-05-26T12:04:31Z</time>
      </trkpt>
      <trkpt lat="43.34816" lon="6.15407">
        <ele>335</ele>
        <time>2022-05-26T12:04:35Z</time>
      </trkpt>
      <trkpt lat="43.34816" lon="6.15404">
        <ele>334.8</ele>
        <time>2022-05-26T12:04:36Z</time>
      </trkpt>
      <trkpt lat="43.34817" lon="6.15398">
        <ele>334</ele>
        <time>2022-05-26T12:04:38Z</time>
      </trkpt>
      <trkpt lat="43.34815" lon="6.15389">
        <ele>333.2</ele>
        <time>2022-05-26T12:04:42Z</time>
      </trkpt>
      <trkpt lat="43.34813" lon="6.15389">
        <ele>332.8</ele>
        <time>2022-05-26T12:04:43Z</time>
      </trkpt>
      <trkpt lat="43.34807" lon="6.15394">
        <ele>331.8</ele>
        <time>2022-05-26T12:04:46Z</time>
      </trkpt>
      <trkpt lat="43.34804" lon="6.15396">
        <ele>331.4</ele>
        <time>2022-05-26T12:04:47Z</time>
      </trkpt>
      <trkpt lat="43.34798" lon="6.15401">
        <ele>330.8</ele>
        <time>2022-05-26T12:04:49Z</time>
      </trkpt>
      <trkpt lat="43.34795" lon="6.15404">
        <ele>330.4</ele>
        <time>2022-05-26T12:04:50Z</time>
      </trkpt>
      <trkpt lat="43.34789" lon="6.1541">
        <ele>329.6</ele>
        <time>2022-05-26T12:04:52Z</time>
      </trkpt>
      <trkpt lat="43.34785" lon="6.15413">
        <ele>329</ele>
        <time>2022-05-26T12:04:53Z</time>
      </trkpt>
      <trkpt lat="43.34776" lon="6.15422">
        <ele>328.6</ele>
        <time>2022-05-26T12:04:55Z</time>
      </trkpt>
      <trkpt lat="43.34763" lon="6.15438">
        <ele>327.6</ele>
        <time>2022-05-26T12:04:58Z</time>
      </trkpt>
      <trkpt lat="43.34756" lon="6.15443">
        <ele>326.6</ele>
        <time>2022-05-26T12:05:00Z</time>
      </trkpt>
      <trkpt lat="43.34754" lon="6.15445">
        <ele>326.2</ele>
        <time>2022-05-26T12:05:01Z</time>
      </trkpt>
      <trkpt lat="43.3475" lon="6.15446">
        <ele>325.6</ele>
        <time>2022-05-26T12:05:03Z</time>
      </trkpt>
      <trkpt lat="43.34748" lon="6.15446">
        <ele>325.6</ele>
        <time>2022-05-26T12:05:04Z</time>
      </trkpt>
      <trkpt lat="43.34743" lon="6.15446">
        <ele>325.2</ele>
        <time>2022-05-26T12:05:06Z</time>
      </trkpt>
      <trkpt lat="43.34731" lon="6.15442">
        <ele>324.4</ele>
        <time>2022-05-26T12:05:10Z</time>
      </trkpt>
      <trkpt lat="43.34725" lon="6.1544">
        <ele>324</ele>
        <time>2022-05-26T12:05:12Z</time>
      </trkpt>
      <trkpt lat="43.34717" lon="6.15441">
        <ele>323.6</ele>
        <time>2022-05-26T12:05:15Z</time>
      </trkpt>
      <trkpt lat="43.34709" lon="6.15446">
        <ele>322.8</ele>
        <time>2022-05-26T12:05:18Z</time>
      </trkpt>
      <trkpt lat="43.34702" lon="6.15448">
        <ele>322.6</ele>
        <time>2022-05-26T12:05:21Z</time>
      </trkpt>
      <trkpt lat="43.34699" lon="6.15449">
        <ele>322.4</ele>
        <time>2022-05-26T12:05:22Z</time>
      </trkpt>
      <trkpt lat="43.34686" lon="6.15458">
        <ele>322</ele>
        <time>2022-05-26T12:05:26Z</time>
      </trkpt>
      <trkpt lat="43.34682" lon="6.15458">
        <ele>321.8</ele>
        <time>2022-05-26T12:05:27Z</time>
      </trkpt>
      <trkpt lat="43.34658" lon="6.15463">
        <ele>321.2</ele>
        <time>2022-05-26T12:05:34Z</time>
      </trkpt>
      <trkpt lat="43.34644" lon="6.15461">
        <ele>320.8</ele>
        <time>2022-05-26T12:05:38Z</time>
      </trkpt>
      <trkpt lat="43.3462" lon="6.15457">
        <ele>320.2</ele>
        <time>2022-05-26T12:05:44Z</time>
      </trkpt>
      <trkpt lat="43.34616" lon="6.15456">
        <ele>320</ele>
        <time>2022-05-26T12:05:45Z</time>
      </trkpt>
      <trkpt lat="43.34607" lon="6.15455">
        <ele>319.8</ele>
        <time>2022-05-26T12:05:47Z</time>
      </trkpt>
      <trkpt lat="43.34594" lon="6.15452">
        <ele>319.8</ele>
        <time>2022-05-26T12:05:51Z</time>
      </trkpt>
      <trkpt lat="43.34581" lon="6.15451">
        <ele>319.2</ele>
        <time>2022-05-26T12:05:55Z</time>
      </trkpt>
      <trkpt lat="43.34575" lon="6.15452">
        <ele>318.6</ele>
        <time>2022-05-26T12:05:57Z</time>
      </trkpt>
      <trkpt lat="43.34572" lon="6.15452">
        <ele>318.4</ele>
        <time>2022-05-26T12:05:58Z</time>
      </trkpt>
      <trkpt lat="43.3456" lon="6.15452">
        <ele>317.6</ele>
        <time>2022-05-26T12:06:02Z</time>
      </trkpt>
      <trkpt lat="43.34552" lon="6.15451">
        <ele>316.4</ele>
        <time>2022-05-26T12:06:05Z</time>
      </trkpt>
      <trkpt lat="43.34547" lon="6.15449">
        <ele>315.8</ele>
        <time>2022-05-26T12:06:07Z</time>
      </trkpt>
      <trkpt lat="43.34541" lon="6.1545">
        <ele>315</ele>
        <time>2022-05-26T12:06:09Z</time>
      </trkpt>
      <trkpt lat="43.34537" lon="6.15452">
        <ele>314.6</ele>
        <time>2022-05-26T12:06:10Z</time>
      </trkpt>
      <trkpt lat="43.34533" lon="6.15454">
        <ele>314.4</ele>
        <time>2022-05-26T12:06:11Z</time>
      </trkpt>
      <trkpt lat="43.34529" lon="6.15459">
        <ele>314.2</ele>
        <time>2022-05-26T12:06:12Z</time>
      </trkpt>
      <trkpt lat="43.34525" lon="6.15462">
        <ele>313.8</ele>
        <time>2022-05-26T12:06:13Z</time>
      </trkpt>
      <trkpt lat="43.34514" lon="6.15468">
        <ele>313.2</ele>
        <time>2022-05-26T12:06:15Z</time>
      </trkpt>
      <trkpt lat="43.34507" lon="6.1547">
        <ele>313</ele>
        <time>2022-05-26T12:06:16Z</time>
      </trkpt>
      <trkpt lat="43.34502" lon="6.15471">
        <ele>312.6</ele>
        <time>2022-05-26T12:06:17Z</time>
      </trkpt>
      <trkpt lat="43.34482" lon="6.15475">
        <ele>311.6</ele>
        <time>2022-05-26T12:06:20Z</time>
      </trkpt>
      <trkpt lat="43.34472" lon="6.15477">
        <ele>311.2</ele>
        <time>2022-05-26T12:06:22Z</time>
      </trkpt>
      <trkpt lat="43.34462" lon="6.15478">
        <ele>310.6</ele>
        <time>2022-05-26T12:06:25Z</time>
      </trkpt>
      <trkpt lat="43.34456" lon="6.15466">
        <ele>309.8</ele>
        <time>2022-05-26T12:06:30Z</time>
      </trkpt>
      <trkpt lat="43.34451" lon="6.1546">
        <ele>309.2</ele>
        <time>2022-05-26T12:06:32Z</time>
      </trkpt>
      <trkpt lat="43.34445" lon="6.15452">
        <ele>308.6</ele>
        <time>2022-05-26T12:06:34Z</time>
      </trkpt>
      <trkpt lat="43.34438" lon="6.15443">
        <ele>308</ele>
        <time>2022-05-26T12:06:36Z</time>
      </trkpt>
      <trkpt lat="43.34427" lon="6.15427">
        <ele>307</ele>
        <time>2022-05-26T12:06:40Z</time>
      </trkpt>
      <trkpt lat="43.34424" lon="6.15424">
        <ele>306.8</ele>
        <time>2022-05-26T12:06:41Z</time>
      </trkpt>
      <trkpt lat="43.34419" lon="6.15416">
        <ele>306.6</ele>
        <time>2022-05-26T12:06:43Z</time>
      </trkpt>
      <trkpt lat="43.34414" lon="6.15409">
        <ele>306.6</ele>
        <time>2022-05-26T12:06:46Z</time>
      </trkpt>
      <trkpt lat="43.34402" lon="6.15393">
        <ele>306.8</ele>
        <time>2022-05-26T12:06:51Z</time>
      </trkpt>
      <trkpt lat="43.34395" lon="6.15387">
        <ele>306.6</ele>
        <time>2022-05-26T12:06:53Z</time>
      </trkpt>
      <trkpt lat="43.34385" lon="6.15383">
        <ele>306.4</ele>
        <time>2022-05-26T12:06:55Z</time>
      </trkpt>
      <trkpt lat="43.3438" lon="6.15383">
        <ele>306</ele>
        <time>2022-05-26T12:06:56Z</time>
      </trkpt>
      <trkpt lat="43.3437" lon="6.15383">
        <ele>305.4</ele>
        <time>2022-05-26T12:06:58Z</time>
      </trkpt>
      <trkpt lat="43.34358" lon="6.15383">
        <ele>305</ele>
        <time>2022-05-26T12:07:00Z</time>
      </trkpt>
      <trkpt lat="43.34352" lon="6.15382">
        <ele>304.6</ele>
        <time>2022-05-26T12:07:01Z</time>
      </trkpt>
      <trkpt lat="43.34346" lon="6.1538">
        <ele>304.4</ele>
        <time>2022-05-26T12:07:02Z</time>
      </trkpt>
      <trkpt lat="43.34332" lon="6.15378">
        <ele>303.4</ele>
        <time>2022-05-26T12:07:04Z</time>
      </trkpt>
      <trkpt lat="43.34326" lon="6.15378">
        <ele>303</ele>
        <time>2022-05-26T12:07:05Z</time>
      </trkpt>
      <trkpt lat="43.34319" lon="6.15378">
        <ele>302.6</ele>
        <time>2022-05-26T12:07:06Z</time>
      </trkpt>
      <trkpt lat="43.34305" lon="6.15379">
        <ele>302.2</ele>
        <time>2022-05-26T12:07:08Z</time>
      </trkpt>
      <trkpt lat="43.343" lon="6.15378">
        <ele>302</ele>
        <time>2022-05-26T12:07:09Z</time>
      </trkpt>
      <trkpt lat="43.34293" lon="6.15377">
        <ele>301.8</ele>
        <time>2022-05-26T12:07:10Z</time>
      </trkpt>
      <trkpt lat="43.34286" lon="6.15376">
        <ele>301.4</ele>
        <time>2022-05-26T12:07:11Z</time>
      </trkpt>
      <trkpt lat="43.34267" lon="6.15375">
        <ele>301</ele>
        <time>2022-05-26T12:07:14Z</time>
      </trkpt>
      <trkpt lat="43.34259" lon="6.15375">
        <ele>300.8</ele>
        <time>2022-05-26T12:07:15Z</time>
      </trkpt>
      <trkpt lat="43.3424" lon="6.15376">
        <ele>299.8</ele>
        <time>2022-05-26T12:07:18Z</time>
      </trkpt>
      <trkpt lat="43.34224" lon="6.15376">
        <ele>298.6</ele>
        <time>2022-05-26T12:07:21Z</time>
      </trkpt>
      <trkpt lat="43.34203" lon="6.15364">
        <ele>298</ele>
        <time>2022-05-26T12:07:25Z</time>
      </trkpt>
      <trkpt lat="43.34191" lon="6.15354">
        <ele>297.4</ele>
        <time>2022-05-26T12:07:27Z</time>
      </trkpt>
      <trkpt lat="43.34177" lon="6.15345">
        <ele>296.4</ele>
        <time>2022-05-26T12:07:29Z</time>
      </trkpt>
      <trkpt lat="43.34162" lon="6.15337">
        <ele>294.8</ele>
        <time>2022-05-26T12:07:31Z</time>
      </trkpt>
      <trkpt lat="43.34146" lon="6.15329">
        <ele>293.6</ele>
        <time>2022-05-26T12:07:33Z</time>
      </trkpt>
      <trkpt lat="43.3413" lon="6.15319">
        <ele>292.4</ele>
        <time>2022-05-26T12:07:35Z</time>
      </trkpt>
      <trkpt lat="43.34113" lon="6.15308">
        <ele>291.4</ele>
        <time>2022-05-26T12:07:37Z</time>
      </trkpt>
      <trkpt lat="43.34104" lon="6.15303">
        <ele>290.2</ele>
        <time>2022-05-26T12:07:38Z</time>
      </trkpt>
      <trkpt lat="43.34095" lon="6.15297">
        <ele>289.8</ele>
        <time>2022-05-26T12:07:39Z</time>
      </trkpt>
      <trkpt lat="43.34086" lon="6.15292">
        <ele>289</ele>
        <time>2022-05-26T12:07:40Z</time>
      </trkpt>
      <trkpt lat="43.34076" lon="6.15288">
        <ele>288.6</ele>
        <time>2022-05-26T12:07:41Z</time>
      </trkpt>
      <trkpt lat="43.34058" lon="6.15278">
        <ele>288</ele>
        <time>2022-05-26T12:07:43Z</time>
      </trkpt>
      <trkpt lat="43.34034" lon="6.15264">
        <ele>286.8</ele>
        <time>2022-05-26T12:07:46Z</time>
      </trkpt>
      <trkpt lat="43.34028" lon="6.1526">
        <ele>286.4</ele>
        <time>2022-05-26T12:07:47Z</time>
      </trkpt>
      <trkpt lat="43.34017" lon="6.15253">
        <ele>285.2</ele>
        <time>2022-05-26T12:07:49Z</time>
      </trkpt>
      <trkpt lat="43.34014" lon="6.15251">
        <ele>284.4</ele>
        <time>2022-05-26T12:07:50Z</time>
      </trkpt>
      <trkpt lat="43.3401" lon="6.15247">
        <ele>283.6</ele>
        <time>2022-05-26T12:07:51Z</time>
      </trkpt>
      <trkpt lat="43.34008" lon="6.15241">
        <ele>283.4</ele>
        <time>2022-05-26T12:07:52Z</time>
      </trkpt>
      <trkpt lat="43.34007" lon="6.15227">
        <ele>283</ele>
        <time>2022-05-26T12:07:54Z</time>
      </trkpt>
      <trkpt lat="43.34006" lon="6.15212">
        <ele>282.2</ele>
        <time>2022-05-26T12:07:56Z</time>
      </trkpt>
      <trkpt lat="43.34003" lon="6.15154">
        <ele>281.2</ele>
        <time>2022-05-26T12:08:03Z</time>
      </trkpt>
      <trkpt lat="43.34009" lon="6.15093">
        <ele>280</ele>
        <time>2022-05-26T12:08:10Z</time>
      </trkpt>
      <trkpt lat="43.3402" lon="6.15028">
        <ele>279</ele>
        <time>2022-05-26T12:08:18Z</time>
      </trkpt>
      <trkpt lat="43.34023" lon="6.15012">
        <ele>279</ele>
        <time>2022-05-26T12:08:20Z</time>
      </trkpt>
      <trkpt lat="43.34025" lon="6.14996">
        <ele>278.8</ele>
        <time>2022-05-26T12:08:22Z</time>
      </trkpt>
      <trkpt lat="43.34029" lon="6.14972">
        <ele>278.8</ele>
        <time>2022-05-26T12:08:25Z</time>
      </trkpt>
      <trkpt lat="43.34032" lon="6.14949">
        <ele>279</ele>
        <time>2022-05-26T12:08:28Z</time>
      </trkpt>
      <trkpt lat="43.34039" lon="6.14893">
        <ele>279.2</ele>
        <time>2022-05-26T12:08:36Z</time>
      </trkpt>
      <trkpt lat="43.34038" lon="6.14886">
        <ele>279.2</ele>
        <time>2022-05-26T12:08:37Z</time>
      </trkpt>
      <trkpt lat="43.34037" lon="6.14865">
        <ele>279.6</ele>
        <time>2022-05-26T12:08:40Z</time>
      </trkpt>
      <trkpt lat="43.34034" lon="6.14852">
        <ele>279.8</ele>
        <time>2022-05-26T12:08:42Z</time>
      </trkpt>
      <trkpt lat="43.34023" lon="6.14819">
        <ele>279.8</ele>
        <time>2022-05-26T12:08:47Z</time>
      </trkpt>
      <trkpt lat="43.34017" lon="6.14804">
        <ele>280</ele>
        <time>2022-05-26T12:08:49Z</time>
      </trkpt>
      <trkpt lat="43.33995" lon="6.14742">
        <ele>279.2</ele>
        <time>2022-05-26T12:08:57Z</time>
      </trkpt>
      <trkpt lat="43.33991" lon="6.14727">
        <ele>279.2</ele>
        <time>2022-05-26T12:08:59Z</time>
      </trkpt>
      <trkpt lat="43.33981" lon="6.1468">
        <ele>278.8</ele>
        <time>2022-05-26T12:09:06Z</time>
      </trkpt>
      <trkpt lat="43.33979" lon="6.14672">
        <ele>278.8</ele>
        <time>2022-05-26T12:09:07Z</time>
      </trkpt>
      <trkpt lat="43.33967" lon="6.14599">
        <ele>278.6</ele>
        <time>2022-05-26T12:09:16Z</time>
      </trkpt>
      <trkpt lat="43.33967" lon="6.14591">
        <ele>278.6</ele>
        <time>2022-05-26T12:09:17Z</time>
      </trkpt>
      <trkpt lat="43.33967" lon="6.14556">
        <ele>278.6</ele>
        <time>2022-05-26T12:09:22Z</time>
      </trkpt>
      <trkpt lat="43.33962" lon="6.14537">
        <ele>278.6</ele>
        <time>2022-05-26T12:09:25Z</time>
      </trkpt>
      <trkpt lat="43.33959" lon="6.14532">
        <ele>278.8</ele>
        <time>2022-05-26T12:09:26Z</time>
      </trkpt>
      <trkpt lat="43.33949" lon="6.14507">
        <ele>279</ele>
        <time>2022-05-26T12:09:31Z</time>
      </trkpt>
      <trkpt lat="43.33944" lon="6.14501">
        <ele>279</ele>
        <time>2022-05-26T12:09:33Z</time>
      </trkpt>
      <trkpt lat="43.33941" lon="6.145">
        <ele>279</ele>
        <time>2022-05-26T12:09:34Z</time>
      </trkpt>
      <trkpt lat="43.33939" lon="6.14501">
        <ele>279</ele>
        <time>2022-05-26T12:09:35Z</time>
      </trkpt>
      <trkpt lat="43.33934" lon="6.14508">
        <ele>278.8</ele>
        <time>2022-05-26T12:09:37Z</time>
      </trkpt>
      <trkpt lat="43.33932" lon="6.14527">
        <ele>278.6</ele>
        <time>2022-05-26T12:09:41Z</time>
      </trkpt>
      <trkpt lat="43.33932" lon="6.1454">
        <ele>278.6</ele>
        <time>2022-05-26T12:09:43Z</time>
      </trkpt>
      <trkpt lat="43.33934" lon="6.14558">
        <ele>278.4</ele>
        <time>2022-05-26T12:09:46Z</time>
      </trkpt>
      <trkpt lat="43.33936" lon="6.14579">
        <ele>278.4</ele>
        <time>2022-05-26T12:09:49Z</time>
      </trkpt>
      <trkpt lat="43.33935" lon="6.14594">
        <ele>278.4</ele>
        <time>2022-05-26T12:09:51Z</time>
      </trkpt>
      <trkpt lat="43.33928" lon="6.14644">
        <ele>278.4</ele>
        <time>2022-05-26T12:09:58Z</time>
      </trkpt>
      <trkpt lat="43.33919" lon="6.14703">
        <ele>278.4</ele>
        <time>2022-05-26T12:10:06Z</time>
      </trkpt>
      <trkpt lat="43.33918" lon="6.1471">
        <ele>278.4</ele>
        <time>2022-05-26T12:10:07Z</time>
      </trkpt>
      <trkpt lat="43.33916" lon="6.14717">
        <ele>278.4</ele>
        <time>2022-05-26T12:10:08Z</time>
      </trkpt>
      <trkpt lat="43.33912" lon="6.14746">
        <ele>278.2</ele>
        <time>2022-05-26T12:10:12Z</time>
      </trkpt>
      <trkpt lat="43.33908" lon="6.1477">
        <ele>278.2</ele>
        <time>2022-05-26T12:10:15Z</time>
      </trkpt>
      <trkpt lat="43.33905" lon="6.14802">
        <ele>278</ele>
        <time>2022-05-26T12:10:19Z</time>
      </trkpt>
      <trkpt lat="43.33899" lon="6.1486">
        <ele>277.8</ele>
        <time>2022-05-26T12:10:26Z</time>
      </trkpt>
      <trkpt lat="43.33898" lon="6.14869">
        <ele>277.8</ele>
        <time>2022-05-26T12:10:27Z</time>
      </trkpt>
      <trkpt lat="43.33895" lon="6.14926">
        <ele>277.4</ele>
        <time>2022-05-26T12:10:34Z</time>
      </trkpt>
      <trkpt lat="43.33895" lon="6.14942">
        <ele>277.2</ele>
        <time>2022-05-26T12:10:36Z</time>
      </trkpt>
      <trkpt lat="43.33894" lon="6.14971">
        <ele>277</ele>
        <time>2022-05-26T12:10:40Z</time>
      </trkpt>
      <trkpt lat="43.33894" lon="6.15038">
        <ele>276.6</ele>
        <time>2022-05-26T12:10:49Z</time>
      </trkpt>
      <trkpt lat="43.33895" lon="6.15052">
        <ele>276.6</ele>
        <time>2022-05-26T12:10:51Z</time>
      </trkpt>
      <trkpt lat="43.33897" lon="6.15079">
        <ele>276.6</ele>
        <time>2022-05-26T12:10:55Z</time>
      </trkpt>
      <trkpt lat="43.33897" lon="6.15105">
        <ele>276.6</ele>
        <time>2022-05-26T12:11:00Z</time>
      </trkpt>
      <trkpt lat="43.33896" lon="6.15106">
        <ele>276.4</ele>
        <time>2022-05-26T12:11:03Z</time>
      </trkpt>
      <trkpt lat="43.33896" lon="6.15106">
        <ele>276.2</ele>
        <time>2022-05-26T12:11:04Z</time>
      </trkpt>
      <trkpt lat="43.33896" lon="6.15106">
        <ele>276.2</ele>
        <time>2022-05-26T12:11:06Z</time>
      </trkpt>
      <trkpt lat="43.33896" lon="6.15106">
        <ele>275.8</ele>
        <time>2022-05-26T12:11:25Z</time>
      </trkpt>
      <trkpt lat="43.33896" lon="6.15106">
        <ele>275.4</ele>
        <time>2022-05-26T12:11:39Z</time>
      </trkpt>
      <trkpt lat="43.33896" lon="6.15106">
        <ele>275.4</ele>
        <time>2022-05-26T12:11:42Z</time>
      </trkpt>
      <trkpt lat="43.33896" lon="6.15106">
        <ele>275.2</ele>
        <time>2022-05-26T12:11:58Z</time>
      </trkpt>
      <trkpt lat="43.33899" lon="6.15113">
        <ele>275</ele>
        <time>2022-05-26T12:12:07Z</time>
      </trkpt>
      <trkpt lat="43.33901" lon="6.15131">
        <ele>275</ele>
        <time>2022-05-26T12:12:12Z</time>
      </trkpt>
      <trkpt lat="43.33901" lon="6.1514">
        <ele>275</ele>
        <time>2022-05-26T12:12:14Z</time>
      </trkpt>
      <trkpt lat="43.33902" lon="6.15156">
        <ele>275</ele>
        <time>2022-05-26T12:12:17Z</time>
      </trkpt>
      <trkpt lat="43.33904" lon="6.15167">
        <ele>275</ele>
        <time>2022-05-26T12:12:19Z</time>
      </trkpt>
      <trkpt lat="43.33905" lon="6.15197">
        <ele>275.2</ele>
        <time>2022-05-26T12:12:24Z</time>
      </trkpt>
      <trkpt lat="43.33907" lon="6.15216">
        <ele>275.6</ele>
        <time>2022-05-26T12:12:27Z</time>
      </trkpt>
      <trkpt lat="43.33909" lon="6.15234">
        <ele>275.2</ele>
        <time>2022-05-26T12:12:30Z</time>
      </trkpt>
      <trkpt lat="43.33909" lon="6.1524">
        <ele>275.4</ele>
        <time>2022-05-26T12:12:31Z</time>
      </trkpt>
      <trkpt lat="43.33911" lon="6.15273">
        <ele>275.2</ele>
        <time>2022-05-26T12:12:38Z</time>
      </trkpt>
      <trkpt lat="43.33911" lon="6.15275">
        <ele>275.2</ele>
        <time>2022-05-26T12:12:39Z</time>
      </trkpt>
      <trkpt lat="43.33912" lon="6.15274">
        <ele>275.2</ele>
        <time>2022-05-26T12:12:41Z</time>
      </trkpt>
      <trkpt lat="43.33911" lon="6.15262">
        <ele>275</ele>
        <time>2022-05-26T12:12:46Z</time>
      </trkpt>
      <trkpt lat="43.3391" lon="6.15241">
        <ele>275</ele>
        <time>2022-05-26T12:12:51Z</time>
      </trkpt>
      <trkpt lat="43.33906" lon="6.15204">
        <ele>275</ele>
        <time>2022-05-26T12:12:58Z</time>
      </trkpt>
      <trkpt lat="43.33905" lon="6.152">
        <ele>275</ele>
        <time>2022-05-26T12:12:59Z</time>
      </trkpt>
      <trkpt lat="43.33899" lon="6.15195">
        <ele>275</ele>
        <time>2022-05-26T12:13:01Z</time>
      </trkpt>
      <trkpt lat="43.33888" lon="6.15194">
        <ele>275</ele>
        <time>2022-05-26T12:13:04Z</time>
      </trkpt>
      <trkpt lat="43.3388" lon="6.15193">
        <ele>274.8</ele>
        <time>2022-05-26T12:13:06Z</time>
      </trkpt>
      <trkpt lat="43.33852" lon="6.15186">
        <ele>274.4</ele>
        <time>2022-05-26T12:13:13Z</time>
      </trkpt>
      <trkpt lat="43.33846" lon="6.15185">
        <ele>274.4</ele>
        <time>2022-05-26T12:13:15Z</time>
      </trkpt>
      <trkpt lat="43.33844" lon="6.15182">
        <ele>274.4</ele>
        <time>2022-05-26T12:13:17Z</time>
      </trkpt>
      <trkpt lat="43.33834" lon="6.15173">
        <ele>274.4</ele>
        <time>2022-05-26T12:13:23Z</time>
      </trkpt>
      <trkpt lat="43.33826" lon="6.15171">
        <ele>274.2</ele>
        <time>2022-05-26T12:13:27Z</time>
      </trkpt>
      <trkpt lat="43.33824" lon="6.15173">
        <ele>274.2</ele>
        <time>2022-05-26T12:13:28Z</time>
      </trkpt>
      <trkpt lat="43.33813" lon="6.1519">
        <ele>274</ele>
        <time>2022-05-26T12:13:34Z</time>
      </trkpt>
      <trkpt lat="43.33804" lon="6.15209">
        <ele>274</ele>
        <time>2022-05-26T12:13:39Z</time>
      </trkpt>
      <trkpt lat="43.33795" lon="6.15226">
        <ele>274</ele>
        <time>2022-05-26T12:13:44Z</time>
      </trkpt>
      <trkpt lat="43.33788" lon="6.1524">
        <ele>274</ele>
        <time>2022-05-26T12:13:48Z</time>
      </trkpt>
      <trkpt lat="43.33778" lon="6.15257">
        <ele>274.2</ele>
        <time>2022-05-26T12:13:53Z</time>
      </trkpt>
      <trkpt lat="43.33755" lon="6.1529">
        <ele>274.6</ele>
        <time>2022-05-26T12:14:02Z</time>
      </trkpt>
      <trkpt lat="43.33748" lon="6.15319">
        <ele>274.8</ele>
        <time>2022-05-26T12:14:08Z</time>
      </trkpt>
      <trkpt lat="43.33746" lon="6.15325">
        <ele>274.8</ele>
        <time>2022-05-26T12:14:09Z</time>
      </trkpt>
      <trkpt lat="43.33744" lon="6.1533">
        <ele>274.8</ele>
        <time>2022-05-26T12:14:10Z</time>
      </trkpt>
      <trkpt lat="43.33733" lon="6.15361">
        <ele>274.8</ele>
        <time>2022-05-26T12:14:16Z</time>
      </trkpt>
      <trkpt lat="43.33723" lon="6.15395">
        <ele>274.8</ele>
        <time>2022-05-26T12:14:22Z</time>
      </trkpt>
      <trkpt lat="43.33719" lon="6.15407">
        <ele>274.8</ele>
        <time>2022-05-26T12:14:24Z</time>
      </trkpt>
      <trkpt lat="43.33699" lon="6.15464">
        <ele>274.6</ele>
        <time>2022-05-26T12:14:34Z</time>
      </trkpt>
      <trkpt lat="43.33682" lon="6.155">
        <ele>274</ele>
        <time>2022-05-26T12:14:42Z</time>
      </trkpt>
      <trkpt lat="43.3368" lon="6.15504">
        <ele>274</ele>
        <time>2022-05-26T12:14:43Z</time>
      </trkpt>
      <trkpt lat="43.33674" lon="6.15513">
        <ele>274</ele>
        <time>2022-05-26T12:14:45Z</time>
      </trkpt>
      <trkpt lat="43.33664" lon="6.15522">
        <ele>274</ele>
        <time>2022-05-26T12:14:48Z</time>
      </trkpt>
      <trkpt lat="43.33651" lon="6.15543">
        <ele>274.2</ele>
        <time>2022-05-26T12:14:53Z</time>
      </trkpt>
      <trkpt lat="43.33648" lon="6.15547">
        <ele>274.2</ele>
        <time>2022-05-26T12:14:54Z</time>
      </trkpt>
      <trkpt lat="43.33644" lon="6.15555">
        <ele>274.4</ele>
        <time>2022-05-26T12:14:56Z</time>
      </trkpt>
      <trkpt lat="43.33638" lon="6.15561">
        <ele>274.4</ele>
        <time>2022-05-26T12:14:58Z</time>
      </trkpt>
      <trkpt lat="43.33634" lon="6.15562">
        <ele>274.4</ele>
        <time>2022-05-26T12:14:59Z</time>
      </trkpt>
      <trkpt lat="43.33626" lon="6.15561">
        <ele>274.6</ele>
        <time>2022-05-26T12:15:01Z</time>
      </trkpt>
      <trkpt lat="43.33611" lon="6.15554">
        <ele>274.8</ele>
        <time>2022-05-26T12:15:05Z</time>
      </trkpt>
      <trkpt lat="43.33582" lon="6.15541">
        <ele>275.4</ele>
        <time>2022-05-26T12:15:13Z</time>
      </trkpt>
      <trkpt lat="43.33574" lon="6.15537">
        <ele>275.6</ele>
        <time>2022-05-26T12:15:16Z</time>
      </trkpt>
      <trkpt lat="43.33567" lon="6.15532">
        <ele>275.6</ele>
        <time>2022-05-26T12:15:19Z</time>
      </trkpt>
      <trkpt lat="43.33556" lon="6.15524">
        <ele>276.6</ele>
        <time>2022-05-26T12:15:24Z</time>
      </trkpt>
      <trkpt lat="43.33549" lon="6.15521">
        <ele>276.8</ele>
        <time>2022-05-26T12:15:27Z</time>
      </trkpt>
      <trkpt lat="43.33538" lon="6.15526">
        <ele>277</ele>
        <time>2022-05-26T12:15:31Z</time>
      </trkpt>
      <trkpt lat="43.33532" lon="6.15541">
        <ele>278</ele>
        <time>2022-05-26T12:15:37Z</time>
      </trkpt>
      <trkpt lat="43.33531" lon="6.15543">
        <ele>277.8</ele>
        <time>2022-05-26T12:15:38Z</time>
      </trkpt>
      <trkpt lat="43.33529" lon="6.15547">
        <ele>278.8</ele>
        <time>2022-05-26T12:15:41Z</time>
      </trkpt>
      <trkpt lat="43.33529" lon="6.1555">
        <ele>279.2</ele>
        <time>2022-05-26T12:15:42Z</time>
      </trkpt>
      <trkpt lat="43.33528" lon="6.15555">
        <ele>279.8</ele>
        <time>2022-05-26T12:15:44Z</time>
      </trkpt>
      <trkpt lat="43.33528" lon="6.15562">
        <ele>280.6</ele>
        <time>2022-05-26T12:15:46Z</time>
      </trkpt>
      <trkpt lat="43.33527" lon="6.15564">
        <ele>281.2</ele>
        <time>2022-05-26T12:15:47Z</time>
      </trkpt>
      <trkpt lat="43.33527" lon="6.15567">
        <ele>281.4</ele>
        <time>2022-05-26T12:15:48Z</time>
      </trkpt>
      <trkpt lat="43.33526" lon="6.15574">
        <ele>282.4</ele>
        <time>2022-05-26T12:15:51Z</time>
      </trkpt>
      <trkpt lat="43.33525" lon="6.15579">
        <ele>282.4</ele>
        <time>2022-05-26T12:15:53Z</time>
      </trkpt>
      <trkpt lat="43.33522" lon="6.15585">
        <ele>282.6</ele>
        <time>2022-05-26T12:15:55Z</time>
      </trkpt>
      <trkpt lat="43.33521" lon="6.15589">
        <ele>282.8</ele>
        <time>2022-05-26T12:15:56Z</time>
      </trkpt>
      <trkpt lat="43.33515" lon="6.15607">
        <ele>283</ele>
        <time>2022-05-26T12:16:00Z</time>
      </trkpt>
      <trkpt lat="43.33507" lon="6.15632">
        <ele>282.6</ele>
        <time>2022-05-26T12:16:05Z</time>
      </trkpt>
      <trkpt lat="43.33503" lon="6.15642">
        <ele>282.4</ele>
        <time>2022-05-26T12:16:07Z</time>
      </trkpt>
      <trkpt lat="43.33495" lon="6.15658">
        <ele>280.8</ele>
        <time>2022-05-26T12:16:11Z</time>
      </trkpt>
      <trkpt lat="43.33495" lon="6.15663">
        <ele>280.6</ele>
        <time>2022-05-26T12:16:13Z</time>
      </trkpt>
      <trkpt lat="43.33496" lon="6.15666">
        <ele>280.4</ele>
        <time>2022-05-26T12:16:14Z</time>
      </trkpt>
      <trkpt lat="43.33501" lon="6.15672">
        <ele>280</ele>
        <time>2022-05-26T12:16:17Z</time>
      </trkpt>
      <trkpt lat="43.33506" lon="6.15678">
        <ele>279.6</ele>
        <time>2022-05-26T12:16:19Z</time>
      </trkpt>
      <trkpt lat="43.33523" lon="6.157">
        <ele>279.2</ele>
        <time>2022-05-26T12:16:24Z</time>
      </trkpt>
      <trkpt lat="43.33527" lon="6.15705">
        <ele>279</ele>
        <time>2022-05-26T12:16:25Z</time>
      </trkpt>
      <trkpt lat="43.33536" lon="6.15716">
        <ele>278.6</ele>
        <time>2022-05-26T12:16:27Z</time>
      </trkpt>
      <trkpt lat="43.33541" lon="6.15722">
        <ele>278.2</ele>
        <time>2022-05-26T12:16:28Z</time>
      </trkpt>
      <trkpt lat="43.33551" lon="6.15735">
        <ele>277.8</ele>
        <time>2022-05-26T12:16:30Z</time>
      </trkpt>
      <trkpt lat="43.33573" lon="6.15762">
        <ele>277.2</ele>
        <time>2022-05-26T12:16:34Z</time>
      </trkpt>
      <trkpt lat="43.33584" lon="6.15776">
        <ele>276.8</ele>
        <time>2022-05-26T12:16:36Z</time>
      </trkpt>
      <trkpt lat="43.33591" lon="6.15783">
        <ele>276.4</ele>
        <time>2022-05-26T12:16:37Z</time>
      </trkpt>
      <trkpt lat="43.33602" lon="6.15795">
        <ele>275.6</ele>
        <time>2022-05-26T12:16:39Z</time>
      </trkpt>
      <trkpt lat="43.33606" lon="6.15802">
        <ele>275.2</ele>
        <time>2022-05-26T12:16:40Z</time>
      </trkpt>
      <trkpt lat="43.33608" lon="6.15809">
        <ele>275.2</ele>
        <time>2022-05-26T12:16:41Z</time>
      </trkpt>
      <trkpt lat="43.33606" lon="6.15821">
        <ele>274.6</ele>
        <time>2022-05-26T12:16:43Z</time>
      </trkpt>
      <trkpt lat="43.33597" lon="6.15837">
        <ele>274</ele>
        <time>2022-05-26T12:16:46Z</time>
      </trkpt>
      <trkpt lat="43.33593" lon="6.15849">
        <ele>273.4</ele>
        <time>2022-05-26T12:16:48Z</time>
      </trkpt>
      <trkpt lat="43.33591" lon="6.15856">
        <ele>273.4</ele>
        <time>2022-05-26T12:16:49Z</time>
      </trkpt>
      <trkpt lat="43.33589" lon="6.15869">
        <ele>273.2</ele>
        <time>2022-05-26T12:16:51Z</time>
      </trkpt>
      <trkpt lat="43.3359" lon="6.15876">
        <ele>273</ele>
        <time>2022-05-26T12:16:52Z</time>
      </trkpt>
      <trkpt lat="43.33592" lon="6.1589">
        <ele>273</ele>
        <time>2022-05-26T12:16:54Z</time>
      </trkpt>
      <trkpt lat="43.33598" lon="6.15912">
        <ele>273</ele>
        <time>2022-05-26T12:16:57Z</time>
      </trkpt>
      <trkpt lat="43.33603" lon="6.15928">
        <ele>272.8</ele>
        <time>2022-05-26T12:16:59Z</time>
      </trkpt>
      <trkpt lat="43.33606" lon="6.15943">
        <ele>272.6</ele>
        <time>2022-05-26T12:17:01Z</time>
      </trkpt>
      <trkpt lat="43.33609" lon="6.15951">
        <ele>272.2</ele>
        <time>2022-05-26T12:17:02Z</time>
      </trkpt>
      <trkpt lat="43.33618" lon="6.15977">
        <ele>272</ele>
        <time>2022-05-26T12:17:05Z</time>
      </trkpt>
      <trkpt lat="43.3362" lon="6.15984">
        <ele>271.8</ele>
        <time>2022-05-26T12:17:06Z</time>
      </trkpt>
      <trkpt lat="43.33622" lon="6.15992">
        <ele>271.8</ele>
        <time>2022-05-26T12:17:07Z</time>
      </trkpt>
      <trkpt lat="43.33625" lon="6.16011">
        <ele>271.6</ele>
        <time>2022-05-26T12:17:09Z</time>
      </trkpt>
      <trkpt lat="43.33626" lon="6.16034">
        <ele>271</ele>
        <time>2022-05-26T12:17:12Z</time>
      </trkpt>
      <trkpt lat="43.33626" lon="6.16051">
        <ele>270.8</ele>
        <time>2022-05-26T12:17:14Z</time>
      </trkpt>
      <trkpt lat="43.33627" lon="6.16058">
        <ele>270.8</ele>
        <time>2022-05-26T12:17:15Z</time>
      </trkpt>
      <trkpt lat="43.33628" lon="6.16074">
        <ele>270.6</ele>
        <time>2022-05-26T12:17:17Z</time>
      </trkpt>
      <trkpt lat="43.3363" lon="6.16098">
        <ele>270.6</ele>
        <time>2022-05-26T12:17:20Z</time>
      </trkpt>
      <trkpt lat="43.33631" lon="6.16121">
        <ele>270.2</ele>
        <time>2022-05-26T12:17:23Z</time>
      </trkpt>
      <trkpt lat="43.33631" lon="6.16143">
        <ele>270</ele>
        <time>2022-05-26T12:17:26Z</time>
      </trkpt>
      <trkpt lat="43.33636" lon="6.162">
        <ele>269.8</ele>
        <time>2022-05-26T12:17:33Z</time>
      </trkpt>
      <trkpt lat="43.33643" lon="6.16257">
        <ele>269.4</ele>
        <time>2022-05-26T12:17:41Z</time>
      </trkpt>
      <trkpt lat="43.33652" lon="6.16299">
        <ele>269.2</ele>
        <time>2022-05-26T12:17:47Z</time>
      </trkpt>
      <trkpt lat="43.33657" lon="6.16327">
        <ele>269.2</ele>
        <time>2022-05-26T12:17:51Z</time>
      </trkpt>
      <trkpt lat="43.3366" lon="6.16356">
        <ele>269</ele>
        <time>2022-05-26T12:17:55Z</time>
      </trkpt>
      <trkpt lat="43.33663" lon="6.1637">
        <ele>269</ele>
        <time>2022-05-26T12:17:57Z</time>
      </trkpt>
      <trkpt lat="43.33668" lon="6.16389">
        <ele>268.8</ele>
        <time>2022-05-26T12:18:00Z</time>
      </trkpt>
      <trkpt lat="43.3367" lon="6.16401">
        <ele>268.8</ele>
        <time>2022-05-26T12:18:02Z</time>
      </trkpt>
      <trkpt lat="43.3367" lon="6.16417">
        <ele>268.4</ele>
        <time>2022-05-26T12:18:05Z</time>
      </trkpt>
      <trkpt lat="43.33668" lon="6.16427">
        <ele>268.2</ele>
        <time>2022-05-26T12:18:07Z</time>
      </trkpt>
      <trkpt lat="43.33664" lon="6.16432">
        <ele>268.2</ele>
        <time>2022-05-26T12:18:09Z</time>
      </trkpt>
      <trkpt lat="43.33661" lon="6.16433">
        <ele>268.2</ele>
        <time>2022-05-26T12:18:10Z</time>
      </trkpt>
      <trkpt lat="43.33657" lon="6.16433">
        <ele>268.4</ele>
        <time>2022-05-26T12:18:11Z</time>
      </trkpt>
      <trkpt lat="43.3365" lon="6.16433">
        <ele>268.6</ele>
        <time>2022-05-26T12:18:13Z</time>
      </trkpt>
      <trkpt lat="43.3364" lon="6.16435">
        <ele>268.6</ele>
        <time>2022-05-26T12:18:15Z</time>
      </trkpt>
      <trkpt lat="43.33636" lon="6.16438">
        <ele>268.6</ele>
        <time>2022-05-26T12:18:16Z</time>
      </trkpt>
      <trkpt lat="43.33633" lon="6.16446">
        <ele>269</ele>
        <time>2022-05-26T12:18:18Z</time>
      </trkpt>
      <trkpt lat="43.33631" lon="6.16465">
        <ele>270</ele>
        <time>2022-05-26T12:18:23Z</time>
      </trkpt>
      <trkpt lat="43.3363" lon="6.16469">
        <ele>270.4</ele>
        <time>2022-05-26T12:18:24Z</time>
      </trkpt>
      <trkpt lat="43.33629" lon="6.16489">
        <ele>271.6</ele>
        <time>2022-05-26T12:18:29Z</time>
      </trkpt>
      <trkpt lat="43.33628" lon="6.16493">
        <ele>271.8</ele>
        <time>2022-05-26T12:18:30Z</time>
      </trkpt>
      <trkpt lat="43.33627" lon="6.16511">
        <ele>272.6</ele>
        <time>2022-05-26T12:18:34Z</time>
      </trkpt>
      <trkpt lat="43.33626" lon="6.16516">
        <ele>272.6</ele>
        <time>2022-05-26T12:18:35Z</time>
      </trkpt>
      <trkpt lat="43.33627" lon="6.16525">
        <ele>272.8</ele>
        <time>2022-05-26T12:18:37Z</time>
      </trkpt>
      <trkpt lat="43.33628" lon="6.16546">
        <ele>273.6</ele>
        <time>2022-05-26T12:18:41Z</time>
      </trkpt>
      <trkpt lat="43.3363" lon="6.16554">
        <ele>273.8</ele>
        <time>2022-05-26T12:18:43Z</time>
      </trkpt>
      <trkpt lat="43.33634" lon="6.16566">
        <ele>274.2</ele>
        <time>2022-05-26T12:18:46Z</time>
      </trkpt>
      <trkpt lat="43.3364" lon="6.16581">
        <ele>274.4</ele>
        <time>2022-05-26T12:18:49Z</time>
      </trkpt>
      <trkpt lat="43.33654" lon="6.16609">
        <ele>274.4</ele>
        <time>2022-05-26T12:18:54Z</time>
      </trkpt>
      <trkpt lat="43.3367" lon="6.16642">
        <ele>273.8</ele>
        <time>2022-05-26T12:18:59Z</time>
      </trkpt>
      <trkpt lat="43.33686" lon="6.16676">
        <ele>272.4</ele>
        <time>2022-05-26T12:19:03Z</time>
      </trkpt>
      <trkpt lat="43.33689" lon="6.16682">
        <ele>272.4</ele>
        <time>2022-05-26T12:19:04Z</time>
      </trkpt>
      <trkpt lat="43.33693" lon="6.1669">
        <ele>272.2</ele>
        <time>2022-05-26T12:19:05Z</time>
      </trkpt>
      <trkpt lat="43.33713" lon="6.16729">
        <ele>271.6</ele>
        <time>2022-05-26T12:19:10Z</time>
      </trkpt>
      <trkpt lat="43.33717" lon="6.16736">
        <ele>271.6</ele>
        <time>2022-05-26T12:19:11Z</time>
      </trkpt>
      <trkpt lat="43.33726" lon="6.16747">
        <ele>271.4</ele>
        <time>2022-05-26T12:19:13Z</time>
      </trkpt>
      <trkpt lat="43.33736" lon="6.16757">
        <ele>271.4</ele>
        <time>2022-05-26T12:19:15Z</time>
      </trkpt>
      <trkpt lat="43.33741" lon="6.1676">
        <ele>271.4</ele>
        <time>2022-05-26T12:19:16Z</time>
      </trkpt>
      <trkpt lat="43.33769" lon="6.16775">
        <ele>271.2</ele>
        <time>2022-05-26T12:19:21Z</time>
      </trkpt>
      <trkpt lat="43.33781" lon="6.1678">
        <ele>271.2</ele>
        <time>2022-05-26T12:19:23Z</time>
      </trkpt>
      <trkpt lat="43.33808" lon="6.16793">
        <ele>271.4</ele>
        <time>2022-05-26T12:19:28Z</time>
      </trkpt>
      <trkpt lat="43.33814" lon="6.16794">
        <ele>271.4</ele>
        <time>2022-05-26T12:19:29Z</time>
      </trkpt>
      <trkpt lat="43.33835" lon="6.16798">
        <ele>271.2</ele>
        <time>2022-05-26T12:19:33Z</time>
      </trkpt>
      <trkpt lat="43.33853" lon="6.16802">
        <ele>270.2</ele>
        <time>2022-05-26T12:19:36Z</time>
      </trkpt>
      <trkpt lat="43.33869" lon="6.16805">
        <ele>269.8</ele>
        <time>2022-05-26T12:19:39Z</time>
      </trkpt>
      <trkpt lat="43.33875" lon="6.16805">
        <ele>269.8</ele>
        <time>2022-05-26T12:19:40Z</time>
      </trkpt>
      <trkpt lat="43.33885" lon="6.16805">
        <ele>269.6</ele>
        <time>2022-05-26T12:19:42Z</time>
      </trkpt>
      <trkpt lat="43.33891" lon="6.16805">
        <ele>269.4</ele>
        <time>2022-05-26T12:19:43Z</time>
      </trkpt>
      <trkpt lat="43.33902" lon="6.16803">
        <ele>269.2</ele>
        <time>2022-05-26T12:19:45Z</time>
      </trkpt>
      <trkpt lat="43.33915" lon="6.16802">
        <ele>269</ele>
        <time>2022-05-26T12:19:47Z</time>
      </trkpt>
      <trkpt lat="43.33928" lon="6.16803">
        <ele>268.4</ele>
        <time>2022-05-26T12:19:49Z</time>
      </trkpt>
      <trkpt lat="43.33941" lon="6.16805">
        <ele>268.2</ele>
        <time>2022-05-26T12:19:51Z</time>
      </trkpt>
      <trkpt lat="43.33948" lon="6.16806">
        <ele>268</ele>
        <time>2022-05-26T12:19:52Z</time>
      </trkpt>
      <trkpt lat="43.33961" lon="6.16808">
        <ele>267.6</ele>
        <time>2022-05-26T12:19:54Z</time>
      </trkpt>
      <trkpt lat="43.33967" lon="6.16808">
        <ele>267.6</ele>
        <time>2022-05-26T12:19:55Z</time>
      </trkpt>
      <trkpt lat="43.33981" lon="6.16806">
        <ele>267.4</ele>
        <time>2022-05-26T12:19:58Z</time>
      </trkpt>
      <trkpt lat="43.33986" lon="6.16808">
        <ele>267.4</ele>
        <time>2022-05-26T12:19:59Z</time>
      </trkpt>
      <trkpt lat="43.33991" lon="6.16811">
        <ele>267.4</ele>
        <time>2022-05-26T12:20:00Z</time>
      </trkpt>
      <trkpt lat="43.33996" lon="6.16815">
        <ele>267.4</ele>
        <time>2022-05-26T12:20:01Z</time>
      </trkpt>
      <trkpt lat="43.34" lon="6.16819">
        <ele>267.2</ele>
        <time>2022-05-26T12:20:02Z</time>
      </trkpt>
      <trkpt lat="43.34005" lon="6.16824">
        <ele>267.2</ele>
        <time>2022-05-26T12:20:03Z</time>
      </trkpt>
      <trkpt lat="43.34025" lon="6.16837">
        <ele>267.2</ele>
        <time>2022-05-26T12:20:07Z</time>
      </trkpt>
      <trkpt lat="43.34056" lon="6.16854">
        <ele>267</ele>
        <time>2022-05-26T12:20:13Z</time>
      </trkpt>
      <trkpt lat="43.34081" lon="6.16865">
        <ele>266</ele>
        <time>2022-05-26T12:20:18Z</time>
      </trkpt>
      <trkpt lat="43.34085" lon="6.16868">
        <ele>265.8</ele>
        <time>2022-05-26T12:20:19Z</time>
      </trkpt>
      <trkpt lat="43.34088" lon="6.16873">
        <ele>265.8</ele>
        <time>2022-05-26T12:20:20Z</time>
      </trkpt>
      <trkpt lat="43.34097" lon="6.169">
        <ele>265.6</ele>
        <time>2022-05-26T12:20:24Z</time>
      </trkpt>
      <trkpt lat="43.34099" lon="6.16907">
        <ele>265.6</ele>
        <time>2022-05-26T12:20:25Z</time>
      </trkpt>
      <trkpt lat="43.34118" lon="6.16958">
        <ele>265.2</ele>
        <time>2022-05-26T12:20:32Z</time>
      </trkpt>
      <trkpt lat="43.34139" lon="6.17015">
        <ele>264.8</ele>
        <time>2022-05-26T12:20:40Z</time>
      </trkpt>
      <trkpt lat="43.34142" lon="6.17022">
        <ele>264.8</ele>
        <time>2022-05-26T12:20:41Z</time>
      </trkpt>
      <trkpt lat="43.34148" lon="6.17035">
        <ele>264.8</ele>
        <time>2022-05-26T12:20:43Z</time>
      </trkpt>
      <trkpt lat="43.34156" lon="6.17049">
        <ele>264.6</ele>
        <time>2022-05-26T12:20:45Z</time>
      </trkpt>
      <trkpt lat="43.3416" lon="6.17056">
        <ele>264.6</ele>
        <time>2022-05-26T12:20:46Z</time>
      </trkpt>
      <trkpt lat="43.34182" lon="6.17096">
        <ele>264.6</ele>
        <time>2022-05-26T12:20:52Z</time>
      </trkpt>
      <trkpt lat="43.34185" lon="6.17102">
        <ele>264.6</ele>
        <time>2022-05-26T12:20:53Z</time>
      </trkpt>
      <trkpt lat="43.34206" lon="6.17153">
        <ele>264.6</ele>
        <time>2022-05-26T12:21:01Z</time>
      </trkpt>
      <trkpt lat="43.34222" lon="6.17192">
        <ele>264.6</ele>
        <time>2022-05-26T12:21:07Z</time>
      </trkpt>
      <trkpt lat="43.3423" lon="6.1721">
        <ele>264.6</ele>
        <time>2022-05-26T12:21:10Z</time>
      </trkpt>
      <trkpt lat="43.34246" lon="6.17251">
        <ele>264.6</ele>
        <time>2022-05-26T12:21:17Z</time>
      </trkpt>
      <trkpt lat="43.34268" lon="6.17304">
        <ele>264.4</ele>
        <time>2022-05-26T12:21:26Z</time>
      </trkpt>
      <trkpt lat="43.34269" lon="6.17309">
        <ele>264.4</ele>
        <time>2022-05-26T12:21:27Z</time>
      </trkpt>
      <trkpt lat="43.34269" lon="6.17315">
        <ele>264.4</ele>
        <time>2022-05-26T12:21:28Z</time>
      </trkpt>
      <trkpt lat="43.34265" lon="6.17329">
        <ele>264.6</ele>
        <time>2022-05-26T12:21:30Z</time>
      </trkpt>
      <trkpt lat="43.34258" lon="6.17336">
        <ele>264.4</ele>
        <time>2022-05-26T12:21:32Z</time>
      </trkpt>
      <trkpt lat="43.34253" lon="6.17338">
        <ele>264.6</ele>
        <time>2022-05-26T12:21:33Z</time>
      </trkpt>
      <trkpt lat="43.34242" lon="6.17341">
        <ele>264.6</ele>
        <time>2022-05-26T12:21:35Z</time>
      </trkpt>
      <trkpt lat="43.34226" lon="6.1734">
        <ele>264.6</ele>
        <time>2022-05-26T12:21:38Z</time>
      </trkpt>
      <trkpt lat="43.34198" lon="6.17337">
        <ele>264.6</ele>
        <time>2022-05-26T12:21:43Z</time>
      </trkpt>
      <trkpt lat="43.34192" lon="6.17339">
        <ele>264.6</ele>
        <time>2022-05-26T12:21:44Z</time>
      </trkpt>
      <trkpt lat="43.34188" lon="6.17343">
        <ele>264.6</ele>
        <time>2022-05-26T12:21:45Z</time>
      </trkpt>
      <trkpt lat="43.34184" lon="6.17354">
        <ele>265.2</ele>
        <time>2022-05-26T12:21:47Z</time>
      </trkpt>
      <trkpt lat="43.34179" lon="6.17375">
        <ele>264.8</ele>
        <time>2022-05-26T12:21:51Z</time>
      </trkpt>
      <trkpt lat="43.34177" lon="6.17377">
        <ele>264.8</ele>
        <time>2022-05-26T12:21:52Z</time>
      </trkpt>
      <trkpt lat="43.34168" lon="6.17379">
        <ele>264.8</ele>
        <time>2022-05-26T12:21:54Z</time>
      </trkpt>
      <trkpt lat="43.34132" lon="6.17389">
        <ele>265.2</ele>
        <time>2022-05-26T12:22:02Z</time>
      </trkpt>
      <trkpt lat="43.34087" lon="6.17404">
        <ele>266</ele>
        <time>2022-05-26T12:22:11Z</time>
      </trkpt>
      <trkpt lat="43.34074" lon="6.17408">
        <ele>266</ele>
        <time>2022-05-26T12:22:14Z</time>
      </trkpt>
      <trkpt lat="43.34054" lon="6.17414">
        <ele>266</ele>
        <time>2022-05-26T12:22:19Z</time>
      </trkpt>
      <trkpt lat="43.34025" lon="6.17422">
        <ele>265.8</ele>
        <time>2022-05-26T12:22:25Z</time>
      </trkpt>
      <trkpt lat="43.34021" lon="6.17424">
        <ele>265.8</ele>
        <time>2022-05-26T12:22:26Z</time>
      </trkpt>
      <trkpt lat="43.33985" lon="6.17434">
        <ele>265.6</ele>
        <time>2022-05-26T12:22:33Z</time>
      </trkpt>
      <trkpt lat="43.33977" lon="6.1743">
        <ele>265.6</ele>
        <time>2022-05-26T12:22:35Z</time>
      </trkpt>
      <trkpt lat="43.33975" lon="6.17426">
        <ele>265.4</ele>
        <time>2022-05-26T12:22:36Z</time>
      </trkpt>
      <trkpt lat="43.33973" lon="6.1742">
        <ele>265.4</ele>
        <time>2022-05-26T12:22:37Z</time>
      </trkpt>
      <trkpt lat="43.33969" lon="6.17407">
        <ele>265.2</ele>
        <time>2022-05-26T12:22:39Z</time>
      </trkpt>
      <trkpt lat="43.33967" lon="6.17401">
        <ele>265.2</ele>
        <time>2022-05-26T12:22:40Z</time>
      </trkpt>
      <trkpt lat="43.33963" lon="6.1739">
        <ele>265</ele>
        <time>2022-05-26T12:22:42Z</time>
      </trkpt>
      <trkpt lat="43.33956" lon="6.17367">
        <ele>264.8</ele>
        <time>2022-05-26T12:22:46Z</time>
      </trkpt>
      <trkpt lat="43.33949" lon="6.17349">
        <ele>265.2</ele>
        <time>2022-05-26T12:22:49Z</time>
      </trkpt>
      <trkpt lat="43.33947" lon="6.17343">
        <ele>265.2</ele>
        <time>2022-05-26T12:22:50Z</time>
      </trkpt>
      <trkpt lat="43.33937" lon="6.17313">
        <ele>265.4</ele>
        <time>2022-05-26T12:22:55Z</time>
      </trkpt>
      <trkpt lat="43.33933" lon="6.17301">
        <ele>265.6</ele>
        <time>2022-05-26T12:22:57Z</time>
      </trkpt>
      <trkpt lat="43.33927" lon="6.17283">
        <ele>265.8</ele>
        <time>2022-05-26T12:23:00Z</time>
      </trkpt>
      <trkpt lat="43.33926" lon="6.17277">
        <ele>265.8</ele>
        <time>2022-05-26T12:23:01Z</time>
      </trkpt>
      <trkpt lat="43.33924" lon="6.17271">
        <ele>266</ele>
        <time>2022-05-26T12:23:02Z</time>
      </trkpt>
      <trkpt lat="43.33923" lon="6.17265">
        <ele>266</ele>
        <time>2022-05-26T12:23:03Z</time>
      </trkpt>
      <trkpt lat="43.33921" lon="6.1726">
        <ele>266.2</ele>
        <time>2022-05-26T12:23:04Z</time>
      </trkpt>
      <trkpt lat="43.33915" lon="6.17246">
        <ele>266.4</ele>
        <time>2022-05-26T12:23:07Z</time>
      </trkpt>
      <trkpt lat="43.33903" lon="6.17233">
        <ele>266.8</ele>
        <time>2022-05-26T12:23:11Z</time>
      </trkpt>
      <trkpt lat="43.339" lon="6.17231">
        <ele>267</ele>
        <time>2022-05-26T12:23:12Z</time>
      </trkpt>
      <trkpt lat="43.33897" lon="6.17231">
        <ele>267.2</ele>
        <time>2022-05-26T12:23:13Z</time>
      </trkpt>
      <trkpt lat="43.33895" lon="6.17232">
        <ele>267.4</ele>
        <time>2022-05-26T12:23:14Z</time>
      </trkpt>
      <trkpt lat="43.33891" lon="6.17235">
        <ele>268</ele>
        <time>2022-05-26T12:23:16Z</time>
      </trkpt>
      <trkpt lat="43.3389" lon="6.1724">
        <ele>268.4</ele>
        <time>2022-05-26T12:23:18Z</time>
      </trkpt>
      <trkpt lat="43.33887" lon="6.17243">
        <ele>268.8</ele>
        <time>2022-05-26T12:23:20Z</time>
      </trkpt>
      <trkpt lat="43.33884" lon="6.17248">
        <ele>269.2</ele>
        <time>2022-05-26T12:23:23Z</time>
      </trkpt>
      <trkpt lat="43.33882" lon="6.17251">
        <ele>269.6</ele>
        <time>2022-05-26T12:23:25Z</time>
      </trkpt>
      <trkpt lat="43.33877" lon="6.17262">
        <ele>270.2</ele>
        <time>2022-05-26T12:23:30Z</time>
      </trkpt>
      <trkpt lat="43.33873" lon="6.17269">
        <ele>270.8</ele>
        <time>2022-05-26T12:23:33Z</time>
      </trkpt>
      <trkpt lat="43.33869" lon="6.17278">
        <ele>271</ele>
        <time>2022-05-26T12:23:37Z</time>
      </trkpt>
      <trkpt lat="43.3386" lon="6.1729">
        <ele>272</ele>
        <time>2022-05-26T12:23:43Z</time>
      </trkpt>
      <trkpt lat="43.33854" lon="6.17298">
        <ele>272.6</ele>
        <time>2022-05-26T12:23:47Z</time>
      </trkpt>
      <trkpt lat="43.33851" lon="6.17301">
        <ele>272.8</ele>
        <time>2022-05-26T12:23:49Z</time>
      </trkpt>
      <trkpt lat="43.33849" lon="6.17303">
        <ele>273</ele>
        <time>2022-05-26T12:23:50Z</time>
      </trkpt>
      <trkpt lat="43.33843" lon="6.1731">
        <ele>273.4</ele>
        <time>2022-05-26T12:23:54Z</time>
      </trkpt>
      <trkpt lat="43.33842" lon="6.17311">
        <ele>273.6</ele>
        <time>2022-05-26T12:23:55Z</time>
      </trkpt>
      <trkpt lat="43.33839" lon="6.17315">
        <ele>274</ele>
        <time>2022-05-26T12:23:57Z</time>
      </trkpt>
      <trkpt lat="43.33835" lon="6.17319">
        <ele>274.4</ele>
        <time>2022-05-26T12:23:59Z</time>
      </trkpt>
      <trkpt lat="43.33831" lon="6.17323">
        <ele>274.6</ele>
        <time>2022-05-26T12:24:01Z</time>
      </trkpt>
      <trkpt lat="43.33824" lon="6.17332">
        <ele>275</ele>
        <time>2022-05-26T12:24:05Z</time>
      </trkpt>
      <trkpt lat="43.33819" lon="6.17338">
        <ele>275.2</ele>
        <time>2022-05-26T12:24:07Z</time>
      </trkpt>
      <trkpt lat="43.33808" lon="6.17351">
        <ele>275.8</ele>
        <time>2022-05-26T12:24:11Z</time>
      </trkpt>
      <trkpt lat="43.33802" lon="6.17358">
        <ele>276.2</ele>
        <time>2022-05-26T12:24:14Z</time>
      </trkpt>
      <trkpt lat="43.33795" lon="6.17371">
        <ele>276.6</ele>
        <time>2022-05-26T12:24:18Z</time>
      </trkpt>
      <trkpt lat="43.33777" lon="6.17386">
        <ele>277.2</ele>
        <time>2022-05-26T12:24:24Z</time>
      </trkpt>
      <trkpt lat="43.33772" lon="6.17393">
        <ele>277.2</ele>
        <time>2022-05-26T12:24:26Z</time>
      </trkpt>
      <trkpt lat="43.33758" lon="6.17407">
        <ele>277.2</ele>
        <time>2022-05-26T12:24:31Z</time>
      </trkpt>
      <trkpt lat="43.33734" lon="6.17436">
        <ele>277</ele>
        <time>2022-05-26T12:24:38Z</time>
      </trkpt>
      <trkpt lat="43.33708" lon="6.17465">
        <ele>275.8</ele>
        <time>2022-05-26T12:24:44Z</time>
      </trkpt>
      <trkpt lat="43.33686" lon="6.17493">
        <ele>275</ele>
        <time>2022-05-26T12:24:49Z</time>
      </trkpt>
      <trkpt lat="43.33682" lon="6.17497">
        <ele>275</ele>
        <time>2022-05-26T12:24:50Z</time>
      </trkpt>
      <trkpt lat="43.33674" lon="6.17507">
        <ele>274.8</ele>
        <time>2022-05-26T12:24:52Z</time>
      </trkpt>
      <trkpt lat="43.33653" lon="6.17532">
        <ele>274.8</ele>
        <time>2022-05-26T12:24:57Z</time>
      </trkpt>
      <trkpt lat="43.33634" lon="6.17557">
        <ele>274.8</ele>
        <time>2022-05-26T12:25:02Z</time>
      </trkpt>
      <trkpt lat="43.3363" lon="6.17562">
        <ele>274.8</ele>
        <time>2022-05-26T12:25:03Z</time>
      </trkpt>
      <trkpt lat="43.33614" lon="6.1758">
        <ele>275</ele>
        <time>2022-05-26T12:25:07Z</time>
      </trkpt>
      <trkpt lat="43.33599" lon="6.1759">
        <ele>274.8</ele>
        <time>2022-05-26T12:25:10Z</time>
      </trkpt>
      <trkpt lat="43.33561" lon="6.17613">
        <ele>274.4</ele>
        <time>2022-05-26T12:25:18Z</time>
      </trkpt>
      <trkpt lat="43.33549" lon="6.1762">
        <ele>274.2</ele>
        <time>2022-05-26T12:25:21Z</time>
      </trkpt>
      <trkpt lat="43.33535" lon="6.17629">
        <ele>274.2</ele>
        <time>2022-05-26T12:25:24Z</time>
      </trkpt>
      <trkpt lat="43.33502" lon="6.17652">
        <ele>274.4</ele>
        <time>2022-05-26T12:25:31Z</time>
      </trkpt>
      <trkpt lat="43.33497" lon="6.17654">
        <ele>274.4</ele>
        <time>2022-05-26T12:25:32Z</time>
      </trkpt>
      <trkpt lat="43.33487" lon="6.17656">
        <ele>274.6</ele>
        <time>2022-05-26T12:25:35Z</time>
      </trkpt>
      <trkpt lat="43.33456" lon="6.17664">
        <ele>274.8</ele>
        <time>2022-05-26T12:25:42Z</time>
      </trkpt>
      <trkpt lat="43.33439" lon="6.17669">
        <ele>274.8</ele>
        <time>2022-05-26T12:25:46Z</time>
      </trkpt>
      <trkpt lat="43.33421" lon="6.17672">
        <ele>275</ele>
        <time>2022-05-26T12:25:50Z</time>
      </trkpt>
      <trkpt lat="43.33394" lon="6.17679">
        <ele>275.2</ele>
        <time>2022-05-26T12:25:56Z</time>
      </trkpt>
      <trkpt lat="43.33376" lon="6.1768">
        <ele>275.4</ele>
        <time>2022-05-26T12:26:00Z</time>
      </trkpt>
      <trkpt lat="43.33368" lon="6.17681">
        <ele>275.8</ele>
        <time>2022-05-26T12:26:02Z</time>
      </trkpt>
      <trkpt lat="43.33356" lon="6.17683">
        <ele>276.2</ele>
        <time>2022-05-26T12:26:05Z</time>
      </trkpt>
      <trkpt lat="43.33348" lon="6.17685">
        <ele>276.4</ele>
        <time>2022-05-26T12:26:07Z</time>
      </trkpt>
      <trkpt lat="43.33315" lon="6.17688">
        <ele>276.6</ele>
        <time>2022-05-26T12:26:14Z</time>
      </trkpt>
      <trkpt lat="43.33284" lon="6.17695">
        <ele>276</ele>
        <time>2022-05-26T12:26:19Z</time>
      </trkpt>
      <trkpt lat="43.3326" lon="6.17701">
        <ele>275.2</ele>
        <time>2022-05-26T12:26:22Z</time>
      </trkpt>
      <trkpt lat="43.33237" lon="6.17706">
        <ele>274</ele>
        <time>2022-05-26T12:26:25Z</time>
      </trkpt>
      <trkpt lat="43.33207" lon="6.17713">
        <ele>273</ele>
        <time>2022-05-26T12:26:29Z</time>
      </trkpt>
      <trkpt lat="43.33186" lon="6.17719">
        <ele>272.6</ele>
        <time>2022-05-26T12:26:32Z</time>
      </trkpt>
      <trkpt lat="43.33178" lon="6.17722">
        <ele>272.4</ele>
        <time>2022-05-26T12:26:33Z</time>
      </trkpt>
      <trkpt lat="43.33168" lon="6.17725">
        <ele>272.2</ele>
        <time>2022-05-26T12:26:35Z</time>
      </trkpt>
      <trkpt lat="43.33164" lon="6.17727">
        <ele>272.2</ele>
        <time>2022-05-26T12:26:36Z</time>
      </trkpt>
      <trkpt lat="43.33129" lon="6.17745">
        <ele>272.2</ele>
        <time>2022-05-26T12:26:43Z</time>
      </trkpt>
      <trkpt lat="43.33125" lon="6.17748">
        <ele>272.2</ele>
        <time>2022-05-26T12:26:44Z</time>
      </trkpt>
      <trkpt lat="43.33114" lon="6.17756">
        <ele>272.4</ele>
        <time>2022-05-26T12:26:47Z</time>
      </trkpt>
      <trkpt lat="43.33109" lon="6.17759">
        <ele>272.6</ele>
        <time>2022-05-26T12:26:48Z</time>
      </trkpt>
      <trkpt lat="43.33088" lon="6.17773">
        <ele>272.2</ele>
        <time>2022-05-26T12:26:52Z</time>
      </trkpt>
      <trkpt lat="43.33075" lon="6.1778">
        <ele>271.8</ele>
        <time>2022-05-26T12:26:54Z</time>
      </trkpt>
      <trkpt lat="43.33063" lon="6.17786">
        <ele>271.6</ele>
        <time>2022-05-26T12:26:56Z</time>
      </trkpt>
      <trkpt lat="43.3305" lon="6.17794">
        <ele>271.4</ele>
        <time>2022-05-26T12:26:58Z</time>
      </trkpt>
      <trkpt lat="43.33029" lon="6.17807">
        <ele>270</ele>
        <time>2022-05-26T12:27:01Z</time>
      </trkpt>
      <trkpt lat="43.33006" lon="6.17821">
        <ele>269.6</ele>
        <time>2022-05-26T12:27:04Z</time>
      </trkpt>
      <trkpt lat="43.32992" lon="6.17828">
        <ele>269</ele>
        <time>2022-05-26T12:27:06Z</time>
      </trkpt>
      <trkpt lat="43.32963" lon="6.17843">
        <ele>267.6</ele>
        <time>2022-05-26T12:27:10Z</time>
      </trkpt>
      <trkpt lat="43.32957" lon="6.17847">
        <ele>267.6</ele>
        <time>2022-05-26T12:27:11Z</time>
      </trkpt>
      <trkpt lat="43.32921" lon="6.17867">
        <ele>266.4</ele>
        <time>2022-05-26T12:27:17Z</time>
      </trkpt>
      <trkpt lat="43.32896" lon="6.17881">
        <ele>266</ele>
        <time>2022-05-26T12:27:22Z</time>
      </trkpt>
      <trkpt lat="43.32883" lon="6.17893">
        <ele>265.8</ele>
        <time>2022-05-26T12:27:25Z</time>
      </trkpt>
      <trkpt lat="43.32872" lon="6.17897">
        <ele>265.8</ele>
        <time>2022-05-26T12:27:27Z</time>
      </trkpt>
      <trkpt lat="43.32866" lon="6.17899">
        <ele>265.8</ele>
        <time>2022-05-26T12:27:28Z</time>
      </trkpt>
      <trkpt lat="43.32855" lon="6.17906">
        <ele>265.4</ele>
        <time>2022-05-26T12:27:30Z</time>
      </trkpt>
      <trkpt lat="43.32851" lon="6.17908">
        <ele>265.4</ele>
        <time>2022-05-26T12:27:31Z</time>
      </trkpt>
      <trkpt lat="43.32822" lon="6.17926">
        <ele>264.8</ele>
        <time>2022-05-26T12:27:36Z</time>
      </trkpt>
      <trkpt lat="43.32816" lon="6.17929">
        <ele>264.6</ele>
        <time>2022-05-26T12:27:37Z</time>
      </trkpt>
      <trkpt lat="43.32799" lon="6.17937">
        <ele>264.8</ele>
        <time>2022-05-26T12:27:40Z</time>
      </trkpt>
      <trkpt lat="43.32788" lon="6.17943">
        <ele>265</ele>
        <time>2022-05-26T12:27:42Z</time>
      </trkpt>
      <trkpt lat="43.32783" lon="6.17946">
        <ele>265</ele>
        <time>2022-05-26T12:27:43Z</time>
      </trkpt>
      <trkpt lat="43.3276" lon="6.17958">
        <ele>264.4</ele>
        <time>2022-05-26T12:27:47Z</time>
      </trkpt>
      <trkpt lat="43.32748" lon="6.17965">
        <ele>264.4</ele>
        <time>2022-05-26T12:27:49Z</time>
      </trkpt>
      <trkpt lat="43.32741" lon="6.17968">
        <ele>264.4</ele>
        <time>2022-05-26T12:27:50Z</time>
      </trkpt>
      <trkpt lat="43.32703" lon="6.17991">
        <ele>264.4</ele>
        <time>2022-05-26T12:27:56Z</time>
      </trkpt>
      <trkpt lat="43.32667" lon="6.18015">
        <ele>264.2</ele>
        <time>2022-05-26T12:28:02Z</time>
      </trkpt>
      <trkpt lat="43.3262" lon="6.18041">
        <ele>263.6</ele>
        <time>2022-05-26T12:28:09Z</time>
      </trkpt>
      <trkpt lat="43.32612" lon="6.18045">
        <ele>263.4</ele>
        <time>2022-05-26T12:28:10Z</time>
      </trkpt>
      <trkpt lat="43.3256" lon="6.18076">
        <ele>262.8</ele>
        <time>2022-05-26T12:28:18Z</time>
      </trkpt>
      <trkpt lat="43.32549" lon="6.18083">
        <ele>262.6</ele>
        <time>2022-05-26T12:28:20Z</time>
      </trkpt>
      <trkpt lat="43.32536" lon="6.18092">
        <ele>262.4</ele>
        <time>2022-05-26T12:28:22Z</time>
      </trkpt>
      <trkpt lat="43.32514" lon="6.18108">
        <ele>262</ele>
        <time>2022-05-26T12:28:26Z</time>
      </trkpt>
      <trkpt lat="43.32508" lon="6.18112">
        <ele>261.8</ele>
        <time>2022-05-26T12:28:27Z</time>
      </trkpt>
      <trkpt lat="43.3246" lon="6.18142">
        <ele>262</ele>
        <time>2022-05-26T12:28:35Z</time>
      </trkpt>
      <trkpt lat="43.32427" lon="6.18164">
        <ele>261.8</ele>
        <time>2022-05-26T12:28:41Z</time>
      </trkpt>
      <trkpt lat="43.32388" lon="6.18198">
        <ele>261.8</ele>
        <time>2022-05-26T12:28:49Z</time>
      </trkpt>
      <trkpt lat="43.32368" lon="6.1822">
        <ele>261.8</ele>
        <time>2022-05-26T12:28:54Z</time>
      </trkpt>
      <trkpt lat="43.32346" lon="6.18248">
        <ele>262</ele>
        <time>2022-05-26T12:29:00Z</time>
      </trkpt>
      <trkpt lat="43.32327" lon="6.18268">
        <ele>262.2</ele>
        <time>2022-05-26T12:29:05Z</time>
      </trkpt>
      <trkpt lat="43.32324" lon="6.1827">
        <ele>262.4</ele>
        <time>2022-05-26T12:29:06Z</time>
      </trkpt>
      <trkpt lat="43.32312" lon="6.18285">
        <ele>262.8</ele>
        <time>2022-05-26T12:29:11Z</time>
      </trkpt>
      <trkpt lat="43.32306" lon="6.1829">
        <ele>263</ele>
        <time>2022-05-26T12:29:15Z</time>
      </trkpt>
      <trkpt lat="43.32303" lon="6.18288">
        <ele>263</ele>
        <time>2022-05-26T12:29:17Z</time>
      </trkpt>
      <trkpt lat="43.323" lon="6.18282">
        <ele>263</ele>
        <time>2022-05-26T12:29:19Z</time>
      </trkpt>
      <trkpt lat="43.32295" lon="6.18265">
        <ele>263.2</ele>
        <time>2022-05-26T12:29:23Z</time>
      </trkpt>
      <trkpt lat="43.32294" lon="6.1826">
        <ele>263.2</ele>
        <time>2022-05-26T12:29:24Z</time>
      </trkpt>
      <trkpt lat="43.32291" lon="6.18255">
        <ele>263.2</ele>
        <time>2022-05-26T12:29:25Z</time>
      </trkpt>
      <trkpt lat="43.32285" lon="6.18246">
        <ele>263.2</ele>
        <time>2022-05-26T12:29:27Z</time>
      </trkpt>
      <trkpt lat="43.32278" lon="6.18237">
        <ele>263.2</ele>
        <time>2022-05-26T12:29:29Z</time>
      </trkpt>
      <trkpt lat="43.32259" lon="6.18218">
        <ele>263</ele>
        <time>2022-05-26T12:29:34Z</time>
      </trkpt>
      <trkpt lat="43.32255" lon="6.18215">
        <ele>262.8</ele>
        <time>2022-05-26T12:29:35Z</time>
      </trkpt>
      <trkpt lat="43.32243" lon="6.18205">
        <ele>262.8</ele>
        <time>2022-05-26T12:29:38Z</time>
      </trkpt>
      <trkpt lat="43.32228" lon="6.18188">
        <ele>262.6</ele>
        <time>2022-05-26T12:29:42Z</time>
      </trkpt>
      <trkpt lat="43.32225" lon="6.18183">
        <ele>262.6</ele>
        <time>2022-05-26T12:29:43Z</time>
      </trkpt>
      <trkpt lat="43.32221" lon="6.18172">
        <ele>262.4</ele>
        <time>2022-05-26T12:29:45Z</time>
      </trkpt>
      <trkpt lat="43.3222" lon="6.18166">
        <ele>262.2</ele>
        <time>2022-05-26T12:29:46Z</time>
      </trkpt>
      <trkpt lat="43.32218" lon="6.1816">
        <ele>262.2</ele>
        <time>2022-05-26T12:29:47Z</time>
      </trkpt>
      <trkpt lat="43.32218" lon="6.18149">
        <ele>262</ele>
        <time>2022-05-26T12:29:49Z</time>
      </trkpt>
      <trkpt lat="43.32218" lon="6.18143">
        <ele>262</ele>
        <time>2022-05-26T12:29:50Z</time>
      </trkpt>
      <trkpt lat="43.32227" lon="6.18119">
        <ele>261.8</ele>
        <time>2022-05-26T12:29:55Z</time>
      </trkpt>
      <trkpt lat="43.32233" lon="6.18111">
        <ele>261.8</ele>
        <time>2022-05-26T12:29:58Z</time>
      </trkpt>
      <trkpt lat="43.32233" lon="6.18109">
        <ele>261.8</ele>
        <time>2022-05-26T12:29:59Z</time>
      </trkpt>
      <trkpt lat="43.32232" lon="6.18107">
        <ele>261.8</ele>
        <time>2022-05-26T12:30:00Z</time>
      </trkpt>
      <trkpt lat="43.32231" lon="6.18105">
        <ele>261.8</ele>
        <time>2022-05-26T12:30:02Z</time>
      </trkpt>
      <trkpt lat="43.32232" lon="6.18108">
        <ele>262</ele>
        <time>2022-05-26T12:30:05Z</time>
      </trkpt>
      <trkpt lat="43.32232" lon="6.18112">
        <ele>262</ele>
        <time>2022-05-26T12:30:07Z</time>
      </trkpt>
      <trkpt lat="43.32227" lon="6.18124">
        <ele>262.2</ele>
        <time>2022-05-26T12:30:11Z</time>
      </trkpt>
      <trkpt lat="43.32225" lon="6.18128">
        <ele>262.2</ele>
        <time>2022-05-26T12:30:12Z</time>
      </trkpt>
      <trkpt lat="43.32224" lon="6.18132">
        <ele>262.2</ele>
        <time>2022-05-26T12:30:13Z</time>
      </trkpt>
      <trkpt lat="43.3222" lon="6.18147">
        <ele>262.2</ele>
        <time>2022-05-26T12:30:16Z</time>
      </trkpt>
      <trkpt lat="43.32223" lon="6.18168">
        <ele>262</ele>
        <time>2022-05-26T12:30:21Z</time>
      </trkpt>
      <trkpt lat="43.32227" lon="6.18176">
        <ele>262</ele>
        <time>2022-05-26T12:30:23Z</time>
      </trkpt>
      <trkpt lat="43.3223" lon="6.18185">
        <ele>262</ele>
        <time>2022-05-26T12:30:25Z</time>
      </trkpt>
      <trkpt lat="43.32237" lon="6.18195">
        <ele>262</ele>
        <time>2022-05-26T12:30:28Z</time>
      </trkpt>
      <trkpt lat="43.32248" lon="6.18206">
        <ele>262</ele>
        <time>2022-05-26T12:30:33Z</time>
      </trkpt>
      <trkpt lat="43.32263" lon="6.1822">
        <ele>262.6</ele>
        <time>2022-05-26T12:30:39Z</time>
      </trkpt>
      <trkpt lat="43.32273" lon="6.18231">
        <ele>263</ele>
        <time>2022-05-26T12:30:43Z</time>
      </trkpt>
      <trkpt lat="43.32283" lon="6.18244">
        <ele>263.6</ele>
        <time>2022-05-26T12:30:47Z</time>
      </trkpt>
      <trkpt lat="43.32288" lon="6.18251">
        <ele>263.8</ele>
        <time>2022-05-26T12:30:49Z</time>
      </trkpt>
      <trkpt lat="43.32302" lon="6.18284">
        <ele>264</ele>
        <time>2022-05-26T12:30:57Z</time>
      </trkpt>
      <trkpt lat="43.32305" lon="6.18294">
        <ele>264</ele>
        <time>2022-05-26T12:30:59Z</time>
      </trkpt>
      <trkpt lat="43.32315" lon="6.18314">
        <ele>264.2</ele>
        <time>2022-05-26T12:31:04Z</time>
      </trkpt>
      <trkpt lat="43.32314" lon="6.18325">
        <ele>264.2</ele>
        <time>2022-05-26T12:31:07Z</time>
      </trkpt>
      <trkpt lat="43.32312" lon="6.18328">
        <ele>264.2</ele>
        <time>2022-05-26T12:31:08Z</time>
      </trkpt>
      <trkpt lat="43.32292" lon="6.18347">
        <ele>264.2</ele>
        <time>2022-05-26T12:31:14Z</time>
      </trkpt>
      <trkpt lat="43.3226" lon="6.18375">
        <ele>263.2</ele>
        <time>2022-05-26T12:31:21Z</time>
      </trkpt>
      <trkpt lat="43.32235" lon="6.18395">
        <ele>262.6</ele>
        <time>2022-05-26T12:31:26Z</time>
      </trkpt>
      <trkpt lat="43.32219" lon="6.18405">
        <ele>262.2</ele>
        <time>2022-05-26T12:31:29Z</time>
      </trkpt>
      <trkpt lat="43.32187" lon="6.18425">
        <ele>261.6</ele>
        <time>2022-05-26T12:31:35Z</time>
      </trkpt>
      <trkpt lat="43.32182" lon="6.18428">
        <ele>261.4</ele>
        <time>2022-05-26T12:31:36Z</time>
      </trkpt>
      <trkpt lat="43.32167" lon="6.18438">
        <ele>261</ele>
        <time>2022-05-26T12:31:39Z</time>
      </trkpt>
      <trkpt lat="43.32158" lon="6.1845">
        <ele>260.8</ele>
        <time>2022-05-26T12:31:41Z</time>
      </trkpt>
      <trkpt lat="43.32135" lon="6.18486">
        <ele>260.6</ele>
        <time>2022-05-26T12:31:46Z</time>
      </trkpt>
      <trkpt lat="43.32117" lon="6.18514">
        <ele>260.4</ele>
        <time>2022-05-26T12:31:50Z</time>
      </trkpt>
      <trkpt lat="43.32108" lon="6.18525">
        <ele>260</ele>
        <time>2022-05-26T12:31:52Z</time>
      </trkpt>
      <trkpt lat="43.32102" lon="6.18531">
        <ele>259.8</ele>
        <time>2022-05-26T12:31:53Z</time>
      </trkpt>
      <trkpt lat="43.32097" lon="6.18536">
        <ele>259.8</ele>
        <time>2022-05-26T12:31:54Z</time>
      </trkpt>
      <trkpt lat="43.3208" lon="6.18549">
        <ele>259.8</ele>
        <time>2022-05-26T12:31:57Z</time>
      </trkpt>
      <trkpt lat="43.32075" lon="6.18552">
        <ele>259.8</ele>
        <time>2022-05-26T12:31:58Z</time>
      </trkpt>
      <trkpt lat="43.32057" lon="6.18558">
        <ele>259.8</ele>
        <time>2022-05-26T12:32:01Z</time>
      </trkpt>
      <trkpt lat="43.32051" lon="6.18559">
        <ele>259.8</ele>
        <time>2022-05-26T12:32:02Z</time>
      </trkpt>
      <trkpt lat="43.32014" lon="6.18566">
        <ele>260</ele>
        <time>2022-05-26T12:32:09Z</time>
      </trkpt>
      <trkpt lat="43.31992" lon="6.18585">
        <ele>260.4</ele>
        <time>2022-05-26T12:32:15Z</time>
      </trkpt>
      <trkpt lat="43.31984" lon="6.18592">
        <ele>260.4</ele>
        <time>2022-05-26T12:32:17Z</time>
      </trkpt>
      <trkpt lat="43.3197" lon="6.1861">
        <ele>260.4</ele>
        <time>2022-05-26T12:32:21Z</time>
      </trkpt>
      <trkpt lat="43.31946" lon="6.18639">
        <ele>260</ele>
        <time>2022-05-26T12:32:26Z</time>
      </trkpt>
      <trkpt lat="43.31927" lon="6.18661">
        <ele>259.4</ele>
        <time>2022-05-26T12:32:29Z</time>
      </trkpt>
      <trkpt lat="43.31912" lon="6.18674">
        <ele>259</ele>
        <time>2022-05-26T12:32:31Z</time>
      </trkpt>
      <trkpt lat="43.31896" lon="6.18686">
        <ele>258.2</ele>
        <time>2022-05-26T12:32:33Z</time>
      </trkpt>
      <trkpt lat="43.3188" lon="6.18693">
        <ele>257.4</ele>
        <time>2022-05-26T12:32:35Z</time>
      </trkpt>
      <trkpt lat="43.31871" lon="6.18696">
        <ele>257</ele>
        <time>2022-05-26T12:32:36Z</time>
      </trkpt>
      <trkpt lat="43.31843" lon="6.18702">
        <ele>256</ele>
        <time>2022-05-26T12:32:39Z</time>
      </trkpt>
      <trkpt lat="43.31835" lon="6.18704">
        <ele>255.6</ele>
        <time>2022-05-26T12:32:40Z</time>
      </trkpt>
      <trkpt lat="43.31802" lon="6.18709">
        <ele>255</ele>
        <time>2022-05-26T12:32:44Z</time>
      </trkpt>
      <trkpt lat="43.31778" lon="6.18711">
        <ele>254.6</ele>
        <time>2022-05-26T12:32:47Z</time>
      </trkpt>
      <trkpt lat="43.3177" lon="6.1871">
        <ele>254.4</ele>
        <time>2022-05-26T12:32:48Z</time>
      </trkpt>
      <trkpt lat="43.31733" lon="6.18699">
        <ele>254.2</ele>
        <time>2022-05-26T12:32:53Z</time>
      </trkpt>
      <trkpt lat="43.31719" lon="6.18695">
        <ele>254.2</ele>
        <time>2022-05-26T12:32:55Z</time>
      </trkpt>
      <trkpt lat="43.31703" lon="6.18697">
        <ele>254</ele>
        <time>2022-05-26T12:32:57Z</time>
      </trkpt>
      <trkpt lat="43.31695" lon="6.187">
        <ele>254</ele>
        <time>2022-05-26T12:32:58Z</time>
      </trkpt>
      <trkpt lat="43.31682" lon="6.18708">
        <ele>253.6</ele>
        <time>2022-05-26T12:33:00Z</time>
      </trkpt>
      <trkpt lat="43.31674" lon="6.18713">
        <ele>253.6</ele>
        <time>2022-05-26T12:33:01Z</time>
      </trkpt>
      <trkpt lat="43.31666" lon="6.18718">
        <ele>253.6</ele>
        <time>2022-05-26T12:33:02Z</time>
      </trkpt>
      <trkpt lat="43.31625" lon="6.18735">
        <ele>252.8</ele>
        <time>2022-05-26T12:33:07Z</time>
      </trkpt>
      <trkpt lat="43.31599" lon="6.18738">
        <ele>252.4</ele>
        <time>2022-05-26T12:33:10Z</time>
      </trkpt>
      <trkpt lat="43.31591" lon="6.18738">
        <ele>252.4</ele>
        <time>2022-05-26T12:33:11Z</time>
      </trkpt>
      <trkpt lat="43.31553" lon="6.18725">
        <ele>252.2</ele>
        <time>2022-05-26T12:33:16Z</time>
      </trkpt>
      <trkpt lat="43.31519" lon="6.18713">
        <ele>252.4</ele>
        <time>2022-05-26T12:33:21Z</time>
      </trkpt>
      <trkpt lat="43.31505" lon="6.18712">
        <ele>252.6</ele>
        <time>2022-05-26T12:33:23Z</time>
      </trkpt>
      <trkpt lat="43.31485" lon="6.18716">
        <ele>253</ele>
        <time>2022-05-26T12:33:26Z</time>
      </trkpt>
      <trkpt lat="43.31478" lon="6.18717">
        <ele>253.2</ele>
        <time>2022-05-26T12:33:27Z</time>
      </trkpt>
      <trkpt lat="43.31463" lon="6.18717">
        <ele>253.2</ele>
        <time>2022-05-26T12:33:29Z</time>
      </trkpt>
      <trkpt lat="43.31445" lon="6.18713">
        <ele>253.2</ele>
        <time>2022-05-26T12:33:31Z</time>
      </trkpt>
      <trkpt lat="43.31423" lon="6.187">
        <ele>252.8</ele>
        <time>2022-05-26T12:33:34Z</time>
      </trkpt>
      <trkpt lat="43.31416" lon="6.18694">
        <ele>252.6</ele>
        <time>2022-05-26T12:33:35Z</time>
      </trkpt>
      <trkpt lat="43.3141" lon="6.18687">
        <ele>252.2</ele>
        <time>2022-05-26T12:33:36Z</time>
      </trkpt>
      <trkpt lat="43.31404" lon="6.18679">
        <ele>251.8</ele>
        <time>2022-05-26T12:33:37Z</time>
      </trkpt>
      <trkpt lat="43.31393" lon="6.18662">
        <ele>251.6</ele>
        <time>2022-05-26T12:33:39Z</time>
      </trkpt>
      <trkpt lat="43.31366" lon="6.18634">
        <ele>251</ele>
        <time>2022-05-26T12:33:43Z</time>
      </trkpt>
      <trkpt lat="43.31349" lon="6.18628">
        <ele>250.8</ele>
        <time>2022-05-26T12:33:45Z</time>
      </trkpt>
      <trkpt lat="43.3134" lon="6.18629">
        <ele>250.6</ele>
        <time>2022-05-26T12:33:46Z</time>
      </trkpt>
      <trkpt lat="43.31331" lon="6.18633">
        <ele>250.4</ele>
        <time>2022-05-26T12:33:47Z</time>
      </trkpt>
      <trkpt lat="43.31303" lon="6.18646">
        <ele>250</ele>
        <time>2022-05-26T12:33:50Z</time>
      </trkpt>
      <trkpt lat="43.31294" lon="6.1865">
        <ele>249.2</ele>
        <time>2022-05-26T12:33:51Z</time>
      </trkpt>
      <trkpt lat="43.31267" lon="6.18667">
        <ele>248.2</ele>
        <time>2022-05-26T12:33:54Z</time>
      </trkpt>
      <trkpt lat="43.31261" lon="6.18673">
        <ele>248.2</ele>
        <time>2022-05-26T12:33:55Z</time>
      </trkpt>
      <trkpt lat="43.31244" lon="6.18694">
        <ele>247.4</ele>
        <time>2022-05-26T12:33:57Z</time>
      </trkpt>
      <trkpt lat="43.31231" lon="6.18716">
        <ele>247</ele>
        <time>2022-05-26T12:33:59Z</time>
      </trkpt>
      <trkpt lat="43.31226" lon="6.18725">
        <ele>246.8</ele>
        <time>2022-05-26T12:34:00Z</time>
      </trkpt>
      <trkpt lat="43.31208" lon="6.18744">
        <ele>246.2</ele>
        <time>2022-05-26T12:34:02Z</time>
      </trkpt>
      <trkpt lat="43.31199" lon="6.1875">
        <ele>245.8</ele>
        <time>2022-05-26T12:34:03Z</time>
      </trkpt>
      <trkpt lat="43.3119" lon="6.18755">
        <ele>245.6</ele>
        <time>2022-05-26T12:34:04Z</time>
      </trkpt>
      <trkpt lat="43.31172" lon="6.18761">
        <ele>244.8</ele>
        <time>2022-05-26T12:34:06Z</time>
      </trkpt>
      <trkpt lat="43.31163" lon="6.18763">
        <ele>244.8</ele>
        <time>2022-05-26T12:34:07Z</time>
      </trkpt>
      <trkpt lat="43.31136" lon="6.18769">
        <ele>244</ele>
        <time>2022-05-26T12:34:10Z</time>
      </trkpt>
      <trkpt lat="43.31127" lon="6.1877">
        <ele>243.6</ele>
        <time>2022-05-26T12:34:11Z</time>
      </trkpt>
      <trkpt lat="43.31095" lon="6.18774">
        <ele>243</ele>
        <time>2022-05-26T12:34:15Z</time>
      </trkpt>
      <trkpt lat="43.3107" lon="6.18772">
        <ele>243</ele>
        <time>2022-05-26T12:34:18Z</time>
      </trkpt>
      <trkpt lat="43.31057" lon="6.18764">
        <ele>242.8</ele>
        <time>2022-05-26T12:34:20Z</time>
      </trkpt>
      <trkpt lat="43.31046" lon="6.18754">
        <ele>242.8</ele>
        <time>2022-05-26T12:34:22Z</time>
      </trkpt>
      <trkpt lat="43.31039" lon="6.18739">
        <ele>243</ele>
        <time>2022-05-26T12:34:24Z</time>
      </trkpt>
      <trkpt lat="43.31035" lon="6.18711">
        <ele>242.6</ele>
        <time>2022-05-26T12:34:28Z</time>
      </trkpt>
      <trkpt lat="43.31034" lon="6.18704">
        <ele>242.6</ele>
        <time>2022-05-26T12:34:29Z</time>
      </trkpt>
      <trkpt lat="43.31034" lon="6.18699">
        <ele>242.4</ele>
        <time>2022-05-26T12:34:30Z</time>
      </trkpt>
      <trkpt lat="43.31034" lon="6.1868">
        <ele>242.4</ele>
        <time>2022-05-26T12:34:33Z</time>
      </trkpt>
      <trkpt lat="43.31037" lon="6.1867">
        <ele>242.4</ele>
        <time>2022-05-26T12:34:35Z</time>
      </trkpt>
      <trkpt lat="43.31042" lon="6.18665">
        <ele>242.2</ele>
        <time>2022-05-26T12:34:37Z</time>
      </trkpt>
      <trkpt lat="43.31043" lon="6.18664">
        <ele>242.2</ele>
        <time>2022-05-26T12:34:38Z</time>
      </trkpt>
      <trkpt lat="43.31043" lon="6.18664">
        <ele>242.2</ele>
        <time>2022-05-26T12:34:39Z</time>
      </trkpt>
    </trkseg>
  </trk>
</gpx>